<?xml version="1.0" encoding="UTF-8" standalone="no" ?>
<gpx xmlns="http://www.topografix.com/GPX/1/1" xmlns:xsi="http://www.w3.org/2001/XMLSchema-instance" xsi:schemaLocation="http://www.topografix.com/GPX/1/1 http://www.topografix.com/GPX/1/1/gpx.xsd" version="1.1" creator="VisuGPX - https://www.visugpx.com">
  <metadata>
    <name>VTT Osselle</name>
    <desc><![CDATA[Belle ballade variée et roulante à la portée du plus grand nombre ]]></desc>
  </metadata>
  <trk>
    <name><![CDATA[VTT Osselle_1]]></name>
    <trkseg>
      <trkpt lat="47.16621" lon="5.8446">
        <ele>224.6</ele>
        <time>2024-05-28T10:35:44Z</time>
      </trkpt>
      <trkpt lat="47.16621" lon="5.84459">
        <ele>219.6</ele>
        <time>2024-05-28T10:35:52Z</time>
      </trkpt>
      <trkpt lat="47.16621" lon="5.84459">
        <ele>220.6</ele>
        <time>2024-05-28T10:35:53Z</time>
      </trkpt>
      <trkpt lat="47.16621" lon="5.84459">
        <ele>221.2</ele>
        <time>2024-05-28T10:35:54Z</time>
      </trkpt>
      <trkpt lat="47.1662" lon="5.84454">
        <ele>221.2</ele>
        <time>2024-05-28T10:36:07Z</time>
      </trkpt>
      <trkpt lat="47.1662" lon="5.84446">
        <ele>221.2</ele>
        <time>2024-05-28T10:36:10Z</time>
      </trkpt>
      <trkpt lat="47.16623" lon="5.84426">
        <ele>221.4</ele>
        <time>2024-05-28T10:36:16Z</time>
      </trkpt>
      <trkpt lat="47.16626" lon="5.84409">
        <ele>221.4</ele>
        <time>2024-05-28T10:36:20Z</time>
      </trkpt>
      <trkpt lat="47.16629" lon="5.84388">
        <ele>221.8</ele>
        <time>2024-05-28T10:36:25Z</time>
      </trkpt>
      <trkpt lat="47.16634" lon="5.84366">
        <ele>222.2</ele>
        <time>2024-05-28T10:36:30Z</time>
      </trkpt>
      <trkpt lat="47.16634" lon="5.84361">
        <ele>222.2</ele>
        <time>2024-05-28T10:36:31Z</time>
      </trkpt>
      <trkpt lat="47.16638" lon="5.84341">
        <ele>222.4</ele>
        <time>2024-05-28T10:36:36Z</time>
      </trkpt>
      <trkpt lat="47.16638" lon="5.84339">
        <ele>222.4</ele>
        <time>2024-05-28T10:36:37Z</time>
      </trkpt>
      <trkpt lat="47.16638" lon="5.84338">
        <ele>222.4</ele>
        <time>2024-05-28T10:36:38Z</time>
      </trkpt>
      <trkpt lat="47.16638" lon="5.84337">
        <ele>222.4</ele>
        <time>2024-05-28T10:36:39Z</time>
      </trkpt>
      <trkpt lat="47.16638" lon="5.84337">
        <ele>222.4</ele>
        <time>2024-05-28T10:36:40Z</time>
      </trkpt>
      <trkpt lat="47.16639" lon="5.84338">
        <ele>222.2</ele>
        <time>2024-05-28T10:36:56Z</time>
      </trkpt>
      <trkpt lat="47.16642" lon="5.84323">
        <ele>222.2</ele>
        <time>2024-05-28T10:37:01Z</time>
      </trkpt>
      <trkpt lat="47.16647" lon="5.84293">
        <ele>222</ele>
        <time>2024-05-28T10:37:07Z</time>
      </trkpt>
      <trkpt lat="47.16649" lon="5.84277">
        <ele>222</ele>
        <time>2024-05-28T10:37:10Z</time>
      </trkpt>
      <trkpt lat="47.16652" lon="5.84257">
        <ele>222</ele>
        <time>2024-05-28T10:37:14Z</time>
      </trkpt>
      <trkpt lat="47.16657" lon="5.84214">
        <ele>222.4</ele>
        <time>2024-05-28T10:37:22Z</time>
      </trkpt>
      <trkpt lat="47.16668" lon="5.84175">
        <ele>222.8</ele>
        <time>2024-05-28T10:37:30Z</time>
      </trkpt>
      <trkpt lat="47.1667" lon="5.84171">
        <ele>222.8</ele>
        <time>2024-05-28T10:37:31Z</time>
      </trkpt>
      <trkpt lat="47.16671" lon="5.84166">
        <ele>222.8</ele>
        <time>2024-05-28T10:37:32Z</time>
      </trkpt>
      <trkpt lat="47.16671" lon="5.84161">
        <ele>222.8</ele>
        <time>2024-05-28T10:37:33Z</time>
      </trkpt>
      <trkpt lat="47.16672" lon="5.84157">
        <ele>222.8</ele>
        <time>2024-05-28T10:37:34Z</time>
      </trkpt>
      <trkpt lat="47.16673" lon="5.84153">
        <ele>222.8</ele>
        <time>2024-05-28T10:37:35Z</time>
      </trkpt>
      <trkpt lat="47.16674" lon="5.84148">
        <ele>222.8</ele>
        <time>2024-05-28T10:37:36Z</time>
      </trkpt>
      <trkpt lat="47.16675" lon="5.84144">
        <ele>222.8</ele>
        <time>2024-05-28T10:37:37Z</time>
      </trkpt>
      <trkpt lat="47.16676" lon="5.84139">
        <ele>222.8</ele>
        <time>2024-05-28T10:37:38Z</time>
      </trkpt>
      <trkpt lat="47.16677" lon="5.84134">
        <ele>223</ele>
        <time>2024-05-28T10:37:39Z</time>
      </trkpt>
      <trkpt lat="47.16678" lon="5.84129">
        <ele>223</ele>
        <time>2024-05-28T10:37:40Z</time>
      </trkpt>
      <trkpt lat="47.16685" lon="5.84096">
        <ele>223</ele>
        <time>2024-05-28T10:37:46Z</time>
      </trkpt>
      <trkpt lat="47.16693" lon="5.84042">
        <ele>222.6</ele>
        <time>2024-05-28T10:37:54Z</time>
      </trkpt>
      <trkpt lat="47.16702" lon="5.83987">
        <ele>222.4</ele>
        <time>2024-05-28T10:38:02Z</time>
      </trkpt>
      <trkpt lat="47.16703" lon="5.8398">
        <ele>222.4</ele>
        <time>2024-05-28T10:38:03Z</time>
      </trkpt>
      <trkpt lat="47.16716" lon="5.8391">
        <ele>222</ele>
        <time>2024-05-28T10:38:13Z</time>
      </trkpt>
      <trkpt lat="47.1672" lon="5.8389">
        <ele>222.2</ele>
        <time>2024-05-28T10:38:16Z</time>
      </trkpt>
      <trkpt lat="47.16725" lon="5.83855">
        <ele>222.2</ele>
        <time>2024-05-28T10:38:21Z</time>
      </trkpt>
      <trkpt lat="47.16735" lon="5.83791">
        <ele>222</ele>
        <time>2024-05-28T10:38:30Z</time>
      </trkpt>
      <trkpt lat="47.16741" lon="5.83719">
        <ele>222</ele>
        <time>2024-05-28T10:38:41Z</time>
      </trkpt>
      <trkpt lat="47.16742" lon="5.83699">
        <ele>222</ele>
        <time>2024-05-28T10:38:44Z</time>
      </trkpt>
      <trkpt lat="47.16742" lon="5.83693">
        <ele>222</ele>
        <time>2024-05-28T10:38:45Z</time>
      </trkpt>
      <trkpt lat="47.16743" lon="5.83688">
        <ele>222</ele>
        <time>2024-05-28T10:38:46Z</time>
      </trkpt>
      <trkpt lat="47.16743" lon="5.83682">
        <ele>222</ele>
        <time>2024-05-28T10:38:47Z</time>
      </trkpt>
      <trkpt lat="47.16744" lon="5.83678">
        <ele>222.2</ele>
        <time>2024-05-28T10:38:48Z</time>
      </trkpt>
      <trkpt lat="47.16746" lon="5.83674">
        <ele>222.2</ele>
        <time>2024-05-28T10:38:49Z</time>
      </trkpt>
      <trkpt lat="47.16746" lon="5.83671">
        <ele>222.4</ele>
        <time>2024-05-28T10:38:50Z</time>
      </trkpt>
      <trkpt lat="47.16747" lon="5.83669">
        <ele>222.6</ele>
        <time>2024-05-28T10:38:51Z</time>
      </trkpt>
      <trkpt lat="47.16747" lon="5.83666">
        <ele>222.6</ele>
        <time>2024-05-28T10:38:52Z</time>
      </trkpt>
      <trkpt lat="47.16747" lon="5.83663">
        <ele>222.6</ele>
        <time>2024-05-28T10:38:53Z</time>
      </trkpt>
      <trkpt lat="47.16748" lon="5.83653">
        <ele>222.2</ele>
        <time>2024-05-28T10:38:57Z</time>
      </trkpt>
      <trkpt lat="47.16749" lon="5.83651">
        <ele>222.2</ele>
        <time>2024-05-28T10:38:58Z</time>
      </trkpt>
      <trkpt lat="47.16751" lon="5.83649">
        <ele>222.2</ele>
        <time>2024-05-28T10:38:59Z</time>
      </trkpt>
      <trkpt lat="47.16753" lon="5.83648">
        <ele>222</ele>
        <time>2024-05-28T10:39:00Z</time>
      </trkpt>
      <trkpt lat="47.16758" lon="5.83642">
        <ele>222</ele>
        <time>2024-05-28T10:39:02Z</time>
      </trkpt>
      <trkpt lat="47.1676" lon="5.83638">
        <ele>222</ele>
        <time>2024-05-28T10:39:03Z</time>
      </trkpt>
      <trkpt lat="47.16772" lon="5.83618">
        <ele>221.8</ele>
        <time>2024-05-28T10:39:08Z</time>
      </trkpt>
      <trkpt lat="47.16779" lon="5.83593">
        <ele>221.8</ele>
        <time>2024-05-28T10:39:13Z</time>
      </trkpt>
      <trkpt lat="47.1678" lon="5.83589">
        <ele>221.8</ele>
        <time>2024-05-28T10:39:14Z</time>
      </trkpt>
      <trkpt lat="47.16786" lon="5.83579">
        <ele>222.2</ele>
        <time>2024-05-28T10:39:17Z</time>
      </trkpt>
      <trkpt lat="47.16789" lon="5.83579">
        <ele>222.2</ele>
        <time>2024-05-28T10:39:18Z</time>
      </trkpt>
      <trkpt lat="47.16791" lon="5.83581">
        <ele>222.2</ele>
        <time>2024-05-28T10:39:19Z</time>
      </trkpt>
      <trkpt lat="47.16793" lon="5.83583">
        <ele>222.2</ele>
        <time>2024-05-28T10:39:20Z</time>
      </trkpt>
      <trkpt lat="47.16795" lon="5.83585">
        <ele>222.2</ele>
        <time>2024-05-28T10:39:21Z</time>
      </trkpt>
      <trkpt lat="47.16796" lon="5.83587">
        <ele>222.6</ele>
        <time>2024-05-28T10:39:22Z</time>
      </trkpt>
      <trkpt lat="47.16797" lon="5.83588">
        <ele>222.8</ele>
        <time>2024-05-28T10:39:23Z</time>
      </trkpt>
      <trkpt lat="47.16798" lon="5.8359">
        <ele>223.4</ele>
        <time>2024-05-28T10:39:24Z</time>
      </trkpt>
      <trkpt lat="47.16798" lon="5.83592">
        <ele>223.6</ele>
        <time>2024-05-28T10:39:25Z</time>
      </trkpt>
      <trkpt lat="47.16799" lon="5.83594">
        <ele>224</ele>
        <time>2024-05-28T10:39:26Z</time>
      </trkpt>
      <trkpt lat="47.168" lon="5.83595">
        <ele>224.2</ele>
        <time>2024-05-28T10:39:27Z</time>
      </trkpt>
      <trkpt lat="47.168" lon="5.83596">
        <ele>224.8</ele>
        <time>2024-05-28T10:39:28Z</time>
      </trkpt>
      <trkpt lat="47.16802" lon="5.836">
        <ele>225.4</ele>
        <time>2024-05-28T10:39:30Z</time>
      </trkpt>
      <trkpt lat="47.16804" lon="5.83602">
        <ele>225.6</ele>
        <time>2024-05-28T10:39:31Z</time>
      </trkpt>
      <trkpt lat="47.16805" lon="5.83604">
        <ele>225.8</ele>
        <time>2024-05-28T10:39:32Z</time>
      </trkpt>
      <trkpt lat="47.16807" lon="5.83606">
        <ele>226.2</ele>
        <time>2024-05-28T10:39:33Z</time>
      </trkpt>
      <trkpt lat="47.16808" lon="5.83607">
        <ele>226.2</ele>
        <time>2024-05-28T10:39:34Z</time>
      </trkpt>
      <trkpt lat="47.16809" lon="5.83609">
        <ele>226.6</ele>
        <time>2024-05-28T10:39:35Z</time>
      </trkpt>
      <trkpt lat="47.1681" lon="5.83611">
        <ele>227</ele>
        <time>2024-05-28T10:39:36Z</time>
      </trkpt>
      <trkpt lat="47.16812" lon="5.83613">
        <ele>227.2</ele>
        <time>2024-05-28T10:39:37Z</time>
      </trkpt>
      <trkpt lat="47.16814" lon="5.83615">
        <ele>227.6</ele>
        <time>2024-05-28T10:39:38Z</time>
      </trkpt>
      <trkpt lat="47.16815" lon="5.83617">
        <ele>227.8</ele>
        <time>2024-05-28T10:39:39Z</time>
      </trkpt>
      <trkpt lat="47.16816" lon="5.83619">
        <ele>228</ele>
        <time>2024-05-28T10:39:40Z</time>
      </trkpt>
      <trkpt lat="47.16817" lon="5.83619">
        <ele>228.2</ele>
        <time>2024-05-28T10:39:41Z</time>
      </trkpt>
      <trkpt lat="47.16819" lon="5.83621">
        <ele>228.6</ele>
        <time>2024-05-28T10:39:42Z</time>
      </trkpt>
      <trkpt lat="47.1682" lon="5.83623">
        <ele>228.6</ele>
        <time>2024-05-28T10:39:43Z</time>
      </trkpt>
      <trkpt lat="47.16821" lon="5.83625">
        <ele>229</ele>
        <time>2024-05-28T10:39:44Z</time>
      </trkpt>
      <trkpt lat="47.16822" lon="5.83627">
        <ele>229.4</ele>
        <time>2024-05-28T10:39:45Z</time>
      </trkpt>
      <trkpt lat="47.16823" lon="5.83629">
        <ele>229.6</ele>
        <time>2024-05-28T10:39:46Z</time>
      </trkpt>
      <trkpt lat="47.16825" lon="5.8363">
        <ele>229.8</ele>
        <time>2024-05-28T10:39:47Z</time>
      </trkpt>
      <trkpt lat="47.16826" lon="5.83632">
        <ele>230.2</ele>
        <time>2024-05-28T10:39:48Z</time>
      </trkpt>
      <trkpt lat="47.16827" lon="5.83634">
        <ele>230.2</ele>
        <time>2024-05-28T10:39:49Z</time>
      </trkpt>
      <trkpt lat="47.16829" lon="5.83637">
        <ele>230.6</ele>
        <time>2024-05-28T10:39:50Z</time>
      </trkpt>
      <trkpt lat="47.16831" lon="5.83639">
        <ele>231</ele>
        <time>2024-05-28T10:39:51Z</time>
      </trkpt>
      <trkpt lat="47.16832" lon="5.83636">
        <ele>231.4</ele>
        <time>2024-05-28T10:39:52Z</time>
      </trkpt>
      <trkpt lat="47.16834" lon="5.83635">
        <ele>231.4</ele>
        <time>2024-05-28T10:39:53Z</time>
      </trkpt>
      <trkpt lat="47.16837" lon="5.83636">
        <ele>231.8</ele>
        <time>2024-05-28T10:39:54Z</time>
      </trkpt>
      <trkpt lat="47.16838" lon="5.83637">
        <ele>232.2</ele>
        <time>2024-05-28T10:39:55Z</time>
      </trkpt>
      <trkpt lat="47.16839" lon="5.83637">
        <ele>232.2</ele>
        <time>2024-05-28T10:39:56Z</time>
      </trkpt>
      <trkpt lat="47.16841" lon="5.83637">
        <ele>232.6</ele>
        <time>2024-05-28T10:39:57Z</time>
      </trkpt>
      <trkpt lat="47.16843" lon="5.83638">
        <ele>233</ele>
        <time>2024-05-28T10:39:58Z</time>
      </trkpt>
      <trkpt lat="47.16844" lon="5.83639">
        <ele>233.4</ele>
        <time>2024-05-28T10:39:59Z</time>
      </trkpt>
      <trkpt lat="47.16846" lon="5.8364">
        <ele>233.4</ele>
        <time>2024-05-28T10:40:00Z</time>
      </trkpt>
      <trkpt lat="47.16847" lon="5.8364">
        <ele>233.8</ele>
        <time>2024-05-28T10:40:01Z</time>
      </trkpt>
      <trkpt lat="47.16848" lon="5.8364">
        <ele>234</ele>
        <time>2024-05-28T10:40:02Z</time>
      </trkpt>
      <trkpt lat="47.1685" lon="5.83641">
        <ele>234.2</ele>
        <time>2024-05-28T10:40:03Z</time>
      </trkpt>
      <trkpt lat="47.16851" lon="5.83641">
        <ele>234.6</ele>
        <time>2024-05-28T10:40:04Z</time>
      </trkpt>
      <trkpt lat="47.16852" lon="5.83641">
        <ele>235</ele>
        <time>2024-05-28T10:40:05Z</time>
      </trkpt>
      <trkpt lat="47.16853" lon="5.83641">
        <ele>235.2</ele>
        <time>2024-05-28T10:40:06Z</time>
      </trkpt>
      <trkpt lat="47.16854" lon="5.83641">
        <ele>235.4</ele>
        <time>2024-05-28T10:40:07Z</time>
      </trkpt>
      <trkpt lat="47.16855" lon="5.83641">
        <ele>235.6</ele>
        <time>2024-05-28T10:40:08Z</time>
      </trkpt>
      <trkpt lat="47.16856" lon="5.83642">
        <ele>236</ele>
        <time>2024-05-28T10:40:09Z</time>
      </trkpt>
      <trkpt lat="47.16858" lon="5.83643">
        <ele>236</ele>
        <time>2024-05-28T10:40:10Z</time>
      </trkpt>
      <trkpt lat="47.16858" lon="5.83643">
        <ele>236.2</ele>
        <time>2024-05-28T10:40:11Z</time>
      </trkpt>
      <trkpt lat="47.16859" lon="5.83643">
        <ele>236.2</ele>
        <time>2024-05-28T10:40:12Z</time>
      </trkpt>
      <trkpt lat="47.1686" lon="5.83643">
        <ele>236.4</ele>
        <time>2024-05-28T10:40:13Z</time>
      </trkpt>
      <trkpt lat="47.1686" lon="5.83644">
        <ele>236.4</ele>
        <time>2024-05-28T10:40:14Z</time>
      </trkpt>
      <trkpt lat="47.16861" lon="5.83644">
        <ele>236.6</ele>
        <time>2024-05-28T10:40:15Z</time>
      </trkpt>
      <trkpt lat="47.16862" lon="5.83645">
        <ele>237</ele>
        <time>2024-05-28T10:40:16Z</time>
      </trkpt>
      <trkpt lat="47.16864" lon="5.83646">
        <ele>237</ele>
        <time>2024-05-28T10:40:17Z</time>
      </trkpt>
      <trkpt lat="47.16865" lon="5.83646">
        <ele>237.4</ele>
        <time>2024-05-28T10:40:18Z</time>
      </trkpt>
      <trkpt lat="47.16866" lon="5.83646">
        <ele>237.4</ele>
        <time>2024-05-28T10:40:19Z</time>
      </trkpt>
      <trkpt lat="47.16867" lon="5.83647">
        <ele>237.6</ele>
        <time>2024-05-28T10:40:20Z</time>
      </trkpt>
      <trkpt lat="47.16868" lon="5.83648">
        <ele>238</ele>
        <time>2024-05-28T10:40:21Z</time>
      </trkpt>
      <trkpt lat="47.1687" lon="5.83649">
        <ele>238.4</ele>
        <time>2024-05-28T10:40:22Z</time>
      </trkpt>
      <trkpt lat="47.16871" lon="5.8365">
        <ele>238.8</ele>
        <time>2024-05-28T10:40:23Z</time>
      </trkpt>
      <trkpt lat="47.16872" lon="5.83651">
        <ele>239</ele>
        <time>2024-05-28T10:40:24Z</time>
      </trkpt>
      <trkpt lat="47.16874" lon="5.8365">
        <ele>239.2</ele>
        <time>2024-05-28T10:40:25Z</time>
      </trkpt>
      <trkpt lat="47.16877" lon="5.83649">
        <ele>239.6</ele>
        <time>2024-05-28T10:40:26Z</time>
      </trkpt>
      <trkpt lat="47.16879" lon="5.83649">
        <ele>239.8</ele>
        <time>2024-05-28T10:40:27Z</time>
      </trkpt>
      <trkpt lat="47.16881" lon="5.83649">
        <ele>240.2</ele>
        <time>2024-05-28T10:40:28Z</time>
      </trkpt>
      <trkpt lat="47.16883" lon="5.8365">
        <ele>240.4</ele>
        <time>2024-05-28T10:40:29Z</time>
      </trkpt>
      <trkpt lat="47.16885" lon="5.83651">
        <ele>240.8</ele>
        <time>2024-05-28T10:40:30Z</time>
      </trkpt>
      <trkpt lat="47.16887" lon="5.8365">
        <ele>241</ele>
        <time>2024-05-28T10:40:31Z</time>
      </trkpt>
      <trkpt lat="47.16888" lon="5.8365">
        <ele>241.2</ele>
        <time>2024-05-28T10:40:32Z</time>
      </trkpt>
      <trkpt lat="47.16889" lon="5.83649">
        <ele>241.4</ele>
        <time>2024-05-28T10:40:33Z</time>
      </trkpt>
      <trkpt lat="47.16889" lon="5.83647">
        <ele>241.8</ele>
        <time>2024-05-28T10:40:34Z</time>
      </trkpt>
      <trkpt lat="47.16889" lon="5.83644">
        <ele>242.2</ele>
        <time>2024-05-28T10:40:35Z</time>
      </trkpt>
      <trkpt lat="47.1689" lon="5.83643">
        <ele>242</ele>
        <time>2024-05-28T10:40:36Z</time>
      </trkpt>
      <trkpt lat="47.1689" lon="5.83641">
        <ele>242.2</ele>
        <time>2024-05-28T10:40:37Z</time>
      </trkpt>
      <trkpt lat="47.16889" lon="5.83639">
        <ele>242.2</ele>
        <time>2024-05-28T10:40:38Z</time>
      </trkpt>
      <trkpt lat="47.16888" lon="5.83637">
        <ele>242.6</ele>
        <time>2024-05-28T10:40:39Z</time>
      </trkpt>
      <trkpt lat="47.16888" lon="5.83635">
        <ele>242.4</ele>
        <time>2024-05-28T10:40:40Z</time>
      </trkpt>
      <trkpt lat="47.16888" lon="5.83634">
        <ele>242.6</ele>
        <time>2024-05-28T10:40:41Z</time>
      </trkpt>
      <trkpt lat="47.16888" lon="5.83633">
        <ele>242.4</ele>
        <time>2024-05-28T10:40:42Z</time>
      </trkpt>
      <trkpt lat="47.16889" lon="5.83631">
        <ele>242.4</ele>
        <time>2024-05-28T10:40:43Z</time>
      </trkpt>
      <trkpt lat="47.1689" lon="5.83629">
        <ele>242.6</ele>
        <time>2024-05-28T10:40:44Z</time>
      </trkpt>
      <trkpt lat="47.1689" lon="5.83627">
        <ele>242.6</ele>
        <time>2024-05-28T10:40:45Z</time>
      </trkpt>
      <trkpt lat="47.16891" lon="5.83626">
        <ele>242.6</ele>
        <time>2024-05-28T10:40:46Z</time>
      </trkpt>
      <trkpt lat="47.16891" lon="5.83625">
        <ele>242.8</ele>
        <time>2024-05-28T10:40:47Z</time>
      </trkpt>
      <trkpt lat="47.16892" lon="5.83623">
        <ele>243</ele>
        <time>2024-05-28T10:40:48Z</time>
      </trkpt>
      <trkpt lat="47.16892" lon="5.83621">
        <ele>243.2</ele>
        <time>2024-05-28T10:40:49Z</time>
      </trkpt>
      <trkpt lat="47.16892" lon="5.8362">
        <ele>243.2</ele>
        <time>2024-05-28T10:40:50Z</time>
      </trkpt>
      <trkpt lat="47.16893" lon="5.83618">
        <ele>243.4</ele>
        <time>2024-05-28T10:40:51Z</time>
      </trkpt>
      <trkpt lat="47.16893" lon="5.83617">
        <ele>243.6</ele>
        <time>2024-05-28T10:40:52Z</time>
      </trkpt>
      <trkpt lat="47.16894" lon="5.83615">
        <ele>243.8</ele>
        <time>2024-05-28T10:40:53Z</time>
      </trkpt>
      <trkpt lat="47.16894" lon="5.83614">
        <ele>243.8</ele>
        <time>2024-05-28T10:40:54Z</time>
      </trkpt>
      <trkpt lat="47.16894" lon="5.83613">
        <ele>244.2</ele>
        <time>2024-05-28T10:40:55Z</time>
      </trkpt>
      <trkpt lat="47.16894" lon="5.83611">
        <ele>244.2</ele>
        <time>2024-05-28T10:40:56Z</time>
      </trkpt>
      <trkpt lat="47.16894" lon="5.8361">
        <ele>244.4</ele>
        <time>2024-05-28T10:40:57Z</time>
      </trkpt>
      <trkpt lat="47.16895" lon="5.83608">
        <ele>244.6</ele>
        <time>2024-05-28T10:40:58Z</time>
      </trkpt>
      <trkpt lat="47.16896" lon="5.83607">
        <ele>244.6</ele>
        <time>2024-05-28T10:40:59Z</time>
      </trkpt>
      <trkpt lat="47.16897" lon="5.83605">
        <ele>244.8</ele>
        <time>2024-05-28T10:41:00Z</time>
      </trkpt>
      <trkpt lat="47.16897" lon="5.83604">
        <ele>244.8</ele>
        <time>2024-05-28T10:41:01Z</time>
      </trkpt>
      <trkpt lat="47.16898" lon="5.83602">
        <ele>245.2</ele>
        <time>2024-05-28T10:41:02Z</time>
      </trkpt>
      <trkpt lat="47.16899" lon="5.83601">
        <ele>245.4</ele>
        <time>2024-05-28T10:41:03Z</time>
      </trkpt>
      <trkpt lat="47.169" lon="5.83599">
        <ele>245.6</ele>
        <time>2024-05-28T10:41:04Z</time>
      </trkpt>
      <trkpt lat="47.16901" lon="5.83597">
        <ele>245.8</ele>
        <time>2024-05-28T10:41:05Z</time>
      </trkpt>
      <trkpt lat="47.16901" lon="5.83595">
        <ele>245.8</ele>
        <time>2024-05-28T10:41:06Z</time>
      </trkpt>
      <trkpt lat="47.16903" lon="5.83593">
        <ele>246</ele>
        <time>2024-05-28T10:41:07Z</time>
      </trkpt>
      <trkpt lat="47.16903" lon="5.83591">
        <ele>246</ele>
        <time>2024-05-28T10:41:08Z</time>
      </trkpt>
      <trkpt lat="47.16905" lon="5.8359">
        <ele>246</ele>
        <time>2024-05-28T10:41:09Z</time>
      </trkpt>
      <trkpt lat="47.16907" lon="5.83588">
        <ele>246.2</ele>
        <time>2024-05-28T10:41:10Z</time>
      </trkpt>
      <trkpt lat="47.16906" lon="5.83586">
        <ele>246.2</ele>
        <time>2024-05-28T10:41:11Z</time>
      </trkpt>
      <trkpt lat="47.16907" lon="5.83584">
        <ele>246.6</ele>
        <time>2024-05-28T10:41:12Z</time>
      </trkpt>
      <trkpt lat="47.16908" lon="5.83582">
        <ele>246.8</ele>
        <time>2024-05-28T10:41:13Z</time>
      </trkpt>
      <trkpt lat="47.16909" lon="5.8358">
        <ele>247.2</ele>
        <time>2024-05-28T10:41:14Z</time>
      </trkpt>
      <trkpt lat="47.16909" lon="5.83579">
        <ele>247.2</ele>
        <time>2024-05-28T10:41:15Z</time>
      </trkpt>
      <trkpt lat="47.1691" lon="5.83576">
        <ele>247.4</ele>
        <time>2024-05-28T10:41:16Z</time>
      </trkpt>
      <trkpt lat="47.16911" lon="5.83574">
        <ele>247.6</ele>
        <time>2024-05-28T10:41:17Z</time>
      </trkpt>
      <trkpt lat="47.16911" lon="5.83572">
        <ele>247.8</ele>
        <time>2024-05-28T10:41:18Z</time>
      </trkpt>
      <trkpt lat="47.16912" lon="5.8357">
        <ele>247.8</ele>
        <time>2024-05-28T10:41:19Z</time>
      </trkpt>
      <trkpt lat="47.16912" lon="5.83568">
        <ele>248</ele>
        <time>2024-05-28T10:41:20Z</time>
      </trkpt>
      <trkpt lat="47.16912" lon="5.83568">
        <ele>248</ele>
        <time>2024-05-28T10:41:21Z</time>
      </trkpt>
      <trkpt lat="47.16912" lon="5.83567">
        <ele>248</ele>
        <time>2024-05-28T10:41:22Z</time>
      </trkpt>
      <trkpt lat="47.16912" lon="5.83566">
        <ele>248.2</ele>
        <time>2024-05-28T10:41:23Z</time>
      </trkpt>
      <trkpt lat="47.16913" lon="5.83566">
        <ele>248.2</ele>
        <time>2024-05-28T10:41:24Z</time>
      </trkpt>
      <trkpt lat="47.16913" lon="5.83565">
        <ele>248.4</ele>
        <time>2024-05-28T10:41:25Z</time>
      </trkpt>
      <trkpt lat="47.16914" lon="5.83564">
        <ele>248.2</ele>
        <time>2024-05-28T10:41:26Z</time>
      </trkpt>
      <trkpt lat="47.16915" lon="5.83563">
        <ele>248.2</ele>
        <time>2024-05-28T10:41:27Z</time>
      </trkpt>
      <trkpt lat="47.16916" lon="5.8356">
        <ele>248.4</ele>
        <time>2024-05-28T10:41:28Z</time>
      </trkpt>
      <trkpt lat="47.16917" lon="5.83559">
        <ele>248.4</ele>
        <time>2024-05-28T10:41:29Z</time>
      </trkpt>
      <trkpt lat="47.16918" lon="5.83557">
        <ele>248.4</ele>
        <time>2024-05-28T10:41:30Z</time>
      </trkpt>
      <trkpt lat="47.16918" lon="5.83556">
        <ele>248.4</ele>
        <time>2024-05-28T10:41:31Z</time>
      </trkpt>
      <trkpt lat="47.16919" lon="5.83554">
        <ele>248.4</ele>
        <time>2024-05-28T10:41:32Z</time>
      </trkpt>
      <trkpt lat="47.1692" lon="5.83553">
        <ele>248.6</ele>
        <time>2024-05-28T10:41:33Z</time>
      </trkpt>
      <trkpt lat="47.16921" lon="5.83552">
        <ele>248.6</ele>
        <time>2024-05-28T10:41:34Z</time>
      </trkpt>
      <trkpt lat="47.16922" lon="5.8355">
        <ele>248.6</ele>
        <time>2024-05-28T10:41:35Z</time>
      </trkpt>
      <trkpt lat="47.16922" lon="5.83548">
        <ele>248.8</ele>
        <time>2024-05-28T10:41:36Z</time>
      </trkpt>
      <trkpt lat="47.16923" lon="5.83546">
        <ele>248.8</ele>
        <time>2024-05-28T10:41:37Z</time>
      </trkpt>
      <trkpt lat="47.16923" lon="5.83546">
        <ele>249</ele>
        <time>2024-05-28T10:41:38Z</time>
      </trkpt>
      <trkpt lat="47.16924" lon="5.83545">
        <ele>249</ele>
        <time>2024-05-28T10:41:39Z</time>
      </trkpt>
      <trkpt lat="47.16924" lon="5.83543">
        <ele>249.2</ele>
        <time>2024-05-28T10:41:40Z</time>
      </trkpt>
      <trkpt lat="47.16924" lon="5.83542">
        <ele>249.4</ele>
        <time>2024-05-28T10:41:41Z</time>
      </trkpt>
      <trkpt lat="47.16925" lon="5.8354">
        <ele>249.6</ele>
        <time>2024-05-28T10:41:42Z</time>
      </trkpt>
      <trkpt lat="47.16926" lon="5.83533">
        <ele>250</ele>
        <time>2024-05-28T10:41:45Z</time>
      </trkpt>
      <trkpt lat="47.16926" lon="5.83531">
        <ele>250</ele>
        <time>2024-05-28T10:41:46Z</time>
      </trkpt>
      <trkpt lat="47.16927" lon="5.83528">
        <ele>250.2</ele>
        <time>2024-05-28T10:41:47Z</time>
      </trkpt>
      <trkpt lat="47.16929" lon="5.83524">
        <ele>250.2</ele>
        <time>2024-05-28T10:41:49Z</time>
      </trkpt>
      <trkpt lat="47.1693" lon="5.83522">
        <ele>250.2</ele>
        <time>2024-05-28T10:41:50Z</time>
      </trkpt>
      <trkpt lat="47.1693" lon="5.8352">
        <ele>250.4</ele>
        <time>2024-05-28T10:41:51Z</time>
      </trkpt>
      <trkpt lat="47.16931" lon="5.83518">
        <ele>250.4</ele>
        <time>2024-05-28T10:41:52Z</time>
      </trkpt>
      <trkpt lat="47.16931" lon="5.83515">
        <ele>250.4</ele>
        <time>2024-05-28T10:41:53Z</time>
      </trkpt>
      <trkpt lat="47.16932" lon="5.83513">
        <ele>250.4</ele>
        <time>2024-05-28T10:41:54Z</time>
      </trkpt>
      <trkpt lat="47.16933" lon="5.8351">
        <ele>250.4</ele>
        <time>2024-05-28T10:41:55Z</time>
      </trkpt>
      <trkpt lat="47.16935" lon="5.83506">
        <ele>250.6</ele>
        <time>2024-05-28T10:41:57Z</time>
      </trkpt>
      <trkpt lat="47.16936" lon="5.83499">
        <ele>250.6</ele>
        <time>2024-05-28T10:41:59Z</time>
      </trkpt>
      <trkpt lat="47.16937" lon="5.83496">
        <ele>250.6</ele>
        <time>2024-05-28T10:42:00Z</time>
      </trkpt>
      <trkpt lat="47.16938" lon="5.83494">
        <ele>250.8</ele>
        <time>2024-05-28T10:42:01Z</time>
      </trkpt>
      <trkpt lat="47.16938" lon="5.83491">
        <ele>250.8</ele>
        <time>2024-05-28T10:42:02Z</time>
      </trkpt>
      <trkpt lat="47.16942" lon="5.83484">
        <ele>250.8</ele>
        <time>2024-05-28T10:42:06Z</time>
      </trkpt>
      <trkpt lat="47.16944" lon="5.83482">
        <ele>250.8</ele>
        <time>2024-05-28T10:42:07Z</time>
      </trkpt>
      <trkpt lat="47.16945" lon="5.8348">
        <ele>250.6</ele>
        <time>2024-05-28T10:42:08Z</time>
      </trkpt>
      <trkpt lat="47.16947" lon="5.83474">
        <ele>251</ele>
        <time>2024-05-28T10:42:12Z</time>
      </trkpt>
      <trkpt lat="47.16947" lon="5.83473">
        <ele>251</ele>
        <time>2024-05-28T10:42:13Z</time>
      </trkpt>
      <trkpt lat="47.16948" lon="5.8347">
        <ele>251</ele>
        <time>2024-05-28T10:42:14Z</time>
      </trkpt>
      <trkpt lat="47.16949" lon="5.83468">
        <ele>251</ele>
        <time>2024-05-28T10:42:15Z</time>
      </trkpt>
      <trkpt lat="47.1695" lon="5.83467">
        <ele>251</ele>
        <time>2024-05-28T10:42:16Z</time>
      </trkpt>
      <trkpt lat="47.16952" lon="5.83462">
        <ele>251</ele>
        <time>2024-05-28T10:42:19Z</time>
      </trkpt>
      <trkpt lat="47.16954" lon="5.83458">
        <ele>251</ele>
        <time>2024-05-28T10:42:21Z</time>
      </trkpt>
      <trkpt lat="47.16955" lon="5.83457">
        <ele>251</ele>
        <time>2024-05-28T10:42:22Z</time>
      </trkpt>
      <trkpt lat="47.16958" lon="5.83449">
        <ele>251</ele>
        <time>2024-05-28T10:42:26Z</time>
      </trkpt>
      <trkpt lat="47.16959" lon="5.83448">
        <ele>250.8</ele>
        <time>2024-05-28T10:42:27Z</time>
      </trkpt>
      <trkpt lat="47.16961" lon="5.8344">
        <ele>250.8</ele>
        <time>2024-05-28T10:42:31Z</time>
      </trkpt>
      <trkpt lat="47.16962" lon="5.83438">
        <ele>250.8</ele>
        <time>2024-05-28T10:42:32Z</time>
      </trkpt>
      <trkpt lat="47.16963" lon="5.83436">
        <ele>251</ele>
        <time>2024-05-28T10:42:33Z</time>
      </trkpt>
      <trkpt lat="47.16964" lon="5.83434">
        <ele>251</ele>
        <time>2024-05-28T10:42:34Z</time>
      </trkpt>
      <trkpt lat="47.16966" lon="5.83433">
        <ele>251.2</ele>
        <time>2024-05-28T10:42:35Z</time>
      </trkpt>
      <trkpt lat="47.16966" lon="5.83429">
        <ele>251.4</ele>
        <time>2024-05-28T10:42:36Z</time>
      </trkpt>
      <trkpt lat="47.16967" lon="5.83427">
        <ele>251.4</ele>
        <time>2024-05-28T10:42:37Z</time>
      </trkpt>
      <trkpt lat="47.16968" lon="5.83424">
        <ele>251.6</ele>
        <time>2024-05-28T10:42:38Z</time>
      </trkpt>
      <trkpt lat="47.16969" lon="5.83422">
        <ele>251.6</ele>
        <time>2024-05-28T10:42:39Z</time>
      </trkpt>
      <trkpt lat="47.16969" lon="5.8342">
        <ele>251.8</ele>
        <time>2024-05-28T10:42:40Z</time>
      </trkpt>
      <trkpt lat="47.16974" lon="5.8341">
        <ele>252</ele>
        <time>2024-05-28T10:42:45Z</time>
      </trkpt>
      <trkpt lat="47.16975" lon="5.83408">
        <ele>252</ele>
        <time>2024-05-28T10:42:46Z</time>
      </trkpt>
      <trkpt lat="47.16976" lon="5.83403">
        <ele>252.4</ele>
        <time>2024-05-28T10:42:48Z</time>
      </trkpt>
      <trkpt lat="47.16977" lon="5.83399">
        <ele>252.6</ele>
        <time>2024-05-28T10:42:51Z</time>
      </trkpt>
      <trkpt lat="47.16977" lon="5.83398">
        <ele>252.8</ele>
        <time>2024-05-28T10:42:52Z</time>
      </trkpt>
      <trkpt lat="47.16977" lon="5.83396">
        <ele>253</ele>
        <time>2024-05-28T10:42:53Z</time>
      </trkpt>
      <trkpt lat="47.16978" lon="5.83395">
        <ele>253.2</ele>
        <time>2024-05-28T10:42:54Z</time>
      </trkpt>
      <trkpt lat="47.16978" lon="5.83394">
        <ele>253.4</ele>
        <time>2024-05-28T10:42:55Z</time>
      </trkpt>
      <trkpt lat="47.16979" lon="5.83392">
        <ele>253.4</ele>
        <time>2024-05-28T10:42:56Z</time>
      </trkpt>
      <trkpt lat="47.1698" lon="5.83391">
        <ele>253.6</ele>
        <time>2024-05-28T10:42:57Z</time>
      </trkpt>
      <trkpt lat="47.1698" lon="5.83389">
        <ele>253.8</ele>
        <time>2024-05-28T10:42:58Z</time>
      </trkpt>
      <trkpt lat="47.16981" lon="5.83387">
        <ele>254</ele>
        <time>2024-05-28T10:42:59Z</time>
      </trkpt>
      <trkpt lat="47.16982" lon="5.83386">
        <ele>254.2</ele>
        <time>2024-05-28T10:43:00Z</time>
      </trkpt>
      <trkpt lat="47.16982" lon="5.83384">
        <ele>254.2</ele>
        <time>2024-05-28T10:43:01Z</time>
      </trkpt>
      <trkpt lat="47.16983" lon="5.83382">
        <ele>254.4</ele>
        <time>2024-05-28T10:43:02Z</time>
      </trkpt>
      <trkpt lat="47.16983" lon="5.83381">
        <ele>254.6</ele>
        <time>2024-05-28T10:43:03Z</time>
      </trkpt>
      <trkpt lat="47.16984" lon="5.83379">
        <ele>254.8</ele>
        <time>2024-05-28T10:43:04Z</time>
      </trkpt>
      <trkpt lat="47.16984" lon="5.83378">
        <ele>254.8</ele>
        <time>2024-05-28T10:43:05Z</time>
      </trkpt>
      <trkpt lat="47.16985" lon="5.83377">
        <ele>255</ele>
        <time>2024-05-28T10:43:06Z</time>
      </trkpt>
      <trkpt lat="47.16986" lon="5.83375">
        <ele>254.8</ele>
        <time>2024-05-28T10:43:07Z</time>
      </trkpt>
      <trkpt lat="47.16987" lon="5.83372">
        <ele>255</ele>
        <time>2024-05-28T10:43:08Z</time>
      </trkpt>
      <trkpt lat="47.16988" lon="5.83369">
        <ele>255</ele>
        <time>2024-05-28T10:43:09Z</time>
      </trkpt>
      <trkpt lat="47.16988" lon="5.83368">
        <ele>255</ele>
        <time>2024-05-28T10:43:10Z</time>
      </trkpt>
      <trkpt lat="47.1699" lon="5.83368">
        <ele>255.2</ele>
        <time>2024-05-28T10:43:11Z</time>
      </trkpt>
      <trkpt lat="47.1699" lon="5.83366">
        <ele>255.2</ele>
        <time>2024-05-28T10:43:12Z</time>
      </trkpt>
      <trkpt lat="47.16991" lon="5.83363">
        <ele>255.6</ele>
        <time>2024-05-28T10:43:13Z</time>
      </trkpt>
      <trkpt lat="47.16992" lon="5.8336">
        <ele>255.6</ele>
        <time>2024-05-28T10:43:14Z</time>
      </trkpt>
      <trkpt lat="47.16993" lon="5.83356">
        <ele>255.8</ele>
        <time>2024-05-28T10:43:15Z</time>
      </trkpt>
      <trkpt lat="47.16995" lon="5.83353">
        <ele>255.8</ele>
        <time>2024-05-28T10:43:16Z</time>
      </trkpt>
      <trkpt lat="47.16997" lon="5.83351">
        <ele>256</ele>
        <time>2024-05-28T10:43:17Z</time>
      </trkpt>
      <trkpt lat="47.16997" lon="5.83348">
        <ele>256.2</ele>
        <time>2024-05-28T10:43:18Z</time>
      </trkpt>
      <trkpt lat="47.16998" lon="5.83346">
        <ele>256.2</ele>
        <time>2024-05-28T10:43:19Z</time>
      </trkpt>
      <trkpt lat="47.16998" lon="5.83343">
        <ele>256.2</ele>
        <time>2024-05-28T10:43:20Z</time>
      </trkpt>
      <trkpt lat="47.16998" lon="5.83341">
        <ele>256.4</ele>
        <time>2024-05-28T10:43:21Z</time>
      </trkpt>
      <trkpt lat="47.16999" lon="5.83338">
        <ele>256.4</ele>
        <time>2024-05-28T10:43:22Z</time>
      </trkpt>
      <trkpt lat="47.17" lon="5.83336">
        <ele>256.4</ele>
        <time>2024-05-28T10:43:23Z</time>
      </trkpt>
      <trkpt lat="47.17001" lon="5.83333">
        <ele>256.6</ele>
        <time>2024-05-28T10:43:24Z</time>
      </trkpt>
      <trkpt lat="47.17002" lon="5.8333">
        <ele>256.8</ele>
        <time>2024-05-28T10:43:25Z</time>
      </trkpt>
      <trkpt lat="47.17002" lon="5.8333">
        <ele>256.8</ele>
        <time>2024-05-28T10:43:26Z</time>
      </trkpt>
      <trkpt lat="47.17003" lon="5.83329">
        <ele>257</ele>
        <time>2024-05-28T10:43:27Z</time>
      </trkpt>
      <trkpt lat="47.17003" lon="5.83328">
        <ele>257</ele>
        <time>2024-05-28T10:43:28Z</time>
      </trkpt>
      <trkpt lat="47.17004" lon="5.83323">
        <ele>257.2</ele>
        <time>2024-05-28T10:43:29Z</time>
      </trkpt>
      <trkpt lat="47.17006" lon="5.83318">
        <ele>257.2</ele>
        <time>2024-05-28T10:43:30Z</time>
      </trkpt>
      <trkpt lat="47.17007" lon="5.83314">
        <ele>257.4</ele>
        <time>2024-05-28T10:43:31Z</time>
      </trkpt>
      <trkpt lat="47.17008" lon="5.83309">
        <ele>257.4</ele>
        <time>2024-05-28T10:43:32Z</time>
      </trkpt>
      <trkpt lat="47.1701" lon="5.83307">
        <ele>257.4</ele>
        <time>2024-05-28T10:43:33Z</time>
      </trkpt>
      <trkpt lat="47.17012" lon="5.83305">
        <ele>257.6</ele>
        <time>2024-05-28T10:43:34Z</time>
      </trkpt>
      <trkpt lat="47.17013" lon="5.83303">
        <ele>257.6</ele>
        <time>2024-05-28T10:43:35Z</time>
      </trkpt>
      <trkpt lat="47.17014" lon="5.833">
        <ele>257.8</ele>
        <time>2024-05-28T10:43:36Z</time>
      </trkpt>
      <trkpt lat="47.17015" lon="5.83296">
        <ele>257.8</ele>
        <time>2024-05-28T10:43:37Z</time>
      </trkpt>
      <trkpt lat="47.17015" lon="5.83293">
        <ele>258</ele>
        <time>2024-05-28T10:43:38Z</time>
      </trkpt>
      <trkpt lat="47.17016" lon="5.8329">
        <ele>258.2</ele>
        <time>2024-05-28T10:43:39Z</time>
      </trkpt>
      <trkpt lat="47.17017" lon="5.83288">
        <ele>258.2</ele>
        <time>2024-05-28T10:43:40Z</time>
      </trkpt>
      <trkpt lat="47.17017" lon="5.83285">
        <ele>258.4</ele>
        <time>2024-05-28T10:43:41Z</time>
      </trkpt>
      <trkpt lat="47.17019" lon="5.83281">
        <ele>258.6</ele>
        <time>2024-05-28T10:43:42Z</time>
      </trkpt>
      <trkpt lat="47.17019" lon="5.83279">
        <ele>258.8</ele>
        <time>2024-05-28T10:43:43Z</time>
      </trkpt>
      <trkpt lat="47.1702" lon="5.83274">
        <ele>258.8</ele>
        <time>2024-05-28T10:43:44Z</time>
      </trkpt>
      <trkpt lat="47.17022" lon="5.83272">
        <ele>259</ele>
        <time>2024-05-28T10:43:45Z</time>
      </trkpt>
      <trkpt lat="47.17022" lon="5.83271">
        <ele>259</ele>
        <time>2024-05-28T10:43:46Z</time>
      </trkpt>
      <trkpt lat="47.17022" lon="5.8327">
        <ele>259.2</ele>
        <time>2024-05-28T10:43:47Z</time>
      </trkpt>
      <trkpt lat="47.17023" lon="5.83267">
        <ele>259.4</ele>
        <time>2024-05-28T10:43:48Z</time>
      </trkpt>
      <trkpt lat="47.17025" lon="5.83264">
        <ele>259.2</ele>
        <time>2024-05-28T10:43:49Z</time>
      </trkpt>
      <trkpt lat="47.17026" lon="5.8326">
        <ele>259.2</ele>
        <time>2024-05-28T10:43:50Z</time>
      </trkpt>
      <trkpt lat="47.17029" lon="5.83258">
        <ele>259.2</ele>
        <time>2024-05-28T10:43:51Z</time>
      </trkpt>
      <trkpt lat="47.1703" lon="5.83255">
        <ele>259.2</ele>
        <time>2024-05-28T10:43:52Z</time>
      </trkpt>
      <trkpt lat="47.17032" lon="5.83253">
        <ele>259.2</ele>
        <time>2024-05-28T10:43:53Z</time>
      </trkpt>
      <trkpt lat="47.17033" lon="5.8325">
        <ele>259.4</ele>
        <time>2024-05-28T10:43:54Z</time>
      </trkpt>
      <trkpt lat="47.17034" lon="5.83248">
        <ele>259.4</ele>
        <time>2024-05-28T10:43:55Z</time>
      </trkpt>
      <trkpt lat="47.17037" lon="5.83245">
        <ele>259.4</ele>
        <time>2024-05-28T10:43:56Z</time>
      </trkpt>
      <trkpt lat="47.17038" lon="5.83242">
        <ele>259.4</ele>
        <time>2024-05-28T10:43:57Z</time>
      </trkpt>
      <trkpt lat="47.17039" lon="5.83238">
        <ele>259.4</ele>
        <time>2024-05-28T10:43:58Z</time>
      </trkpt>
      <trkpt lat="47.17039" lon="5.83232">
        <ele>259.4</ele>
        <time>2024-05-28T10:44:00Z</time>
      </trkpt>
      <trkpt lat="47.1704" lon="5.8323">
        <ele>259.4</ele>
        <time>2024-05-28T10:44:01Z</time>
      </trkpt>
      <trkpt lat="47.17042" lon="5.83225">
        <ele>259.4</ele>
        <time>2024-05-28T10:44:03Z</time>
      </trkpt>
      <trkpt lat="47.17051" lon="5.83203">
        <ele>259.4</ele>
        <time>2024-05-28T10:44:09Z</time>
      </trkpt>
      <trkpt lat="47.17056" lon="5.83193">
        <ele>259.2</ele>
        <time>2024-05-28T10:44:12Z</time>
      </trkpt>
      <trkpt lat="47.1706" lon="5.83183">
        <ele>259</ele>
        <time>2024-05-28T10:44:14Z</time>
      </trkpt>
      <trkpt lat="47.17066" lon="5.83163">
        <ele>258.8</ele>
        <time>2024-05-28T10:44:19Z</time>
      </trkpt>
      <trkpt lat="47.17068" lon="5.8316">
        <ele>258.6</ele>
        <time>2024-05-28T10:44:20Z</time>
      </trkpt>
      <trkpt lat="47.17069" lon="5.83158">
        <ele>258.6</ele>
        <time>2024-05-28T10:44:21Z</time>
      </trkpt>
      <trkpt lat="47.17072" lon="5.83151">
        <ele>258</ele>
        <time>2024-05-28T10:44:23Z</time>
      </trkpt>
      <trkpt lat="47.17074" lon="5.83148">
        <ele>258</ele>
        <time>2024-05-28T10:44:24Z</time>
      </trkpt>
      <trkpt lat="47.17077" lon="5.83144">
        <ele>257.8</ele>
        <time>2024-05-28T10:44:25Z</time>
      </trkpt>
      <trkpt lat="47.17078" lon="5.8314">
        <ele>257.8</ele>
        <time>2024-05-28T10:44:26Z</time>
      </trkpt>
      <trkpt lat="47.17079" lon="5.83135">
        <ele>257.6</ele>
        <time>2024-05-28T10:44:27Z</time>
      </trkpt>
      <trkpt lat="47.17081" lon="5.83129">
        <ele>257.6</ele>
        <time>2024-05-28T10:44:28Z</time>
      </trkpt>
      <trkpt lat="47.17085" lon="5.83118">
        <ele>257.4</ele>
        <time>2024-05-28T10:44:30Z</time>
      </trkpt>
      <trkpt lat="47.17091" lon="5.8311">
        <ele>257.2</ele>
        <time>2024-05-28T10:44:32Z</time>
      </trkpt>
      <trkpt lat="47.17093" lon="5.83101">
        <ele>257.2</ele>
        <time>2024-05-28T10:44:33Z</time>
      </trkpt>
      <trkpt lat="47.17103" lon="5.83079">
        <ele>256.4</ele>
        <time>2024-05-28T10:44:36Z</time>
      </trkpt>
      <trkpt lat="47.17106" lon="5.83072">
        <ele>256</ele>
        <time>2024-05-28T10:44:37Z</time>
      </trkpt>
      <trkpt lat="47.17111" lon="5.83057">
        <ele>255.6</ele>
        <time>2024-05-28T10:44:39Z</time>
      </trkpt>
      <trkpt lat="47.17117" lon="5.83039">
        <ele>255.4</ele>
        <time>2024-05-28T10:44:42Z</time>
      </trkpt>
      <trkpt lat="47.1712" lon="5.83031">
        <ele>255</ele>
        <time>2024-05-28T10:44:43Z</time>
      </trkpt>
      <trkpt lat="47.17122" lon="5.83024">
        <ele>254.8</ele>
        <time>2024-05-28T10:44:44Z</time>
      </trkpt>
      <trkpt lat="47.17125" lon="5.83011">
        <ele>254.2</ele>
        <time>2024-05-28T10:44:46Z</time>
      </trkpt>
      <trkpt lat="47.17129" lon="5.83005">
        <ele>254</ele>
        <time>2024-05-28T10:44:47Z</time>
      </trkpt>
      <trkpt lat="47.17137" lon="5.82993">
        <ele>253.6</ele>
        <time>2024-05-28T10:44:49Z</time>
      </trkpt>
      <trkpt lat="47.1714" lon="5.82988">
        <ele>253.2</ele>
        <time>2024-05-28T10:44:50Z</time>
      </trkpt>
      <trkpt lat="47.17144" lon="5.82983">
        <ele>253</ele>
        <time>2024-05-28T10:44:51Z</time>
      </trkpt>
      <trkpt lat="47.17148" lon="5.82978">
        <ele>252.8</ele>
        <time>2024-05-28T10:44:52Z</time>
      </trkpt>
      <trkpt lat="47.17155" lon="5.8297">
        <ele>252.4</ele>
        <time>2024-05-28T10:44:54Z</time>
      </trkpt>
      <trkpt lat="47.17157" lon="5.82966">
        <ele>252.4</ele>
        <time>2024-05-28T10:44:55Z</time>
      </trkpt>
      <trkpt lat="47.1716" lon="5.82962">
        <ele>252.4</ele>
        <time>2024-05-28T10:44:56Z</time>
      </trkpt>
      <trkpt lat="47.17162" lon="5.82958">
        <ele>252.4</ele>
        <time>2024-05-28T10:44:57Z</time>
      </trkpt>
      <trkpt lat="47.17164" lon="5.82954">
        <ele>252.4</ele>
        <time>2024-05-28T10:44:58Z</time>
      </trkpt>
      <trkpt lat="47.17167" lon="5.82949">
        <ele>252.4</ele>
        <time>2024-05-28T10:44:59Z</time>
      </trkpt>
      <trkpt lat="47.17172" lon="5.8294">
        <ele>252.4</ele>
        <time>2024-05-28T10:45:01Z</time>
      </trkpt>
      <trkpt lat="47.17175" lon="5.82936">
        <ele>252.4</ele>
        <time>2024-05-28T10:45:02Z</time>
      </trkpt>
      <trkpt lat="47.17181" lon="5.82929">
        <ele>252.4</ele>
        <time>2024-05-28T10:45:04Z</time>
      </trkpt>
      <trkpt lat="47.17184" lon="5.82924">
        <ele>252.4</ele>
        <time>2024-05-28T10:45:05Z</time>
      </trkpt>
      <trkpt lat="47.17187" lon="5.82921">
        <ele>252.4</ele>
        <time>2024-05-28T10:45:06Z</time>
      </trkpt>
      <trkpt lat="47.1719" lon="5.82916">
        <ele>252.4</ele>
        <time>2024-05-28T10:45:07Z</time>
      </trkpt>
      <trkpt lat="47.17192" lon="5.82912">
        <ele>252.4</ele>
        <time>2024-05-28T10:45:08Z</time>
      </trkpt>
      <trkpt lat="47.17202" lon="5.82898">
        <ele>252.2</ele>
        <time>2024-05-28T10:45:12Z</time>
      </trkpt>
      <trkpt lat="47.17206" lon="5.82895">
        <ele>252</ele>
        <time>2024-05-28T10:45:13Z</time>
      </trkpt>
      <trkpt lat="47.1721" lon="5.82892">
        <ele>251.8</ele>
        <time>2024-05-28T10:45:14Z</time>
      </trkpt>
      <trkpt lat="47.17214" lon="5.82886">
        <ele>251.8</ele>
        <time>2024-05-28T10:45:15Z</time>
      </trkpt>
      <trkpt lat="47.17222" lon="5.82882">
        <ele>252</ele>
        <time>2024-05-28T10:45:17Z</time>
      </trkpt>
      <trkpt lat="47.17226" lon="5.82879">
        <ele>252</ele>
        <time>2024-05-28T10:45:18Z</time>
      </trkpt>
      <trkpt lat="47.1723" lon="5.82877">
        <ele>252</ele>
        <time>2024-05-28T10:45:19Z</time>
      </trkpt>
      <trkpt lat="47.17234" lon="5.82874">
        <ele>251.8</ele>
        <time>2024-05-28T10:45:20Z</time>
      </trkpt>
      <trkpt lat="47.17241" lon="5.82869">
        <ele>251.6</ele>
        <time>2024-05-28T10:45:22Z</time>
      </trkpt>
      <trkpt lat="47.17245" lon="5.82867">
        <ele>251.4</ele>
        <time>2024-05-28T10:45:23Z</time>
      </trkpt>
      <trkpt lat="47.17249" lon="5.82865">
        <ele>251.4</ele>
        <time>2024-05-28T10:45:24Z</time>
      </trkpt>
      <trkpt lat="47.17252" lon="5.82864">
        <ele>251.4</ele>
        <time>2024-05-28T10:45:25Z</time>
      </trkpt>
      <trkpt lat="47.17256" lon="5.82861">
        <ele>251.4</ele>
        <time>2024-05-28T10:45:26Z</time>
      </trkpt>
      <trkpt lat="47.17259" lon="5.82855">
        <ele>251</ele>
        <time>2024-05-28T10:45:27Z</time>
      </trkpt>
      <trkpt lat="47.17263" lon="5.8285">
        <ele>251</ele>
        <time>2024-05-28T10:45:28Z</time>
      </trkpt>
      <trkpt lat="47.17266" lon="5.82843">
        <ele>251</ele>
        <time>2024-05-28T10:45:29Z</time>
      </trkpt>
      <trkpt lat="47.1727" lon="5.82836">
        <ele>251</ele>
        <time>2024-05-28T10:45:30Z</time>
      </trkpt>
      <trkpt lat="47.17273" lon="5.8283">
        <ele>250.8</ele>
        <time>2024-05-28T10:45:31Z</time>
      </trkpt>
      <trkpt lat="47.17283" lon="5.82805">
        <ele>251.2</ele>
        <time>2024-05-28T10:45:36Z</time>
      </trkpt>
      <trkpt lat="47.17286" lon="5.82797">
        <ele>251.4</ele>
        <time>2024-05-28T10:45:38Z</time>
      </trkpt>
      <trkpt lat="47.17287" lon="5.82793">
        <ele>251.6</ele>
        <time>2024-05-28T10:45:39Z</time>
      </trkpt>
      <trkpt lat="47.17288" lon="5.82789">
        <ele>251.6</ele>
        <time>2024-05-28T10:45:40Z</time>
      </trkpt>
      <trkpt lat="47.1729" lon="5.82785">
        <ele>251.8</ele>
        <time>2024-05-28T10:45:41Z</time>
      </trkpt>
      <trkpt lat="47.17291" lon="5.82782">
        <ele>252</ele>
        <time>2024-05-28T10:45:42Z</time>
      </trkpt>
      <trkpt lat="47.17293" lon="5.82779">
        <ele>252.2</ele>
        <time>2024-05-28T10:45:43Z</time>
      </trkpt>
      <trkpt lat="47.17295" lon="5.82775">
        <ele>252.4</ele>
        <time>2024-05-28T10:45:44Z</time>
      </trkpt>
      <trkpt lat="47.17297" lon="5.82772">
        <ele>252.6</ele>
        <time>2024-05-28T10:45:45Z</time>
      </trkpt>
      <trkpt lat="47.17298" lon="5.82768">
        <ele>252.6</ele>
        <time>2024-05-28T10:45:46Z</time>
      </trkpt>
      <trkpt lat="47.17299" lon="5.82765">
        <ele>252.8</ele>
        <time>2024-05-28T10:45:47Z</time>
      </trkpt>
      <trkpt lat="47.17301" lon="5.8276">
        <ele>252.8</ele>
        <time>2024-05-28T10:45:48Z</time>
      </trkpt>
      <trkpt lat="47.17302" lon="5.82757">
        <ele>253</ele>
        <time>2024-05-28T10:45:49Z</time>
      </trkpt>
      <trkpt lat="47.17304" lon="5.82753">
        <ele>253.2</ele>
        <time>2024-05-28T10:45:50Z</time>
      </trkpt>
      <trkpt lat="47.17305" lon="5.8275">
        <ele>253.2</ele>
        <time>2024-05-28T10:45:51Z</time>
      </trkpt>
      <trkpt lat="47.17308" lon="5.82744">
        <ele>253.2</ele>
        <time>2024-05-28T10:45:53Z</time>
      </trkpt>
      <trkpt lat="47.17314" lon="5.82731">
        <ele>253.8</ele>
        <time>2024-05-28T10:45:58Z</time>
      </trkpt>
      <trkpt lat="47.17314" lon="5.82728">
        <ele>253.8</ele>
        <time>2024-05-28T10:45:59Z</time>
      </trkpt>
      <trkpt lat="47.17315" lon="5.82727">
        <ele>254</ele>
        <time>2024-05-28T10:46:00Z</time>
      </trkpt>
      <trkpt lat="47.17316" lon="5.82724">
        <ele>254</ele>
        <time>2024-05-28T10:46:01Z</time>
      </trkpt>
      <trkpt lat="47.17317" lon="5.82719">
        <ele>254.2</ele>
        <time>2024-05-28T10:46:03Z</time>
      </trkpt>
      <trkpt lat="47.17318" lon="5.82717">
        <ele>254.4</ele>
        <time>2024-05-28T10:46:04Z</time>
      </trkpt>
      <trkpt lat="47.17319" lon="5.82715">
        <ele>254.4</ele>
        <time>2024-05-28T10:46:05Z</time>
      </trkpt>
      <trkpt lat="47.1732" lon="5.8271">
        <ele>254.6</ele>
        <time>2024-05-28T10:46:06Z</time>
      </trkpt>
      <trkpt lat="47.17321" lon="5.82707">
        <ele>254.6</ele>
        <time>2024-05-28T10:46:07Z</time>
      </trkpt>
      <trkpt lat="47.17323" lon="5.82703">
        <ele>254.8</ele>
        <time>2024-05-28T10:46:08Z</time>
      </trkpt>
      <trkpt lat="47.17325" lon="5.82699">
        <ele>255</ele>
        <time>2024-05-28T10:46:09Z</time>
      </trkpt>
      <trkpt lat="47.17326" lon="5.82695">
        <ele>255.2</ele>
        <time>2024-05-28T10:46:10Z</time>
      </trkpt>
      <trkpt lat="47.17328" lon="5.8269">
        <ele>255.2</ele>
        <time>2024-05-28T10:46:11Z</time>
      </trkpt>
      <trkpt lat="47.17331" lon="5.82684">
        <ele>255.4</ele>
        <time>2024-05-28T10:46:12Z</time>
      </trkpt>
      <trkpt lat="47.17333" lon="5.8268">
        <ele>255.4</ele>
        <time>2024-05-28T10:46:13Z</time>
      </trkpt>
      <trkpt lat="47.17335" lon="5.82677">
        <ele>255.6</ele>
        <time>2024-05-28T10:46:14Z</time>
      </trkpt>
      <trkpt lat="47.17336" lon="5.82671">
        <ele>255.6</ele>
        <time>2024-05-28T10:46:15Z</time>
      </trkpt>
      <trkpt lat="47.17337" lon="5.82667">
        <ele>255.6</ele>
        <time>2024-05-28T10:46:16Z</time>
      </trkpt>
      <trkpt lat="47.17337" lon="5.82665">
        <ele>255.6</ele>
        <time>2024-05-28T10:46:17Z</time>
      </trkpt>
      <trkpt lat="47.17338" lon="5.82662">
        <ele>255.6</ele>
        <time>2024-05-28T10:46:18Z</time>
      </trkpt>
      <trkpt lat="47.1734" lon="5.82658">
        <ele>255.6</ele>
        <time>2024-05-28T10:46:19Z</time>
      </trkpt>
      <trkpt lat="47.17341" lon="5.82654">
        <ele>255.6</ele>
        <time>2024-05-28T10:46:20Z</time>
      </trkpt>
      <trkpt lat="47.17342" lon="5.8265">
        <ele>255.6</ele>
        <time>2024-05-28T10:46:21Z</time>
      </trkpt>
      <trkpt lat="47.17342" lon="5.82644">
        <ele>255.6</ele>
        <time>2024-05-28T10:46:22Z</time>
      </trkpt>
      <trkpt lat="47.17344" lon="5.8264">
        <ele>255.6</ele>
        <time>2024-05-28T10:46:23Z</time>
      </trkpt>
      <trkpt lat="47.1735" lon="5.82628">
        <ele>255</ele>
        <time>2024-05-28T10:46:25Z</time>
      </trkpt>
      <trkpt lat="47.17354" lon="5.8262">
        <ele>255</ele>
        <time>2024-05-28T10:46:26Z</time>
      </trkpt>
      <trkpt lat="47.17357" lon="5.82617">
        <ele>254.8</ele>
        <time>2024-05-28T10:46:27Z</time>
      </trkpt>
      <trkpt lat="47.17361" lon="5.82611">
        <ele>254.6</ele>
        <time>2024-05-28T10:46:28Z</time>
      </trkpt>
      <trkpt lat="47.17365" lon="5.82606">
        <ele>254.6</ele>
        <time>2024-05-28T10:46:29Z</time>
      </trkpt>
      <trkpt lat="47.17375" lon="5.82589">
        <ele>254.4</ele>
        <time>2024-05-28T10:46:32Z</time>
      </trkpt>
      <trkpt lat="47.17377" lon="5.82584">
        <ele>254.4</ele>
        <time>2024-05-28T10:46:33Z</time>
      </trkpt>
      <trkpt lat="47.17379" lon="5.82581">
        <ele>254.2</ele>
        <time>2024-05-28T10:46:34Z</time>
      </trkpt>
      <trkpt lat="47.17382" lon="5.82577">
        <ele>254.2</ele>
        <time>2024-05-28T10:46:35Z</time>
      </trkpt>
      <trkpt lat="47.17384" lon="5.82573">
        <ele>254.4</ele>
        <time>2024-05-28T10:46:36Z</time>
      </trkpt>
      <trkpt lat="47.17386" lon="5.82568">
        <ele>254.4</ele>
        <time>2024-05-28T10:46:37Z</time>
      </trkpt>
      <trkpt lat="47.17388" lon="5.82566">
        <ele>254.4</ele>
        <time>2024-05-28T10:46:38Z</time>
      </trkpt>
      <trkpt lat="47.17391" lon="5.82564">
        <ele>254.6</ele>
        <time>2024-05-28T10:46:39Z</time>
      </trkpt>
      <trkpt lat="47.17394" lon="5.82563">
        <ele>254.6</ele>
        <time>2024-05-28T10:46:40Z</time>
      </trkpt>
      <trkpt lat="47.17397" lon="5.82562">
        <ele>254.8</ele>
        <time>2024-05-28T10:46:41Z</time>
      </trkpt>
      <trkpt lat="47.17399" lon="5.82562">
        <ele>255</ele>
        <time>2024-05-28T10:46:42Z</time>
      </trkpt>
      <trkpt lat="47.17403" lon="5.82563">
        <ele>255.4</ele>
        <time>2024-05-28T10:46:43Z</time>
      </trkpt>
      <trkpt lat="47.17408" lon="5.82563">
        <ele>255.6</ele>
        <time>2024-05-28T10:46:44Z</time>
      </trkpt>
      <trkpt lat="47.17418" lon="5.82569">
        <ele>256.2</ele>
        <time>2024-05-28T10:46:48Z</time>
      </trkpt>
      <trkpt lat="47.17421" lon="5.82574">
        <ele>256.4</ele>
        <time>2024-05-28T10:46:49Z</time>
      </trkpt>
      <trkpt lat="47.17424" lon="5.82578">
        <ele>256.4</ele>
        <time>2024-05-28T10:46:50Z</time>
      </trkpt>
      <trkpt lat="47.17427" lon="5.82581">
        <ele>256.6</ele>
        <time>2024-05-28T10:46:51Z</time>
      </trkpt>
      <trkpt lat="47.1743" lon="5.82583">
        <ele>256.8</ele>
        <time>2024-05-28T10:46:52Z</time>
      </trkpt>
      <trkpt lat="47.17436" lon="5.82587">
        <ele>257</ele>
        <time>2024-05-28T10:46:55Z</time>
      </trkpt>
      <trkpt lat="47.17438" lon="5.82588">
        <ele>257</ele>
        <time>2024-05-28T10:46:56Z</time>
      </trkpt>
      <trkpt lat="47.1744" lon="5.82589">
        <ele>257</ele>
        <time>2024-05-28T10:46:57Z</time>
      </trkpt>
      <trkpt lat="47.17442" lon="5.8259">
        <ele>257.2</ele>
        <time>2024-05-28T10:46:58Z</time>
      </trkpt>
      <trkpt lat="47.17458" lon="5.82604">
        <ele>257.2</ele>
        <time>2024-05-28T10:47:02Z</time>
      </trkpt>
      <trkpt lat="47.17475" lon="5.8262">
        <ele>256.8</ele>
        <time>2024-05-28T10:47:07Z</time>
      </trkpt>
      <trkpt lat="47.17479" lon="5.82621">
        <ele>256.6</ele>
        <time>2024-05-28T10:47:08Z</time>
      </trkpt>
      <trkpt lat="47.17483" lon="5.82621">
        <ele>256.6</ele>
        <time>2024-05-28T10:47:09Z</time>
      </trkpt>
      <trkpt lat="47.17486" lon="5.82624">
        <ele>256.6</ele>
        <time>2024-05-28T10:47:10Z</time>
      </trkpt>
      <trkpt lat="47.17491" lon="5.82629">
        <ele>256.6</ele>
        <time>2024-05-28T10:47:12Z</time>
      </trkpt>
      <trkpt lat="47.17494" lon="5.82632">
        <ele>256.6</ele>
        <time>2024-05-28T10:47:13Z</time>
      </trkpt>
      <trkpt lat="47.17496" lon="5.82634">
        <ele>256.6</ele>
        <time>2024-05-28T10:47:14Z</time>
      </trkpt>
      <trkpt lat="47.17501" lon="5.82636">
        <ele>256.6</ele>
        <time>2024-05-28T10:47:16Z</time>
      </trkpt>
      <trkpt lat="47.17503" lon="5.82639">
        <ele>256.6</ele>
        <time>2024-05-28T10:47:17Z</time>
      </trkpt>
      <trkpt lat="47.17506" lon="5.82641">
        <ele>257</ele>
        <time>2024-05-28T10:47:18Z</time>
      </trkpt>
      <trkpt lat="47.17521" lon="5.82652">
        <ele>257.6</ele>
        <time>2024-05-28T10:47:23Z</time>
      </trkpt>
      <trkpt lat="47.17536" lon="5.82666">
        <ele>258.2</ele>
        <time>2024-05-28T10:47:29Z</time>
      </trkpt>
      <trkpt lat="47.17539" lon="5.82668">
        <ele>258.2</ele>
        <time>2024-05-28T10:47:30Z</time>
      </trkpt>
      <trkpt lat="47.17542" lon="5.8267">
        <ele>258.2</ele>
        <time>2024-05-28T10:47:31Z</time>
      </trkpt>
      <trkpt lat="47.17547" lon="5.82673">
        <ele>258.6</ele>
        <time>2024-05-28T10:47:33Z</time>
      </trkpt>
      <trkpt lat="47.17549" lon="5.82675">
        <ele>258.6</ele>
        <time>2024-05-28T10:47:34Z</time>
      </trkpt>
      <trkpt lat="47.17553" lon="5.82678">
        <ele>258.8</ele>
        <time>2024-05-28T10:47:35Z</time>
      </trkpt>
      <trkpt lat="47.17556" lon="5.82681">
        <ele>259</ele>
        <time>2024-05-28T10:47:36Z</time>
      </trkpt>
      <trkpt lat="47.17566" lon="5.82688">
        <ele>259</ele>
        <time>2024-05-28T10:47:39Z</time>
      </trkpt>
      <trkpt lat="47.17569" lon="5.82692">
        <ele>259</ele>
        <time>2024-05-28T10:47:40Z</time>
      </trkpt>
      <trkpt lat="47.17578" lon="5.82698">
        <ele>259.2</ele>
        <time>2024-05-28T10:47:43Z</time>
      </trkpt>
      <trkpt lat="47.17581" lon="5.827">
        <ele>259.2</ele>
        <time>2024-05-28T10:47:44Z</time>
      </trkpt>
      <trkpt lat="47.17585" lon="5.82703">
        <ele>259.2</ele>
        <time>2024-05-28T10:47:45Z</time>
      </trkpt>
      <trkpt lat="47.17589" lon="5.82706">
        <ele>259.4</ele>
        <time>2024-05-28T10:47:46Z</time>
      </trkpt>
      <trkpt lat="47.17592" lon="5.82708">
        <ele>259.4</ele>
        <time>2024-05-28T10:47:47Z</time>
      </trkpt>
      <trkpt lat="47.17595" lon="5.82711">
        <ele>259.6</ele>
        <time>2024-05-28T10:47:48Z</time>
      </trkpt>
      <trkpt lat="47.17597" lon="5.82713">
        <ele>259.6</ele>
        <time>2024-05-28T10:47:49Z</time>
      </trkpt>
      <trkpt lat="47.17599" lon="5.82715">
        <ele>259.8</ele>
        <time>2024-05-28T10:47:50Z</time>
      </trkpt>
      <trkpt lat="47.176" lon="5.82717">
        <ele>259.8</ele>
        <time>2024-05-28T10:47:51Z</time>
      </trkpt>
      <trkpt lat="47.17602" lon="5.82719">
        <ele>260.2</ele>
        <time>2024-05-28T10:47:52Z</time>
      </trkpt>
      <trkpt lat="47.17604" lon="5.8272">
        <ele>260.8</ele>
        <time>2024-05-28T10:47:53Z</time>
      </trkpt>
      <trkpt lat="47.17605" lon="5.82722">
        <ele>261</ele>
        <time>2024-05-28T10:47:54Z</time>
      </trkpt>
      <trkpt lat="47.17613" lon="5.82729">
        <ele>261.4</ele>
        <time>2024-05-28T10:47:56Z</time>
      </trkpt>
      <trkpt lat="47.17615" lon="5.82731">
        <ele>261.4</ele>
        <time>2024-05-28T10:47:57Z</time>
      </trkpt>
      <trkpt lat="47.17617" lon="5.82733">
        <ele>261.6</ele>
        <time>2024-05-28T10:47:58Z</time>
      </trkpt>
      <trkpt lat="47.1762" lon="5.82734">
        <ele>261.6</ele>
        <time>2024-05-28T10:47:59Z</time>
      </trkpt>
      <trkpt lat="47.17622" lon="5.82735">
        <ele>261.6</ele>
        <time>2024-05-28T10:48:00Z</time>
      </trkpt>
      <trkpt lat="47.17623" lon="5.82734">
        <ele>262</ele>
        <time>2024-05-28T10:48:01Z</time>
      </trkpt>
      <trkpt lat="47.17625" lon="5.82734">
        <ele>262.2</ele>
        <time>2024-05-28T10:48:02Z</time>
      </trkpt>
      <trkpt lat="47.17626" lon="5.82736">
        <ele>262.2</ele>
        <time>2024-05-28T10:48:03Z</time>
      </trkpt>
      <trkpt lat="47.17628" lon="5.82738">
        <ele>262.4</ele>
        <time>2024-05-28T10:48:04Z</time>
      </trkpt>
      <trkpt lat="47.1763" lon="5.8274">
        <ele>262.6</ele>
        <time>2024-05-28T10:48:05Z</time>
      </trkpt>
      <trkpt lat="47.17631" lon="5.82742">
        <ele>263</ele>
        <time>2024-05-28T10:48:06Z</time>
      </trkpt>
      <trkpt lat="47.17633" lon="5.82744">
        <ele>263</ele>
        <time>2024-05-28T10:48:07Z</time>
      </trkpt>
      <trkpt lat="47.17636" lon="5.82746">
        <ele>263.2</ele>
        <time>2024-05-28T10:48:08Z</time>
      </trkpt>
      <trkpt lat="47.17638" lon="5.82747">
        <ele>263.4</ele>
        <time>2024-05-28T10:48:09Z</time>
      </trkpt>
      <trkpt lat="47.1764" lon="5.82749">
        <ele>263.4</ele>
        <time>2024-05-28T10:48:10Z</time>
      </trkpt>
      <trkpt lat="47.17641" lon="5.82751">
        <ele>263.8</ele>
        <time>2024-05-28T10:48:11Z</time>
      </trkpt>
      <trkpt lat="47.17643" lon="5.82752">
        <ele>263.8</ele>
        <time>2024-05-28T10:48:12Z</time>
      </trkpt>
      <trkpt lat="47.17645" lon="5.82754">
        <ele>264.2</ele>
        <time>2024-05-28T10:48:13Z</time>
      </trkpt>
      <trkpt lat="47.17648" lon="5.82756">
        <ele>264.4</ele>
        <time>2024-05-28T10:48:14Z</time>
      </trkpt>
      <trkpt lat="47.17651" lon="5.82758">
        <ele>264.6</ele>
        <time>2024-05-28T10:48:15Z</time>
      </trkpt>
      <trkpt lat="47.17653" lon="5.8276">
        <ele>264.8</ele>
        <time>2024-05-28T10:48:16Z</time>
      </trkpt>
      <trkpt lat="47.17655" lon="5.82762">
        <ele>265</ele>
        <time>2024-05-28T10:48:17Z</time>
      </trkpt>
      <trkpt lat="47.17656" lon="5.82764">
        <ele>265.2</ele>
        <time>2024-05-28T10:48:18Z</time>
      </trkpt>
      <trkpt lat="47.17659" lon="5.82766">
        <ele>265.2</ele>
        <time>2024-05-28T10:48:19Z</time>
      </trkpt>
      <trkpt lat="47.17661" lon="5.82767">
        <ele>265.4</ele>
        <time>2024-05-28T10:48:20Z</time>
      </trkpt>
      <trkpt lat="47.17663" lon="5.82768">
        <ele>265.6</ele>
        <time>2024-05-28T10:48:21Z</time>
      </trkpt>
      <trkpt lat="47.17664" lon="5.8277">
        <ele>265.8</ele>
        <time>2024-05-28T10:48:22Z</time>
      </trkpt>
      <trkpt lat="47.17666" lon="5.82771">
        <ele>266</ele>
        <time>2024-05-28T10:48:23Z</time>
      </trkpt>
      <trkpt lat="47.17668" lon="5.82774">
        <ele>266.2</ele>
        <time>2024-05-28T10:48:24Z</time>
      </trkpt>
      <trkpt lat="47.17669" lon="5.82776">
        <ele>266.4</ele>
        <time>2024-05-28T10:48:25Z</time>
      </trkpt>
      <trkpt lat="47.1767" lon="5.82777">
        <ele>266.4</ele>
        <time>2024-05-28T10:48:26Z</time>
      </trkpt>
      <trkpt lat="47.17671" lon="5.82779">
        <ele>266.6</ele>
        <time>2024-05-28T10:48:27Z</time>
      </trkpt>
      <trkpt lat="47.17673" lon="5.82781">
        <ele>266.8</ele>
        <time>2024-05-28T10:48:28Z</time>
      </trkpt>
      <trkpt lat="47.17674" lon="5.82783">
        <ele>267.2</ele>
        <time>2024-05-28T10:48:29Z</time>
      </trkpt>
      <trkpt lat="47.17676" lon="5.82785">
        <ele>267.2</ele>
        <time>2024-05-28T10:48:30Z</time>
      </trkpt>
      <trkpt lat="47.17678" lon="5.82787">
        <ele>267.6</ele>
        <time>2024-05-28T10:48:31Z</time>
      </trkpt>
      <trkpt lat="47.1768" lon="5.8279">
        <ele>267.6</ele>
        <time>2024-05-28T10:48:32Z</time>
      </trkpt>
      <trkpt lat="47.17682" lon="5.82792">
        <ele>268</ele>
        <time>2024-05-28T10:48:33Z</time>
      </trkpt>
      <trkpt lat="47.17684" lon="5.82793">
        <ele>268.2</ele>
        <time>2024-05-28T10:48:34Z</time>
      </trkpt>
      <trkpt lat="47.17687" lon="5.82794">
        <ele>268.4</ele>
        <time>2024-05-28T10:48:35Z</time>
      </trkpt>
      <trkpt lat="47.17688" lon="5.82795">
        <ele>268.4</ele>
        <time>2024-05-28T10:48:36Z</time>
      </trkpt>
      <trkpt lat="47.17691" lon="5.82796">
        <ele>268.6</ele>
        <time>2024-05-28T10:48:37Z</time>
      </trkpt>
      <trkpt lat="47.17693" lon="5.82797">
        <ele>268.8</ele>
        <time>2024-05-28T10:48:38Z</time>
      </trkpt>
      <trkpt lat="47.17695" lon="5.82798">
        <ele>268.8</ele>
        <time>2024-05-28T10:48:39Z</time>
      </trkpt>
      <trkpt lat="47.17697" lon="5.828">
        <ele>268.8</ele>
        <time>2024-05-28T10:48:40Z</time>
      </trkpt>
      <trkpt lat="47.17698" lon="5.82801">
        <ele>269</ele>
        <time>2024-05-28T10:48:41Z</time>
      </trkpt>
      <trkpt lat="47.17699" lon="5.82803">
        <ele>269.2</ele>
        <time>2024-05-28T10:48:42Z</time>
      </trkpt>
      <trkpt lat="47.17701" lon="5.82804">
        <ele>269.2</ele>
        <time>2024-05-28T10:48:43Z</time>
      </trkpt>
      <trkpt lat="47.17702" lon="5.82805">
        <ele>269.2</ele>
        <time>2024-05-28T10:48:44Z</time>
      </trkpt>
      <trkpt lat="47.17704" lon="5.82805">
        <ele>269.4</ele>
        <time>2024-05-28T10:48:45Z</time>
      </trkpt>
      <trkpt lat="47.17706" lon="5.82806">
        <ele>269.4</ele>
        <time>2024-05-28T10:48:46Z</time>
      </trkpt>
      <trkpt lat="47.17708" lon="5.82808">
        <ele>269.4</ele>
        <time>2024-05-28T10:48:47Z</time>
      </trkpt>
      <trkpt lat="47.17709" lon="5.82809">
        <ele>269.6</ele>
        <time>2024-05-28T10:48:48Z</time>
      </trkpt>
      <trkpt lat="47.17711" lon="5.8281">
        <ele>269.8</ele>
        <time>2024-05-28T10:48:49Z</time>
      </trkpt>
      <trkpt lat="47.17713" lon="5.82811">
        <ele>270</ele>
        <time>2024-05-28T10:48:50Z</time>
      </trkpt>
      <trkpt lat="47.17714" lon="5.82813">
        <ele>270</ele>
        <time>2024-05-28T10:48:51Z</time>
      </trkpt>
      <trkpt lat="47.17716" lon="5.82815">
        <ele>270.2</ele>
        <time>2024-05-28T10:48:52Z</time>
      </trkpt>
      <trkpt lat="47.17718" lon="5.82816">
        <ele>270.4</ele>
        <time>2024-05-28T10:48:53Z</time>
      </trkpt>
      <trkpt lat="47.17719" lon="5.82817">
        <ele>270.6</ele>
        <time>2024-05-28T10:48:54Z</time>
      </trkpt>
      <trkpt lat="47.1772" lon="5.82818">
        <ele>270.6</ele>
        <time>2024-05-28T10:48:55Z</time>
      </trkpt>
      <trkpt lat="47.17721" lon="5.8282">
        <ele>270.8</ele>
        <time>2024-05-28T10:48:56Z</time>
      </trkpt>
      <trkpt lat="47.17722" lon="5.8282">
        <ele>270.8</ele>
        <time>2024-05-28T10:48:57Z</time>
      </trkpt>
      <trkpt lat="47.17723" lon="5.82821">
        <ele>271</ele>
        <time>2024-05-28T10:48:58Z</time>
      </trkpt>
      <trkpt lat="47.17726" lon="5.82823">
        <ele>271</ele>
        <time>2024-05-28T10:48:59Z</time>
      </trkpt>
      <trkpt lat="47.17728" lon="5.82826">
        <ele>271</ele>
        <time>2024-05-28T10:49:00Z</time>
      </trkpt>
      <trkpt lat="47.17729" lon="5.82826">
        <ele>271</ele>
        <time>2024-05-28T10:49:01Z</time>
      </trkpt>
      <trkpt lat="47.17731" lon="5.82826">
        <ele>271</ele>
        <time>2024-05-28T10:49:02Z</time>
      </trkpt>
      <trkpt lat="47.17733" lon="5.82827">
        <ele>271.2</ele>
        <time>2024-05-28T10:49:03Z</time>
      </trkpt>
      <trkpt lat="47.17734" lon="5.82828">
        <ele>271.2</ele>
        <time>2024-05-28T10:49:04Z</time>
      </trkpt>
      <trkpt lat="47.17736" lon="5.82829">
        <ele>271.2</ele>
        <time>2024-05-28T10:49:05Z</time>
      </trkpt>
      <trkpt lat="47.17738" lon="5.8283">
        <ele>271.4</ele>
        <time>2024-05-28T10:49:06Z</time>
      </trkpt>
      <trkpt lat="47.17739" lon="5.82831">
        <ele>271.4</ele>
        <time>2024-05-28T10:49:07Z</time>
      </trkpt>
      <trkpt lat="47.17741" lon="5.82832">
        <ele>271.4</ele>
        <time>2024-05-28T10:49:08Z</time>
      </trkpt>
      <trkpt lat="47.17743" lon="5.82834">
        <ele>271.4</ele>
        <time>2024-05-28T10:49:09Z</time>
      </trkpt>
      <trkpt lat="47.17745" lon="5.82836">
        <ele>271.4</ele>
        <time>2024-05-28T10:49:10Z</time>
      </trkpt>
      <trkpt lat="47.17747" lon="5.82838">
        <ele>271.6</ele>
        <time>2024-05-28T10:49:11Z</time>
      </trkpt>
      <trkpt lat="47.17748" lon="5.82839">
        <ele>271.6</ele>
        <time>2024-05-28T10:49:12Z</time>
      </trkpt>
      <trkpt lat="47.17749" lon="5.8284">
        <ele>271.8</ele>
        <time>2024-05-28T10:49:13Z</time>
      </trkpt>
      <trkpt lat="47.17751" lon="5.82842">
        <ele>271.8</ele>
        <time>2024-05-28T10:49:15Z</time>
      </trkpt>
      <trkpt lat="47.17754" lon="5.82847">
        <ele>271.8</ele>
        <time>2024-05-28T10:49:17Z</time>
      </trkpt>
      <trkpt lat="47.17756" lon="5.8285">
        <ele>272</ele>
        <time>2024-05-28T10:49:18Z</time>
      </trkpt>
      <trkpt lat="47.17757" lon="5.82852">
        <ele>272</ele>
        <time>2024-05-28T10:49:19Z</time>
      </trkpt>
      <trkpt lat="47.17757" lon="5.82856">
        <ele>272</ele>
        <time>2024-05-28T10:49:21Z</time>
      </trkpt>
      <trkpt lat="47.17756" lon="5.82858">
        <ele>272</ele>
        <time>2024-05-28T10:49:22Z</time>
      </trkpt>
      <trkpt lat="47.17755" lon="5.82862">
        <ele>272</ele>
        <time>2024-05-28T10:49:24Z</time>
      </trkpt>
      <trkpt lat="47.17756" lon="5.82865">
        <ele>272</ele>
        <time>2024-05-28T10:49:25Z</time>
      </trkpt>
      <trkpt lat="47.17757" lon="5.82867">
        <ele>272</ele>
        <time>2024-05-28T10:49:26Z</time>
      </trkpt>
      <trkpt lat="47.17758" lon="5.8287">
        <ele>272</ele>
        <time>2024-05-28T10:49:27Z</time>
      </trkpt>
      <trkpt lat="47.1776" lon="5.82874">
        <ele>272</ele>
        <time>2024-05-28T10:49:28Z</time>
      </trkpt>
      <trkpt lat="47.17761" lon="5.82877">
        <ele>272</ele>
        <time>2024-05-28T10:49:29Z</time>
      </trkpt>
      <trkpt lat="47.17762" lon="5.82879">
        <ele>272</ele>
        <time>2024-05-28T10:49:30Z</time>
      </trkpt>
      <trkpt lat="47.17764" lon="5.8288">
        <ele>271.8</ele>
        <time>2024-05-28T10:49:31Z</time>
      </trkpt>
      <trkpt lat="47.17766" lon="5.82881">
        <ele>271.8</ele>
        <time>2024-05-28T10:49:32Z</time>
      </trkpt>
      <trkpt lat="47.17768" lon="5.82881">
        <ele>271.8</ele>
        <time>2024-05-28T10:49:33Z</time>
      </trkpt>
      <trkpt lat="47.17773" lon="5.82878">
        <ele>271.8</ele>
        <time>2024-05-28T10:49:36Z</time>
      </trkpt>
      <trkpt lat="47.17775" lon="5.82877">
        <ele>271.8</ele>
        <time>2024-05-28T10:49:37Z</time>
      </trkpt>
      <trkpt lat="47.17776" lon="5.82877">
        <ele>272</ele>
        <time>2024-05-28T10:49:38Z</time>
      </trkpt>
      <trkpt lat="47.17778" lon="5.82878">
        <ele>272</ele>
        <time>2024-05-28T10:49:39Z</time>
      </trkpt>
      <trkpt lat="47.17781" lon="5.82879">
        <ele>272.2</ele>
        <time>2024-05-28T10:49:40Z</time>
      </trkpt>
      <trkpt lat="47.17782" lon="5.82881">
        <ele>272.2</ele>
        <time>2024-05-28T10:49:41Z</time>
      </trkpt>
      <trkpt lat="47.17784" lon="5.82882">
        <ele>272.2</ele>
        <time>2024-05-28T10:49:42Z</time>
      </trkpt>
      <trkpt lat="47.17786" lon="5.82883">
        <ele>272.2</ele>
        <time>2024-05-28T10:49:43Z</time>
      </trkpt>
      <trkpt lat="47.17791" lon="5.82886">
        <ele>272.4</ele>
        <time>2024-05-28T10:49:46Z</time>
      </trkpt>
      <trkpt lat="47.17793" lon="5.82888">
        <ele>272.2</ele>
        <time>2024-05-28T10:49:47Z</time>
      </trkpt>
      <trkpt lat="47.17795" lon="5.82891">
        <ele>272.2</ele>
        <time>2024-05-28T10:49:48Z</time>
      </trkpt>
      <trkpt lat="47.17796" lon="5.82894">
        <ele>272.2</ele>
        <time>2024-05-28T10:49:49Z</time>
      </trkpt>
      <trkpt lat="47.17801" lon="5.82897">
        <ele>272.2</ele>
        <time>2024-05-28T10:49:51Z</time>
      </trkpt>
      <trkpt lat="47.17803" lon="5.829">
        <ele>272.2</ele>
        <time>2024-05-28T10:49:52Z</time>
      </trkpt>
      <trkpt lat="47.17806" lon="5.82902">
        <ele>272</ele>
        <time>2024-05-28T10:49:53Z</time>
      </trkpt>
      <trkpt lat="47.17808" lon="5.82903">
        <ele>272</ele>
        <time>2024-05-28T10:49:54Z</time>
      </trkpt>
      <trkpt lat="47.1781" lon="5.82904">
        <ele>272</ele>
        <time>2024-05-28T10:49:55Z</time>
      </trkpt>
      <trkpt lat="47.17812" lon="5.82906">
        <ele>272</ele>
        <time>2024-05-28T10:49:56Z</time>
      </trkpt>
      <trkpt lat="47.17814" lon="5.82908">
        <ele>272</ele>
        <time>2024-05-28T10:49:57Z</time>
      </trkpt>
      <trkpt lat="47.17816" lon="5.82909">
        <ele>272</ele>
        <time>2024-05-28T10:49:58Z</time>
      </trkpt>
      <trkpt lat="47.17818" lon="5.8291">
        <ele>271.8</ele>
        <time>2024-05-28T10:49:59Z</time>
      </trkpt>
      <trkpt lat="47.17824" lon="5.82911">
        <ele>271.6</ele>
        <time>2024-05-28T10:50:01Z</time>
      </trkpt>
      <trkpt lat="47.17833" lon="5.82916">
        <ele>271.4</ele>
        <time>2024-05-28T10:50:04Z</time>
      </trkpt>
      <trkpt lat="47.17833" lon="5.82916">
        <ele>270.6</ele>
        <time>2024-05-28T10:50:08Z</time>
      </trkpt>
      <trkpt lat="47.17833" lon="5.82916">
        <ele>270.4</ele>
        <time>2024-05-28T10:50:09Z</time>
      </trkpt>
      <trkpt lat="47.17835" lon="5.82917">
        <ele>270.2</ele>
        <time>2024-05-28T10:50:16Z</time>
      </trkpt>
      <trkpt lat="47.17835" lon="5.82916">
        <ele>270.2</ele>
        <time>2024-05-28T10:50:17Z</time>
      </trkpt>
      <trkpt lat="47.17835" lon="5.82916">
        <ele>270</ele>
        <time>2024-05-28T10:50:25Z</time>
      </trkpt>
      <trkpt lat="47.17834" lon="5.82915">
        <ele>269.8</ele>
        <time>2024-05-28T10:50:28Z</time>
      </trkpt>
      <trkpt lat="47.17837" lon="5.82911">
        <ele>269.6</ele>
        <time>2024-05-28T10:50:30Z</time>
      </trkpt>
      <trkpt lat="47.17839" lon="5.82906">
        <ele>269.4</ele>
        <time>2024-05-28T10:50:32Z</time>
      </trkpt>
      <trkpt lat="47.17839" lon="5.82904">
        <ele>269.4</ele>
        <time>2024-05-28T10:50:33Z</time>
      </trkpt>
      <trkpt lat="47.1784" lon="5.82903">
        <ele>269.2</ele>
        <time>2024-05-28T10:50:34Z</time>
      </trkpt>
      <trkpt lat="47.1784" lon="5.82902">
        <ele>268.8</ele>
        <time>2024-05-28T10:50:35Z</time>
      </trkpt>
      <trkpt lat="47.17843" lon="5.82896">
        <ele>268.2</ele>
        <time>2024-05-28T10:50:37Z</time>
      </trkpt>
      <trkpt lat="47.17848" lon="5.82888">
        <ele>267</ele>
        <time>2024-05-28T10:50:42Z</time>
      </trkpt>
      <trkpt lat="47.17848" lon="5.82887">
        <ele>266.8</ele>
        <time>2024-05-28T10:50:43Z</time>
      </trkpt>
      <trkpt lat="47.17848" lon="5.82887">
        <ele>266.4</ele>
        <time>2024-05-28T10:50:44Z</time>
      </trkpt>
      <trkpt lat="47.17848" lon="5.82885">
        <ele>265.8</ele>
        <time>2024-05-28T10:50:45Z</time>
      </trkpt>
      <trkpt lat="47.17848" lon="5.82881">
        <ele>265.2</ele>
        <time>2024-05-28T10:50:46Z</time>
      </trkpt>
      <trkpt lat="47.17849" lon="5.82878">
        <ele>265</ele>
        <time>2024-05-28T10:50:47Z</time>
      </trkpt>
      <trkpt lat="47.17849" lon="5.82874">
        <ele>264.2</ele>
        <time>2024-05-28T10:50:48Z</time>
      </trkpt>
      <trkpt lat="47.1785" lon="5.82871">
        <ele>263.8</ele>
        <time>2024-05-28T10:50:49Z</time>
      </trkpt>
      <trkpt lat="47.1785" lon="5.82867">
        <ele>263.6</ele>
        <time>2024-05-28T10:50:50Z</time>
      </trkpt>
      <trkpt lat="47.17851" lon="5.82863">
        <ele>262.8</ele>
        <time>2024-05-28T10:50:51Z</time>
      </trkpt>
      <trkpt lat="47.17851" lon="5.82859">
        <ele>262.4</ele>
        <time>2024-05-28T10:50:52Z</time>
      </trkpt>
      <trkpt lat="47.17851" lon="5.82854">
        <ele>261.6</ele>
        <time>2024-05-28T10:50:53Z</time>
      </trkpt>
      <trkpt lat="47.17852" lon="5.8285">
        <ele>261.4</ele>
        <time>2024-05-28T10:50:54Z</time>
      </trkpt>
      <trkpt lat="47.17858" lon="5.82831">
        <ele>260.2</ele>
        <time>2024-05-28T10:50:57Z</time>
      </trkpt>
      <trkpt lat="47.1786" lon="5.82823">
        <ele>259.6</ele>
        <time>2024-05-28T10:50:58Z</time>
      </trkpt>
      <trkpt lat="47.17864" lon="5.82809">
        <ele>258.6</ele>
        <time>2024-05-28T10:51:00Z</time>
      </trkpt>
      <trkpt lat="47.17869" lon="5.82797">
        <ele>257.8</ele>
        <time>2024-05-28T10:51:02Z</time>
      </trkpt>
      <trkpt lat="47.17871" lon="5.82791">
        <ele>257.6</ele>
        <time>2024-05-28T10:51:03Z</time>
      </trkpt>
      <trkpt lat="47.17873" lon="5.82784">
        <ele>257.2</ele>
        <time>2024-05-28T10:51:04Z</time>
      </trkpt>
      <trkpt lat="47.17877" lon="5.82774">
        <ele>256.2</ele>
        <time>2024-05-28T10:51:06Z</time>
      </trkpt>
      <trkpt lat="47.17879" lon="5.82768">
        <ele>255.8</ele>
        <time>2024-05-28T10:51:07Z</time>
      </trkpt>
      <trkpt lat="47.17881" lon="5.82761">
        <ele>255.2</ele>
        <time>2024-05-28T10:51:08Z</time>
      </trkpt>
      <trkpt lat="47.17883" lon="5.82756">
        <ele>254.4</ele>
        <time>2024-05-28T10:51:09Z</time>
      </trkpt>
      <trkpt lat="47.17884" lon="5.82753">
        <ele>254</ele>
        <time>2024-05-28T10:51:10Z</time>
      </trkpt>
      <trkpt lat="47.17885" lon="5.82749">
        <ele>253.6</ele>
        <time>2024-05-28T10:51:11Z</time>
      </trkpt>
      <trkpt lat="47.17886" lon="5.82746">
        <ele>253.2</ele>
        <time>2024-05-28T10:51:12Z</time>
      </trkpt>
      <trkpt lat="47.17889" lon="5.82741">
        <ele>252.4</ele>
        <time>2024-05-28T10:51:14Z</time>
      </trkpt>
      <trkpt lat="47.17891" lon="5.82732">
        <ele>252</ele>
        <time>2024-05-28T10:51:16Z</time>
      </trkpt>
      <trkpt lat="47.17893" lon="5.82726">
        <ele>251.8</ele>
        <time>2024-05-28T10:51:17Z</time>
      </trkpt>
      <trkpt lat="47.17895" lon="5.82719">
        <ele>251.2</ele>
        <time>2024-05-28T10:51:18Z</time>
      </trkpt>
      <trkpt lat="47.17897" lon="5.82712">
        <ele>250.8</ele>
        <time>2024-05-28T10:51:19Z</time>
      </trkpt>
      <trkpt lat="47.17901" lon="5.82699">
        <ele>249.8</ele>
        <time>2024-05-28T10:51:21Z</time>
      </trkpt>
      <trkpt lat="47.17908" lon="5.82684">
        <ele>249.4</ele>
        <time>2024-05-28T10:51:23Z</time>
      </trkpt>
      <trkpt lat="47.17914" lon="5.82665">
        <ele>248.8</ele>
        <time>2024-05-28T10:51:25Z</time>
      </trkpt>
      <trkpt lat="47.17923" lon="5.82649">
        <ele>247.8</ele>
        <time>2024-05-28T10:51:27Z</time>
      </trkpt>
      <trkpt lat="47.1793" lon="5.82642">
        <ele>247.4</ele>
        <time>2024-05-28T10:51:28Z</time>
      </trkpt>
      <trkpt lat="47.17938" lon="5.82637">
        <ele>247</ele>
        <time>2024-05-28T10:51:29Z</time>
      </trkpt>
      <trkpt lat="47.17946" lon="5.82633">
        <ele>246</ele>
        <time>2024-05-28T10:51:30Z</time>
      </trkpt>
      <trkpt lat="47.17953" lon="5.82627">
        <ele>245.6</ele>
        <time>2024-05-28T10:51:31Z</time>
      </trkpt>
      <trkpt lat="47.17961" lon="5.82623">
        <ele>245</ele>
        <time>2024-05-28T10:51:32Z</time>
      </trkpt>
      <trkpt lat="47.17969" lon="5.82619">
        <ele>244.4</ele>
        <time>2024-05-28T10:51:33Z</time>
      </trkpt>
      <trkpt lat="47.17976" lon="5.82616">
        <ele>243.4</ele>
        <time>2024-05-28T10:51:34Z</time>
      </trkpt>
      <trkpt lat="47.17983" lon="5.82613">
        <ele>243</ele>
        <time>2024-05-28T10:51:35Z</time>
      </trkpt>
      <trkpt lat="47.17997" lon="5.82605">
        <ele>241.8</ele>
        <time>2024-05-28T10:51:37Z</time>
      </trkpt>
      <trkpt lat="47.18003" lon="5.82601">
        <ele>241.6</ele>
        <time>2024-05-28T10:51:38Z</time>
      </trkpt>
      <trkpt lat="47.1801" lon="5.82597">
        <ele>241.4</ele>
        <time>2024-05-28T10:51:39Z</time>
      </trkpt>
      <trkpt lat="47.18016" lon="5.82592">
        <ele>241.4</ele>
        <time>2024-05-28T10:51:40Z</time>
      </trkpt>
      <trkpt lat="47.18028" lon="5.82582">
        <ele>241</ele>
        <time>2024-05-28T10:51:42Z</time>
      </trkpt>
      <trkpt lat="47.18033" lon="5.82576">
        <ele>241</ele>
        <time>2024-05-28T10:51:43Z</time>
      </trkpt>
      <trkpt lat="47.18037" lon="5.82571">
        <ele>240.8</ele>
        <time>2024-05-28T10:51:44Z</time>
      </trkpt>
      <trkpt lat="47.18042" lon="5.82566">
        <ele>240.8</ele>
        <time>2024-05-28T10:51:45Z</time>
      </trkpt>
      <trkpt lat="47.18046" lon="5.82561">
        <ele>240.8</ele>
        <time>2024-05-28T10:51:46Z</time>
      </trkpt>
      <trkpt lat="47.18051" lon="5.82555">
        <ele>240.8</ele>
        <time>2024-05-28T10:51:47Z</time>
      </trkpt>
      <trkpt lat="47.18055" lon="5.8255">
        <ele>240.8</ele>
        <time>2024-05-28T10:51:48Z</time>
      </trkpt>
      <trkpt lat="47.18058" lon="5.82544">
        <ele>240.8</ele>
        <time>2024-05-28T10:51:49Z</time>
      </trkpt>
      <trkpt lat="47.18062" lon="5.82539">
        <ele>240.8</ele>
        <time>2024-05-28T10:51:50Z</time>
      </trkpt>
      <trkpt lat="47.18065" lon="5.82535">
        <ele>240.8</ele>
        <time>2024-05-28T10:51:51Z</time>
      </trkpt>
      <trkpt lat="47.18068" lon="5.8253">
        <ele>240.8</ele>
        <time>2024-05-28T10:51:52Z</time>
      </trkpt>
      <trkpt lat="47.18071" lon="5.82525">
        <ele>240.8</ele>
        <time>2024-05-28T10:51:53Z</time>
      </trkpt>
      <trkpt lat="47.18074" lon="5.82521">
        <ele>240.8</ele>
        <time>2024-05-28T10:51:54Z</time>
      </trkpt>
      <trkpt lat="47.18077" lon="5.82517">
        <ele>240.8</ele>
        <time>2024-05-28T10:51:55Z</time>
      </trkpt>
      <trkpt lat="47.1808" lon="5.82513">
        <ele>240.8</ele>
        <time>2024-05-28T10:51:56Z</time>
      </trkpt>
      <trkpt lat="47.18082" lon="5.82509">
        <ele>240.8</ele>
        <time>2024-05-28T10:51:57Z</time>
      </trkpt>
      <trkpt lat="47.18084" lon="5.82505">
        <ele>240.8</ele>
        <time>2024-05-28T10:51:58Z</time>
      </trkpt>
      <trkpt lat="47.1809" lon="5.82492">
        <ele>240.8</ele>
        <time>2024-05-28T10:52:01Z</time>
      </trkpt>
      <trkpt lat="47.18092" lon="5.82487">
        <ele>240.8</ele>
        <time>2024-05-28T10:52:02Z</time>
      </trkpt>
      <trkpt lat="47.18095" lon="5.82483">
        <ele>240.8</ele>
        <time>2024-05-28T10:52:03Z</time>
      </trkpt>
      <trkpt lat="47.18099" lon="5.82474">
        <ele>240.8</ele>
        <time>2024-05-28T10:52:05Z</time>
      </trkpt>
      <trkpt lat="47.18102" lon="5.8246">
        <ele>240.8</ele>
        <time>2024-05-28T10:52:08Z</time>
      </trkpt>
      <trkpt lat="47.18101" lon="5.82455">
        <ele>240.8</ele>
        <time>2024-05-28T10:52:09Z</time>
      </trkpt>
      <trkpt lat="47.181" lon="5.8245">
        <ele>240.8</ele>
        <time>2024-05-28T10:52:10Z</time>
      </trkpt>
      <trkpt lat="47.18099" lon="5.82446">
        <ele>241</ele>
        <time>2024-05-28T10:52:11Z</time>
      </trkpt>
      <trkpt lat="47.18097" lon="5.82441">
        <ele>241</ele>
        <time>2024-05-28T10:52:12Z</time>
      </trkpt>
      <trkpt lat="47.18094" lon="5.82436">
        <ele>241</ele>
        <time>2024-05-28T10:52:13Z</time>
      </trkpt>
      <trkpt lat="47.18091" lon="5.8243">
        <ele>241.2</ele>
        <time>2024-05-28T10:52:14Z</time>
      </trkpt>
      <trkpt lat="47.18073" lon="5.82398">
        <ele>241.4</ele>
        <time>2024-05-28T10:52:19Z</time>
      </trkpt>
      <trkpt lat="47.18049" lon="5.82358">
        <ele>240.4</ele>
        <time>2024-05-28T10:52:24Z</time>
      </trkpt>
      <trkpt lat="47.18045" lon="5.82349">
        <ele>239.4</ele>
        <time>2024-05-28T10:52:25Z</time>
      </trkpt>
      <trkpt lat="47.18031" lon="5.8232">
        <ele>238.4</ele>
        <time>2024-05-28T10:52:28Z</time>
      </trkpt>
      <trkpt lat="47.18022" lon="5.823">
        <ele>237.6</ele>
        <time>2024-05-28T10:52:30Z</time>
      </trkpt>
      <trkpt lat="47.18018" lon="5.8229">
        <ele>237</ele>
        <time>2024-05-28T10:52:31Z</time>
      </trkpt>
      <trkpt lat="47.18006" lon="5.82261">
        <ele>235.4</ele>
        <time>2024-05-28T10:52:34Z</time>
      </trkpt>
      <trkpt lat="47.17997" lon="5.8223">
        <ele>234.2</ele>
        <time>2024-05-28T10:52:37Z</time>
      </trkpt>
      <trkpt lat="47.17994" lon="5.8221">
        <ele>234</ele>
        <time>2024-05-28T10:52:39Z</time>
      </trkpt>
      <trkpt lat="47.17993" lon="5.822">
        <ele>233.8</ele>
        <time>2024-05-28T10:52:40Z</time>
      </trkpt>
      <trkpt lat="47.17992" lon="5.8219">
        <ele>233.6</ele>
        <time>2024-05-28T10:52:41Z</time>
      </trkpt>
      <trkpt lat="47.17991" lon="5.82181">
        <ele>233.4</ele>
        <time>2024-05-28T10:52:42Z</time>
      </trkpt>
      <trkpt lat="47.1799" lon="5.82172">
        <ele>233.4</ele>
        <time>2024-05-28T10:52:43Z</time>
      </trkpt>
      <trkpt lat="47.17989" lon="5.82162">
        <ele>233.2</ele>
        <time>2024-05-28T10:52:44Z</time>
      </trkpt>
      <trkpt lat="47.17989" lon="5.82153">
        <ele>232.8</ele>
        <time>2024-05-28T10:52:45Z</time>
      </trkpt>
      <trkpt lat="47.17988" lon="5.82144">
        <ele>232.8</ele>
        <time>2024-05-28T10:52:46Z</time>
      </trkpt>
      <trkpt lat="47.17988" lon="5.82135">
        <ele>232.4</ele>
        <time>2024-05-28T10:52:47Z</time>
      </trkpt>
      <trkpt lat="47.17987" lon="5.82125">
        <ele>232.4</ele>
        <time>2024-05-28T10:52:48Z</time>
      </trkpt>
      <trkpt lat="47.17987" lon="5.82116">
        <ele>232.2</ele>
        <time>2024-05-28T10:52:49Z</time>
      </trkpt>
      <trkpt lat="47.17988" lon="5.82108">
        <ele>232.2</ele>
        <time>2024-05-28T10:52:50Z</time>
      </trkpt>
      <trkpt lat="47.17988" lon="5.82099">
        <ele>232.2</ele>
        <time>2024-05-28T10:52:51Z</time>
      </trkpt>
      <trkpt lat="47.17989" lon="5.82091">
        <ele>232.2</ele>
        <time>2024-05-28T10:52:52Z</time>
      </trkpt>
      <trkpt lat="47.17989" lon="5.82083">
        <ele>232.2</ele>
        <time>2024-05-28T10:52:53Z</time>
      </trkpt>
      <trkpt lat="47.17991" lon="5.82077">
        <ele>232.2</ele>
        <time>2024-05-28T10:52:54Z</time>
      </trkpt>
      <trkpt lat="47.17991" lon="5.82071">
        <ele>232.2</ele>
        <time>2024-05-28T10:52:55Z</time>
      </trkpt>
      <trkpt lat="47.17993" lon="5.82065">
        <ele>232.2</ele>
        <time>2024-05-28T10:52:56Z</time>
      </trkpt>
      <trkpt lat="47.17995" lon="5.82059">
        <ele>232.4</ele>
        <time>2024-05-28T10:52:57Z</time>
      </trkpt>
      <trkpt lat="47.17996" lon="5.82053">
        <ele>232.6</ele>
        <time>2024-05-28T10:52:58Z</time>
      </trkpt>
      <trkpt lat="47.18001" lon="5.82038">
        <ele>233.4</ele>
        <time>2024-05-28T10:53:01Z</time>
      </trkpt>
      <trkpt lat="47.18002" lon="5.82034">
        <ele>233.6</ele>
        <time>2024-05-28T10:53:02Z</time>
      </trkpt>
      <trkpt lat="47.18003" lon="5.82029">
        <ele>234</ele>
        <time>2024-05-28T10:53:03Z</time>
      </trkpt>
      <trkpt lat="47.18004" lon="5.82024">
        <ele>234.2</ele>
        <time>2024-05-28T10:53:04Z</time>
      </trkpt>
      <trkpt lat="47.18008" lon="5.8201">
        <ele>234.8</ele>
        <time>2024-05-28T10:53:07Z</time>
      </trkpt>
      <trkpt lat="47.18009" lon="5.82006">
        <ele>235</ele>
        <time>2024-05-28T10:53:08Z</time>
      </trkpt>
      <trkpt lat="47.18011" lon="5.82002">
        <ele>235.2</ele>
        <time>2024-05-28T10:53:09Z</time>
      </trkpt>
      <trkpt lat="47.18012" lon="5.81997">
        <ele>235.4</ele>
        <time>2024-05-28T10:53:10Z</time>
      </trkpt>
      <trkpt lat="47.18013" lon="5.81992">
        <ele>235.6</ele>
        <time>2024-05-28T10:53:11Z</time>
      </trkpt>
      <trkpt lat="47.18019" lon="5.81962">
        <ele>236.2</ele>
        <time>2024-05-28T10:53:17Z</time>
      </trkpt>
      <trkpt lat="47.18019" lon="5.81957">
        <ele>236.2</ele>
        <time>2024-05-28T10:53:18Z</time>
      </trkpt>
      <trkpt lat="47.18018" lon="5.81951">
        <ele>236.4</ele>
        <time>2024-05-28T10:53:19Z</time>
      </trkpt>
      <trkpt lat="47.18018" lon="5.81946">
        <ele>236.4</ele>
        <time>2024-05-28T10:53:20Z</time>
      </trkpt>
      <trkpt lat="47.18017" lon="5.8194">
        <ele>236.6</ele>
        <time>2024-05-28T10:53:21Z</time>
      </trkpt>
      <trkpt lat="47.18016" lon="5.81934">
        <ele>236.6</ele>
        <time>2024-05-28T10:53:22Z</time>
      </trkpt>
      <trkpt lat="47.18016" lon="5.81928">
        <ele>236.6</ele>
        <time>2024-05-28T10:53:23Z</time>
      </trkpt>
      <trkpt lat="47.18015" lon="5.81922">
        <ele>236.6</ele>
        <time>2024-05-28T10:53:24Z</time>
      </trkpt>
      <trkpt lat="47.18014" lon="5.81915">
        <ele>236.6</ele>
        <time>2024-05-28T10:53:25Z</time>
      </trkpt>
      <trkpt lat="47.18013" lon="5.81909">
        <ele>236.4</ele>
        <time>2024-05-28T10:53:26Z</time>
      </trkpt>
      <trkpt lat="47.18011" lon="5.81902">
        <ele>236.4</ele>
        <time>2024-05-28T10:53:27Z</time>
      </trkpt>
      <trkpt lat="47.1801" lon="5.81896">
        <ele>236.2</ele>
        <time>2024-05-28T10:53:28Z</time>
      </trkpt>
      <trkpt lat="47.18009" lon="5.81889">
        <ele>236.2</ele>
        <time>2024-05-28T10:53:29Z</time>
      </trkpt>
      <trkpt lat="47.18007" lon="5.81882">
        <ele>236</ele>
        <time>2024-05-28T10:53:30Z</time>
      </trkpt>
      <trkpt lat="47.18006" lon="5.81875">
        <ele>236</ele>
        <time>2024-05-28T10:53:31Z</time>
      </trkpt>
      <trkpt lat="47.18" lon="5.81845">
        <ele>235.6</ele>
        <time>2024-05-28T10:53:35Z</time>
      </trkpt>
      <trkpt lat="47.17995" lon="5.81807">
        <ele>235.2</ele>
        <time>2024-05-28T10:53:40Z</time>
      </trkpt>
      <trkpt lat="47.17992" lon="5.81784">
        <ele>235.2</ele>
        <time>2024-05-28T10:53:43Z</time>
      </trkpt>
      <trkpt lat="47.17981" lon="5.81715">
        <ele>234.6</ele>
        <time>2024-05-28T10:53:52Z</time>
      </trkpt>
      <trkpt lat="47.1798" lon="5.81708">
        <ele>234.6</ele>
        <time>2024-05-28T10:53:53Z</time>
      </trkpt>
      <trkpt lat="47.17979" lon="5.81701">
        <ele>234.4</ele>
        <time>2024-05-28T10:53:54Z</time>
      </trkpt>
      <trkpt lat="47.17973" lon="5.8166">
        <ele>234.2</ele>
        <time>2024-05-28T10:53:59Z</time>
      </trkpt>
      <trkpt lat="47.17971" lon="5.81642">
        <ele>234</ele>
        <time>2024-05-28T10:54:01Z</time>
      </trkpt>
      <trkpt lat="47.17964" lon="5.8159">
        <ele>233.2</ele>
        <time>2024-05-28T10:54:07Z</time>
      </trkpt>
      <trkpt lat="47.17962" lon="5.81581">
        <ele>233.2</ele>
        <time>2024-05-28T10:54:08Z</time>
      </trkpt>
      <trkpt lat="47.17955" lon="5.81538">
        <ele>232.4</ele>
        <time>2024-05-28T10:54:13Z</time>
      </trkpt>
      <trkpt lat="47.17952" lon="5.81513">
        <ele>232</ele>
        <time>2024-05-28T10:54:16Z</time>
      </trkpt>
      <trkpt lat="47.17951" lon="5.81504">
        <ele>232</ele>
        <time>2024-05-28T10:54:17Z</time>
      </trkpt>
      <trkpt lat="47.17949" lon="5.81488">
        <ele>231.8</ele>
        <time>2024-05-28T10:54:19Z</time>
      </trkpt>
      <trkpt lat="47.17948" lon="5.8148">
        <ele>231.6</ele>
        <time>2024-05-28T10:54:20Z</time>
      </trkpt>
      <trkpt lat="47.17947" lon="5.81473">
        <ele>231.6</ele>
        <time>2024-05-28T10:54:21Z</time>
      </trkpt>
      <trkpt lat="47.17946" lon="5.81466">
        <ele>231.6</ele>
        <time>2024-05-28T10:54:22Z</time>
      </trkpt>
      <trkpt lat="47.17944" lon="5.81459">
        <ele>231.4</ele>
        <time>2024-05-28T10:54:23Z</time>
      </trkpt>
      <trkpt lat="47.17939" lon="5.81448">
        <ele>231.2</ele>
        <time>2024-05-28T10:54:25Z</time>
      </trkpt>
      <trkpt lat="47.17935" lon="5.81445">
        <ele>231</ele>
        <time>2024-05-28T10:54:26Z</time>
      </trkpt>
      <trkpt lat="47.17931" lon="5.81443">
        <ele>231</ele>
        <time>2024-05-28T10:54:27Z</time>
      </trkpt>
      <trkpt lat="47.17926" lon="5.8144">
        <ele>231</ele>
        <time>2024-05-28T10:54:28Z</time>
      </trkpt>
      <trkpt lat="47.17921" lon="5.81436">
        <ele>231</ele>
        <time>2024-05-28T10:54:29Z</time>
      </trkpt>
      <trkpt lat="47.17915" lon="5.81433">
        <ele>230.8</ele>
        <time>2024-05-28T10:54:30Z</time>
      </trkpt>
      <trkpt lat="47.1791" lon="5.8143">
        <ele>230.8</ele>
        <time>2024-05-28T10:54:31Z</time>
      </trkpt>
      <trkpt lat="47.17897" lon="5.81427">
        <ele>230.8</ele>
        <time>2024-05-28T10:54:33Z</time>
      </trkpt>
      <trkpt lat="47.17882" lon="5.81424">
        <ele>230</ele>
        <time>2024-05-28T10:54:35Z</time>
      </trkpt>
      <trkpt lat="47.17875" lon="5.81422">
        <ele>229.8</ele>
        <time>2024-05-28T10:54:36Z</time>
      </trkpt>
      <trkpt lat="47.17867" lon="5.81418">
        <ele>229.4</ele>
        <time>2024-05-28T10:54:37Z</time>
      </trkpt>
      <trkpt lat="47.17859" lon="5.81413">
        <ele>229.2</ele>
        <time>2024-05-28T10:54:38Z</time>
      </trkpt>
      <trkpt lat="47.17852" lon="5.81406">
        <ele>228.4</ele>
        <time>2024-05-28T10:54:39Z</time>
      </trkpt>
      <trkpt lat="47.17845" lon="5.81399">
        <ele>228.2</ele>
        <time>2024-05-28T10:54:40Z</time>
      </trkpt>
      <trkpt lat="47.17838" lon="5.8139">
        <ele>227.2</ele>
        <time>2024-05-28T10:54:41Z</time>
      </trkpt>
      <trkpt lat="47.17831" lon="5.81382">
        <ele>226</ele>
        <time>2024-05-28T10:54:42Z</time>
      </trkpt>
      <trkpt lat="47.17817" lon="5.81365">
        <ele>224.6</ele>
        <time>2024-05-28T10:54:44Z</time>
      </trkpt>
      <trkpt lat="47.17803" lon="5.81349">
        <ele>223.2</ele>
        <time>2024-05-28T10:54:46Z</time>
      </trkpt>
      <trkpt lat="47.17797" lon="5.81343">
        <ele>222.8</ele>
        <time>2024-05-28T10:54:47Z</time>
      </trkpt>
      <trkpt lat="47.1779" lon="5.81336">
        <ele>222</ele>
        <time>2024-05-28T10:54:48Z</time>
      </trkpt>
      <trkpt lat="47.17784" lon="5.81331">
        <ele>221.6</ele>
        <time>2024-05-28T10:54:49Z</time>
      </trkpt>
      <trkpt lat="47.17777" lon="5.81326">
        <ele>221</ele>
        <time>2024-05-28T10:54:50Z</time>
      </trkpt>
      <trkpt lat="47.1777" lon="5.81323">
        <ele>220.6</ele>
        <time>2024-05-28T10:54:51Z</time>
      </trkpt>
      <trkpt lat="47.17764" lon="5.81319">
        <ele>220.6</ele>
        <time>2024-05-28T10:54:52Z</time>
      </trkpt>
      <trkpt lat="47.17757" lon="5.81317">
        <ele>220.4</ele>
        <time>2024-05-28T10:54:53Z</time>
      </trkpt>
      <trkpt lat="47.17751" lon="5.81314">
        <ele>220.2</ele>
        <time>2024-05-28T10:54:54Z</time>
      </trkpt>
      <trkpt lat="47.17745" lon="5.81312">
        <ele>220</ele>
        <time>2024-05-28T10:54:55Z</time>
      </trkpt>
      <trkpt lat="47.17739" lon="5.8131">
        <ele>220</ele>
        <time>2024-05-28T10:54:56Z</time>
      </trkpt>
      <trkpt lat="47.17733" lon="5.81308">
        <ele>220</ele>
        <time>2024-05-28T10:54:57Z</time>
      </trkpt>
      <trkpt lat="47.17727" lon="5.81306">
        <ele>220</ele>
        <time>2024-05-28T10:54:58Z</time>
      </trkpt>
      <trkpt lat="47.17721" lon="5.81304">
        <ele>220</ele>
        <time>2024-05-28T10:54:59Z</time>
      </trkpt>
      <trkpt lat="47.17716" lon="5.81303">
        <ele>220</ele>
        <time>2024-05-28T10:55:00Z</time>
      </trkpt>
      <trkpt lat="47.1771" lon="5.81302">
        <ele>220</ele>
        <time>2024-05-28T10:55:01Z</time>
      </trkpt>
      <trkpt lat="47.17705" lon="5.81301">
        <ele>220</ele>
        <time>2024-05-28T10:55:02Z</time>
      </trkpt>
      <trkpt lat="47.177" lon="5.813">
        <ele>220</ele>
        <time>2024-05-28T10:55:03Z</time>
      </trkpt>
      <trkpt lat="47.17695" lon="5.81299">
        <ele>220</ele>
        <time>2024-05-28T10:55:04Z</time>
      </trkpt>
      <trkpt lat="47.1769" lon="5.81299">
        <ele>220</ele>
        <time>2024-05-28T10:55:05Z</time>
      </trkpt>
      <trkpt lat="47.17686" lon="5.81298">
        <ele>220</ele>
        <time>2024-05-28T10:55:06Z</time>
      </trkpt>
      <trkpt lat="47.1766" lon="5.81295">
        <ele>220</ele>
        <time>2024-05-28T10:55:11Z</time>
      </trkpt>
      <trkpt lat="47.1761" lon="5.81285">
        <ele>219.6</ele>
        <time>2024-05-28T10:55:21Z</time>
      </trkpt>
      <trkpt lat="47.17605" lon="5.81284">
        <ele>219.6</ele>
        <time>2024-05-28T10:55:22Z</time>
      </trkpt>
      <trkpt lat="47.17601" lon="5.81283">
        <ele>219.6</ele>
        <time>2024-05-28T10:55:23Z</time>
      </trkpt>
      <trkpt lat="47.17596" lon="5.81282">
        <ele>219.8</ele>
        <time>2024-05-28T10:55:24Z</time>
      </trkpt>
      <trkpt lat="47.17592" lon="5.81281">
        <ele>219.8</ele>
        <time>2024-05-28T10:55:25Z</time>
      </trkpt>
      <trkpt lat="47.17587" lon="5.8128">
        <ele>219.8</ele>
        <time>2024-05-28T10:55:26Z</time>
      </trkpt>
      <trkpt lat="47.17583" lon="5.81278">
        <ele>219.8</ele>
        <time>2024-05-28T10:55:27Z</time>
      </trkpt>
      <trkpt lat="47.17578" lon="5.81277">
        <ele>219.8</ele>
        <time>2024-05-28T10:55:28Z</time>
      </trkpt>
      <trkpt lat="47.17574" lon="5.81275">
        <ele>219.8</ele>
        <time>2024-05-28T10:55:29Z</time>
      </trkpt>
      <trkpt lat="47.17529" lon="5.8126">
        <ele>219.8</ele>
        <time>2024-05-28T10:55:38Z</time>
      </trkpt>
      <trkpt lat="47.17482" lon="5.81246">
        <ele>219.6</ele>
        <time>2024-05-28T10:55:47Z</time>
      </trkpt>
      <trkpt lat="47.17476" lon="5.81245">
        <ele>219.6</ele>
        <time>2024-05-28T10:55:48Z</time>
      </trkpt>
      <trkpt lat="47.17457" lon="5.81239">
        <ele>219.8</ele>
        <time>2024-05-28T10:55:52Z</time>
      </trkpt>
      <trkpt lat="47.17452" lon="5.81237">
        <ele>219.8</ele>
        <time>2024-05-28T10:55:53Z</time>
      </trkpt>
      <trkpt lat="47.17447" lon="5.81236">
        <ele>219.8</ele>
        <time>2024-05-28T10:55:54Z</time>
      </trkpt>
      <trkpt lat="47.17442" lon="5.81234">
        <ele>220</ele>
        <time>2024-05-28T10:55:55Z</time>
      </trkpt>
      <trkpt lat="47.17432" lon="5.8123">
        <ele>220</ele>
        <time>2024-05-28T10:55:57Z</time>
      </trkpt>
      <trkpt lat="47.17379" lon="5.81204">
        <ele>220.2</ele>
        <time>2024-05-28T10:56:07Z</time>
      </trkpt>
      <trkpt lat="47.17361" lon="5.81196">
        <ele>220.2</ele>
        <time>2024-05-28T10:56:10Z</time>
      </trkpt>
      <trkpt lat="47.17344" lon="5.81191">
        <ele>220</ele>
        <time>2024-05-28T10:56:13Z</time>
      </trkpt>
      <trkpt lat="47.17315" lon="5.81186">
        <ele>219.8</ele>
        <time>2024-05-28T10:56:18Z</time>
      </trkpt>
      <trkpt lat="47.17309" lon="5.81185">
        <ele>219.6</ele>
        <time>2024-05-28T10:56:19Z</time>
      </trkpt>
      <trkpt lat="47.17303" lon="5.81184">
        <ele>219.6</ele>
        <time>2024-05-28T10:56:20Z</time>
      </trkpt>
      <trkpt lat="47.17298" lon="5.81183">
        <ele>219.6</ele>
        <time>2024-05-28T10:56:21Z</time>
      </trkpt>
      <trkpt lat="47.17292" lon="5.81182">
        <ele>219.6</ele>
        <time>2024-05-28T10:56:22Z</time>
      </trkpt>
      <trkpt lat="47.17287" lon="5.81181">
        <ele>219.6</ele>
        <time>2024-05-28T10:56:23Z</time>
      </trkpt>
      <trkpt lat="47.17282" lon="5.8118">
        <ele>219.4</ele>
        <time>2024-05-28T10:56:24Z</time>
      </trkpt>
      <trkpt lat="47.17277" lon="5.81179">
        <ele>219.4</ele>
        <time>2024-05-28T10:56:25Z</time>
      </trkpt>
      <trkpt lat="47.17272" lon="5.81178">
        <ele>219.4</ele>
        <time>2024-05-28T10:56:26Z</time>
      </trkpt>
      <trkpt lat="47.17267" lon="5.81177">
        <ele>219.4</ele>
        <time>2024-05-28T10:56:27Z</time>
      </trkpt>
      <trkpt lat="47.17262" lon="5.81176">
        <ele>219.4</ele>
        <time>2024-05-28T10:56:28Z</time>
      </trkpt>
      <trkpt lat="47.17257" lon="5.81175">
        <ele>219.4</ele>
        <time>2024-05-28T10:56:29Z</time>
      </trkpt>
      <trkpt lat="47.17253" lon="5.81174">
        <ele>219.4</ele>
        <time>2024-05-28T10:56:30Z</time>
      </trkpt>
      <trkpt lat="47.17248" lon="5.81173">
        <ele>219.4</ele>
        <time>2024-05-28T10:56:31Z</time>
      </trkpt>
      <trkpt lat="47.17244" lon="5.81172">
        <ele>219.4</ele>
        <time>2024-05-28T10:56:32Z</time>
      </trkpt>
      <trkpt lat="47.1724" lon="5.81172">
        <ele>219.4</ele>
        <time>2024-05-28T10:56:33Z</time>
      </trkpt>
      <trkpt lat="47.17236" lon="5.81171">
        <ele>219.2</ele>
        <time>2024-05-28T10:56:34Z</time>
      </trkpt>
      <trkpt lat="47.17231" lon="5.8117">
        <ele>219.2</ele>
        <time>2024-05-28T10:56:35Z</time>
      </trkpt>
      <trkpt lat="47.17226" lon="5.81169">
        <ele>219.2</ele>
        <time>2024-05-28T10:56:36Z</time>
      </trkpt>
      <trkpt lat="47.17222" lon="5.81168">
        <ele>219.2</ele>
        <time>2024-05-28T10:56:37Z</time>
      </trkpt>
      <trkpt lat="47.17217" lon="5.81166">
        <ele>219.2</ele>
        <time>2024-05-28T10:56:38Z</time>
      </trkpt>
      <trkpt lat="47.17191" lon="5.81161">
        <ele>219</ele>
        <time>2024-05-28T10:56:43Z</time>
      </trkpt>
      <trkpt lat="47.17171" lon="5.81157">
        <ele>218.8</ele>
        <time>2024-05-28T10:56:47Z</time>
      </trkpt>
      <trkpt lat="47.17123" lon="5.81145">
        <ele>219</ele>
        <time>2024-05-28T10:56:56Z</time>
      </trkpt>
      <trkpt lat="47.17096" lon="5.81137">
        <ele>219</ele>
        <time>2024-05-28T10:57:01Z</time>
      </trkpt>
      <trkpt lat="47.17068" lon="5.81129">
        <ele>219</ele>
        <time>2024-05-28T10:57:06Z</time>
      </trkpt>
      <trkpt lat="47.17024" lon="5.81118">
        <ele>219</ele>
        <time>2024-05-28T10:57:14Z</time>
      </trkpt>
      <trkpt lat="47.17014" lon="5.81117">
        <ele>219.2</ele>
        <time>2024-05-28T10:57:16Z</time>
      </trkpt>
      <trkpt lat="47.17004" lon="5.81116">
        <ele>219.2</ele>
        <time>2024-05-28T10:57:18Z</time>
      </trkpt>
      <trkpt lat="47.17" lon="5.81118">
        <ele>219.2</ele>
        <time>2024-05-28T10:57:19Z</time>
      </trkpt>
      <trkpt lat="47.16996" lon="5.81121">
        <ele>219.2</ele>
        <time>2024-05-28T10:57:20Z</time>
      </trkpt>
      <trkpt lat="47.16994" lon="5.81126">
        <ele>219.2</ele>
        <time>2024-05-28T10:57:21Z</time>
      </trkpt>
      <trkpt lat="47.16991" lon="5.8113">
        <ele>219.2</ele>
        <time>2024-05-28T10:57:22Z</time>
      </trkpt>
      <trkpt lat="47.16988" lon="5.81134">
        <ele>219.2</ele>
        <time>2024-05-28T10:57:23Z</time>
      </trkpt>
      <trkpt lat="47.16986" lon="5.81137">
        <ele>219.2</ele>
        <time>2024-05-28T10:57:24Z</time>
      </trkpt>
      <trkpt lat="47.16984" lon="5.81138">
        <ele>219.4</ele>
        <time>2024-05-28T10:57:25Z</time>
      </trkpt>
      <trkpt lat="47.16984" lon="5.81139">
        <ele>219.4</ele>
        <time>2024-05-28T10:57:26Z</time>
      </trkpt>
      <trkpt lat="47.16984" lon="5.81139">
        <ele>219.4</ele>
        <time>2024-05-28T10:57:27Z</time>
      </trkpt>
      <trkpt lat="47.16984" lon="5.81139">
        <ele>219.6</ele>
        <time>2024-05-28T10:57:31Z</time>
      </trkpt>
      <trkpt lat="47.16984" lon="5.81139">
        <ele>219.8</ele>
        <time>2024-05-28T10:57:44Z</time>
      </trkpt>
      <trkpt lat="47.16979" lon="5.81146">
        <ele>219.6</ele>
        <time>2024-05-28T10:58:58Z</time>
      </trkpt>
      <trkpt lat="47.16977" lon="5.81149">
        <ele>219.6</ele>
        <time>2024-05-28T10:58:59Z</time>
      </trkpt>
      <trkpt lat="47.16975" lon="5.81152">
        <ele>219.6</ele>
        <time>2024-05-28T10:59:00Z</time>
      </trkpt>
      <trkpt lat="47.16969" lon="5.81162">
        <ele>219.6</ele>
        <time>2024-05-28T10:59:03Z</time>
      </trkpt>
      <trkpt lat="47.16967" lon="5.81165">
        <ele>219.6</ele>
        <time>2024-05-28T10:59:04Z</time>
      </trkpt>
      <trkpt lat="47.16957" lon="5.81181">
        <ele>219.4</ele>
        <time>2024-05-28T10:59:08Z</time>
      </trkpt>
      <trkpt lat="47.16939" lon="5.81215">
        <ele>219.2</ele>
        <time>2024-05-28T10:59:14Z</time>
      </trkpt>
      <trkpt lat="47.16935" lon="5.8122">
        <ele>219.2</ele>
        <time>2024-05-28T10:59:15Z</time>
      </trkpt>
      <trkpt lat="47.16908" lon="5.81248">
        <ele>219.6</ele>
        <time>2024-05-28T10:59:21Z</time>
      </trkpt>
      <trkpt lat="47.16864" lon="5.81293">
        <ele>220</ele>
        <time>2024-05-28T10:59:30Z</time>
      </trkpt>
      <trkpt lat="47.16856" lon="5.81303">
        <ele>220</ele>
        <time>2024-05-28T10:59:32Z</time>
      </trkpt>
      <trkpt lat="47.16853" lon="5.81307">
        <ele>220</ele>
        <time>2024-05-28T10:59:33Z</time>
      </trkpt>
      <trkpt lat="47.16849" lon="5.81312">
        <ele>220</ele>
        <time>2024-05-28T10:59:34Z</time>
      </trkpt>
      <trkpt lat="47.16845" lon="5.81317">
        <ele>220.2</ele>
        <time>2024-05-28T10:59:35Z</time>
      </trkpt>
      <trkpt lat="47.16842" lon="5.81322">
        <ele>220.2</ele>
        <time>2024-05-28T10:59:36Z</time>
      </trkpt>
      <trkpt lat="47.16835" lon="5.81332">
        <ele>220.2</ele>
        <time>2024-05-28T10:59:38Z</time>
      </trkpt>
      <trkpt lat="47.16832" lon="5.81338">
        <ele>220.2</ele>
        <time>2024-05-28T10:59:39Z</time>
      </trkpt>
      <trkpt lat="47.16825" lon="5.81356">
        <ele>220.4</ele>
        <time>2024-05-28T10:59:42Z</time>
      </trkpt>
      <trkpt lat="47.16823" lon="5.81362">
        <ele>220.4</ele>
        <time>2024-05-28T10:59:43Z</time>
      </trkpt>
      <trkpt lat="47.1681" lon="5.81417">
        <ele>220.4</ele>
        <time>2024-05-28T10:59:51Z</time>
      </trkpt>
      <trkpt lat="47.16805" lon="5.81469">
        <ele>220.4</ele>
        <time>2024-05-28T10:59:58Z</time>
      </trkpt>
      <trkpt lat="47.16805" lon="5.81482">
        <ele>220.4</ele>
        <time>2024-05-28T11:00:00Z</time>
      </trkpt>
      <trkpt lat="47.16805" lon="5.81488">
        <ele>220.4</ele>
        <time>2024-05-28T11:00:01Z</time>
      </trkpt>
      <trkpt lat="47.16805" lon="5.81494">
        <ele>220.4</ele>
        <time>2024-05-28T11:00:02Z</time>
      </trkpt>
      <trkpt lat="47.16806" lon="5.815">
        <ele>220.4</ele>
        <time>2024-05-28T11:00:03Z</time>
      </trkpt>
      <trkpt lat="47.16806" lon="5.81506">
        <ele>220.4</ele>
        <time>2024-05-28T11:00:04Z</time>
      </trkpt>
      <trkpt lat="47.16807" lon="5.81527">
        <ele>220.6</ele>
        <time>2024-05-28T11:00:07Z</time>
      </trkpt>
      <trkpt lat="47.16808" lon="5.81585">
        <ele>220.8</ele>
        <time>2024-05-28T11:00:15Z</time>
      </trkpt>
      <trkpt lat="47.1681" lon="5.81668">
        <ele>221</ele>
        <time>2024-05-28T11:00:26Z</time>
      </trkpt>
      <trkpt lat="47.16811" lon="5.81676">
        <ele>221</ele>
        <time>2024-05-28T11:00:27Z</time>
      </trkpt>
      <trkpt lat="47.1681" lon="5.81738">
        <ele>221.2</ele>
        <time>2024-05-28T11:00:35Z</time>
      </trkpt>
      <trkpt lat="47.16807" lon="5.81817">
        <ele>221.4</ele>
        <time>2024-05-28T11:00:45Z</time>
      </trkpt>
      <trkpt lat="47.16806" lon="5.81825">
        <ele>221.4</ele>
        <time>2024-05-28T11:00:46Z</time>
      </trkpt>
      <trkpt lat="47.16804" lon="5.8184">
        <ele>221.4</ele>
        <time>2024-05-28T11:00:48Z</time>
      </trkpt>
      <trkpt lat="47.16803" lon="5.81848">
        <ele>221.4</ele>
        <time>2024-05-28T11:00:49Z</time>
      </trkpt>
      <trkpt lat="47.16803" lon="5.81855">
        <ele>221.4</ele>
        <time>2024-05-28T11:00:50Z</time>
      </trkpt>
      <trkpt lat="47.16801" lon="5.8187">
        <ele>221.4</ele>
        <time>2024-05-28T11:00:52Z</time>
      </trkpt>
      <trkpt lat="47.168" lon="5.81877">
        <ele>221.6</ele>
        <time>2024-05-28T11:00:53Z</time>
      </trkpt>
      <trkpt lat="47.16799" lon="5.81885">
        <ele>221.6</ele>
        <time>2024-05-28T11:00:54Z</time>
      </trkpt>
      <trkpt lat="47.16798" lon="5.81892">
        <ele>221.6</ele>
        <time>2024-05-28T11:00:55Z</time>
      </trkpt>
      <trkpt lat="47.16797" lon="5.81899">
        <ele>221.6</ele>
        <time>2024-05-28T11:00:56Z</time>
      </trkpt>
      <trkpt lat="47.16795" lon="5.81905">
        <ele>221.6</ele>
        <time>2024-05-28T11:00:57Z</time>
      </trkpt>
      <trkpt lat="47.16794" lon="5.81911">
        <ele>221.6</ele>
        <time>2024-05-28T11:00:58Z</time>
      </trkpt>
      <trkpt lat="47.16793" lon="5.81917">
        <ele>221.8</ele>
        <time>2024-05-28T11:00:59Z</time>
      </trkpt>
      <trkpt lat="47.16793" lon="5.81925">
        <ele>221.8</ele>
        <time>2024-05-28T11:01:00Z</time>
      </trkpt>
      <trkpt lat="47.16792" lon="5.81931">
        <ele>221.8</ele>
        <time>2024-05-28T11:01:01Z</time>
      </trkpt>
      <trkpt lat="47.16789" lon="5.81951">
        <ele>222</ele>
        <time>2024-05-28T11:01:04Z</time>
      </trkpt>
      <trkpt lat="47.16782" lon="5.82002">
        <ele>222</ele>
        <time>2024-05-28T11:01:11Z</time>
      </trkpt>
      <trkpt lat="47.1678" lon="5.82015">
        <ele>222</ele>
        <time>2024-05-28T11:01:13Z</time>
      </trkpt>
      <trkpt lat="47.16778" lon="5.82022">
        <ele>222</ele>
        <time>2024-05-28T11:01:14Z</time>
      </trkpt>
      <trkpt lat="47.16775" lon="5.82035">
        <ele>222</ele>
        <time>2024-05-28T11:01:16Z</time>
      </trkpt>
      <trkpt lat="47.16774" lon="5.82041">
        <ele>222.2</ele>
        <time>2024-05-28T11:01:17Z</time>
      </trkpt>
      <trkpt lat="47.16766" lon="5.82073">
        <ele>222.4</ele>
        <time>2024-05-28T11:01:22Z</time>
      </trkpt>
      <trkpt lat="47.16756" lon="5.82107">
        <ele>222.8</ele>
        <time>2024-05-28T11:01:27Z</time>
      </trkpt>
      <trkpt lat="47.16748" lon="5.82126">
        <ele>222.8</ele>
        <time>2024-05-28T11:01:30Z</time>
      </trkpt>
      <trkpt lat="47.16727" lon="5.82189">
        <ele>223.2</ele>
        <time>2024-05-28T11:01:39Z</time>
      </trkpt>
      <trkpt lat="47.16711" lon="5.82238">
        <ele>223</ele>
        <time>2024-05-28T11:01:46Z</time>
      </trkpt>
      <trkpt lat="47.16694" lon="5.82277">
        <ele>222.8</ele>
        <time>2024-05-28T11:01:52Z</time>
      </trkpt>
      <trkpt lat="47.16686" lon="5.82297">
        <ele>222.6</ele>
        <time>2024-05-28T11:01:55Z</time>
      </trkpt>
      <trkpt lat="47.16667" lon="5.82344">
        <ele>222.6</ele>
        <time>2024-05-28T11:02:02Z</time>
      </trkpt>
      <trkpt lat="47.16643" lon="5.82405">
        <ele>222.4</ele>
        <time>2024-05-28T11:02:11Z</time>
      </trkpt>
      <trkpt lat="47.1664" lon="5.82412">
        <ele>222.4</ele>
        <time>2024-05-28T11:02:12Z</time>
      </trkpt>
      <trkpt lat="47.1663" lon="5.82439">
        <ele>222.4</ele>
        <time>2024-05-28T11:02:16Z</time>
      </trkpt>
      <trkpt lat="47.16625" lon="5.82451">
        <ele>222.4</ele>
        <time>2024-05-28T11:02:18Z</time>
      </trkpt>
      <trkpt lat="47.16619" lon="5.82464">
        <ele>222.6</ele>
        <time>2024-05-28T11:02:20Z</time>
      </trkpt>
      <trkpt lat="47.16615" lon="5.82479">
        <ele>222.6</ele>
        <time>2024-05-28T11:02:22Z</time>
      </trkpt>
      <trkpt lat="47.16609" lon="5.82511">
        <ele>222.8</ele>
        <time>2024-05-28T11:02:26Z</time>
      </trkpt>
      <trkpt lat="47.16608" lon="5.82527">
        <ele>222.6</ele>
        <time>2024-05-28T11:02:28Z</time>
      </trkpt>
      <trkpt lat="47.16608" lon="5.82567">
        <ele>222.2</ele>
        <time>2024-05-28T11:02:33Z</time>
      </trkpt>
      <trkpt lat="47.16608" lon="5.82575">
        <ele>222.2</ele>
        <time>2024-05-28T11:02:34Z</time>
      </trkpt>
      <trkpt lat="47.16609" lon="5.82582">
        <ele>222.2</ele>
        <time>2024-05-28T11:02:35Z</time>
      </trkpt>
      <trkpt lat="47.16609" lon="5.8259">
        <ele>222</ele>
        <time>2024-05-28T11:02:36Z</time>
      </trkpt>
      <trkpt lat="47.1661" lon="5.82597">
        <ele>222</ele>
        <time>2024-05-28T11:02:37Z</time>
      </trkpt>
      <trkpt lat="47.1661" lon="5.82604">
        <ele>222</ele>
        <time>2024-05-28T11:02:38Z</time>
      </trkpt>
      <trkpt lat="47.1661" lon="5.82612">
        <ele>222</ele>
        <time>2024-05-28T11:02:39Z</time>
      </trkpt>
      <trkpt lat="47.1661" lon="5.82619">
        <ele>222</ele>
        <time>2024-05-28T11:02:40Z</time>
      </trkpt>
      <trkpt lat="47.1661" lon="5.82626">
        <ele>222</ele>
        <time>2024-05-28T11:02:41Z</time>
      </trkpt>
      <trkpt lat="47.1661" lon="5.82634">
        <ele>222</ele>
        <time>2024-05-28T11:02:42Z</time>
      </trkpt>
      <trkpt lat="47.1661" lon="5.82641">
        <ele>222</ele>
        <time>2024-05-28T11:02:43Z</time>
      </trkpt>
      <trkpt lat="47.16611" lon="5.82649">
        <ele>222</ele>
        <time>2024-05-28T11:02:44Z</time>
      </trkpt>
      <trkpt lat="47.16611" lon="5.82657">
        <ele>222</ele>
        <time>2024-05-28T11:02:45Z</time>
      </trkpt>
      <trkpt lat="47.16612" lon="5.82672">
        <ele>222</ele>
        <time>2024-05-28T11:02:47Z</time>
      </trkpt>
      <trkpt lat="47.16614" lon="5.82694">
        <ele>222</ele>
        <time>2024-05-28T11:02:50Z</time>
      </trkpt>
      <trkpt lat="47.16615" lon="5.82714">
        <ele>222</ele>
        <time>2024-05-28T11:02:53Z</time>
      </trkpt>
      <trkpt lat="47.16614" lon="5.8272">
        <ele>222.2</ele>
        <time>2024-05-28T11:02:54Z</time>
      </trkpt>
      <trkpt lat="47.16614" lon="5.82727">
        <ele>222.2</ele>
        <time>2024-05-28T11:02:55Z</time>
      </trkpt>
      <trkpt lat="47.16614" lon="5.82733">
        <ele>222.2</ele>
        <time>2024-05-28T11:02:56Z</time>
      </trkpt>
      <trkpt lat="47.16613" lon="5.82747">
        <ele>222.4</ele>
        <time>2024-05-28T11:02:58Z</time>
      </trkpt>
      <trkpt lat="47.16613" lon="5.82754">
        <ele>222.4</ele>
        <time>2024-05-28T11:02:59Z</time>
      </trkpt>
      <trkpt lat="47.16613" lon="5.82761">
        <ele>222.4</ele>
        <time>2024-05-28T11:03:00Z</time>
      </trkpt>
      <trkpt lat="47.16615" lon="5.82766">
        <ele>222.6</ele>
        <time>2024-05-28T11:03:01Z</time>
      </trkpt>
      <trkpt lat="47.16617" lon="5.82771">
        <ele>222.6</ele>
        <time>2024-05-28T11:03:02Z</time>
      </trkpt>
      <trkpt lat="47.1662" lon="5.82775">
        <ele>222.6</ele>
        <time>2024-05-28T11:03:03Z</time>
      </trkpt>
      <trkpt lat="47.16622" lon="5.8278">
        <ele>222.6</ele>
        <time>2024-05-28T11:03:04Z</time>
      </trkpt>
      <trkpt lat="47.16624" lon="5.82786">
        <ele>222.6</ele>
        <time>2024-05-28T11:03:05Z</time>
      </trkpt>
      <trkpt lat="47.16625" lon="5.82791">
        <ele>222.8</ele>
        <time>2024-05-28T11:03:06Z</time>
      </trkpt>
      <trkpt lat="47.16626" lon="5.82798">
        <ele>222.8</ele>
        <time>2024-05-28T11:03:07Z</time>
      </trkpt>
      <trkpt lat="47.16627" lon="5.82805">
        <ele>222.8</ele>
        <time>2024-05-28T11:03:08Z</time>
      </trkpt>
      <trkpt lat="47.16627" lon="5.82825">
        <ele>222.6</ele>
        <time>2024-05-28T11:03:11Z</time>
      </trkpt>
      <trkpt lat="47.16627" lon="5.82838">
        <ele>222.4</ele>
        <time>2024-05-28T11:03:13Z</time>
      </trkpt>
      <trkpt lat="47.16627" lon="5.82871">
        <ele>222.4</ele>
        <time>2024-05-28T11:03:18Z</time>
      </trkpt>
      <trkpt lat="47.1663" lon="5.82885">
        <ele>222.2</ele>
        <time>2024-05-28T11:03:20Z</time>
      </trkpt>
      <trkpt lat="47.16632" lon="5.82891">
        <ele>222.2</ele>
        <time>2024-05-28T11:03:21Z</time>
      </trkpt>
      <trkpt lat="47.16635" lon="5.82896">
        <ele>222</ele>
        <time>2024-05-28T11:03:22Z</time>
      </trkpt>
      <trkpt lat="47.16639" lon="5.82901">
        <ele>222.2</ele>
        <time>2024-05-28T11:03:23Z</time>
      </trkpt>
      <trkpt lat="47.16642" lon="5.82904">
        <ele>222.2</ele>
        <time>2024-05-28T11:03:24Z</time>
      </trkpt>
      <trkpt lat="47.16646" lon="5.82907">
        <ele>222.2</ele>
        <time>2024-05-28T11:03:25Z</time>
      </trkpt>
      <trkpt lat="47.16649" lon="5.82909">
        <ele>222.2</ele>
        <time>2024-05-28T11:03:26Z</time>
      </trkpt>
      <trkpt lat="47.16653" lon="5.8291">
        <ele>222.2</ele>
        <time>2024-05-28T11:03:27Z</time>
      </trkpt>
      <trkpt lat="47.16656" lon="5.82912">
        <ele>222.2</ele>
        <time>2024-05-28T11:03:28Z</time>
      </trkpt>
      <trkpt lat="47.16659" lon="5.82913">
        <ele>222.2</ele>
        <time>2024-05-28T11:03:29Z</time>
      </trkpt>
      <trkpt lat="47.16662" lon="5.82915">
        <ele>222.2</ele>
        <time>2024-05-28T11:03:30Z</time>
      </trkpt>
      <trkpt lat="47.16665" lon="5.82915">
        <ele>222.2</ele>
        <time>2024-05-28T11:03:31Z</time>
      </trkpt>
      <trkpt lat="47.1667" lon="5.82916">
        <ele>222.2</ele>
        <time>2024-05-28T11:03:32Z</time>
      </trkpt>
      <trkpt lat="47.16674" lon="5.82916">
        <ele>222.2</ele>
        <time>2024-05-28T11:03:33Z</time>
      </trkpt>
      <trkpt lat="47.16709" lon="5.82924">
        <ele>222</ele>
        <time>2024-05-28T11:03:40Z</time>
      </trkpt>
      <trkpt lat="47.16725" lon="5.82927">
        <ele>222</ele>
        <time>2024-05-28T11:03:43Z</time>
      </trkpt>
      <trkpt lat="47.16743" lon="5.82932">
        <ele>221.8</ele>
        <time>2024-05-28T11:03:47Z</time>
      </trkpt>
      <trkpt lat="47.16746" lon="5.82935">
        <ele>221.8</ele>
        <time>2024-05-28T11:03:48Z</time>
      </trkpt>
      <trkpt lat="47.16746" lon="5.82939">
        <ele>221.8</ele>
        <time>2024-05-28T11:03:49Z</time>
      </trkpt>
      <trkpt lat="47.16744" lon="5.82941">
        <ele>221.8</ele>
        <time>2024-05-28T11:03:50Z</time>
      </trkpt>
      <trkpt lat="47.16741" lon="5.82941">
        <ele>221.8</ele>
        <time>2024-05-28T11:03:51Z</time>
      </trkpt>
      <trkpt lat="47.16738" lon="5.8294">
        <ele>221.8</ele>
        <time>2024-05-28T11:03:52Z</time>
      </trkpt>
      <trkpt lat="47.16735" lon="5.82938">
        <ele>221.8</ele>
        <time>2024-05-28T11:03:53Z</time>
      </trkpt>
      <trkpt lat="47.16729" lon="5.82936">
        <ele>222</ele>
        <time>2024-05-28T11:03:55Z</time>
      </trkpt>
      <trkpt lat="47.16723" lon="5.82935">
        <ele>222.2</ele>
        <time>2024-05-28T11:03:57Z</time>
      </trkpt>
      <trkpt lat="47.1672" lon="5.82935">
        <ele>222.2</ele>
        <time>2024-05-28T11:03:58Z</time>
      </trkpt>
      <trkpt lat="47.16717" lon="5.82934">
        <ele>222.2</ele>
        <time>2024-05-28T11:03:59Z</time>
      </trkpt>
      <trkpt lat="47.16697" lon="5.82936">
        <ele>223.2</ele>
        <time>2024-05-28T11:04:05Z</time>
      </trkpt>
      <trkpt lat="47.16679" lon="5.82941">
        <ele>224</ele>
        <time>2024-05-28T11:04:11Z</time>
      </trkpt>
      <trkpt lat="47.16676" lon="5.82943">
        <ele>224.4</ele>
        <time>2024-05-28T11:04:12Z</time>
      </trkpt>
      <trkpt lat="47.16672" lon="5.82944">
        <ele>224.4</ele>
        <time>2024-05-28T11:04:13Z</time>
      </trkpt>
      <trkpt lat="47.1667" lon="5.82946">
        <ele>224.6</ele>
        <time>2024-05-28T11:04:14Z</time>
      </trkpt>
      <trkpt lat="47.16667" lon="5.82948">
        <ele>224.8</ele>
        <time>2024-05-28T11:04:15Z</time>
      </trkpt>
      <trkpt lat="47.16661" lon="5.82951">
        <ele>225</ele>
        <time>2024-05-28T11:04:17Z</time>
      </trkpt>
      <trkpt lat="47.16658" lon="5.82952">
        <ele>225.2</ele>
        <time>2024-05-28T11:04:18Z</time>
      </trkpt>
      <trkpt lat="47.16655" lon="5.82955">
        <ele>225.2</ele>
        <time>2024-05-28T11:04:19Z</time>
      </trkpt>
      <trkpt lat="47.16653" lon="5.82957">
        <ele>225.4</ele>
        <time>2024-05-28T11:04:20Z</time>
      </trkpt>
      <trkpt lat="47.1665" lon="5.82959">
        <ele>225.4</ele>
        <time>2024-05-28T11:04:21Z</time>
      </trkpt>
      <trkpt lat="47.16647" lon="5.8296">
        <ele>225.4</ele>
        <time>2024-05-28T11:04:22Z</time>
      </trkpt>
      <trkpt lat="47.16644" lon="5.82962">
        <ele>225.6</ele>
        <time>2024-05-28T11:04:23Z</time>
      </trkpt>
      <trkpt lat="47.16641" lon="5.82964">
        <ele>225.6</ele>
        <time>2024-05-28T11:04:24Z</time>
      </trkpt>
      <trkpt lat="47.16639" lon="5.82965">
        <ele>225.8</ele>
        <time>2024-05-28T11:04:25Z</time>
      </trkpt>
      <trkpt lat="47.16638" lon="5.82966">
        <ele>226</ele>
        <time>2024-05-28T11:04:26Z</time>
      </trkpt>
      <trkpt lat="47.16637" lon="5.82967">
        <ele>226</ele>
        <time>2024-05-28T11:04:27Z</time>
      </trkpt>
      <trkpt lat="47.16637" lon="5.82967">
        <ele>226</ele>
        <time>2024-05-28T11:04:28Z</time>
      </trkpt>
      <trkpt lat="47.16636" lon="5.82967">
        <ele>226</ele>
        <time>2024-05-28T11:04:29Z</time>
      </trkpt>
      <trkpt lat="47.16635" lon="5.82968">
        <ele>226</ele>
        <time>2024-05-28T11:04:30Z</time>
      </trkpt>
      <trkpt lat="47.16635" lon="5.82968">
        <ele>226</ele>
        <time>2024-05-28T11:04:31Z</time>
      </trkpt>
      <trkpt lat="47.16634" lon="5.82968">
        <ele>226</ele>
        <time>2024-05-28T11:04:32Z</time>
      </trkpt>
      <trkpt lat="47.16633" lon="5.82969">
        <ele>226</ele>
        <time>2024-05-28T11:04:33Z</time>
      </trkpt>
      <trkpt lat="47.16631" lon="5.8297">
        <ele>226</ele>
        <time>2024-05-28T11:04:34Z</time>
      </trkpt>
      <trkpt lat="47.16629" lon="5.82972">
        <ele>226</ele>
        <time>2024-05-28T11:04:35Z</time>
      </trkpt>
      <trkpt lat="47.16626" lon="5.82973">
        <ele>226</ele>
        <time>2024-05-28T11:04:36Z</time>
      </trkpt>
      <trkpt lat="47.16624" lon="5.82975">
        <ele>226</ele>
        <time>2024-05-28T11:04:37Z</time>
      </trkpt>
      <trkpt lat="47.16603" lon="5.82988">
        <ele>226</ele>
        <time>2024-05-28T11:04:44Z</time>
      </trkpt>
      <trkpt lat="47.16599" lon="5.8299">
        <ele>226.2</ele>
        <time>2024-05-28T11:04:45Z</time>
      </trkpt>
      <trkpt lat="47.16589" lon="5.82997">
        <ele>226.4</ele>
        <time>2024-05-28T11:04:48Z</time>
      </trkpt>
      <trkpt lat="47.1657" lon="5.83008">
        <ele>226.6</ele>
        <time>2024-05-28T11:04:53Z</time>
      </trkpt>
      <trkpt lat="47.16529" lon="5.83032">
        <ele>226.6</ele>
        <time>2024-05-28T11:05:03Z</time>
      </trkpt>
      <trkpt lat="47.16503" lon="5.83049">
        <ele>226.8</ele>
        <time>2024-05-28T11:05:09Z</time>
      </trkpt>
      <trkpt lat="47.16499" lon="5.83053">
        <ele>226.6</ele>
        <time>2024-05-28T11:05:10Z</time>
      </trkpt>
      <trkpt lat="47.16495" lon="5.83059">
        <ele>226.6</ele>
        <time>2024-05-28T11:05:11Z</time>
      </trkpt>
      <trkpt lat="47.16494" lon="5.83065">
        <ele>226.6</ele>
        <time>2024-05-28T11:05:12Z</time>
      </trkpt>
      <trkpt lat="47.16494" lon="5.83073">
        <ele>226.4</ele>
        <time>2024-05-28T11:05:13Z</time>
      </trkpt>
      <trkpt lat="47.16497" lon="5.83087">
        <ele>226</ele>
        <time>2024-05-28T11:05:15Z</time>
      </trkpt>
      <trkpt lat="47.16502" lon="5.83101">
        <ele>225.6</ele>
        <time>2024-05-28T11:05:17Z</time>
      </trkpt>
      <trkpt lat="47.16505" lon="5.83108">
        <ele>225.4</ele>
        <time>2024-05-28T11:05:18Z</time>
      </trkpt>
      <trkpt lat="47.16514" lon="5.83141">
        <ele>225</ele>
        <time>2024-05-28T11:05:22Z</time>
      </trkpt>
      <trkpt lat="47.16523" lon="5.83167">
        <ele>224.2</ele>
        <time>2024-05-28T11:05:25Z</time>
      </trkpt>
      <trkpt lat="47.16525" lon="5.83175">
        <ele>224</ele>
        <time>2024-05-28T11:05:26Z</time>
      </trkpt>
      <trkpt lat="47.16533" lon="5.83201">
        <ele>222.8</ele>
        <time>2024-05-28T11:05:29Z</time>
      </trkpt>
      <trkpt lat="47.16536" lon="5.83209">
        <ele>222.8</ele>
        <time>2024-05-28T11:05:30Z</time>
      </trkpt>
      <trkpt lat="47.1654" lon="5.83224">
        <ele>222.4</ele>
        <time>2024-05-28T11:05:32Z</time>
      </trkpt>
      <trkpt lat="47.16542" lon="5.83232">
        <ele>222</ele>
        <time>2024-05-28T11:05:33Z</time>
      </trkpt>
      <trkpt lat="47.16544" lon="5.8324">
        <ele>221.8</ele>
        <time>2024-05-28T11:05:34Z</time>
      </trkpt>
      <trkpt lat="47.16546" lon="5.83249">
        <ele>221.8</ele>
        <time>2024-05-28T11:05:35Z</time>
      </trkpt>
      <trkpt lat="47.1656" lon="5.83315">
        <ele>221.2</ele>
        <time>2024-05-28T11:05:43Z</time>
      </trkpt>
      <trkpt lat="47.16579" lon="5.83379">
        <ele>223</ele>
        <time>2024-05-28T11:05:51Z</time>
      </trkpt>
      <trkpt lat="47.16599" lon="5.83456">
        <ele>221</ele>
        <time>2024-05-28T11:06:00Z</time>
      </trkpt>
      <trkpt lat="47.16609" lon="5.83517">
        <ele>221.2</ele>
        <time>2024-05-28T11:06:07Z</time>
      </trkpt>
      <trkpt lat="47.16609" lon="5.83525">
        <ele>221.2</ele>
        <time>2024-05-28T11:06:08Z</time>
      </trkpt>
      <trkpt lat="47.1661" lon="5.83534">
        <ele>221.2</ele>
        <time>2024-05-28T11:06:09Z</time>
      </trkpt>
      <trkpt lat="47.1661" lon="5.83543">
        <ele>221.2</ele>
        <time>2024-05-28T11:06:10Z</time>
      </trkpt>
      <trkpt lat="47.16613" lon="5.83585">
        <ele>221.4</ele>
        <time>2024-05-28T11:06:15Z</time>
      </trkpt>
      <trkpt lat="47.16614" lon="5.83594">
        <ele>221.6</ele>
        <time>2024-05-28T11:06:16Z</time>
      </trkpt>
      <trkpt lat="47.16614" lon="5.83602">
        <ele>221.6</ele>
        <time>2024-05-28T11:06:17Z</time>
      </trkpt>
      <trkpt lat="47.16616" lon="5.83628">
        <ele>221.6</ele>
        <time>2024-05-28T11:06:20Z</time>
      </trkpt>
      <trkpt lat="47.16617" lon="5.83636">
        <ele>221.6</ele>
        <time>2024-05-28T11:06:21Z</time>
      </trkpt>
      <trkpt lat="47.16617" lon="5.83645">
        <ele>221.8</ele>
        <time>2024-05-28T11:06:22Z</time>
      </trkpt>
      <trkpt lat="47.16614" lon="5.83733">
        <ele>222</ele>
        <time>2024-05-28T11:06:32Z</time>
      </trkpt>
      <trkpt lat="47.16604" lon="5.8381">
        <ele>222.2</ele>
        <time>2024-05-28T11:06:41Z</time>
      </trkpt>
      <trkpt lat="47.16602" lon="5.83818">
        <ele>222.2</ele>
        <time>2024-05-28T11:06:42Z</time>
      </trkpt>
      <trkpt lat="47.16599" lon="5.83823">
        <ele>222.2</ele>
        <time>2024-05-28T11:06:43Z</time>
      </trkpt>
      <trkpt lat="47.16595" lon="5.83826">
        <ele>222.2</ele>
        <time>2024-05-28T11:06:44Z</time>
      </trkpt>
      <trkpt lat="47.1659" lon="5.83826">
        <ele>222.2</ele>
        <time>2024-05-28T11:06:45Z</time>
      </trkpt>
      <trkpt lat="47.16585" lon="5.83825">
        <ele>222.2</ele>
        <time>2024-05-28T11:06:46Z</time>
      </trkpt>
      <trkpt lat="47.1658" lon="5.83823">
        <ele>222.2</ele>
        <time>2024-05-28T11:06:47Z</time>
      </trkpt>
      <trkpt lat="47.16575" lon="5.83822">
        <ele>222</ele>
        <time>2024-05-28T11:06:48Z</time>
      </trkpt>
      <trkpt lat="47.1657" lon="5.8382">
        <ele>222</ele>
        <time>2024-05-28T11:06:49Z</time>
      </trkpt>
      <trkpt lat="47.16527" lon="5.83807">
        <ele>221.6</ele>
        <time>2024-05-28T11:06:57Z</time>
      </trkpt>
      <trkpt lat="47.16473" lon="5.83792">
        <ele>222.2</ele>
        <time>2024-05-28T11:07:07Z</time>
      </trkpt>
      <trkpt lat="47.16462" lon="5.83789">
        <ele>222.2</ele>
        <time>2024-05-28T11:07:09Z</time>
      </trkpt>
      <trkpt lat="47.16411" lon="5.83776">
        <ele>222.2</ele>
        <time>2024-05-28T11:07:18Z</time>
      </trkpt>
      <trkpt lat="47.16379" lon="5.83765">
        <ele>222.2</ele>
        <time>2024-05-28T11:07:24Z</time>
      </trkpt>
      <trkpt lat="47.16373" lon="5.83764">
        <ele>222.2</ele>
        <time>2024-05-28T11:07:25Z</time>
      </trkpt>
      <trkpt lat="47.16368" lon="5.83762">
        <ele>222.2</ele>
        <time>2024-05-28T11:07:26Z</time>
      </trkpt>
      <trkpt lat="47.16362" lon="5.83761">
        <ele>222.2</ele>
        <time>2024-05-28T11:07:27Z</time>
      </trkpt>
      <trkpt lat="47.16357" lon="5.83759">
        <ele>222.2</ele>
        <time>2024-05-28T11:07:28Z</time>
      </trkpt>
      <trkpt lat="47.16351" lon="5.83757">
        <ele>222.2</ele>
        <time>2024-05-28T11:07:29Z</time>
      </trkpt>
      <trkpt lat="47.16346" lon="5.83755">
        <ele>222.4</ele>
        <time>2024-05-28T11:07:30Z</time>
      </trkpt>
      <trkpt lat="47.16337" lon="5.83748">
        <ele>222.4</ele>
        <time>2024-05-28T11:07:32Z</time>
      </trkpt>
      <trkpt lat="47.16334" lon="5.83742">
        <ele>222.4</ele>
        <time>2024-05-28T11:07:33Z</time>
      </trkpt>
      <trkpt lat="47.16332" lon="5.83735">
        <ele>222.4</ele>
        <time>2024-05-28T11:07:34Z</time>
      </trkpt>
      <trkpt lat="47.16331" lon="5.83728">
        <ele>222.6</ele>
        <time>2024-05-28T11:07:35Z</time>
      </trkpt>
      <trkpt lat="47.16331" lon="5.83721">
        <ele>222.6</ele>
        <time>2024-05-28T11:07:36Z</time>
      </trkpt>
      <trkpt lat="47.16331" lon="5.83713">
        <ele>222.6</ele>
        <time>2024-05-28T11:07:37Z</time>
      </trkpt>
      <trkpt lat="47.16331" lon="5.83706">
        <ele>222.6</ele>
        <time>2024-05-28T11:07:38Z</time>
      </trkpt>
      <trkpt lat="47.16332" lon="5.83699">
        <ele>222.8</ele>
        <time>2024-05-28T11:07:39Z</time>
      </trkpt>
      <trkpt lat="47.16332" lon="5.83693">
        <ele>222.8</ele>
        <time>2024-05-28T11:07:40Z</time>
      </trkpt>
      <trkpt lat="47.16332" lon="5.83686">
        <ele>222.8</ele>
        <time>2024-05-28T11:07:41Z</time>
      </trkpt>
      <trkpt lat="47.16331" lon="5.8368">
        <ele>223</ele>
        <time>2024-05-28T11:07:42Z</time>
      </trkpt>
      <trkpt lat="47.16331" lon="5.83674">
        <ele>223</ele>
        <time>2024-05-28T11:07:43Z</time>
      </trkpt>
      <trkpt lat="47.1633" lon="5.83669">
        <ele>223.4</ele>
        <time>2024-05-28T11:07:44Z</time>
      </trkpt>
      <trkpt lat="47.16329" lon="5.83663">
        <ele>223.4</ele>
        <time>2024-05-28T11:07:45Z</time>
      </trkpt>
      <trkpt lat="47.16327" lon="5.83658">
        <ele>223.6</ele>
        <time>2024-05-28T11:07:46Z</time>
      </trkpt>
      <trkpt lat="47.16325" lon="5.83654">
        <ele>223.6</ele>
        <time>2024-05-28T11:07:47Z</time>
      </trkpt>
      <trkpt lat="47.16322" lon="5.83649">
        <ele>223.8</ele>
        <time>2024-05-28T11:07:48Z</time>
      </trkpt>
      <trkpt lat="47.16318" lon="5.83643">
        <ele>224</ele>
        <time>2024-05-28T11:07:50Z</time>
      </trkpt>
      <trkpt lat="47.16315" lon="5.8364">
        <ele>224.2</ele>
        <time>2024-05-28T11:07:51Z</time>
      </trkpt>
      <trkpt lat="47.16312" lon="5.83637">
        <ele>224.4</ele>
        <time>2024-05-28T11:07:52Z</time>
      </trkpt>
      <trkpt lat="47.1631" lon="5.83634">
        <ele>224.8</ele>
        <time>2024-05-28T11:07:53Z</time>
      </trkpt>
      <trkpt lat="47.16304" lon="5.8363">
        <ele>225.4</ele>
        <time>2024-05-28T11:07:55Z</time>
      </trkpt>
      <trkpt lat="47.16302" lon="5.83628">
        <ele>225.8</ele>
        <time>2024-05-28T11:07:56Z</time>
      </trkpt>
      <trkpt lat="47.16299" lon="5.83626">
        <ele>226</ele>
        <time>2024-05-28T11:07:57Z</time>
      </trkpt>
      <trkpt lat="47.16297" lon="5.83624">
        <ele>226.2</ele>
        <time>2024-05-28T11:07:58Z</time>
      </trkpt>
      <trkpt lat="47.16294" lon="5.83622">
        <ele>226.2</ele>
        <time>2024-05-28T11:07:59Z</time>
      </trkpt>
      <trkpt lat="47.16291" lon="5.8362">
        <ele>226.6</ele>
        <time>2024-05-28T11:08:00Z</time>
      </trkpt>
      <trkpt lat="47.16289" lon="5.83619">
        <ele>226.8</ele>
        <time>2024-05-28T11:08:01Z</time>
      </trkpt>
      <trkpt lat="47.16286" lon="5.83617">
        <ele>227</ele>
        <time>2024-05-28T11:08:02Z</time>
      </trkpt>
      <trkpt lat="47.16284" lon="5.83616">
        <ele>227.4</ele>
        <time>2024-05-28T11:08:03Z</time>
      </trkpt>
      <trkpt lat="47.16281" lon="5.83614">
        <ele>227.4</ele>
        <time>2024-05-28T11:08:04Z</time>
      </trkpt>
      <trkpt lat="47.16279" lon="5.83612">
        <ele>227.8</ele>
        <time>2024-05-28T11:08:05Z</time>
      </trkpt>
      <trkpt lat="47.16277" lon="5.83611">
        <ele>228</ele>
        <time>2024-05-28T11:08:06Z</time>
      </trkpt>
      <trkpt lat="47.16275" lon="5.8361">
        <ele>228.2</ele>
        <time>2024-05-28T11:08:07Z</time>
      </trkpt>
      <trkpt lat="47.16272" lon="5.83608">
        <ele>228.4</ele>
        <time>2024-05-28T11:08:08Z</time>
      </trkpt>
      <trkpt lat="47.1627" lon="5.83607">
        <ele>228.8</ele>
        <time>2024-05-28T11:08:09Z</time>
      </trkpt>
      <trkpt lat="47.16268" lon="5.83606">
        <ele>229</ele>
        <time>2024-05-28T11:08:10Z</time>
      </trkpt>
      <trkpt lat="47.16266" lon="5.83604">
        <ele>229.2</ele>
        <time>2024-05-28T11:08:11Z</time>
      </trkpt>
      <trkpt lat="47.16264" lon="5.83603">
        <ele>229.4</ele>
        <time>2024-05-28T11:08:12Z</time>
      </trkpt>
      <trkpt lat="47.16262" lon="5.83601">
        <ele>229.8</ele>
        <time>2024-05-28T11:08:13Z</time>
      </trkpt>
      <trkpt lat="47.1626" lon="5.836">
        <ele>230.2</ele>
        <time>2024-05-28T11:08:14Z</time>
      </trkpt>
      <trkpt lat="47.16258" lon="5.83599">
        <ele>230.4</ele>
        <time>2024-05-28T11:08:15Z</time>
      </trkpt>
      <trkpt lat="47.16256" lon="5.83598">
        <ele>230.6</ele>
        <time>2024-05-28T11:08:16Z</time>
      </trkpt>
      <trkpt lat="47.16254" lon="5.83597">
        <ele>230.8</ele>
        <time>2024-05-28T11:08:17Z</time>
      </trkpt>
      <trkpt lat="47.16252" lon="5.83595">
        <ele>231</ele>
        <time>2024-05-28T11:08:18Z</time>
      </trkpt>
      <trkpt lat="47.1625" lon="5.83594">
        <ele>231.4</ele>
        <time>2024-05-28T11:08:19Z</time>
      </trkpt>
      <trkpt lat="47.16249" lon="5.83592">
        <ele>231.6</ele>
        <time>2024-05-28T11:08:20Z</time>
      </trkpt>
      <trkpt lat="47.16247" lon="5.8359">
        <ele>232</ele>
        <time>2024-05-28T11:08:21Z</time>
      </trkpt>
      <trkpt lat="47.16245" lon="5.83589">
        <ele>232</ele>
        <time>2024-05-28T11:08:22Z</time>
      </trkpt>
      <trkpt lat="47.16243" lon="5.83588">
        <ele>232.4</ele>
        <time>2024-05-28T11:08:23Z</time>
      </trkpt>
      <trkpt lat="47.16241" lon="5.83587">
        <ele>232.6</ele>
        <time>2024-05-28T11:08:24Z</time>
      </trkpt>
      <trkpt lat="47.16239" lon="5.83585">
        <ele>233.2</ele>
        <time>2024-05-28T11:08:25Z</time>
      </trkpt>
      <trkpt lat="47.16238" lon="5.83584">
        <ele>233.4</ele>
        <time>2024-05-28T11:08:26Z</time>
      </trkpt>
      <trkpt lat="47.16236" lon="5.83583">
        <ele>233.6</ele>
        <time>2024-05-28T11:08:27Z</time>
      </trkpt>
      <trkpt lat="47.16235" lon="5.83582">
        <ele>234</ele>
        <time>2024-05-28T11:08:28Z</time>
      </trkpt>
      <trkpt lat="47.16233" lon="5.83581">
        <ele>234.2</ele>
        <time>2024-05-28T11:08:29Z</time>
      </trkpt>
      <trkpt lat="47.16231" lon="5.83579">
        <ele>234.6</ele>
        <time>2024-05-28T11:08:30Z</time>
      </trkpt>
      <trkpt lat="47.16229" lon="5.83576">
        <ele>235</ele>
        <time>2024-05-28T11:08:31Z</time>
      </trkpt>
      <trkpt lat="47.16228" lon="5.83573">
        <ele>235.4</ele>
        <time>2024-05-28T11:08:32Z</time>
      </trkpt>
      <trkpt lat="47.16227" lon="5.8357">
        <ele>235.6</ele>
        <time>2024-05-28T11:08:33Z</time>
      </trkpt>
      <trkpt lat="47.16226" lon="5.83567">
        <ele>235.8</ele>
        <time>2024-05-28T11:08:34Z</time>
      </trkpt>
      <trkpt lat="47.16226" lon="5.83564">
        <ele>236.2</ele>
        <time>2024-05-28T11:08:35Z</time>
      </trkpt>
      <trkpt lat="47.16226" lon="5.83561">
        <ele>236.2</ele>
        <time>2024-05-28T11:08:36Z</time>
      </trkpt>
      <trkpt lat="47.16227" lon="5.83559">
        <ele>236.6</ele>
        <time>2024-05-28T11:08:37Z</time>
      </trkpt>
      <trkpt lat="47.16228" lon="5.83557">
        <ele>236.8</ele>
        <time>2024-05-28T11:08:38Z</time>
      </trkpt>
      <trkpt lat="47.16229" lon="5.83555">
        <ele>237.2</ele>
        <time>2024-05-28T11:08:39Z</time>
      </trkpt>
      <trkpt lat="47.1623" lon="5.83552">
        <ele>237.2</ele>
        <time>2024-05-28T11:08:40Z</time>
      </trkpt>
      <trkpt lat="47.16231" lon="5.8355">
        <ele>237.4</ele>
        <time>2024-05-28T11:08:41Z</time>
      </trkpt>
      <trkpt lat="47.16232" lon="5.83547">
        <ele>237.6</ele>
        <time>2024-05-28T11:08:42Z</time>
      </trkpt>
      <trkpt lat="47.16232" lon="5.83545">
        <ele>237.8</ele>
        <time>2024-05-28T11:08:43Z</time>
      </trkpt>
      <trkpt lat="47.16233" lon="5.83543">
        <ele>237.8</ele>
        <time>2024-05-28T11:08:44Z</time>
      </trkpt>
      <trkpt lat="47.16234" lon="5.83541">
        <ele>238</ele>
        <time>2024-05-28T11:08:45Z</time>
      </trkpt>
      <trkpt lat="47.16234" lon="5.83538">
        <ele>238.2</ele>
        <time>2024-05-28T11:08:46Z</time>
      </trkpt>
      <trkpt lat="47.16234" lon="5.83535">
        <ele>238.4</ele>
        <time>2024-05-28T11:08:47Z</time>
      </trkpt>
      <trkpt lat="47.16235" lon="5.83533">
        <ele>238.8</ele>
        <time>2024-05-28T11:08:48Z</time>
      </trkpt>
      <trkpt lat="47.16236" lon="5.8353">
        <ele>238.8</ele>
        <time>2024-05-28T11:08:49Z</time>
      </trkpt>
      <trkpt lat="47.16236" lon="5.83527">
        <ele>239.2</ele>
        <time>2024-05-28T11:08:50Z</time>
      </trkpt>
      <trkpt lat="47.16236" lon="5.83525">
        <ele>239.4</ele>
        <time>2024-05-28T11:08:51Z</time>
      </trkpt>
      <trkpt lat="47.16237" lon="5.83522">
        <ele>239.4</ele>
        <time>2024-05-28T11:08:52Z</time>
      </trkpt>
      <trkpt lat="47.16237" lon="5.83519">
        <ele>239.6</ele>
        <time>2024-05-28T11:08:53Z</time>
      </trkpt>
      <trkpt lat="47.16238" lon="5.83516">
        <ele>239.6</ele>
        <time>2024-05-28T11:08:54Z</time>
      </trkpt>
      <trkpt lat="47.16238" lon="5.83513">
        <ele>239.8</ele>
        <time>2024-05-28T11:08:55Z</time>
      </trkpt>
      <trkpt lat="47.16238" lon="5.8351">
        <ele>239.8</ele>
        <time>2024-05-28T11:08:56Z</time>
      </trkpt>
      <trkpt lat="47.16239" lon="5.83507">
        <ele>239.8</ele>
        <time>2024-05-28T11:08:57Z</time>
      </trkpt>
      <trkpt lat="47.16239" lon="5.83504">
        <ele>240</ele>
        <time>2024-05-28T11:08:58Z</time>
      </trkpt>
      <trkpt lat="47.16239" lon="5.835">
        <ele>240.2</ele>
        <time>2024-05-28T11:08:59Z</time>
      </trkpt>
      <trkpt lat="47.16239" lon="5.83497">
        <ele>240.2</ele>
        <time>2024-05-28T11:09:00Z</time>
      </trkpt>
      <trkpt lat="47.1624" lon="5.83493">
        <ele>240.4</ele>
        <time>2024-05-28T11:09:01Z</time>
      </trkpt>
      <trkpt lat="47.1624" lon="5.8349">
        <ele>240.4</ele>
        <time>2024-05-28T11:09:02Z</time>
      </trkpt>
      <trkpt lat="47.1624" lon="5.83486">
        <ele>240.4</ele>
        <time>2024-05-28T11:09:03Z</time>
      </trkpt>
      <trkpt lat="47.16241" lon="5.83482">
        <ele>240.4</ele>
        <time>2024-05-28T11:09:04Z</time>
      </trkpt>
      <trkpt lat="47.16241" lon="5.83478">
        <ele>240.4</ele>
        <time>2024-05-28T11:09:05Z</time>
      </trkpt>
      <trkpt lat="47.16241" lon="5.83474">
        <ele>240.4</ele>
        <time>2024-05-28T11:09:06Z</time>
      </trkpt>
      <trkpt lat="47.16242" lon="5.8347">
        <ele>240.4</ele>
        <time>2024-05-28T11:09:07Z</time>
      </trkpt>
      <trkpt lat="47.16242" lon="5.83466">
        <ele>240.4</ele>
        <time>2024-05-28T11:09:08Z</time>
      </trkpt>
      <trkpt lat="47.16242" lon="5.83462">
        <ele>240.4</ele>
        <time>2024-05-28T11:09:09Z</time>
      </trkpt>
      <trkpt lat="47.16242" lon="5.83459">
        <ele>240.6</ele>
        <time>2024-05-28T11:09:10Z</time>
      </trkpt>
      <trkpt lat="47.16242" lon="5.83455">
        <ele>240.6</ele>
        <time>2024-05-28T11:09:11Z</time>
      </trkpt>
      <trkpt lat="47.16242" lon="5.83451">
        <ele>240.6</ele>
        <time>2024-05-28T11:09:12Z</time>
      </trkpt>
      <trkpt lat="47.16242" lon="5.83447">
        <ele>240.6</ele>
        <time>2024-05-28T11:09:13Z</time>
      </trkpt>
      <trkpt lat="47.16241" lon="5.83443">
        <ele>240.6</ele>
        <time>2024-05-28T11:09:14Z</time>
      </trkpt>
      <trkpt lat="47.16237" lon="5.83429">
        <ele>240.8</ele>
        <time>2024-05-28T11:09:18Z</time>
      </trkpt>
      <trkpt lat="47.16235" lon="5.83426">
        <ele>240.8</ele>
        <time>2024-05-28T11:09:19Z</time>
      </trkpt>
      <trkpt lat="47.16234" lon="5.83423">
        <ele>241</ele>
        <time>2024-05-28T11:09:20Z</time>
      </trkpt>
      <trkpt lat="47.16226" lon="5.83414">
        <ele>241.4</ele>
        <time>2024-05-28T11:09:24Z</time>
      </trkpt>
      <trkpt lat="47.16224" lon="5.83412">
        <ele>241.4</ele>
        <time>2024-05-28T11:09:25Z</time>
      </trkpt>
      <trkpt lat="47.16222" lon="5.8341">
        <ele>241.6</ele>
        <time>2024-05-28T11:09:26Z</time>
      </trkpt>
      <trkpt lat="47.1622" lon="5.83408">
        <ele>241.6</ele>
        <time>2024-05-28T11:09:27Z</time>
      </trkpt>
      <trkpt lat="47.16217" lon="5.83405">
        <ele>242</ele>
        <time>2024-05-28T11:09:29Z</time>
      </trkpt>
      <trkpt lat="47.16216" lon="5.83403">
        <ele>242</ele>
        <time>2024-05-28T11:09:30Z</time>
      </trkpt>
      <trkpt lat="47.16214" lon="5.83402">
        <ele>242</ele>
        <time>2024-05-28T11:09:31Z</time>
      </trkpt>
      <trkpt lat="47.16212" lon="5.834">
        <ele>242.2</ele>
        <time>2024-05-28T11:09:32Z</time>
      </trkpt>
      <trkpt lat="47.1621" lon="5.83399">
        <ele>242.2</ele>
        <time>2024-05-28T11:09:33Z</time>
      </trkpt>
      <trkpt lat="47.16208" lon="5.83397">
        <ele>242.2</ele>
        <time>2024-05-28T11:09:34Z</time>
      </trkpt>
      <trkpt lat="47.16206" lon="5.83395">
        <ele>242.4</ele>
        <time>2024-05-28T11:09:35Z</time>
      </trkpt>
      <trkpt lat="47.16205" lon="5.83393">
        <ele>242.4</ele>
        <time>2024-05-28T11:09:36Z</time>
      </trkpt>
      <trkpt lat="47.16203" lon="5.83391">
        <ele>242.6</ele>
        <time>2024-05-28T11:09:37Z</time>
      </trkpt>
      <trkpt lat="47.16202" lon="5.83389">
        <ele>242.6</ele>
        <time>2024-05-28T11:09:38Z</time>
      </trkpt>
      <trkpt lat="47.16198" lon="5.83386">
        <ele>242.8</ele>
        <time>2024-05-28T11:09:40Z</time>
      </trkpt>
      <trkpt lat="47.16191" lon="5.83379">
        <ele>243</ele>
        <time>2024-05-28T11:09:44Z</time>
      </trkpt>
      <trkpt lat="47.16182" lon="5.83367">
        <ele>243.8</ele>
        <time>2024-05-28T11:09:50Z</time>
      </trkpt>
      <trkpt lat="47.16179" lon="5.83363">
        <ele>244</ele>
        <time>2024-05-28T11:09:52Z</time>
      </trkpt>
      <trkpt lat="47.16178" lon="5.83361">
        <ele>244</ele>
        <time>2024-05-28T11:09:53Z</time>
      </trkpt>
      <trkpt lat="47.16161" lon="5.83337">
        <ele>244.2</ele>
        <time>2024-05-28T11:10:03Z</time>
      </trkpt>
      <trkpt lat="47.16139" lon="5.83306">
        <ele>244.2</ele>
        <time>2024-05-28T11:10:13Z</time>
      </trkpt>
      <trkpt lat="47.16118" lon="5.83278">
        <ele>244.2</ele>
        <time>2024-05-28T11:10:21Z</time>
      </trkpt>
      <trkpt lat="47.16116" lon="5.83275">
        <ele>244.2</ele>
        <time>2024-05-28T11:10:22Z</time>
      </trkpt>
      <trkpt lat="47.16102" lon="5.83259">
        <ele>244.4</ele>
        <time>2024-05-28T11:10:27Z</time>
      </trkpt>
      <trkpt lat="47.16099" lon="5.83256">
        <ele>244.4</ele>
        <time>2024-05-28T11:10:28Z</time>
      </trkpt>
      <trkpt lat="47.16096" lon="5.83253">
        <ele>244.4</ele>
        <time>2024-05-28T11:10:29Z</time>
      </trkpt>
      <trkpt lat="47.16094" lon="5.8325">
        <ele>244.2</ele>
        <time>2024-05-28T11:10:30Z</time>
      </trkpt>
      <trkpt lat="47.16073" lon="5.83227">
        <ele>244.2</ele>
        <time>2024-05-28T11:10:37Z</time>
      </trkpt>
      <trkpt lat="47.16047" lon="5.83204">
        <ele>244.4</ele>
        <time>2024-05-28T11:10:45Z</time>
      </trkpt>
      <trkpt lat="47.16043" lon="5.83205">
        <ele>244.4</ele>
        <time>2024-05-28T11:10:46Z</time>
      </trkpt>
      <trkpt lat="47.1604" lon="5.83207">
        <ele>244.6</ele>
        <time>2024-05-28T11:10:47Z</time>
      </trkpt>
      <trkpt lat="47.16037" lon="5.83211">
        <ele>244.6</ele>
        <time>2024-05-28T11:10:48Z</time>
      </trkpt>
      <trkpt lat="47.16033" lon="5.83217">
        <ele>244.6</ele>
        <time>2024-05-28T11:10:50Z</time>
      </trkpt>
      <trkpt lat="47.16031" lon="5.83221">
        <ele>244.6</ele>
        <time>2024-05-28T11:10:51Z</time>
      </trkpt>
      <trkpt lat="47.16029" lon="5.83224">
        <ele>244.8</ele>
        <time>2024-05-28T11:10:52Z</time>
      </trkpt>
      <trkpt lat="47.16027" lon="5.83228">
        <ele>244.8</ele>
        <time>2024-05-28T11:10:53Z</time>
      </trkpt>
      <trkpt lat="47.16024" lon="5.83231">
        <ele>245</ele>
        <time>2024-05-28T11:10:54Z</time>
      </trkpt>
      <trkpt lat="47.16022" lon="5.83234">
        <ele>245.2</ele>
        <time>2024-05-28T11:10:55Z</time>
      </trkpt>
      <trkpt lat="47.1602" lon="5.83237">
        <ele>245.2</ele>
        <time>2024-05-28T11:10:56Z</time>
      </trkpt>
      <trkpt lat="47.16018" lon="5.8324">
        <ele>245.2</ele>
        <time>2024-05-28T11:10:57Z</time>
      </trkpt>
      <trkpt lat="47.16017" lon="5.83244">
        <ele>245.4</ele>
        <time>2024-05-28T11:10:58Z</time>
      </trkpt>
      <trkpt lat="47.16015" lon="5.83247">
        <ele>245.6</ele>
        <time>2024-05-28T11:10:59Z</time>
      </trkpt>
      <trkpt lat="47.16013" lon="5.8325">
        <ele>245.6</ele>
        <time>2024-05-28T11:11:00Z</time>
      </trkpt>
      <trkpt lat="47.16011" lon="5.83253">
        <ele>245.8</ele>
        <time>2024-05-28T11:11:01Z</time>
      </trkpt>
      <trkpt lat="47.16009" lon="5.83256">
        <ele>246</ele>
        <time>2024-05-28T11:11:02Z</time>
      </trkpt>
      <trkpt lat="47.16007" lon="5.83259">
        <ele>246.2</ele>
        <time>2024-05-28T11:11:03Z</time>
      </trkpt>
      <trkpt lat="47.16006" lon="5.83261">
        <ele>246.4</ele>
        <time>2024-05-28T11:11:04Z</time>
      </trkpt>
      <trkpt lat="47.16004" lon="5.83264">
        <ele>246.4</ele>
        <time>2024-05-28T11:11:05Z</time>
      </trkpt>
      <trkpt lat="47.16002" lon="5.83267">
        <ele>246.8</ele>
        <time>2024-05-28T11:11:06Z</time>
      </trkpt>
      <trkpt lat="47.16" lon="5.8327">
        <ele>246.8</ele>
        <time>2024-05-28T11:11:07Z</time>
      </trkpt>
      <trkpt lat="47.15999" lon="5.83273">
        <ele>247</ele>
        <time>2024-05-28T11:11:08Z</time>
      </trkpt>
      <trkpt lat="47.15997" lon="5.83276">
        <ele>247.2</ele>
        <time>2024-05-28T11:11:09Z</time>
      </trkpt>
      <trkpt lat="47.15995" lon="5.83279">
        <ele>247.2</ele>
        <time>2024-05-28T11:11:10Z</time>
      </trkpt>
      <trkpt lat="47.15994" lon="5.83282">
        <ele>247.4</ele>
        <time>2024-05-28T11:11:11Z</time>
      </trkpt>
      <trkpt lat="47.15992" lon="5.83284">
        <ele>247.8</ele>
        <time>2024-05-28T11:11:12Z</time>
      </trkpt>
      <trkpt lat="47.1599" lon="5.83287">
        <ele>248</ele>
        <time>2024-05-28T11:11:13Z</time>
      </trkpt>
      <trkpt lat="47.15988" lon="5.8329">
        <ele>248.2</ele>
        <time>2024-05-28T11:11:14Z</time>
      </trkpt>
      <trkpt lat="47.15986" lon="5.83293">
        <ele>248.4</ele>
        <time>2024-05-28T11:11:15Z</time>
      </trkpt>
      <trkpt lat="47.15985" lon="5.83295">
        <ele>248.6</ele>
        <time>2024-05-28T11:11:16Z</time>
      </trkpt>
      <trkpt lat="47.15983" lon="5.83297">
        <ele>248.6</ele>
        <time>2024-05-28T11:11:17Z</time>
      </trkpt>
      <trkpt lat="47.15981" lon="5.83299">
        <ele>248.8</ele>
        <time>2024-05-28T11:11:18Z</time>
      </trkpt>
      <trkpt lat="47.15979" lon="5.833">
        <ele>248.8</ele>
        <time>2024-05-28T11:11:19Z</time>
      </trkpt>
      <trkpt lat="47.15977" lon="5.833">
        <ele>249.2</ele>
        <time>2024-05-28T11:11:20Z</time>
      </trkpt>
      <trkpt lat="47.15976" lon="5.833">
        <ele>249.2</ele>
        <time>2024-05-28T11:11:21Z</time>
      </trkpt>
      <trkpt lat="47.15974" lon="5.83299">
        <ele>249.4</ele>
        <time>2024-05-28T11:11:22Z</time>
      </trkpt>
      <trkpt lat="47.15973" lon="5.83298">
        <ele>249.4</ele>
        <time>2024-05-28T11:11:23Z</time>
      </trkpt>
      <trkpt lat="47.15973" lon="5.83298">
        <ele>249.6</ele>
        <time>2024-05-28T11:11:24Z</time>
      </trkpt>
      <trkpt lat="47.15973" lon="5.83298">
        <ele>249.6</ele>
        <time>2024-05-28T11:11:25Z</time>
      </trkpt>
      <trkpt lat="47.15973" lon="5.83298">
        <ele>249.6</ele>
        <time>2024-05-28T11:11:36Z</time>
      </trkpt>
      <trkpt lat="47.15969" lon="5.83294">
        <ele>249.8</ele>
        <time>2024-05-28T11:12:23Z</time>
      </trkpt>
      <trkpt lat="47.15966" lon="5.83291">
        <ele>249.8</ele>
        <time>2024-05-28T11:12:26Z</time>
      </trkpt>
      <trkpt lat="47.15964" lon="5.83289">
        <ele>249.8</ele>
        <time>2024-05-28T11:12:27Z</time>
      </trkpt>
      <trkpt lat="47.15963" lon="5.83288">
        <ele>249.8</ele>
        <time>2024-05-28T11:12:28Z</time>
      </trkpt>
      <trkpt lat="47.15958" lon="5.83279">
        <ele>250</ele>
        <time>2024-05-28T11:12:33Z</time>
      </trkpt>
      <trkpt lat="47.15957" lon="5.83279">
        <ele>250</ele>
        <time>2024-05-28T11:12:34Z</time>
      </trkpt>
      <trkpt lat="47.15957" lon="5.83279">
        <ele>250</ele>
        <time>2024-05-28T11:12:35Z</time>
      </trkpt>
      <trkpt lat="47.15957" lon="5.83279">
        <ele>250</ele>
        <time>2024-05-28T11:12:36Z</time>
      </trkpt>
      <trkpt lat="47.15957" lon="5.83279">
        <ele>250</ele>
        <time>2024-05-28T11:12:41Z</time>
      </trkpt>
      <trkpt lat="47.15957" lon="5.83279">
        <ele>250.2</ele>
        <time>2024-05-28T11:12:51Z</time>
      </trkpt>
      <trkpt lat="47.15957" lon="5.83279">
        <ele>250.4</ele>
        <time>2024-05-28T11:12:57Z</time>
      </trkpt>
      <trkpt lat="47.15952" lon="5.83271">
        <ele>250.4</ele>
        <time>2024-05-28T11:13:04Z</time>
      </trkpt>
      <trkpt lat="47.15946" lon="5.83262">
        <ele>250.4</ele>
        <time>2024-05-28T11:13:08Z</time>
      </trkpt>
      <trkpt lat="47.15943" lon="5.83258">
        <ele>250.6</ele>
        <time>2024-05-28T11:13:09Z</time>
      </trkpt>
      <trkpt lat="47.1594" lon="5.83252">
        <ele>250.8</ele>
        <time>2024-05-28T11:13:11Z</time>
      </trkpt>
      <trkpt lat="47.15924" lon="5.83235">
        <ele>251.6</ele>
        <time>2024-05-28T11:13:18Z</time>
      </trkpt>
      <trkpt lat="47.15922" lon="5.83233">
        <ele>251.8</ele>
        <time>2024-05-28T11:13:19Z</time>
      </trkpt>
      <trkpt lat="47.15915" lon="5.83226">
        <ele>252.4</ele>
        <time>2024-05-28T11:13:22Z</time>
      </trkpt>
      <trkpt lat="47.15905" lon="5.83218">
        <ele>252.8</ele>
        <time>2024-05-28T11:13:26Z</time>
      </trkpt>
      <trkpt lat="47.159" lon="5.83215">
        <ele>253</ele>
        <time>2024-05-28T11:13:28Z</time>
      </trkpt>
      <trkpt lat="47.15896" lon="5.83211">
        <ele>253.4</ele>
        <time>2024-05-28T11:13:30Z</time>
      </trkpt>
      <trkpt lat="47.15894" lon="5.8321">
        <ele>253.6</ele>
        <time>2024-05-28T11:13:31Z</time>
      </trkpt>
      <trkpt lat="47.15892" lon="5.83209">
        <ele>253.8</ele>
        <time>2024-05-28T11:13:32Z</time>
      </trkpt>
      <trkpt lat="47.15889" lon="5.83207">
        <ele>253.8</ele>
        <time>2024-05-28T11:13:33Z</time>
      </trkpt>
      <trkpt lat="47.15887" lon="5.83206">
        <ele>254</ele>
        <time>2024-05-28T11:13:34Z</time>
      </trkpt>
      <trkpt lat="47.15884" lon="5.83205">
        <ele>254</ele>
        <time>2024-05-28T11:13:35Z</time>
      </trkpt>
      <trkpt lat="47.15882" lon="5.83204">
        <ele>254.2</ele>
        <time>2024-05-28T11:13:36Z</time>
      </trkpt>
      <trkpt lat="47.15879" lon="5.83203">
        <ele>254.2</ele>
        <time>2024-05-28T11:13:37Z</time>
      </trkpt>
      <trkpt lat="47.15876" lon="5.83201">
        <ele>254.2</ele>
        <time>2024-05-28T11:13:38Z</time>
      </trkpt>
      <trkpt lat="47.15873" lon="5.832">
        <ele>254.2</ele>
        <time>2024-05-28T11:13:39Z</time>
      </trkpt>
      <trkpt lat="47.1587" lon="5.83198">
        <ele>254.2</ele>
        <time>2024-05-28T11:13:40Z</time>
      </trkpt>
      <trkpt lat="47.15867" lon="5.83196">
        <ele>254.2</ele>
        <time>2024-05-28T11:13:41Z</time>
      </trkpt>
      <trkpt lat="47.15863" lon="5.83194">
        <ele>254.2</ele>
        <time>2024-05-28T11:13:42Z</time>
      </trkpt>
      <trkpt lat="47.1586" lon="5.83192">
        <ele>254.2</ele>
        <time>2024-05-28T11:13:43Z</time>
      </trkpt>
      <trkpt lat="47.15857" lon="5.8319">
        <ele>254.2</ele>
        <time>2024-05-28T11:13:44Z</time>
      </trkpt>
      <trkpt lat="47.15854" lon="5.83188">
        <ele>254.2</ele>
        <time>2024-05-28T11:13:45Z</time>
      </trkpt>
      <trkpt lat="47.15851" lon="5.83186">
        <ele>254.2</ele>
        <time>2024-05-28T11:13:46Z</time>
      </trkpt>
      <trkpt lat="47.15825" lon="5.83169">
        <ele>253.6</ele>
        <time>2024-05-28T11:13:54Z</time>
      </trkpt>
      <trkpt lat="47.15814" lon="5.83161">
        <ele>253.6</ele>
        <time>2024-05-28T11:13:58Z</time>
      </trkpt>
      <trkpt lat="47.15811" lon="5.83159">
        <ele>253.6</ele>
        <time>2024-05-28T11:13:59Z</time>
      </trkpt>
      <trkpt lat="47.15808" lon="5.83157">
        <ele>253.6</ele>
        <time>2024-05-28T11:14:00Z</time>
      </trkpt>
      <trkpt lat="47.15806" lon="5.83156">
        <ele>253.8</ele>
        <time>2024-05-28T11:14:01Z</time>
      </trkpt>
      <trkpt lat="47.15804" lon="5.83154">
        <ele>253.8</ele>
        <time>2024-05-28T11:14:02Z</time>
      </trkpt>
      <trkpt lat="47.15802" lon="5.83153">
        <ele>253.8</ele>
        <time>2024-05-28T11:14:03Z</time>
      </trkpt>
      <trkpt lat="47.158" lon="5.83152">
        <ele>254</ele>
        <time>2024-05-28T11:14:04Z</time>
      </trkpt>
      <trkpt lat="47.15798" lon="5.83151">
        <ele>254</ele>
        <time>2024-05-28T11:14:05Z</time>
      </trkpt>
      <trkpt lat="47.15796" lon="5.83149">
        <ele>254.6</ele>
        <time>2024-05-28T11:14:06Z</time>
      </trkpt>
      <trkpt lat="47.15793" lon="5.83147">
        <ele>255.4</ele>
        <time>2024-05-28T11:14:08Z</time>
      </trkpt>
      <trkpt lat="47.15791" lon="5.83146">
        <ele>255.6</ele>
        <time>2024-05-28T11:14:09Z</time>
      </trkpt>
      <trkpt lat="47.15789" lon="5.83145">
        <ele>256</ele>
        <time>2024-05-28T11:14:10Z</time>
      </trkpt>
      <trkpt lat="47.15787" lon="5.83144">
        <ele>256.4</ele>
        <time>2024-05-28T11:14:11Z</time>
      </trkpt>
      <trkpt lat="47.15785" lon="5.83143">
        <ele>256.6</ele>
        <time>2024-05-28T11:14:12Z</time>
      </trkpt>
      <trkpt lat="47.15783" lon="5.83142">
        <ele>256.8</ele>
        <time>2024-05-28T11:14:13Z</time>
      </trkpt>
      <trkpt lat="47.15781" lon="5.8314">
        <ele>257.4</ele>
        <time>2024-05-28T11:14:14Z</time>
      </trkpt>
      <trkpt lat="47.1578" lon="5.83139">
        <ele>257.8</ele>
        <time>2024-05-28T11:14:15Z</time>
      </trkpt>
      <trkpt lat="47.15778" lon="5.83138">
        <ele>258.2</ele>
        <time>2024-05-28T11:14:16Z</time>
      </trkpt>
      <trkpt lat="47.15776" lon="5.83137">
        <ele>258.8</ele>
        <time>2024-05-28T11:14:17Z</time>
      </trkpt>
      <trkpt lat="47.15775" lon="5.83135">
        <ele>259.2</ele>
        <time>2024-05-28T11:14:18Z</time>
      </trkpt>
      <trkpt lat="47.15773" lon="5.83134">
        <ele>259.4</ele>
        <time>2024-05-28T11:14:19Z</time>
      </trkpt>
      <trkpt lat="47.15772" lon="5.83134">
        <ele>259.6</ele>
        <time>2024-05-28T11:14:20Z</time>
      </trkpt>
      <trkpt lat="47.1577" lon="5.83133">
        <ele>259.6</ele>
        <time>2024-05-28T11:14:21Z</time>
      </trkpt>
      <trkpt lat="47.15769" lon="5.83132">
        <ele>259.8</ele>
        <time>2024-05-28T11:14:22Z</time>
      </trkpt>
      <trkpt lat="47.15767" lon="5.83131">
        <ele>260</ele>
        <time>2024-05-28T11:14:23Z</time>
      </trkpt>
      <trkpt lat="47.15765" lon="5.8313">
        <ele>260.4</ele>
        <time>2024-05-28T11:14:24Z</time>
      </trkpt>
      <trkpt lat="47.15763" lon="5.83128">
        <ele>260.6</ele>
        <time>2024-05-28T11:14:25Z</time>
      </trkpt>
      <trkpt lat="47.15761" lon="5.83127">
        <ele>260.6</ele>
        <time>2024-05-28T11:14:26Z</time>
      </trkpt>
      <trkpt lat="47.15759" lon="5.83126">
        <ele>260.8</ele>
        <time>2024-05-28T11:14:27Z</time>
      </trkpt>
      <trkpt lat="47.15757" lon="5.83125">
        <ele>261</ele>
        <time>2024-05-28T11:14:28Z</time>
      </trkpt>
      <trkpt lat="47.15755" lon="5.83124">
        <ele>261.2</ele>
        <time>2024-05-28T11:14:29Z</time>
      </trkpt>
      <trkpt lat="47.15753" lon="5.83123">
        <ele>261.2</ele>
        <time>2024-05-28T11:14:30Z</time>
      </trkpt>
      <trkpt lat="47.15751" lon="5.83122">
        <ele>261.4</ele>
        <time>2024-05-28T11:14:31Z</time>
      </trkpt>
      <trkpt lat="47.15749" lon="5.83121">
        <ele>261.4</ele>
        <time>2024-05-28T11:14:32Z</time>
      </trkpt>
      <trkpt lat="47.15747" lon="5.8312">
        <ele>261.6</ele>
        <time>2024-05-28T11:14:33Z</time>
      </trkpt>
      <trkpt lat="47.15746" lon="5.83119">
        <ele>261.8</ele>
        <time>2024-05-28T11:14:34Z</time>
      </trkpt>
      <trkpt lat="47.15744" lon="5.83118">
        <ele>261.8</ele>
        <time>2024-05-28T11:14:35Z</time>
      </trkpt>
      <trkpt lat="47.15742" lon="5.83117">
        <ele>261.8</ele>
        <time>2024-05-28T11:14:36Z</time>
      </trkpt>
      <trkpt lat="47.1574" lon="5.83117">
        <ele>262</ele>
        <time>2024-05-28T11:14:37Z</time>
      </trkpt>
      <trkpt lat="47.15738" lon="5.83116">
        <ele>262.2</ele>
        <time>2024-05-28T11:14:38Z</time>
      </trkpt>
      <trkpt lat="47.15736" lon="5.83116">
        <ele>262.2</ele>
        <time>2024-05-28T11:14:39Z</time>
      </trkpt>
      <trkpt lat="47.15733" lon="5.83115">
        <ele>262.4</ele>
        <time>2024-05-28T11:14:40Z</time>
      </trkpt>
      <trkpt lat="47.15731" lon="5.83114">
        <ele>262.4</ele>
        <time>2024-05-28T11:14:41Z</time>
      </trkpt>
      <trkpt lat="47.15729" lon="5.83113">
        <ele>262.6</ele>
        <time>2024-05-28T11:14:42Z</time>
      </trkpt>
      <trkpt lat="47.15727" lon="5.83112">
        <ele>262.6</ele>
        <time>2024-05-28T11:14:43Z</time>
      </trkpt>
      <trkpt lat="47.15725" lon="5.83111">
        <ele>262.6</ele>
        <time>2024-05-28T11:14:44Z</time>
      </trkpt>
      <trkpt lat="47.15723" lon="5.8311">
        <ele>262.6</ele>
        <time>2024-05-28T11:14:45Z</time>
      </trkpt>
      <trkpt lat="47.15721" lon="5.83109">
        <ele>262.8</ele>
        <time>2024-05-28T11:14:46Z</time>
      </trkpt>
      <trkpt lat="47.15719" lon="5.83108">
        <ele>262.8</ele>
        <time>2024-05-28T11:14:47Z</time>
      </trkpt>
      <trkpt lat="47.15717" lon="5.83107">
        <ele>262.8</ele>
        <time>2024-05-28T11:14:48Z</time>
      </trkpt>
      <trkpt lat="47.15715" lon="5.83106">
        <ele>262.8</ele>
        <time>2024-05-28T11:14:49Z</time>
      </trkpt>
      <trkpt lat="47.15712" lon="5.83104">
        <ele>262.8</ele>
        <time>2024-05-28T11:14:50Z</time>
      </trkpt>
      <trkpt lat="47.1571" lon="5.83102">
        <ele>263</ele>
        <time>2024-05-28T11:14:51Z</time>
      </trkpt>
      <trkpt lat="47.15707" lon="5.831">
        <ele>263</ele>
        <time>2024-05-28T11:14:52Z</time>
      </trkpt>
      <trkpt lat="47.15705" lon="5.83099">
        <ele>263</ele>
        <time>2024-05-28T11:14:53Z</time>
      </trkpt>
      <trkpt lat="47.15702" lon="5.83097">
        <ele>263</ele>
        <time>2024-05-28T11:14:54Z</time>
      </trkpt>
      <trkpt lat="47.157" lon="5.83096">
        <ele>263</ele>
        <time>2024-05-28T11:14:55Z</time>
      </trkpt>
      <trkpt lat="47.15697" lon="5.83094">
        <ele>263</ele>
        <time>2024-05-28T11:14:56Z</time>
      </trkpt>
      <trkpt lat="47.15694" lon="5.83092">
        <ele>263</ele>
        <time>2024-05-28T11:14:57Z</time>
      </trkpt>
      <trkpt lat="47.15691" lon="5.83091">
        <ele>263</ele>
        <time>2024-05-28T11:14:58Z</time>
      </trkpt>
      <trkpt lat="47.15678" lon="5.83083">
        <ele>263</ele>
        <time>2024-05-28T11:15:03Z</time>
      </trkpt>
      <trkpt lat="47.15655" lon="5.83073">
        <ele>263</ele>
        <time>2024-05-28T11:15:10Z</time>
      </trkpt>
      <trkpt lat="47.15651" lon="5.83072">
        <ele>263</ele>
        <time>2024-05-28T11:15:11Z</time>
      </trkpt>
      <trkpt lat="47.15628" lon="5.83063">
        <ele>262.4</ele>
        <time>2024-05-28T11:15:17Z</time>
      </trkpt>
      <trkpt lat="47.15611" lon="5.83053">
        <ele>262</ele>
        <time>2024-05-28T11:15:22Z</time>
      </trkpt>
      <trkpt lat="47.15608" lon="5.83051">
        <ele>262</ele>
        <time>2024-05-28T11:15:23Z</time>
      </trkpt>
      <trkpt lat="47.15605" lon="5.83049">
        <ele>261.8</ele>
        <time>2024-05-28T11:15:24Z</time>
      </trkpt>
      <trkpt lat="47.15602" lon="5.83046">
        <ele>261.8</ele>
        <time>2024-05-28T11:15:25Z</time>
      </trkpt>
      <trkpt lat="47.15599" lon="5.83044">
        <ele>261.8</ele>
        <time>2024-05-28T11:15:26Z</time>
      </trkpt>
      <trkpt lat="47.15596" lon="5.83042">
        <ele>261.8</ele>
        <time>2024-05-28T11:15:27Z</time>
      </trkpt>
      <trkpt lat="47.15592" lon="5.8304">
        <ele>261.8</ele>
        <time>2024-05-28T11:15:28Z</time>
      </trkpt>
      <trkpt lat="47.15589" lon="5.83038">
        <ele>261.8</ele>
        <time>2024-05-28T11:15:29Z</time>
      </trkpt>
      <trkpt lat="47.15586" lon="5.83036">
        <ele>261.8</ele>
        <time>2024-05-28T11:15:30Z</time>
      </trkpt>
      <trkpt lat="47.15582" lon="5.83034">
        <ele>261.8</ele>
        <time>2024-05-28T11:15:31Z</time>
      </trkpt>
      <trkpt lat="47.15579" lon="5.83031">
        <ele>261.8</ele>
        <time>2024-05-28T11:15:32Z</time>
      </trkpt>
      <trkpt lat="47.15551" lon="5.83011">
        <ele>262.2</ele>
        <time>2024-05-28T11:15:39Z</time>
      </trkpt>
      <trkpt lat="47.15547" lon="5.83008">
        <ele>262.2</ele>
        <time>2024-05-28T11:15:40Z</time>
      </trkpt>
      <trkpt lat="47.15524" lon="5.82993">
        <ele>261.6</ele>
        <time>2024-05-28T11:15:45Z</time>
      </trkpt>
      <trkpt lat="47.15519" lon="5.82991">
        <ele>261.4</ele>
        <time>2024-05-28T11:15:46Z</time>
      </trkpt>
      <trkpt lat="47.15515" lon="5.82992">
        <ele>261.2</ele>
        <time>2024-05-28T11:15:47Z</time>
      </trkpt>
      <trkpt lat="47.15511" lon="5.82993">
        <ele>261.2</ele>
        <time>2024-05-28T11:15:48Z</time>
      </trkpt>
      <trkpt lat="47.15507" lon="5.82996">
        <ele>261.2</ele>
        <time>2024-05-28T11:15:49Z</time>
      </trkpt>
      <trkpt lat="47.15504" lon="5.82999">
        <ele>261.2</ele>
        <time>2024-05-28T11:15:50Z</time>
      </trkpt>
      <trkpt lat="47.15501" lon="5.83002">
        <ele>261.2</ele>
        <time>2024-05-28T11:15:51Z</time>
      </trkpt>
      <trkpt lat="47.15498" lon="5.83007">
        <ele>261.2</ele>
        <time>2024-05-28T11:15:52Z</time>
      </trkpt>
      <trkpt lat="47.15495" lon="5.83012">
        <ele>261.2</ele>
        <time>2024-05-28T11:15:53Z</time>
      </trkpt>
      <trkpt lat="47.15492" lon="5.83018">
        <ele>261.2</ele>
        <time>2024-05-28T11:15:54Z</time>
      </trkpt>
      <trkpt lat="47.15484" lon="5.83041">
        <ele>261.4</ele>
        <time>2024-05-28T11:15:58Z</time>
      </trkpt>
      <trkpt lat="47.15482" lon="5.83046">
        <ele>261.4</ele>
        <time>2024-05-28T11:15:59Z</time>
      </trkpt>
      <trkpt lat="47.15477" lon="5.83056">
        <ele>261.6</ele>
        <time>2024-05-28T11:16:01Z</time>
      </trkpt>
      <trkpt lat="47.15471" lon="5.83069">
        <ele>262</ele>
        <time>2024-05-28T11:16:04Z</time>
      </trkpt>
      <trkpt lat="47.15469" lon="5.83073">
        <ele>262.2</ele>
        <time>2024-05-28T11:16:05Z</time>
      </trkpt>
      <trkpt lat="47.15468" lon="5.83076">
        <ele>262.2</ele>
        <time>2024-05-28T11:16:06Z</time>
      </trkpt>
      <trkpt lat="47.15467" lon="5.8308">
        <ele>262.4</ele>
        <time>2024-05-28T11:16:07Z</time>
      </trkpt>
      <trkpt lat="47.15467" lon="5.83084">
        <ele>262.8</ele>
        <time>2024-05-28T11:16:08Z</time>
      </trkpt>
      <trkpt lat="47.15466" lon="5.83088">
        <ele>263</ele>
        <time>2024-05-28T11:16:09Z</time>
      </trkpt>
      <trkpt lat="47.15466" lon="5.83092">
        <ele>263.6</ele>
        <time>2024-05-28T11:16:10Z</time>
      </trkpt>
      <trkpt lat="47.15465" lon="5.83097">
        <ele>263.8</ele>
        <time>2024-05-28T11:16:11Z</time>
      </trkpt>
      <trkpt lat="47.15465" lon="5.83102">
        <ele>264</ele>
        <time>2024-05-28T11:16:12Z</time>
      </trkpt>
      <trkpt lat="47.15465" lon="5.83107">
        <ele>264.2</ele>
        <time>2024-05-28T11:16:13Z</time>
      </trkpt>
      <trkpt lat="47.15464" lon="5.83111">
        <ele>264.4</ele>
        <time>2024-05-28T11:16:14Z</time>
      </trkpt>
      <trkpt lat="47.15463" lon="5.83115">
        <ele>264.6</ele>
        <time>2024-05-28T11:16:15Z</time>
      </trkpt>
      <trkpt lat="47.15463" lon="5.83117">
        <ele>264.6</ele>
        <time>2024-05-28T11:16:16Z</time>
      </trkpt>
      <trkpt lat="47.15462" lon="5.8312">
        <ele>264.8</ele>
        <time>2024-05-28T11:16:17Z</time>
      </trkpt>
      <trkpt lat="47.1546" lon="5.83124">
        <ele>264.8</ele>
        <time>2024-05-28T11:16:18Z</time>
      </trkpt>
      <trkpt lat="47.15458" lon="5.83129">
        <ele>265.2</ele>
        <time>2024-05-28T11:16:19Z</time>
      </trkpt>
      <trkpt lat="47.15456" lon="5.83136">
        <ele>265.6</ele>
        <time>2024-05-28T11:16:20Z</time>
      </trkpt>
      <trkpt lat="47.15452" lon="5.83142">
        <ele>266</ele>
        <time>2024-05-28T11:16:21Z</time>
      </trkpt>
      <trkpt lat="47.15448" lon="5.83146">
        <ele>266.2</ele>
        <time>2024-05-28T11:16:22Z</time>
      </trkpt>
      <trkpt lat="47.15443" lon="5.8315">
        <ele>266.2</ele>
        <time>2024-05-28T11:16:23Z</time>
      </trkpt>
      <trkpt lat="47.1544" lon="5.83153">
        <ele>266.4</ele>
        <time>2024-05-28T11:16:24Z</time>
      </trkpt>
      <trkpt lat="47.15436" lon="5.83156">
        <ele>266.4</ele>
        <time>2024-05-28T11:16:25Z</time>
      </trkpt>
      <trkpt lat="47.15433" lon="5.83159">
        <ele>266.4</ele>
        <time>2024-05-28T11:16:26Z</time>
      </trkpt>
      <trkpt lat="47.1543" lon="5.8316">
        <ele>266.4</ele>
        <time>2024-05-28T11:16:27Z</time>
      </trkpt>
      <trkpt lat="47.15426" lon="5.83162">
        <ele>266.4</ele>
        <time>2024-05-28T11:16:28Z</time>
      </trkpt>
      <trkpt lat="47.15421" lon="5.83164">
        <ele>266.4</ele>
        <time>2024-05-28T11:16:29Z</time>
      </trkpt>
      <trkpt lat="47.15416" lon="5.83167">
        <ele>266.4</ele>
        <time>2024-05-28T11:16:30Z</time>
      </trkpt>
      <trkpt lat="47.15412" lon="5.83169">
        <ele>266.4</ele>
        <time>2024-05-28T11:16:31Z</time>
      </trkpt>
      <trkpt lat="47.15408" lon="5.83172">
        <ele>266.4</ele>
        <time>2024-05-28T11:16:32Z</time>
      </trkpt>
      <trkpt lat="47.15406" lon="5.83173">
        <ele>266.4</ele>
        <time>2024-05-28T11:16:33Z</time>
      </trkpt>
      <trkpt lat="47.15404" lon="5.83175">
        <ele>266.4</ele>
        <time>2024-05-28T11:16:34Z</time>
      </trkpt>
      <trkpt lat="47.15401" lon="5.83178">
        <ele>266.4</ele>
        <time>2024-05-28T11:16:35Z</time>
      </trkpt>
      <trkpt lat="47.15398" lon="5.83183">
        <ele>266.4</ele>
        <time>2024-05-28T11:16:36Z</time>
      </trkpt>
      <trkpt lat="47.15395" lon="5.83185">
        <ele>266.6</ele>
        <time>2024-05-28T11:16:37Z</time>
      </trkpt>
      <trkpt lat="47.15392" lon="5.83187">
        <ele>266.6</ele>
        <time>2024-05-28T11:16:38Z</time>
      </trkpt>
      <trkpt lat="47.15388" lon="5.83189">
        <ele>266.6</ele>
        <time>2024-05-28T11:16:39Z</time>
      </trkpt>
      <trkpt lat="47.15385" lon="5.83191">
        <ele>266.8</ele>
        <time>2024-05-28T11:16:40Z</time>
      </trkpt>
      <trkpt lat="47.15382" lon="5.83193">
        <ele>267</ele>
        <time>2024-05-28T11:16:41Z</time>
      </trkpt>
      <trkpt lat="47.15379" lon="5.83195">
        <ele>267.2</ele>
        <time>2024-05-28T11:16:42Z</time>
      </trkpt>
      <trkpt lat="47.15356" lon="5.83207">
        <ele>268</ele>
        <time>2024-05-28T11:16:49Z</time>
      </trkpt>
      <trkpt lat="47.15348" lon="5.83212">
        <ele>268</ele>
        <time>2024-05-28T11:16:51Z</time>
      </trkpt>
      <trkpt lat="47.15343" lon="5.83215">
        <ele>268</ele>
        <time>2024-05-28T11:16:52Z</time>
      </trkpt>
      <trkpt lat="47.15332" lon="5.83222">
        <ele>268</ele>
        <time>2024-05-28T11:16:54Z</time>
      </trkpt>
      <trkpt lat="47.15323" lon="5.83227">
        <ele>268</ele>
        <time>2024-05-28T11:16:56Z</time>
      </trkpt>
      <trkpt lat="47.15319" lon="5.83229">
        <ele>268</ele>
        <time>2024-05-28T11:16:57Z</time>
      </trkpt>
      <trkpt lat="47.15314" lon="5.83229">
        <ele>267.6</ele>
        <time>2024-05-28T11:16:58Z</time>
      </trkpt>
      <trkpt lat="47.1531" lon="5.8323">
        <ele>267.2</ele>
        <time>2024-05-28T11:16:59Z</time>
      </trkpt>
      <trkpt lat="47.15306" lon="5.8323">
        <ele>267</ele>
        <time>2024-05-28T11:17:00Z</time>
      </trkpt>
      <trkpt lat="47.153" lon="5.8323">
        <ele>266.8</ele>
        <time>2024-05-28T11:17:01Z</time>
      </trkpt>
      <trkpt lat="47.15295" lon="5.83231">
        <ele>266.8</ele>
        <time>2024-05-28T11:17:02Z</time>
      </trkpt>
      <trkpt lat="47.15291" lon="5.83233">
        <ele>266.6</ele>
        <time>2024-05-28T11:17:03Z</time>
      </trkpt>
      <trkpt lat="47.15288" lon="5.83236">
        <ele>266.6</ele>
        <time>2024-05-28T11:17:04Z</time>
      </trkpt>
      <trkpt lat="47.15285" lon="5.83237">
        <ele>266.6</ele>
        <time>2024-05-28T11:17:05Z</time>
      </trkpt>
      <trkpt lat="47.15282" lon="5.83239">
        <ele>266.6</ele>
        <time>2024-05-28T11:17:06Z</time>
      </trkpt>
      <trkpt lat="47.15279" lon="5.83242">
        <ele>266.6</ele>
        <time>2024-05-28T11:17:07Z</time>
      </trkpt>
      <trkpt lat="47.15276" lon="5.83245">
        <ele>266.6</ele>
        <time>2024-05-28T11:17:08Z</time>
      </trkpt>
      <trkpt lat="47.15274" lon="5.83247">
        <ele>266.8</ele>
        <time>2024-05-28T11:17:09Z</time>
      </trkpt>
      <trkpt lat="47.15271" lon="5.8325">
        <ele>266.8</ele>
        <time>2024-05-28T11:17:10Z</time>
      </trkpt>
      <trkpt lat="47.15268" lon="5.83251">
        <ele>267</ele>
        <time>2024-05-28T11:17:11Z</time>
      </trkpt>
      <trkpt lat="47.15261" lon="5.83255">
        <ele>267.4</ele>
        <time>2024-05-28T11:17:13Z</time>
      </trkpt>
      <trkpt lat="47.15259" lon="5.83256">
        <ele>267.8</ele>
        <time>2024-05-28T11:17:14Z</time>
      </trkpt>
      <trkpt lat="47.15256" lon="5.8326">
        <ele>267.8</ele>
        <time>2024-05-28T11:17:15Z</time>
      </trkpt>
      <trkpt lat="47.15253" lon="5.83263">
        <ele>268.2</ele>
        <time>2024-05-28T11:17:16Z</time>
      </trkpt>
      <trkpt lat="47.1525" lon="5.83265">
        <ele>268.4</ele>
        <time>2024-05-28T11:17:17Z</time>
      </trkpt>
      <trkpt lat="47.15241" lon="5.83274">
        <ele>268.8</ele>
        <time>2024-05-28T11:17:20Z</time>
      </trkpt>
      <trkpt lat="47.15239" lon="5.83276">
        <ele>269</ele>
        <time>2024-05-28T11:17:21Z</time>
      </trkpt>
      <trkpt lat="47.15231" lon="5.83283">
        <ele>269.6</ele>
        <time>2024-05-28T11:17:24Z</time>
      </trkpt>
      <trkpt lat="47.15227" lon="5.83287">
        <ele>269.8</ele>
        <time>2024-05-28T11:17:25Z</time>
      </trkpt>
      <trkpt lat="47.15224" lon="5.83289">
        <ele>270.2</ele>
        <time>2024-05-28T11:17:26Z</time>
      </trkpt>
      <trkpt lat="47.15219" lon="5.83293">
        <ele>270.6</ele>
        <time>2024-05-28T11:17:28Z</time>
      </trkpt>
      <trkpt lat="47.15217" lon="5.83296">
        <ele>270.6</ele>
        <time>2024-05-28T11:17:29Z</time>
      </trkpt>
      <trkpt lat="47.15214" lon="5.83297">
        <ele>271</ele>
        <time>2024-05-28T11:17:30Z</time>
      </trkpt>
      <trkpt lat="47.15212" lon="5.83298">
        <ele>271</ele>
        <time>2024-05-28T11:17:31Z</time>
      </trkpt>
      <trkpt lat="47.1521" lon="5.833">
        <ele>271.2</ele>
        <time>2024-05-28T11:17:32Z</time>
      </trkpt>
      <trkpt lat="47.15207" lon="5.83302">
        <ele>271.4</ele>
        <time>2024-05-28T11:17:33Z</time>
      </trkpt>
      <trkpt lat="47.15204" lon="5.83306">
        <ele>271.4</ele>
        <time>2024-05-28T11:17:34Z</time>
      </trkpt>
      <trkpt lat="47.15202" lon="5.83309">
        <ele>271.8</ele>
        <time>2024-05-28T11:17:35Z</time>
      </trkpt>
      <trkpt lat="47.15201" lon="5.83311">
        <ele>271.8</ele>
        <time>2024-05-28T11:17:36Z</time>
      </trkpt>
      <trkpt lat="47.15199" lon="5.83315">
        <ele>272</ele>
        <time>2024-05-28T11:17:37Z</time>
      </trkpt>
      <trkpt lat="47.15197" lon="5.8332">
        <ele>272.2</ele>
        <time>2024-05-28T11:17:38Z</time>
      </trkpt>
      <trkpt lat="47.15195" lon="5.83323">
        <ele>272.2</ele>
        <time>2024-05-28T11:17:39Z</time>
      </trkpt>
      <trkpt lat="47.15193" lon="5.83325">
        <ele>272.4</ele>
        <time>2024-05-28T11:17:40Z</time>
      </trkpt>
      <trkpt lat="47.15191" lon="5.83329">
        <ele>272.4</ele>
        <time>2024-05-28T11:17:41Z</time>
      </trkpt>
      <trkpt lat="47.1519" lon="5.83331">
        <ele>272.6</ele>
        <time>2024-05-28T11:17:42Z</time>
      </trkpt>
      <trkpt lat="47.1519" lon="5.83332">
        <ele>272.6</ele>
        <time>2024-05-28T11:17:43Z</time>
      </trkpt>
      <trkpt lat="47.15188" lon="5.83334">
        <ele>272.8</ele>
        <time>2024-05-28T11:17:44Z</time>
      </trkpt>
      <trkpt lat="47.15186" lon="5.83336">
        <ele>272.8</ele>
        <time>2024-05-28T11:17:45Z</time>
      </trkpt>
      <trkpt lat="47.15184" lon="5.83339">
        <ele>273</ele>
        <time>2024-05-28T11:17:46Z</time>
      </trkpt>
      <trkpt lat="47.15181" lon="5.83343">
        <ele>273.2</ele>
        <time>2024-05-28T11:17:47Z</time>
      </trkpt>
      <trkpt lat="47.15177" lon="5.83347">
        <ele>273.4</ele>
        <time>2024-05-28T11:17:48Z</time>
      </trkpt>
      <trkpt lat="47.15175" lon="5.83351">
        <ele>273.4</ele>
        <time>2024-05-28T11:17:49Z</time>
      </trkpt>
      <trkpt lat="47.15174" lon="5.83353">
        <ele>273.6</ele>
        <time>2024-05-28T11:17:50Z</time>
      </trkpt>
      <trkpt lat="47.15173" lon="5.83355">
        <ele>273.8</ele>
        <time>2024-05-28T11:17:51Z</time>
      </trkpt>
      <trkpt lat="47.15171" lon="5.83356">
        <ele>274</ele>
        <time>2024-05-28T11:17:52Z</time>
      </trkpt>
      <trkpt lat="47.15171" lon="5.83357">
        <ele>274.4</ele>
        <time>2024-05-28T11:17:53Z</time>
      </trkpt>
      <trkpt lat="47.15169" lon="5.83358">
        <ele>274.4</ele>
        <time>2024-05-28T11:17:54Z</time>
      </trkpt>
      <trkpt lat="47.15168" lon="5.8336">
        <ele>274.8</ele>
        <time>2024-05-28T11:17:55Z</time>
      </trkpt>
      <trkpt lat="47.15167" lon="5.83362">
        <ele>275</ele>
        <time>2024-05-28T11:17:56Z</time>
      </trkpt>
      <trkpt lat="47.15167" lon="5.83364">
        <ele>275.2</ele>
        <time>2024-05-28T11:17:57Z</time>
      </trkpt>
      <trkpt lat="47.15166" lon="5.83366">
        <ele>275.4</ele>
        <time>2024-05-28T11:17:58Z</time>
      </trkpt>
      <trkpt lat="47.15165" lon="5.83368">
        <ele>275.4</ele>
        <time>2024-05-28T11:17:59Z</time>
      </trkpt>
      <trkpt lat="47.15164" lon="5.83371">
        <ele>275.4</ele>
        <time>2024-05-28T11:18:00Z</time>
      </trkpt>
      <trkpt lat="47.15163" lon="5.83375">
        <ele>275.6</ele>
        <time>2024-05-28T11:18:01Z</time>
      </trkpt>
      <trkpt lat="47.15161" lon="5.83379">
        <ele>276</ele>
        <time>2024-05-28T11:18:02Z</time>
      </trkpt>
      <trkpt lat="47.15159" lon="5.83381">
        <ele>276.2</ele>
        <time>2024-05-28T11:18:03Z</time>
      </trkpt>
      <trkpt lat="47.15157" lon="5.83384">
        <ele>276.4</ele>
        <time>2024-05-28T11:18:04Z</time>
      </trkpt>
      <trkpt lat="47.15155" lon="5.83386">
        <ele>276.4</ele>
        <time>2024-05-28T11:18:05Z</time>
      </trkpt>
      <trkpt lat="47.15152" lon="5.83389">
        <ele>276.4</ele>
        <time>2024-05-28T11:18:06Z</time>
      </trkpt>
      <trkpt lat="47.1515" lon="5.83391">
        <ele>276.6</ele>
        <time>2024-05-28T11:18:07Z</time>
      </trkpt>
      <trkpt lat="47.15148" lon="5.83392">
        <ele>276.6</ele>
        <time>2024-05-28T11:18:08Z</time>
      </trkpt>
      <trkpt lat="47.15146" lon="5.83393">
        <ele>276.6</ele>
        <time>2024-05-28T11:18:09Z</time>
      </trkpt>
      <trkpt lat="47.15143" lon="5.83395">
        <ele>276.8</ele>
        <time>2024-05-28T11:18:10Z</time>
      </trkpt>
      <trkpt lat="47.15139" lon="5.83395">
        <ele>276.8</ele>
        <time>2024-05-28T11:18:11Z</time>
      </trkpt>
      <trkpt lat="47.15136" lon="5.83396">
        <ele>276.8</ele>
        <time>2024-05-28T11:18:12Z</time>
      </trkpt>
      <trkpt lat="47.15133" lon="5.83397">
        <ele>277</ele>
        <time>2024-05-28T11:18:13Z</time>
      </trkpt>
      <trkpt lat="47.1513" lon="5.83398">
        <ele>277</ele>
        <time>2024-05-28T11:18:14Z</time>
      </trkpt>
      <trkpt lat="47.15128" lon="5.83399">
        <ele>277.2</ele>
        <time>2024-05-28T11:18:15Z</time>
      </trkpt>
      <trkpt lat="47.15125" lon="5.834">
        <ele>277.2</ele>
        <time>2024-05-28T11:18:16Z</time>
      </trkpt>
      <trkpt lat="47.15122" lon="5.83401">
        <ele>277.2</ele>
        <time>2024-05-28T11:18:17Z</time>
      </trkpt>
      <trkpt lat="47.1512" lon="5.83403">
        <ele>277.2</ele>
        <time>2024-05-28T11:18:18Z</time>
      </trkpt>
      <trkpt lat="47.15116" lon="5.83405">
        <ele>277.2</ele>
        <time>2024-05-28T11:18:19Z</time>
      </trkpt>
      <trkpt lat="47.15113" lon="5.83407">
        <ele>277.4</ele>
        <time>2024-05-28T11:18:20Z</time>
      </trkpt>
      <trkpt lat="47.15109" lon="5.83407">
        <ele>277.2</ele>
        <time>2024-05-28T11:18:21Z</time>
      </trkpt>
      <trkpt lat="47.15105" lon="5.83406">
        <ele>277</ele>
        <time>2024-05-28T11:18:22Z</time>
      </trkpt>
      <trkpt lat="47.15101" lon="5.83404">
        <ele>277</ele>
        <time>2024-05-28T11:18:23Z</time>
      </trkpt>
      <trkpt lat="47.15096" lon="5.834">
        <ele>277</ele>
        <time>2024-05-28T11:18:24Z</time>
      </trkpt>
      <trkpt lat="47.15091" lon="5.83396">
        <ele>277</ele>
        <time>2024-05-28T11:18:25Z</time>
      </trkpt>
      <trkpt lat="47.15088" lon="5.83391">
        <ele>277</ele>
        <time>2024-05-28T11:18:26Z</time>
      </trkpt>
      <trkpt lat="47.15085" lon="5.83388">
        <ele>277</ele>
        <time>2024-05-28T11:18:27Z</time>
      </trkpt>
      <trkpt lat="47.15083" lon="5.83385">
        <ele>277</ele>
        <time>2024-05-28T11:18:28Z</time>
      </trkpt>
      <trkpt lat="47.15081" lon="5.83381">
        <ele>277</ele>
        <time>2024-05-28T11:18:29Z</time>
      </trkpt>
      <trkpt lat="47.15081" lon="5.83379">
        <ele>277</ele>
        <time>2024-05-28T11:18:30Z</time>
      </trkpt>
      <trkpt lat="47.1508" lon="5.83375">
        <ele>277</ele>
        <time>2024-05-28T11:18:31Z</time>
      </trkpt>
      <trkpt lat="47.15078" lon="5.83372">
        <ele>277</ele>
        <time>2024-05-28T11:18:32Z</time>
      </trkpt>
      <trkpt lat="47.15071" lon="5.83355">
        <ele>277</ele>
        <time>2024-05-28T11:18:36Z</time>
      </trkpt>
      <trkpt lat="47.15055" lon="5.83328">
        <ele>277</ele>
        <time>2024-05-28T11:18:43Z</time>
      </trkpt>
      <trkpt lat="47.15048" lon="5.83318">
        <ele>277</ele>
        <time>2024-05-28T11:18:46Z</time>
      </trkpt>
      <trkpt lat="47.15046" lon="5.83315">
        <ele>276.8</ele>
        <time>2024-05-28T11:18:47Z</time>
      </trkpt>
      <trkpt lat="47.15038" lon="5.83305">
        <ele>276.8</ele>
        <time>2024-05-28T11:18:50Z</time>
      </trkpt>
      <trkpt lat="47.15015" lon="5.8327">
        <ele>275.6</ele>
        <time>2024-05-28T11:18:58Z</time>
      </trkpt>
      <trkpt lat="47.15006" lon="5.83257">
        <ele>275.2</ele>
        <time>2024-05-28T11:19:01Z</time>
      </trkpt>
      <trkpt lat="47.14989" lon="5.83231">
        <ele>274.2</ele>
        <time>2024-05-28T11:19:07Z</time>
      </trkpt>
      <trkpt lat="47.14986" lon="5.83227">
        <ele>274</ele>
        <time>2024-05-28T11:19:08Z</time>
      </trkpt>
      <trkpt lat="47.14969" lon="5.832">
        <ele>274</ele>
        <time>2024-05-28T11:19:14Z</time>
      </trkpt>
      <trkpt lat="47.14966" lon="5.83196">
        <ele>274</ele>
        <time>2024-05-28T11:19:15Z</time>
      </trkpt>
      <trkpt lat="47.14963" lon="5.8319">
        <ele>274.2</ele>
        <time>2024-05-28T11:19:16Z</time>
      </trkpt>
      <trkpt lat="47.14948" lon="5.83165">
        <ele>274.4</ele>
        <time>2024-05-28T11:19:21Z</time>
      </trkpt>
      <trkpt lat="47.14945" lon="5.83161">
        <ele>274.4</ele>
        <time>2024-05-28T11:19:22Z</time>
      </trkpt>
      <trkpt lat="47.14934" lon="5.83143">
        <ele>274.6</ele>
        <time>2024-05-28T11:19:26Z</time>
      </trkpt>
      <trkpt lat="47.14932" lon="5.83139">
        <ele>274.6</ele>
        <time>2024-05-28T11:19:27Z</time>
      </trkpt>
      <trkpt lat="47.14929" lon="5.83134">
        <ele>274.8</ele>
        <time>2024-05-28T11:19:28Z</time>
      </trkpt>
      <trkpt lat="47.14927" lon="5.83131">
        <ele>274.8</ele>
        <time>2024-05-28T11:19:29Z</time>
      </trkpt>
      <trkpt lat="47.14925" lon="5.83126">
        <ele>274.8</ele>
        <time>2024-05-28T11:19:30Z</time>
      </trkpt>
      <trkpt lat="47.14923" lon="5.83121">
        <ele>275</ele>
        <time>2024-05-28T11:19:31Z</time>
      </trkpt>
      <trkpt lat="47.14918" lon="5.8311">
        <ele>275.4</ele>
        <time>2024-05-28T11:19:33Z</time>
      </trkpt>
      <trkpt lat="47.14896" lon="5.83071">
        <ele>275.8</ele>
        <time>2024-05-28T11:19:41Z</time>
      </trkpt>
      <trkpt lat="47.14894" lon="5.83067">
        <ele>275.8</ele>
        <time>2024-05-28T11:19:42Z</time>
      </trkpt>
      <trkpt lat="47.14882" lon="5.83046">
        <ele>276</ele>
        <time>2024-05-28T11:19:46Z</time>
      </trkpt>
      <trkpt lat="47.14879" lon="5.83041">
        <ele>276</ele>
        <time>2024-05-28T11:19:47Z</time>
      </trkpt>
      <trkpt lat="47.14873" lon="5.83029">
        <ele>276.2</ele>
        <time>2024-05-28T11:19:50Z</time>
      </trkpt>
      <trkpt lat="47.1487" lon="5.83026">
        <ele>276.2</ele>
        <time>2024-05-28T11:19:51Z</time>
      </trkpt>
      <trkpt lat="47.14869" lon="5.83022">
        <ele>276.2</ele>
        <time>2024-05-28T11:19:52Z</time>
      </trkpt>
      <trkpt lat="47.14868" lon="5.83018">
        <ele>276.2</ele>
        <time>2024-05-28T11:19:53Z</time>
      </trkpt>
      <trkpt lat="47.14866" lon="5.83015">
        <ele>276.2</ele>
        <time>2024-05-28T11:19:54Z</time>
      </trkpt>
      <trkpt lat="47.14865" lon="5.83012">
        <ele>276.2</ele>
        <time>2024-05-28T11:19:55Z</time>
      </trkpt>
      <trkpt lat="47.14863" lon="5.83009">
        <ele>276.2</ele>
        <time>2024-05-28T11:19:56Z</time>
      </trkpt>
      <trkpt lat="47.14862" lon="5.83006">
        <ele>276.2</ele>
        <time>2024-05-28T11:19:57Z</time>
      </trkpt>
      <trkpt lat="47.14861" lon="5.83004">
        <ele>276</ele>
        <time>2024-05-28T11:19:58Z</time>
      </trkpt>
      <trkpt lat="47.14859" lon="5.83001">
        <ele>276.2</ele>
        <time>2024-05-28T11:19:59Z</time>
      </trkpt>
      <trkpt lat="47.14857" lon="5.82998">
        <ele>276.2</ele>
        <time>2024-05-28T11:20:00Z</time>
      </trkpt>
      <trkpt lat="47.14847" lon="5.82979">
        <ele>276.2</ele>
        <time>2024-05-28T11:20:06Z</time>
      </trkpt>
      <trkpt lat="47.14845" lon="5.82975">
        <ele>276</ele>
        <time>2024-05-28T11:20:07Z</time>
      </trkpt>
      <trkpt lat="47.14843" lon="5.82972">
        <ele>276</ele>
        <time>2024-05-28T11:20:08Z</time>
      </trkpt>
      <trkpt lat="47.14833" lon="5.82952">
        <ele>276</ele>
        <time>2024-05-28T11:20:13Z</time>
      </trkpt>
      <trkpt lat="47.14814" lon="5.82919">
        <ele>275.6</ele>
        <time>2024-05-28T11:20:19Z</time>
      </trkpt>
      <trkpt lat="47.14802" lon="5.82896">
        <ele>275.2</ele>
        <time>2024-05-28T11:20:23Z</time>
      </trkpt>
      <trkpt lat="47.14792" lon="5.82879">
        <ele>274.6</ele>
        <time>2024-05-28T11:20:26Z</time>
      </trkpt>
      <trkpt lat="47.14776" lon="5.82849">
        <ele>274</ele>
        <time>2024-05-28T11:20:31Z</time>
      </trkpt>
      <trkpt lat="47.14766" lon="5.82831">
        <ele>273</ele>
        <time>2024-05-28T11:20:34Z</time>
      </trkpt>
      <trkpt lat="47.14762" lon="5.82825">
        <ele>272.8</ele>
        <time>2024-05-28T11:20:35Z</time>
      </trkpt>
      <trkpt lat="47.14748" lon="5.82802">
        <ele>271.8</ele>
        <time>2024-05-28T11:20:39Z</time>
      </trkpt>
      <trkpt lat="47.14743" lon="5.8279">
        <ele>271.4</ele>
        <time>2024-05-28T11:20:41Z</time>
      </trkpt>
      <trkpt lat="47.1474" lon="5.82785">
        <ele>271.4</ele>
        <time>2024-05-28T11:20:42Z</time>
      </trkpt>
      <trkpt lat="47.14737" lon="5.82779">
        <ele>271.4</ele>
        <time>2024-05-28T11:20:43Z</time>
      </trkpt>
      <trkpt lat="47.14734" lon="5.82774">
        <ele>271.2</ele>
        <time>2024-05-28T11:20:44Z</time>
      </trkpt>
      <trkpt lat="47.14731" lon="5.82768">
        <ele>271</ele>
        <time>2024-05-28T11:20:45Z</time>
      </trkpt>
      <trkpt lat="47.14727" lon="5.82764">
        <ele>271</ele>
        <time>2024-05-28T11:20:46Z</time>
      </trkpt>
      <trkpt lat="47.14724" lon="5.82758">
        <ele>270.8</ele>
        <time>2024-05-28T11:20:47Z</time>
      </trkpt>
      <trkpt lat="47.14721" lon="5.82752">
        <ele>270.8</ele>
        <time>2024-05-28T11:20:48Z</time>
      </trkpt>
      <trkpt lat="47.14718" lon="5.82747">
        <ele>270.8</ele>
        <time>2024-05-28T11:20:49Z</time>
      </trkpt>
      <trkpt lat="47.14712" lon="5.82736">
        <ele>270.2</ele>
        <time>2024-05-28T11:20:51Z</time>
      </trkpt>
      <trkpt lat="47.14709" lon="5.8273">
        <ele>270.2</ele>
        <time>2024-05-28T11:20:52Z</time>
      </trkpt>
      <trkpt lat="47.14698" lon="5.82715">
        <ele>270</ele>
        <time>2024-05-28T11:20:55Z</time>
      </trkpt>
      <trkpt lat="47.14667" lon="5.82666">
        <ele>270</ele>
        <time>2024-05-28T11:21:04Z</time>
      </trkpt>
      <trkpt lat="47.14664" lon="5.8266">
        <ele>270</ele>
        <time>2024-05-28T11:21:05Z</time>
      </trkpt>
      <trkpt lat="47.14644" lon="5.82627">
        <ele>269.6</ele>
        <time>2024-05-28T11:21:10Z</time>
      </trkpt>
      <trkpt lat="47.1463" lon="5.82603">
        <ele>269.6</ele>
        <time>2024-05-28T11:21:14Z</time>
      </trkpt>
      <trkpt lat="47.14626" lon="5.82597">
        <ele>269.6</ele>
        <time>2024-05-28T11:21:15Z</time>
      </trkpt>
      <trkpt lat="47.14618" lon="5.82584">
        <ele>269.8</ele>
        <time>2024-05-28T11:21:17Z</time>
      </trkpt>
      <trkpt lat="47.14614" lon="5.82578">
        <ele>269.8</ele>
        <time>2024-05-28T11:21:18Z</time>
      </trkpt>
      <trkpt lat="47.1461" lon="5.82572">
        <ele>269.8</ele>
        <time>2024-05-28T11:21:19Z</time>
      </trkpt>
      <trkpt lat="47.14602" lon="5.8256">
        <ele>269.8</ele>
        <time>2024-05-28T11:21:21Z</time>
      </trkpt>
      <trkpt lat="47.14598" lon="5.82554">
        <ele>269.8</ele>
        <time>2024-05-28T11:21:22Z</time>
      </trkpt>
      <trkpt lat="47.14594" lon="5.82549">
        <ele>270</ele>
        <time>2024-05-28T11:21:23Z</time>
      </trkpt>
      <trkpt lat="47.14588" lon="5.82539">
        <ele>270</ele>
        <time>2024-05-28T11:21:25Z</time>
      </trkpt>
      <trkpt lat="47.14585" lon="5.82534">
        <ele>270.2</ele>
        <time>2024-05-28T11:21:26Z</time>
      </trkpt>
      <trkpt lat="47.14582" lon="5.82529">
        <ele>270.2</ele>
        <time>2024-05-28T11:21:27Z</time>
      </trkpt>
      <trkpt lat="47.14579" lon="5.82524">
        <ele>270.4</ele>
        <time>2024-05-28T11:21:28Z</time>
      </trkpt>
      <trkpt lat="47.14571" lon="5.82505">
        <ele>270.4</ele>
        <time>2024-05-28T11:21:31Z</time>
      </trkpt>
      <trkpt lat="47.14569" lon="5.82498">
        <ele>270.4</ele>
        <time>2024-05-28T11:21:32Z</time>
      </trkpt>
      <trkpt lat="47.14568" lon="5.82491">
        <ele>270.4</ele>
        <time>2024-05-28T11:21:33Z</time>
      </trkpt>
      <trkpt lat="47.14568" lon="5.82475">
        <ele>270.6</ele>
        <time>2024-05-28T11:21:35Z</time>
      </trkpt>
      <trkpt lat="47.14569" lon="5.82468">
        <ele>270.6</ele>
        <time>2024-05-28T11:21:36Z</time>
      </trkpt>
      <trkpt lat="47.14569" lon="5.8246">
        <ele>270.6</ele>
        <time>2024-05-28T11:21:37Z</time>
      </trkpt>
      <trkpt lat="47.14572" lon="5.82419">
        <ele>270.6</ele>
        <time>2024-05-28T11:21:43Z</time>
      </trkpt>
      <trkpt lat="47.14571" lon="5.82413">
        <ele>270.6</ele>
        <time>2024-05-28T11:21:44Z</time>
      </trkpt>
      <trkpt lat="47.1457" lon="5.82407">
        <ele>270.6</ele>
        <time>2024-05-28T11:21:45Z</time>
      </trkpt>
      <trkpt lat="47.14568" lon="5.82401">
        <ele>270.6</ele>
        <time>2024-05-28T11:21:46Z</time>
      </trkpt>
      <trkpt lat="47.14566" lon="5.82395">
        <ele>270.6</ele>
        <time>2024-05-28T11:21:47Z</time>
      </trkpt>
      <trkpt lat="47.14565" lon="5.8239">
        <ele>270.6</ele>
        <time>2024-05-28T11:21:48Z</time>
      </trkpt>
      <trkpt lat="47.14563" lon="5.82384">
        <ele>270.8</ele>
        <time>2024-05-28T11:21:49Z</time>
      </trkpt>
      <trkpt lat="47.14561" lon="5.82379">
        <ele>271</ele>
        <time>2024-05-28T11:21:50Z</time>
      </trkpt>
      <trkpt lat="47.14559" lon="5.82373">
        <ele>271.2</ele>
        <time>2024-05-28T11:21:51Z</time>
      </trkpt>
      <trkpt lat="47.14557" lon="5.82368">
        <ele>271.2</ele>
        <time>2024-05-28T11:21:52Z</time>
      </trkpt>
      <trkpt lat="47.14554" lon="5.82363">
        <ele>271.4</ele>
        <time>2024-05-28T11:21:53Z</time>
      </trkpt>
      <trkpt lat="47.14551" lon="5.82361">
        <ele>271.4</ele>
        <time>2024-05-28T11:21:54Z</time>
      </trkpt>
      <trkpt lat="47.14547" lon="5.8236">
        <ele>271.6</ele>
        <time>2024-05-28T11:21:55Z</time>
      </trkpt>
      <trkpt lat="47.14542" lon="5.82361">
        <ele>271.6</ele>
        <time>2024-05-28T11:21:56Z</time>
      </trkpt>
      <trkpt lat="47.14533" lon="5.82363">
        <ele>271.6</ele>
        <time>2024-05-28T11:21:58Z</time>
      </trkpt>
      <trkpt lat="47.14528" lon="5.82364">
        <ele>271.6</ele>
        <time>2024-05-28T11:21:59Z</time>
      </trkpt>
      <trkpt lat="47.14516" lon="5.82364">
        <ele>271.4</ele>
        <time>2024-05-28T11:22:01Z</time>
      </trkpt>
      <trkpt lat="47.14494" lon="5.8236">
        <ele>270.6</ele>
        <time>2024-05-28T11:22:04Z</time>
      </trkpt>
      <trkpt lat="47.14486" lon="5.82361">
        <ele>270</ele>
        <time>2024-05-28T11:22:05Z</time>
      </trkpt>
      <trkpt lat="47.14478" lon="5.82363">
        <ele>269.8</ele>
        <time>2024-05-28T11:22:06Z</time>
      </trkpt>
      <trkpt lat="47.14455" lon="5.82375">
        <ele>267.6</ele>
        <time>2024-05-28T11:22:09Z</time>
      </trkpt>
      <trkpt lat="47.14448" lon="5.82379">
        <ele>267.4</ele>
        <time>2024-05-28T11:22:10Z</time>
      </trkpt>
      <trkpt lat="47.14441" lon="5.82383">
        <ele>266.4</ele>
        <time>2024-05-28T11:22:11Z</time>
      </trkpt>
      <trkpt lat="47.14435" lon="5.82386">
        <ele>266</ele>
        <time>2024-05-28T11:22:12Z</time>
      </trkpt>
      <trkpt lat="47.1443" lon="5.82389">
        <ele>265.8</ele>
        <time>2024-05-28T11:22:13Z</time>
      </trkpt>
      <trkpt lat="47.14425" lon="5.82391">
        <ele>265.8</ele>
        <time>2024-05-28T11:22:14Z</time>
      </trkpt>
      <trkpt lat="47.14421" lon="5.82393">
        <ele>265.8</ele>
        <time>2024-05-28T11:22:15Z</time>
      </trkpt>
      <trkpt lat="47.14417" lon="5.82396">
        <ele>265.8</ele>
        <time>2024-05-28T11:22:16Z</time>
      </trkpt>
      <trkpt lat="47.14413" lon="5.82398">
        <ele>265.8</ele>
        <time>2024-05-28T11:22:17Z</time>
      </trkpt>
      <trkpt lat="47.1441" lon="5.82401">
        <ele>265.8</ele>
        <time>2024-05-28T11:22:18Z</time>
      </trkpt>
      <trkpt lat="47.14406" lon="5.82403">
        <ele>266.2</ele>
        <time>2024-05-28T11:22:19Z</time>
      </trkpt>
      <trkpt lat="47.14403" lon="5.82406">
        <ele>266.6</ele>
        <time>2024-05-28T11:22:20Z</time>
      </trkpt>
      <trkpt lat="47.14399" lon="5.82409">
        <ele>266.8</ele>
        <time>2024-05-28T11:22:21Z</time>
      </trkpt>
      <trkpt lat="47.14373" lon="5.82431">
        <ele>267.4</ele>
        <time>2024-05-28T11:22:28Z</time>
      </trkpt>
      <trkpt lat="47.14351" lon="5.82457">
        <ele>267.4</ele>
        <time>2024-05-28T11:22:33Z</time>
      </trkpt>
      <trkpt lat="47.1433" lon="5.82487">
        <ele>266.4</ele>
        <time>2024-05-28T11:22:37Z</time>
      </trkpt>
      <trkpt lat="47.14325" lon="5.82495">
        <ele>265.8</ele>
        <time>2024-05-28T11:22:38Z</time>
      </trkpt>
      <trkpt lat="47.1432" lon="5.82503">
        <ele>265.2</ele>
        <time>2024-05-28T11:22:39Z</time>
      </trkpt>
      <trkpt lat="47.14309" lon="5.82518">
        <ele>264.6</ele>
        <time>2024-05-28T11:22:41Z</time>
      </trkpt>
      <trkpt lat="47.14304" lon="5.82525">
        <ele>264.2</ele>
        <time>2024-05-28T11:22:42Z</time>
      </trkpt>
      <trkpt lat="47.14294" lon="5.82536">
        <ele>263.8</ele>
        <time>2024-05-28T11:22:44Z</time>
      </trkpt>
      <trkpt lat="47.14289" lon="5.8254">
        <ele>263.8</ele>
        <time>2024-05-28T11:22:45Z</time>
      </trkpt>
      <trkpt lat="47.14285" lon="5.82544">
        <ele>263.8</ele>
        <time>2024-05-28T11:22:46Z</time>
      </trkpt>
      <trkpt lat="47.14281" lon="5.82547">
        <ele>263.8</ele>
        <time>2024-05-28T11:22:47Z</time>
      </trkpt>
      <trkpt lat="47.14277" lon="5.8255">
        <ele>263.6</ele>
        <time>2024-05-28T11:22:48Z</time>
      </trkpt>
      <trkpt lat="47.14274" lon="5.82552">
        <ele>263.6</ele>
        <time>2024-05-28T11:22:49Z</time>
      </trkpt>
      <trkpt lat="47.1427" lon="5.82554">
        <ele>263.8</ele>
        <time>2024-05-28T11:22:50Z</time>
      </trkpt>
      <trkpt lat="47.14267" lon="5.82555">
        <ele>263.8</ele>
        <time>2024-05-28T11:22:51Z</time>
      </trkpt>
      <trkpt lat="47.14264" lon="5.82556">
        <ele>264</ele>
        <time>2024-05-28T11:22:52Z</time>
      </trkpt>
      <trkpt lat="47.14261" lon="5.82558">
        <ele>264.6</ele>
        <time>2024-05-28T11:22:53Z</time>
      </trkpt>
      <trkpt lat="47.14258" lon="5.82559">
        <ele>264.8</ele>
        <time>2024-05-28T11:22:54Z</time>
      </trkpt>
      <trkpt lat="47.14255" lon="5.8256">
        <ele>265.2</ele>
        <time>2024-05-28T11:22:55Z</time>
      </trkpt>
      <trkpt lat="47.14253" lon="5.82561">
        <ele>265.4</ele>
        <time>2024-05-28T11:22:56Z</time>
      </trkpt>
      <trkpt lat="47.1425" lon="5.82562">
        <ele>266</ele>
        <time>2024-05-28T11:22:57Z</time>
      </trkpt>
      <trkpt lat="47.14248" lon="5.82563">
        <ele>266.4</ele>
        <time>2024-05-28T11:22:58Z</time>
      </trkpt>
      <trkpt lat="47.14245" lon="5.82564">
        <ele>266.6</ele>
        <time>2024-05-28T11:22:59Z</time>
      </trkpt>
      <trkpt lat="47.14239" lon="5.82567">
        <ele>267</ele>
        <time>2024-05-28T11:23:02Z</time>
      </trkpt>
      <trkpt lat="47.14236" lon="5.82567">
        <ele>267.2</ele>
        <time>2024-05-28T11:23:03Z</time>
      </trkpt>
      <trkpt lat="47.14234" lon="5.82568">
        <ele>267.6</ele>
        <time>2024-05-28T11:23:04Z</time>
      </trkpt>
      <trkpt lat="47.14232" lon="5.82569">
        <ele>267.8</ele>
        <time>2024-05-28T11:23:05Z</time>
      </trkpt>
      <trkpt lat="47.1423" lon="5.82569">
        <ele>268</ele>
        <time>2024-05-28T11:23:06Z</time>
      </trkpt>
      <trkpt lat="47.14228" lon="5.8257">
        <ele>268.2</ele>
        <time>2024-05-28T11:23:07Z</time>
      </trkpt>
      <trkpt lat="47.14226" lon="5.8257">
        <ele>268.4</ele>
        <time>2024-05-28T11:23:08Z</time>
      </trkpt>
      <trkpt lat="47.14223" lon="5.82571">
        <ele>268.8</ele>
        <time>2024-05-28T11:23:09Z</time>
      </trkpt>
      <trkpt lat="47.14221" lon="5.82571">
        <ele>269</ele>
        <time>2024-05-28T11:23:10Z</time>
      </trkpt>
      <trkpt lat="47.14218" lon="5.82572">
        <ele>269.4</ele>
        <time>2024-05-28T11:23:11Z</time>
      </trkpt>
      <trkpt lat="47.14215" lon="5.82573">
        <ele>269.8</ele>
        <time>2024-05-28T11:23:12Z</time>
      </trkpt>
      <trkpt lat="47.14213" lon="5.82574">
        <ele>269.8</ele>
        <time>2024-05-28T11:23:13Z</time>
      </trkpt>
      <trkpt lat="47.14211" lon="5.82575">
        <ele>270.2</ele>
        <time>2024-05-28T11:23:14Z</time>
      </trkpt>
      <trkpt lat="47.14208" lon="5.82577">
        <ele>270.2</ele>
        <time>2024-05-28T11:23:15Z</time>
      </trkpt>
      <trkpt lat="47.14206" lon="5.82578">
        <ele>270.4</ele>
        <time>2024-05-28T11:23:16Z</time>
      </trkpt>
      <trkpt lat="47.14204" lon="5.82579">
        <ele>270.6</ele>
        <time>2024-05-28T11:23:17Z</time>
      </trkpt>
      <trkpt lat="47.14201" lon="5.8258">
        <ele>270.8</ele>
        <time>2024-05-28T11:23:18Z</time>
      </trkpt>
      <trkpt lat="47.14197" lon="5.82581">
        <ele>270.8</ele>
        <time>2024-05-28T11:23:19Z</time>
      </trkpt>
      <trkpt lat="47.14195" lon="5.82582">
        <ele>271</ele>
        <time>2024-05-28T11:23:20Z</time>
      </trkpt>
      <trkpt lat="47.14192" lon="5.82583">
        <ele>271.4</ele>
        <time>2024-05-28T11:23:21Z</time>
      </trkpt>
      <trkpt lat="47.1419" lon="5.82584">
        <ele>271.4</ele>
        <time>2024-05-28T11:23:22Z</time>
      </trkpt>
      <trkpt lat="47.14187" lon="5.82585">
        <ele>272</ele>
        <time>2024-05-28T11:23:23Z</time>
      </trkpt>
      <trkpt lat="47.14185" lon="5.82585">
        <ele>272.2</ele>
        <time>2024-05-28T11:23:24Z</time>
      </trkpt>
      <trkpt lat="47.14183" lon="5.82586">
        <ele>272.4</ele>
        <time>2024-05-28T11:23:25Z</time>
      </trkpt>
      <trkpt lat="47.14181" lon="5.82587">
        <ele>272.6</ele>
        <time>2024-05-28T11:23:26Z</time>
      </trkpt>
      <trkpt lat="47.14178" lon="5.82587">
        <ele>272.8</ele>
        <time>2024-05-28T11:23:27Z</time>
      </trkpt>
      <trkpt lat="47.14175" lon="5.82588">
        <ele>273.2</ele>
        <time>2024-05-28T11:23:28Z</time>
      </trkpt>
      <trkpt lat="47.14173" lon="5.82588">
        <ele>273.2</ele>
        <time>2024-05-28T11:23:29Z</time>
      </trkpt>
      <trkpt lat="47.14171" lon="5.82589">
        <ele>273.4</ele>
        <time>2024-05-28T11:23:30Z</time>
      </trkpt>
      <trkpt lat="47.14169" lon="5.8259">
        <ele>273.6</ele>
        <time>2024-05-28T11:23:31Z</time>
      </trkpt>
      <trkpt lat="47.14167" lon="5.82592">
        <ele>273.8</ele>
        <time>2024-05-28T11:23:32Z</time>
      </trkpt>
      <trkpt lat="47.14165" lon="5.82593">
        <ele>274</ele>
        <time>2024-05-28T11:23:33Z</time>
      </trkpt>
      <trkpt lat="47.14163" lon="5.82595">
        <ele>274.4</ele>
        <time>2024-05-28T11:23:34Z</time>
      </trkpt>
      <trkpt lat="47.14161" lon="5.82596">
        <ele>275</ele>
        <time>2024-05-28T11:23:35Z</time>
      </trkpt>
      <trkpt lat="47.14159" lon="5.82597">
        <ele>275.2</ele>
        <time>2024-05-28T11:23:36Z</time>
      </trkpt>
      <trkpt lat="47.14158" lon="5.82598">
        <ele>275.4</ele>
        <time>2024-05-28T11:23:37Z</time>
      </trkpt>
      <trkpt lat="47.14156" lon="5.826">
        <ele>275.4</ele>
        <time>2024-05-28T11:23:38Z</time>
      </trkpt>
      <trkpt lat="47.14153" lon="5.82601">
        <ele>275.6</ele>
        <time>2024-05-28T11:23:39Z</time>
      </trkpt>
      <trkpt lat="47.14151" lon="5.82602">
        <ele>275.8</ele>
        <time>2024-05-28T11:23:40Z</time>
      </trkpt>
      <trkpt lat="47.14149" lon="5.82602">
        <ele>276</ele>
        <time>2024-05-28T11:23:41Z</time>
      </trkpt>
      <trkpt lat="47.14147" lon="5.82602">
        <ele>276.4</ele>
        <time>2024-05-28T11:23:42Z</time>
      </trkpt>
      <trkpt lat="47.14145" lon="5.82602">
        <ele>276.4</ele>
        <time>2024-05-28T11:23:43Z</time>
      </trkpt>
      <trkpt lat="47.14143" lon="5.82603">
        <ele>276.6</ele>
        <time>2024-05-28T11:23:44Z</time>
      </trkpt>
      <trkpt lat="47.14141" lon="5.82604">
        <ele>276.6</ele>
        <time>2024-05-28T11:23:45Z</time>
      </trkpt>
      <trkpt lat="47.14139" lon="5.82604">
        <ele>276.8</ele>
        <time>2024-05-28T11:23:46Z</time>
      </trkpt>
      <trkpt lat="47.14136" lon="5.82604">
        <ele>276.8</ele>
        <time>2024-05-28T11:23:47Z</time>
      </trkpt>
      <trkpt lat="47.14134" lon="5.82604">
        <ele>277</ele>
        <time>2024-05-28T11:23:48Z</time>
      </trkpt>
      <trkpt lat="47.14132" lon="5.82604">
        <ele>277</ele>
        <time>2024-05-28T11:23:49Z</time>
      </trkpt>
      <trkpt lat="47.1413" lon="5.82605">
        <ele>277.2</ele>
        <time>2024-05-28T11:23:50Z</time>
      </trkpt>
      <trkpt lat="47.14129" lon="5.82605">
        <ele>277.6</ele>
        <time>2024-05-28T11:23:51Z</time>
      </trkpt>
      <trkpt lat="47.14127" lon="5.82606">
        <ele>278</ele>
        <time>2024-05-28T11:23:52Z</time>
      </trkpt>
      <trkpt lat="47.14125" lon="5.82606">
        <ele>278.4</ele>
        <time>2024-05-28T11:23:53Z</time>
      </trkpt>
      <trkpt lat="47.14123" lon="5.82606">
        <ele>278.8</ele>
        <time>2024-05-28T11:23:54Z</time>
      </trkpt>
      <trkpt lat="47.14122" lon="5.82606">
        <ele>279.2</ele>
        <time>2024-05-28T11:23:55Z</time>
      </trkpt>
      <trkpt lat="47.1412" lon="5.82605">
        <ele>279.4</ele>
        <time>2024-05-28T11:23:56Z</time>
      </trkpt>
      <trkpt lat="47.14119" lon="5.82604">
        <ele>279.6</ele>
        <time>2024-05-28T11:23:57Z</time>
      </trkpt>
      <trkpt lat="47.14117" lon="5.82604">
        <ele>279.8</ele>
        <time>2024-05-28T11:23:58Z</time>
      </trkpt>
      <trkpt lat="47.14115" lon="5.82603">
        <ele>280</ele>
        <time>2024-05-28T11:23:59Z</time>
      </trkpt>
      <trkpt lat="47.14113" lon="5.82602">
        <ele>280.2</ele>
        <time>2024-05-28T11:24:00Z</time>
      </trkpt>
      <trkpt lat="47.14112" lon="5.826">
        <ele>280.4</ele>
        <time>2024-05-28T11:24:01Z</time>
      </trkpt>
      <trkpt lat="47.1411" lon="5.826">
        <ele>280.8</ele>
        <time>2024-05-28T11:24:02Z</time>
      </trkpt>
      <trkpt lat="47.14109" lon="5.82599">
        <ele>281</ele>
        <time>2024-05-28T11:24:03Z</time>
      </trkpt>
      <trkpt lat="47.14107" lon="5.82598">
        <ele>281.4</ele>
        <time>2024-05-28T11:24:04Z</time>
      </trkpt>
      <trkpt lat="47.14106" lon="5.82597">
        <ele>281.6</ele>
        <time>2024-05-28T11:24:05Z</time>
      </trkpt>
      <trkpt lat="47.14104" lon="5.82596">
        <ele>281.8</ele>
        <time>2024-05-28T11:24:06Z</time>
      </trkpt>
      <trkpt lat="47.14103" lon="5.82596">
        <ele>282.2</ele>
        <time>2024-05-28T11:24:07Z</time>
      </trkpt>
      <trkpt lat="47.141" lon="5.82595">
        <ele>282.4</ele>
        <time>2024-05-28T11:24:08Z</time>
      </trkpt>
      <trkpt lat="47.14099" lon="5.82594">
        <ele>282.6</ele>
        <time>2024-05-28T11:24:09Z</time>
      </trkpt>
      <trkpt lat="47.14098" lon="5.82593">
        <ele>282.8</ele>
        <time>2024-05-28T11:24:10Z</time>
      </trkpt>
      <trkpt lat="47.14097" lon="5.82592">
        <ele>283</ele>
        <time>2024-05-28T11:24:11Z</time>
      </trkpt>
      <trkpt lat="47.14096" lon="5.82592">
        <ele>283.2</ele>
        <time>2024-05-28T11:24:12Z</time>
      </trkpt>
      <trkpt lat="47.14095" lon="5.82591">
        <ele>283.4</ele>
        <time>2024-05-28T11:24:13Z</time>
      </trkpt>
      <trkpt lat="47.14094" lon="5.82591">
        <ele>283.6</ele>
        <time>2024-05-28T11:24:14Z</time>
      </trkpt>
      <trkpt lat="47.14092" lon="5.8259">
        <ele>283.8</ele>
        <time>2024-05-28T11:24:15Z</time>
      </trkpt>
      <trkpt lat="47.1409" lon="5.82589">
        <ele>284</ele>
        <time>2024-05-28T11:24:16Z</time>
      </trkpt>
      <trkpt lat="47.14088" lon="5.82589">
        <ele>284.2</ele>
        <time>2024-05-28T11:24:17Z</time>
      </trkpt>
      <trkpt lat="47.14087" lon="5.82588">
        <ele>284.4</ele>
        <time>2024-05-28T11:24:18Z</time>
      </trkpt>
      <trkpt lat="47.14084" lon="5.82587">
        <ele>284.4</ele>
        <time>2024-05-28T11:24:19Z</time>
      </trkpt>
      <trkpt lat="47.14082" lon="5.82586">
        <ele>284.6</ele>
        <time>2024-05-28T11:24:20Z</time>
      </trkpt>
      <trkpt lat="47.1408" lon="5.82584">
        <ele>284.8</ele>
        <time>2024-05-28T11:24:21Z</time>
      </trkpt>
      <trkpt lat="47.14079" lon="5.82582">
        <ele>284.8</ele>
        <time>2024-05-28T11:24:22Z</time>
      </trkpt>
      <trkpt lat="47.14077" lon="5.82581">
        <ele>285</ele>
        <time>2024-05-28T11:24:23Z</time>
      </trkpt>
      <trkpt lat="47.14075" lon="5.82579">
        <ele>285</ele>
        <time>2024-05-28T11:24:24Z</time>
      </trkpt>
      <trkpt lat="47.14073" lon="5.82578">
        <ele>285.4</ele>
        <time>2024-05-28T11:24:25Z</time>
      </trkpt>
      <trkpt lat="47.14071" lon="5.82577">
        <ele>285.4</ele>
        <time>2024-05-28T11:24:26Z</time>
      </trkpt>
      <trkpt lat="47.14068" lon="5.82576">
        <ele>285.6</ele>
        <time>2024-05-28T11:24:27Z</time>
      </trkpt>
      <trkpt lat="47.14067" lon="5.82574">
        <ele>285.8</ele>
        <time>2024-05-28T11:24:28Z</time>
      </trkpt>
      <trkpt lat="47.14066" lon="5.82574">
        <ele>286</ele>
        <time>2024-05-28T11:24:29Z</time>
      </trkpt>
      <trkpt lat="47.14065" lon="5.82573">
        <ele>286.2</ele>
        <time>2024-05-28T11:24:30Z</time>
      </trkpt>
      <trkpt lat="47.14062" lon="5.82571">
        <ele>286.2</ele>
        <time>2024-05-28T11:24:31Z</time>
      </trkpt>
      <trkpt lat="47.14061" lon="5.8257">
        <ele>286.6</ele>
        <time>2024-05-28T11:24:32Z</time>
      </trkpt>
      <trkpt lat="47.1406" lon="5.82569">
        <ele>286.8</ele>
        <time>2024-05-28T11:24:33Z</time>
      </trkpt>
      <trkpt lat="47.14058" lon="5.82569">
        <ele>287</ele>
        <time>2024-05-28T11:24:34Z</time>
      </trkpt>
      <trkpt lat="47.14057" lon="5.8257">
        <ele>287.2</ele>
        <time>2024-05-28T11:24:35Z</time>
      </trkpt>
      <trkpt lat="47.14056" lon="5.8257">
        <ele>287.2</ele>
        <time>2024-05-28T11:24:36Z</time>
      </trkpt>
      <trkpt lat="47.14053" lon="5.82568">
        <ele>287.4</ele>
        <time>2024-05-28T11:24:37Z</time>
      </trkpt>
      <trkpt lat="47.14052" lon="5.82568">
        <ele>287.4</ele>
        <time>2024-05-28T11:24:38Z</time>
      </trkpt>
      <trkpt lat="47.1405" lon="5.82568">
        <ele>287.8</ele>
        <time>2024-05-28T11:24:39Z</time>
      </trkpt>
      <trkpt lat="47.14049" lon="5.82568">
        <ele>287.8</ele>
        <time>2024-05-28T11:24:40Z</time>
      </trkpt>
      <trkpt lat="47.14047" lon="5.82568">
        <ele>288.2</ele>
        <time>2024-05-28T11:24:41Z</time>
      </trkpt>
      <trkpt lat="47.14046" lon="5.82568">
        <ele>288.4</ele>
        <time>2024-05-28T11:24:42Z</time>
      </trkpt>
      <trkpt lat="47.14045" lon="5.82568">
        <ele>288.6</ele>
        <time>2024-05-28T11:24:43Z</time>
      </trkpt>
      <trkpt lat="47.14043" lon="5.82567">
        <ele>288.8</ele>
        <time>2024-05-28T11:24:44Z</time>
      </trkpt>
      <trkpt lat="47.14042" lon="5.82567">
        <ele>288.8</ele>
        <time>2024-05-28T11:24:45Z</time>
      </trkpt>
      <trkpt lat="47.1404" lon="5.82566">
        <ele>289.2</ele>
        <time>2024-05-28T11:24:46Z</time>
      </trkpt>
      <trkpt lat="47.14038" lon="5.82566">
        <ele>289.4</ele>
        <time>2024-05-28T11:24:47Z</time>
      </trkpt>
      <trkpt lat="47.14036" lon="5.82566">
        <ele>289.6</ele>
        <time>2024-05-28T11:24:48Z</time>
      </trkpt>
      <trkpt lat="47.14035" lon="5.82566">
        <ele>289.8</ele>
        <time>2024-05-28T11:24:49Z</time>
      </trkpt>
      <trkpt lat="47.14033" lon="5.82566">
        <ele>290</ele>
        <time>2024-05-28T11:24:50Z</time>
      </trkpt>
      <trkpt lat="47.14031" lon="5.82566">
        <ele>290.2</ele>
        <time>2024-05-28T11:24:51Z</time>
      </trkpt>
      <trkpt lat="47.14029" lon="5.82565">
        <ele>290.4</ele>
        <time>2024-05-28T11:24:52Z</time>
      </trkpt>
      <trkpt lat="47.14028" lon="5.82564">
        <ele>290.6</ele>
        <time>2024-05-28T11:24:53Z</time>
      </trkpt>
      <trkpt lat="47.14026" lon="5.82563">
        <ele>290.8</ele>
        <time>2024-05-28T11:24:54Z</time>
      </trkpt>
      <trkpt lat="47.14025" lon="5.82562">
        <ele>291</ele>
        <time>2024-05-28T11:24:55Z</time>
      </trkpt>
      <trkpt lat="47.14023" lon="5.82561">
        <ele>291.2</ele>
        <time>2024-05-28T11:24:56Z</time>
      </trkpt>
      <trkpt lat="47.1402" lon="5.82561">
        <ele>291.2</ele>
        <time>2024-05-28T11:24:57Z</time>
      </trkpt>
      <trkpt lat="47.14019" lon="5.82561">
        <ele>291.4</ele>
        <time>2024-05-28T11:24:58Z</time>
      </trkpt>
      <trkpt lat="47.14018" lon="5.82561">
        <ele>291.4</ele>
        <time>2024-05-28T11:24:59Z</time>
      </trkpt>
      <trkpt lat="47.14017" lon="5.82561">
        <ele>291.6</ele>
        <time>2024-05-28T11:25:00Z</time>
      </trkpt>
      <trkpt lat="47.14015" lon="5.82561">
        <ele>291.6</ele>
        <time>2024-05-28T11:25:01Z</time>
      </trkpt>
      <trkpt lat="47.14013" lon="5.8256">
        <ele>291.8</ele>
        <time>2024-05-28T11:25:02Z</time>
      </trkpt>
      <trkpt lat="47.14011" lon="5.82559">
        <ele>291.8</ele>
        <time>2024-05-28T11:25:03Z</time>
      </trkpt>
      <trkpt lat="47.14009" lon="5.82559">
        <ele>292</ele>
        <time>2024-05-28T11:25:04Z</time>
      </trkpt>
      <trkpt lat="47.14007" lon="5.82558">
        <ele>292.2</ele>
        <time>2024-05-28T11:25:05Z</time>
      </trkpt>
      <trkpt lat="47.14005" lon="5.82557">
        <ele>292.4</ele>
        <time>2024-05-28T11:25:06Z</time>
      </trkpt>
      <trkpt lat="47.14004" lon="5.82555">
        <ele>292.6</ele>
        <time>2024-05-28T11:25:07Z</time>
      </trkpt>
      <trkpt lat="47.14002" lon="5.82555">
        <ele>292.8</ele>
        <time>2024-05-28T11:25:08Z</time>
      </trkpt>
      <trkpt lat="47.13999" lon="5.82554">
        <ele>293</ele>
        <time>2024-05-28T11:25:09Z</time>
      </trkpt>
      <trkpt lat="47.13998" lon="5.82554">
        <ele>293.2</ele>
        <time>2024-05-28T11:25:10Z</time>
      </trkpt>
      <trkpt lat="47.13996" lon="5.82554">
        <ele>293.4</ele>
        <time>2024-05-28T11:25:11Z</time>
      </trkpt>
      <trkpt lat="47.13994" lon="5.82553">
        <ele>293.6</ele>
        <time>2024-05-28T11:25:12Z</time>
      </trkpt>
      <trkpt lat="47.13992" lon="5.82552">
        <ele>293.6</ele>
        <time>2024-05-28T11:25:13Z</time>
      </trkpt>
      <trkpt lat="47.1399" lon="5.82552">
        <ele>293.8</ele>
        <time>2024-05-28T11:25:14Z</time>
      </trkpt>
      <trkpt lat="47.13989" lon="5.8255">
        <ele>293.8</ele>
        <time>2024-05-28T11:25:15Z</time>
      </trkpt>
      <trkpt lat="47.13987" lon="5.82549">
        <ele>294</ele>
        <time>2024-05-28T11:25:16Z</time>
      </trkpt>
      <trkpt lat="47.13986" lon="5.82549">
        <ele>294</ele>
        <time>2024-05-28T11:25:17Z</time>
      </trkpt>
      <trkpt lat="47.13984" lon="5.82548">
        <ele>294</ele>
        <time>2024-05-28T11:25:18Z</time>
      </trkpt>
      <trkpt lat="47.13981" lon="5.82546">
        <ele>294.2</ele>
        <time>2024-05-28T11:25:19Z</time>
      </trkpt>
      <trkpt lat="47.13979" lon="5.82546">
        <ele>294.2</ele>
        <time>2024-05-28T11:25:20Z</time>
      </trkpt>
      <trkpt lat="47.13977" lon="5.82545">
        <ele>294.2</ele>
        <time>2024-05-28T11:25:21Z</time>
      </trkpt>
      <trkpt lat="47.13975" lon="5.82545">
        <ele>294.4</ele>
        <time>2024-05-28T11:25:22Z</time>
      </trkpt>
      <trkpt lat="47.13973" lon="5.82545">
        <ele>294.6</ele>
        <time>2024-05-28T11:25:23Z</time>
      </trkpt>
      <trkpt lat="47.13971" lon="5.82545">
        <ele>294.8</ele>
        <time>2024-05-28T11:25:24Z</time>
      </trkpt>
      <trkpt lat="47.1397" lon="5.82545">
        <ele>294.8</ele>
        <time>2024-05-28T11:25:25Z</time>
      </trkpt>
      <trkpt lat="47.13968" lon="5.82546">
        <ele>295</ele>
        <time>2024-05-28T11:25:26Z</time>
      </trkpt>
      <trkpt lat="47.13966" lon="5.82547">
        <ele>295</ele>
        <time>2024-05-28T11:25:27Z</time>
      </trkpt>
      <trkpt lat="47.13965" lon="5.82549">
        <ele>295.2</ele>
        <time>2024-05-28T11:25:28Z</time>
      </trkpt>
      <trkpt lat="47.13964" lon="5.8255">
        <ele>295.4</ele>
        <time>2024-05-28T11:25:29Z</time>
      </trkpt>
      <trkpt lat="47.13963" lon="5.82551">
        <ele>295.6</ele>
        <time>2024-05-28T11:25:30Z</time>
      </trkpt>
      <trkpt lat="47.13961" lon="5.82552">
        <ele>295.6</ele>
        <time>2024-05-28T11:25:31Z</time>
      </trkpt>
      <trkpt lat="47.1396" lon="5.82553">
        <ele>295.8</ele>
        <time>2024-05-28T11:25:32Z</time>
      </trkpt>
      <trkpt lat="47.13959" lon="5.82554">
        <ele>296</ele>
        <time>2024-05-28T11:25:33Z</time>
      </trkpt>
      <trkpt lat="47.13958" lon="5.82554">
        <ele>296</ele>
        <time>2024-05-28T11:25:34Z</time>
      </trkpt>
      <trkpt lat="47.13956" lon="5.82554">
        <ele>296.2</ele>
        <time>2024-05-28T11:25:35Z</time>
      </trkpt>
      <trkpt lat="47.13955" lon="5.82554">
        <ele>296.2</ele>
        <time>2024-05-28T11:25:36Z</time>
      </trkpt>
      <trkpt lat="47.13952" lon="5.82552">
        <ele>296.4</ele>
        <time>2024-05-28T11:25:37Z</time>
      </trkpt>
      <trkpt lat="47.1395" lon="5.8255">
        <ele>296.6</ele>
        <time>2024-05-28T11:25:38Z</time>
      </trkpt>
      <trkpt lat="47.13948" lon="5.82548">
        <ele>296.6</ele>
        <time>2024-05-28T11:25:39Z</time>
      </trkpt>
      <trkpt lat="47.13947" lon="5.82545">
        <ele>296.6</ele>
        <time>2024-05-28T11:25:40Z</time>
      </trkpt>
      <trkpt lat="47.13947" lon="5.82544">
        <ele>296.6</ele>
        <time>2024-05-28T11:25:41Z</time>
      </trkpt>
      <trkpt lat="47.13946" lon="5.82543">
        <ele>296.6</ele>
        <time>2024-05-28T11:25:42Z</time>
      </trkpt>
      <trkpt lat="47.13946" lon="5.82543">
        <ele>296.6</ele>
        <time>2024-05-28T11:25:43Z</time>
      </trkpt>
      <trkpt lat="47.13946" lon="5.82543">
        <ele>296.4</ele>
        <time>2024-05-28T11:25:54Z</time>
      </trkpt>
      <trkpt lat="47.13946" lon="5.82543">
        <ele>296.4</ele>
        <time>2024-05-28T11:26:00Z</time>
      </trkpt>
      <trkpt lat="47.13946" lon="5.8254">
        <ele>296.2</ele>
        <time>2024-05-28T11:29:41Z</time>
      </trkpt>
      <trkpt lat="47.13946" lon="5.82534">
        <ele>296</ele>
        <time>2024-05-28T11:29:43Z</time>
      </trkpt>
      <trkpt lat="47.13946" lon="5.82531">
        <ele>296</ele>
        <time>2024-05-28T11:29:44Z</time>
      </trkpt>
      <trkpt lat="47.13944" lon="5.82526">
        <ele>295.8</ele>
        <time>2024-05-28T11:29:46Z</time>
      </trkpt>
      <trkpt lat="47.13944" lon="5.82523">
        <ele>295.8</ele>
        <time>2024-05-28T11:29:47Z</time>
      </trkpt>
      <trkpt lat="47.1394" lon="5.82519">
        <ele>295.8</ele>
        <time>2024-05-28T11:29:48Z</time>
      </trkpt>
      <trkpt lat="47.1394" lon="5.82517">
        <ele>295.6</ele>
        <time>2024-05-28T11:29:49Z</time>
      </trkpt>
      <trkpt lat="47.13939" lon="5.82513">
        <ele>295.6</ele>
        <time>2024-05-28T11:29:50Z</time>
      </trkpt>
      <trkpt lat="47.13936" lon="5.82507">
        <ele>295.6</ele>
        <time>2024-05-28T11:29:51Z</time>
      </trkpt>
      <trkpt lat="47.13935" lon="5.82505">
        <ele>295.6</ele>
        <time>2024-05-28T11:29:52Z</time>
      </trkpt>
      <trkpt lat="47.13932" lon="5.82501">
        <ele>295.6</ele>
        <time>2024-05-28T11:29:53Z</time>
      </trkpt>
      <trkpt lat="47.13932" lon="5.82497">
        <ele>295.6</ele>
        <time>2024-05-28T11:29:54Z</time>
      </trkpt>
      <trkpt lat="47.1393" lon="5.82494">
        <ele>295.6</ele>
        <time>2024-05-28T11:29:55Z</time>
      </trkpt>
      <trkpt lat="47.13929" lon="5.82491">
        <ele>295.6</ele>
        <time>2024-05-28T11:29:56Z</time>
      </trkpt>
      <trkpt lat="47.13914" lon="5.8246">
        <ele>295.4</ele>
        <time>2024-05-28T11:30:01Z</time>
      </trkpt>
      <trkpt lat="47.13913" lon="5.82455">
        <ele>295.4</ele>
        <time>2024-05-28T11:30:02Z</time>
      </trkpt>
      <trkpt lat="47.13913" lon="5.82449">
        <ele>295.4</ele>
        <time>2024-05-28T11:30:03Z</time>
      </trkpt>
      <trkpt lat="47.13911" lon="5.82445">
        <ele>295.4</ele>
        <time>2024-05-28T11:30:04Z</time>
      </trkpt>
      <trkpt lat="47.1391" lon="5.8244">
        <ele>295.2</ele>
        <time>2024-05-28T11:30:05Z</time>
      </trkpt>
      <trkpt lat="47.13906" lon="5.82434">
        <ele>295.2</ele>
        <time>2024-05-28T11:30:07Z</time>
      </trkpt>
      <trkpt lat="47.13904" lon="5.82432">
        <ele>295.2</ele>
        <time>2024-05-28T11:30:08Z</time>
      </trkpt>
      <trkpt lat="47.13902" lon="5.8243">
        <ele>295.2</ele>
        <time>2024-05-28T11:30:09Z</time>
      </trkpt>
      <trkpt lat="47.139" lon="5.82427">
        <ele>295.2</ele>
        <time>2024-05-28T11:30:10Z</time>
      </trkpt>
      <trkpt lat="47.13897" lon="5.82416">
        <ele>295.2</ele>
        <time>2024-05-28T11:30:12Z</time>
      </trkpt>
      <trkpt lat="47.13897" lon="5.82411">
        <ele>295.2</ele>
        <time>2024-05-28T11:30:13Z</time>
      </trkpt>
      <trkpt lat="47.13896" lon="5.82407">
        <ele>295.2</ele>
        <time>2024-05-28T11:30:14Z</time>
      </trkpt>
      <trkpt lat="47.13894" lon="5.82404">
        <ele>295.2</ele>
        <time>2024-05-28T11:30:15Z</time>
      </trkpt>
      <trkpt lat="47.13891" lon="5.824">
        <ele>295.2</ele>
        <time>2024-05-28T11:30:16Z</time>
      </trkpt>
      <trkpt lat="47.13887" lon="5.82396">
        <ele>295.4</ele>
        <time>2024-05-28T11:30:17Z</time>
      </trkpt>
      <trkpt lat="47.13884" lon="5.82393">
        <ele>295.6</ele>
        <time>2024-05-28T11:30:18Z</time>
      </trkpt>
      <trkpt lat="47.1388" lon="5.8239">
        <ele>295.6</ele>
        <time>2024-05-28T11:30:19Z</time>
      </trkpt>
      <trkpt lat="47.13879" lon="5.82387">
        <ele>295.6</ele>
        <time>2024-05-28T11:30:20Z</time>
      </trkpt>
      <trkpt lat="47.13878" lon="5.82385">
        <ele>295.8</ele>
        <time>2024-05-28T11:30:21Z</time>
      </trkpt>
      <trkpt lat="47.13876" lon="5.82384">
        <ele>295.6</ele>
        <time>2024-05-28T11:30:22Z</time>
      </trkpt>
      <trkpt lat="47.13875" lon="5.82382">
        <ele>296</ele>
        <time>2024-05-28T11:30:23Z</time>
      </trkpt>
      <trkpt lat="47.13871" lon="5.82379">
        <ele>296</ele>
        <time>2024-05-28T11:30:24Z</time>
      </trkpt>
      <trkpt lat="47.13868" lon="5.82376">
        <ele>296.2</ele>
        <time>2024-05-28T11:30:25Z</time>
      </trkpt>
      <trkpt lat="47.13864" lon="5.82373">
        <ele>296.4</ele>
        <time>2024-05-28T11:30:26Z</time>
      </trkpt>
      <trkpt lat="47.13859" lon="5.82367">
        <ele>296.6</ele>
        <time>2024-05-28T11:30:28Z</time>
      </trkpt>
      <trkpt lat="47.13857" lon="5.82366">
        <ele>296.8</ele>
        <time>2024-05-28T11:30:29Z</time>
      </trkpt>
      <trkpt lat="47.13855" lon="5.82365">
        <ele>296.8</ele>
        <time>2024-05-28T11:30:30Z</time>
      </trkpt>
      <trkpt lat="47.13854" lon="5.82364">
        <ele>297</ele>
        <time>2024-05-28T11:30:31Z</time>
      </trkpt>
      <trkpt lat="47.13854" lon="5.82363">
        <ele>297.2</ele>
        <time>2024-05-28T11:30:32Z</time>
      </trkpt>
      <trkpt lat="47.13854" lon="5.8236">
        <ele>297.2</ele>
        <time>2024-05-28T11:30:33Z</time>
      </trkpt>
      <trkpt lat="47.13854" lon="5.82357">
        <ele>297.2</ele>
        <time>2024-05-28T11:30:34Z</time>
      </trkpt>
      <trkpt lat="47.13853" lon="5.82355">
        <ele>297.4</ele>
        <time>2024-05-28T11:30:35Z</time>
      </trkpt>
      <trkpt lat="47.13851" lon="5.82353">
        <ele>297.4</ele>
        <time>2024-05-28T11:30:36Z</time>
      </trkpt>
      <trkpt lat="47.13849" lon="5.8235">
        <ele>297.6</ele>
        <time>2024-05-28T11:30:37Z</time>
      </trkpt>
      <trkpt lat="47.13848" lon="5.82348">
        <ele>297.6</ele>
        <time>2024-05-28T11:30:38Z</time>
      </trkpt>
      <trkpt lat="47.13846" lon="5.82346">
        <ele>297.6</ele>
        <time>2024-05-28T11:30:39Z</time>
      </trkpt>
      <trkpt lat="47.13845" lon="5.82344">
        <ele>297.6</ele>
        <time>2024-05-28T11:30:40Z</time>
      </trkpt>
      <trkpt lat="47.13844" lon="5.82342">
        <ele>297.8</ele>
        <time>2024-05-28T11:30:41Z</time>
      </trkpt>
      <trkpt lat="47.13841" lon="5.8234">
        <ele>297.8</ele>
        <time>2024-05-28T11:30:42Z</time>
      </trkpt>
      <trkpt lat="47.13839" lon="5.82336">
        <ele>297.8</ele>
        <time>2024-05-28T11:30:43Z</time>
      </trkpt>
      <trkpt lat="47.13835" lon="5.82331">
        <ele>297.8</ele>
        <time>2024-05-28T11:30:45Z</time>
      </trkpt>
      <trkpt lat="47.13835" lon="5.8233">
        <ele>297.8</ele>
        <time>2024-05-28T11:30:46Z</time>
      </trkpt>
      <trkpt lat="47.13835" lon="5.82328">
        <ele>297.8</ele>
        <time>2024-05-28T11:30:47Z</time>
      </trkpt>
      <trkpt lat="47.13833" lon="5.82325">
        <ele>297.8</ele>
        <time>2024-05-28T11:30:48Z</time>
      </trkpt>
      <trkpt lat="47.13832" lon="5.82322">
        <ele>297.8</ele>
        <time>2024-05-28T11:30:49Z</time>
      </trkpt>
      <trkpt lat="47.13832" lon="5.8232">
        <ele>297.8</ele>
        <time>2024-05-28T11:30:50Z</time>
      </trkpt>
      <trkpt lat="47.1383" lon="5.82317">
        <ele>298</ele>
        <time>2024-05-28T11:30:51Z</time>
      </trkpt>
      <trkpt lat="47.1383" lon="5.82316">
        <ele>298</ele>
        <time>2024-05-28T11:30:52Z</time>
      </trkpt>
      <trkpt lat="47.1383" lon="5.82314">
        <ele>298</ele>
        <time>2024-05-28T11:30:53Z</time>
      </trkpt>
      <trkpt lat="47.13829" lon="5.82312">
        <ele>298</ele>
        <time>2024-05-28T11:30:54Z</time>
      </trkpt>
      <trkpt lat="47.13825" lon="5.82309">
        <ele>297.8</ele>
        <time>2024-05-28T11:30:55Z</time>
      </trkpt>
      <trkpt lat="47.13824" lon="5.82305">
        <ele>297.8</ele>
        <time>2024-05-28T11:30:56Z</time>
      </trkpt>
      <trkpt lat="47.13823" lon="5.82301">
        <ele>297.6</ele>
        <time>2024-05-28T11:30:57Z</time>
      </trkpt>
      <trkpt lat="47.13816" lon="5.82292">
        <ele>297.8</ele>
        <time>2024-05-28T11:31:00Z</time>
      </trkpt>
      <trkpt lat="47.13813" lon="5.82288">
        <ele>297.8</ele>
        <time>2024-05-28T11:31:01Z</time>
      </trkpt>
      <trkpt lat="47.13808" lon="5.82285">
        <ele>297.8</ele>
        <time>2024-05-28T11:31:02Z</time>
      </trkpt>
      <trkpt lat="47.13804" lon="5.8228">
        <ele>297.8</ele>
        <time>2024-05-28T11:31:03Z</time>
      </trkpt>
      <trkpt lat="47.13799" lon="5.82277">
        <ele>297.8</ele>
        <time>2024-05-28T11:31:05Z</time>
      </trkpt>
      <trkpt lat="47.13794" lon="5.8227">
        <ele>297.6</ele>
        <time>2024-05-28T11:31:07Z</time>
      </trkpt>
      <trkpt lat="47.13793" lon="5.82269">
        <ele>297.4</ele>
        <time>2024-05-28T11:31:08Z</time>
      </trkpt>
      <trkpt lat="47.13792" lon="5.82266">
        <ele>297.6</ele>
        <time>2024-05-28T11:31:09Z</time>
      </trkpt>
      <trkpt lat="47.13789" lon="5.82264">
        <ele>297.6</ele>
        <time>2024-05-28T11:31:10Z</time>
      </trkpt>
      <trkpt lat="47.13784" lon="5.82263">
        <ele>297.6</ele>
        <time>2024-05-28T11:31:11Z</time>
      </trkpt>
      <trkpt lat="47.13779" lon="5.82259">
        <ele>297.6</ele>
        <time>2024-05-28T11:31:12Z</time>
      </trkpt>
      <trkpt lat="47.13777" lon="5.82257">
        <ele>297.6</ele>
        <time>2024-05-28T11:31:13Z</time>
      </trkpt>
      <trkpt lat="47.13772" lon="5.82254">
        <ele>297.6</ele>
        <time>2024-05-28T11:31:14Z</time>
      </trkpt>
      <trkpt lat="47.13763" lon="5.82246">
        <ele>297.6</ele>
        <time>2024-05-28T11:31:16Z</time>
      </trkpt>
      <trkpt lat="47.13761" lon="5.82244">
        <ele>297.2</ele>
        <time>2024-05-28T11:31:17Z</time>
      </trkpt>
      <trkpt lat="47.13757" lon="5.8224">
        <ele>297.4</ele>
        <time>2024-05-28T11:31:18Z</time>
      </trkpt>
      <trkpt lat="47.13744" lon="5.8223">
        <ele>297</ele>
        <time>2024-05-28T11:31:22Z</time>
      </trkpt>
      <trkpt lat="47.13741" lon="5.82228">
        <ele>296.8</ele>
        <time>2024-05-28T11:31:23Z</time>
      </trkpt>
      <trkpt lat="47.13739" lon="5.82224">
        <ele>296.6</ele>
        <time>2024-05-28T11:31:24Z</time>
      </trkpt>
      <trkpt lat="47.13732" lon="5.82215">
        <ele>296.2</ele>
        <time>2024-05-28T11:31:26Z</time>
      </trkpt>
      <trkpt lat="47.1372" lon="5.82201">
        <ele>295.8</ele>
        <time>2024-05-28T11:31:29Z</time>
      </trkpt>
      <trkpt lat="47.13716" lon="5.82197">
        <ele>295.4</ele>
        <time>2024-05-28T11:31:30Z</time>
      </trkpt>
      <trkpt lat="47.1371" lon="5.82193">
        <ele>295.4</ele>
        <time>2024-05-28T11:31:31Z</time>
      </trkpt>
      <trkpt lat="47.13703" lon="5.8219">
        <ele>295.2</ele>
        <time>2024-05-28T11:31:32Z</time>
      </trkpt>
      <trkpt lat="47.13698" lon="5.82187">
        <ele>295</ele>
        <time>2024-05-28T11:31:33Z</time>
      </trkpt>
      <trkpt lat="47.13693" lon="5.82184">
        <ele>294.8</ele>
        <time>2024-05-28T11:31:34Z</time>
      </trkpt>
      <trkpt lat="47.13686" lon="5.82181">
        <ele>294.8</ele>
        <time>2024-05-28T11:31:35Z</time>
      </trkpt>
      <trkpt lat="47.13679" lon="5.82178">
        <ele>294.4</ele>
        <time>2024-05-28T11:31:36Z</time>
      </trkpt>
      <trkpt lat="47.13673" lon="5.82174">
        <ele>294</ele>
        <time>2024-05-28T11:31:37Z</time>
      </trkpt>
      <trkpt lat="47.13659" lon="5.82165">
        <ele>293.2</ele>
        <time>2024-05-28T11:31:39Z</time>
      </trkpt>
      <trkpt lat="47.13653" lon="5.82159">
        <ele>292.2</ele>
        <time>2024-05-28T11:31:40Z</time>
      </trkpt>
      <trkpt lat="47.13647" lon="5.82152">
        <ele>291</ele>
        <time>2024-05-28T11:31:41Z</time>
      </trkpt>
      <trkpt lat="47.13643" lon="5.82145">
        <ele>290.6</ele>
        <time>2024-05-28T11:31:42Z</time>
      </trkpt>
      <trkpt lat="47.13638" lon="5.82137">
        <ele>289.6</ele>
        <time>2024-05-28T11:31:43Z</time>
      </trkpt>
      <trkpt lat="47.13633" lon="5.82128">
        <ele>289.4</ele>
        <time>2024-05-28T11:31:44Z</time>
      </trkpt>
      <trkpt lat="47.13629" lon="5.82119">
        <ele>288.8</ele>
        <time>2024-05-28T11:31:45Z</time>
      </trkpt>
      <trkpt lat="47.13625" lon="5.82112">
        <ele>288.4</ele>
        <time>2024-05-28T11:31:46Z</time>
      </trkpt>
      <trkpt lat="47.13618" lon="5.82096">
        <ele>287.6</ele>
        <time>2024-05-28T11:31:48Z</time>
      </trkpt>
      <trkpt lat="47.13615" lon="5.8209">
        <ele>287.4</ele>
        <time>2024-05-28T11:31:49Z</time>
      </trkpt>
      <trkpt lat="47.13612" lon="5.82085">
        <ele>286.8</ele>
        <time>2024-05-28T11:31:50Z</time>
      </trkpt>
      <trkpt lat="47.13608" lon="5.8208">
        <ele>286.4</ele>
        <time>2024-05-28T11:31:51Z</time>
      </trkpt>
      <trkpt lat="47.13602" lon="5.82073">
        <ele>285.8</ele>
        <time>2024-05-28T11:31:52Z</time>
      </trkpt>
      <trkpt lat="47.13596" lon="5.82068">
        <ele>285</ele>
        <time>2024-05-28T11:31:53Z</time>
      </trkpt>
      <trkpt lat="47.1359" lon="5.82062">
        <ele>284.6</ele>
        <time>2024-05-28T11:31:54Z</time>
      </trkpt>
      <trkpt lat="47.13576" lon="5.82049">
        <ele>283.6</ele>
        <time>2024-05-28T11:31:56Z</time>
      </trkpt>
      <trkpt lat="47.13569" lon="5.82041">
        <ele>282.8</ele>
        <time>2024-05-28T11:31:57Z</time>
      </trkpt>
      <trkpt lat="47.13562" lon="5.82034">
        <ele>282.4</ele>
        <time>2024-05-28T11:31:58Z</time>
      </trkpt>
      <trkpt lat="47.13548" lon="5.82019">
        <ele>281</ele>
        <time>2024-05-28T11:32:00Z</time>
      </trkpt>
      <trkpt lat="47.13542" lon="5.8201">
        <ele>279</ele>
        <time>2024-05-28T11:32:01Z</time>
      </trkpt>
      <trkpt lat="47.13537" lon="5.81999">
        <ele>278</ele>
        <time>2024-05-28T11:32:02Z</time>
      </trkpt>
      <trkpt lat="47.13532" lon="5.81987">
        <ele>277.6</ele>
        <time>2024-05-28T11:32:03Z</time>
      </trkpt>
      <trkpt lat="47.13528" lon="5.81974">
        <ele>276.8</ele>
        <time>2024-05-28T11:32:04Z</time>
      </trkpt>
      <trkpt lat="47.13524" lon="5.81963">
        <ele>276.2</ele>
        <time>2024-05-28T11:32:05Z</time>
      </trkpt>
      <trkpt lat="47.1352" lon="5.81951">
        <ele>275.4</ele>
        <time>2024-05-28T11:32:06Z</time>
      </trkpt>
      <trkpt lat="47.1351" lon="5.81928">
        <ele>273.6</ele>
        <time>2024-05-28T11:32:08Z</time>
      </trkpt>
      <trkpt lat="47.13505" lon="5.81916">
        <ele>272.4</ele>
        <time>2024-05-28T11:32:09Z</time>
      </trkpt>
      <trkpt lat="47.13492" lon="5.81894">
        <ele>271.2</ele>
        <time>2024-05-28T11:32:11Z</time>
      </trkpt>
      <trkpt lat="47.13478" lon="5.81872">
        <ele>270</ele>
        <time>2024-05-28T11:32:13Z</time>
      </trkpt>
      <trkpt lat="47.13465" lon="5.81847">
        <ele>268.6</ele>
        <time>2024-05-28T11:32:15Z</time>
      </trkpt>
      <trkpt lat="47.13455" lon="5.81822">
        <ele>267.4</ele>
        <time>2024-05-28T11:32:17Z</time>
      </trkpt>
      <trkpt lat="47.13444" lon="5.81799">
        <ele>266.4</ele>
        <time>2024-05-28T11:32:19Z</time>
      </trkpt>
      <trkpt lat="47.13438" lon="5.81789">
        <ele>265.4</ele>
        <time>2024-05-28T11:32:20Z</time>
      </trkpt>
      <trkpt lat="47.13431" lon="5.8178">
        <ele>265</ele>
        <time>2024-05-28T11:32:21Z</time>
      </trkpt>
      <trkpt lat="47.13424" lon="5.81772">
        <ele>264.6</ele>
        <time>2024-05-28T11:32:22Z</time>
      </trkpt>
      <trkpt lat="47.13417" lon="5.81764">
        <ele>264.4</ele>
        <time>2024-05-28T11:32:23Z</time>
      </trkpt>
      <trkpt lat="47.13411" lon="5.81757">
        <ele>264</ele>
        <time>2024-05-28T11:32:24Z</time>
      </trkpt>
      <trkpt lat="47.13405" lon="5.8175">
        <ele>263.4</ele>
        <time>2024-05-28T11:32:25Z</time>
      </trkpt>
      <trkpt lat="47.134" lon="5.81744">
        <ele>263.2</ele>
        <time>2024-05-28T11:32:26Z</time>
      </trkpt>
      <trkpt lat="47.13395" lon="5.81738">
        <ele>263</ele>
        <time>2024-05-28T11:32:27Z</time>
      </trkpt>
      <trkpt lat="47.1339" lon="5.81732">
        <ele>263</ele>
        <time>2024-05-28T11:32:28Z</time>
      </trkpt>
      <trkpt lat="47.13386" lon="5.81727">
        <ele>263</ele>
        <time>2024-05-28T11:32:29Z</time>
      </trkpt>
      <trkpt lat="47.13381" lon="5.81722">
        <ele>263</ele>
        <time>2024-05-28T11:32:30Z</time>
      </trkpt>
      <trkpt lat="47.13378" lon="5.81717">
        <ele>262.8</ele>
        <time>2024-05-28T11:32:31Z</time>
      </trkpt>
      <trkpt lat="47.13374" lon="5.81713">
        <ele>263</ele>
        <time>2024-05-28T11:32:32Z</time>
      </trkpt>
      <trkpt lat="47.13372" lon="5.8171">
        <ele>263</ele>
        <time>2024-05-28T11:32:33Z</time>
      </trkpt>
      <trkpt lat="47.1337" lon="5.81707">
        <ele>263.2</ele>
        <time>2024-05-28T11:32:34Z</time>
      </trkpt>
      <trkpt lat="47.13368" lon="5.81704">
        <ele>263.4</ele>
        <time>2024-05-28T11:32:35Z</time>
      </trkpt>
      <trkpt lat="47.13366" lon="5.81702">
        <ele>263.6</ele>
        <time>2024-05-28T11:32:36Z</time>
      </trkpt>
      <trkpt lat="47.13365" lon="5.817">
        <ele>264</ele>
        <time>2024-05-28T11:32:37Z</time>
      </trkpt>
      <trkpt lat="47.13363" lon="5.81698">
        <ele>264.4</ele>
        <time>2024-05-28T11:32:38Z</time>
      </trkpt>
      <trkpt lat="47.13361" lon="5.81695">
        <ele>264.6</ele>
        <time>2024-05-28T11:32:39Z</time>
      </trkpt>
      <trkpt lat="47.13358" lon="5.81692">
        <ele>265.2</ele>
        <time>2024-05-28T11:32:41Z</time>
      </trkpt>
      <trkpt lat="47.13356" lon="5.8169">
        <ele>265.4</ele>
        <time>2024-05-28T11:32:42Z</time>
      </trkpt>
      <trkpt lat="47.13355" lon="5.81688">
        <ele>265.6</ele>
        <time>2024-05-28T11:32:43Z</time>
      </trkpt>
      <trkpt lat="47.13353" lon="5.81686">
        <ele>265.6</ele>
        <time>2024-05-28T11:32:44Z</time>
      </trkpt>
      <trkpt lat="47.13352" lon="5.81685">
        <ele>266</ele>
        <time>2024-05-28T11:32:45Z</time>
      </trkpt>
      <trkpt lat="47.1335" lon="5.81684">
        <ele>266</ele>
        <time>2024-05-28T11:32:46Z</time>
      </trkpt>
      <trkpt lat="47.13349" lon="5.81683">
        <ele>266.6</ele>
        <time>2024-05-28T11:32:47Z</time>
      </trkpt>
      <trkpt lat="47.13346" lon="5.81681">
        <ele>266.6</ele>
        <time>2024-05-28T11:32:48Z</time>
      </trkpt>
      <trkpt lat="47.13345" lon="5.8168">
        <ele>267</ele>
        <time>2024-05-28T11:32:49Z</time>
      </trkpt>
      <trkpt lat="47.13344" lon="5.81678">
        <ele>267.2</ele>
        <time>2024-05-28T11:32:50Z</time>
      </trkpt>
      <trkpt lat="47.13342" lon="5.81676">
        <ele>267.4</ele>
        <time>2024-05-28T11:32:51Z</time>
      </trkpt>
      <trkpt lat="47.13341" lon="5.81674">
        <ele>267.6</ele>
        <time>2024-05-28T11:32:52Z</time>
      </trkpt>
      <trkpt lat="47.13339" lon="5.81672">
        <ele>267.8</ele>
        <time>2024-05-28T11:32:53Z</time>
      </trkpt>
      <trkpt lat="47.13338" lon="5.81671">
        <ele>268.4</ele>
        <time>2024-05-28T11:32:54Z</time>
      </trkpt>
      <trkpt lat="47.13337" lon="5.81669">
        <ele>268.6</ele>
        <time>2024-05-28T11:32:55Z</time>
      </trkpt>
      <trkpt lat="47.13336" lon="5.81668">
        <ele>268.8</ele>
        <time>2024-05-28T11:32:56Z</time>
      </trkpt>
      <trkpt lat="47.13335" lon="5.81666">
        <ele>269.2</ele>
        <time>2024-05-28T11:32:57Z</time>
      </trkpt>
      <trkpt lat="47.13334" lon="5.81664">
        <ele>269.4</ele>
        <time>2024-05-28T11:32:58Z</time>
      </trkpt>
      <trkpt lat="47.13333" lon="5.81662">
        <ele>269.8</ele>
        <time>2024-05-28T11:32:59Z</time>
      </trkpt>
      <trkpt lat="47.13332" lon="5.81661">
        <ele>270</ele>
        <time>2024-05-28T11:33:00Z</time>
      </trkpt>
      <trkpt lat="47.13331" lon="5.81659">
        <ele>270.4</ele>
        <time>2024-05-28T11:33:01Z</time>
      </trkpt>
      <trkpt lat="47.1333" lon="5.81657">
        <ele>270.4</ele>
        <time>2024-05-28T11:33:02Z</time>
      </trkpt>
      <trkpt lat="47.13329" lon="5.81655">
        <ele>270.8</ele>
        <time>2024-05-28T11:33:03Z</time>
      </trkpt>
      <trkpt lat="47.13327" lon="5.81654">
        <ele>271</ele>
        <time>2024-05-28T11:33:04Z</time>
      </trkpt>
      <trkpt lat="47.13326" lon="5.81653">
        <ele>271.4</ele>
        <time>2024-05-28T11:33:05Z</time>
      </trkpt>
      <trkpt lat="47.13324" lon="5.81651">
        <ele>271.6</ele>
        <time>2024-05-28T11:33:06Z</time>
      </trkpt>
      <trkpt lat="47.13324" lon="5.8165">
        <ele>271.8</ele>
        <time>2024-05-28T11:33:07Z</time>
      </trkpt>
      <trkpt lat="47.13323" lon="5.81648">
        <ele>272.2</ele>
        <time>2024-05-28T11:33:08Z</time>
      </trkpt>
      <trkpt lat="47.13322" lon="5.81646">
        <ele>272.4</ele>
        <time>2024-05-28T11:33:09Z</time>
      </trkpt>
      <trkpt lat="47.1332" lon="5.81646">
        <ele>272.6</ele>
        <time>2024-05-28T11:33:10Z</time>
      </trkpt>
      <trkpt lat="47.13319" lon="5.81645">
        <ele>272.8</ele>
        <time>2024-05-28T11:33:11Z</time>
      </trkpt>
      <trkpt lat="47.13318" lon="5.81645">
        <ele>273</ele>
        <time>2024-05-28T11:33:12Z</time>
      </trkpt>
      <trkpt lat="47.13316" lon="5.81644">
        <ele>273.2</ele>
        <time>2024-05-28T11:33:13Z</time>
      </trkpt>
      <trkpt lat="47.13315" lon="5.81643">
        <ele>273.4</ele>
        <time>2024-05-28T11:33:14Z</time>
      </trkpt>
      <trkpt lat="47.13314" lon="5.81642">
        <ele>273.6</ele>
        <time>2024-05-28T11:33:15Z</time>
      </trkpt>
      <trkpt lat="47.13313" lon="5.81641">
        <ele>273.6</ele>
        <time>2024-05-28T11:33:16Z</time>
      </trkpt>
      <trkpt lat="47.13313" lon="5.81641">
        <ele>273.8</ele>
        <time>2024-05-28T11:33:17Z</time>
      </trkpt>
      <trkpt lat="47.13312" lon="5.8164">
        <ele>273.8</ele>
        <time>2024-05-28T11:33:18Z</time>
      </trkpt>
      <trkpt lat="47.13311" lon="5.8164">
        <ele>274</ele>
        <time>2024-05-28T11:33:19Z</time>
      </trkpt>
      <trkpt lat="47.1331" lon="5.81639">
        <ele>274.2</ele>
        <time>2024-05-28T11:33:20Z</time>
      </trkpt>
      <trkpt lat="47.13309" lon="5.81639">
        <ele>274.2</ele>
        <time>2024-05-28T11:33:21Z</time>
      </trkpt>
      <trkpt lat="47.13308" lon="5.8164">
        <ele>274.4</ele>
        <time>2024-05-28T11:33:22Z</time>
      </trkpt>
      <trkpt lat="47.13307" lon="5.8164">
        <ele>274.4</ele>
        <time>2024-05-28T11:33:23Z</time>
      </trkpt>
      <trkpt lat="47.13306" lon="5.8164">
        <ele>274.6</ele>
        <time>2024-05-28T11:33:24Z</time>
      </trkpt>
      <trkpt lat="47.13305" lon="5.81639">
        <ele>274.6</ele>
        <time>2024-05-28T11:33:25Z</time>
      </trkpt>
      <trkpt lat="47.13304" lon="5.81638">
        <ele>274.8</ele>
        <time>2024-05-28T11:33:26Z</time>
      </trkpt>
      <trkpt lat="47.13303" lon="5.81636">
        <ele>275</ele>
        <time>2024-05-28T11:33:27Z</time>
      </trkpt>
      <trkpt lat="47.13302" lon="5.81636">
        <ele>275.2</ele>
        <time>2024-05-28T11:33:28Z</time>
      </trkpt>
      <trkpt lat="47.13302" lon="5.81636">
        <ele>275.2</ele>
        <time>2024-05-28T11:33:29Z</time>
      </trkpt>
      <trkpt lat="47.13302" lon="5.81636">
        <ele>275.4</ele>
        <time>2024-05-28T11:33:30Z</time>
      </trkpt>
      <trkpt lat="47.13302" lon="5.81636">
        <ele>275.4</ele>
        <time>2024-05-28T11:33:31Z</time>
      </trkpt>
      <trkpt lat="47.13302" lon="5.81636">
        <ele>275.6</ele>
        <time>2024-05-28T11:33:37Z</time>
      </trkpt>
      <trkpt lat="47.13302" lon="5.81636">
        <ele>275.6</ele>
        <time>2024-05-28T11:33:41Z</time>
      </trkpt>
      <trkpt lat="47.13302" lon="5.81634">
        <ele>275.2</ele>
        <time>2024-05-28T11:34:45Z</time>
      </trkpt>
      <trkpt lat="47.133" lon="5.8163">
        <ele>275.4</ele>
        <time>2024-05-28T11:34:47Z</time>
      </trkpt>
      <trkpt lat="47.133" lon="5.81628">
        <ele>275.2</ele>
        <time>2024-05-28T11:34:48Z</time>
      </trkpt>
      <trkpt lat="47.13299" lon="5.81627">
        <ele>275.2</ele>
        <time>2024-05-28T11:34:49Z</time>
      </trkpt>
      <trkpt lat="47.13298" lon="5.81622">
        <ele>275.4</ele>
        <time>2024-05-28T11:34:51Z</time>
      </trkpt>
      <trkpt lat="47.13296" lon="5.8162">
        <ele>275.4</ele>
        <time>2024-05-28T11:34:52Z</time>
      </trkpt>
      <trkpt lat="47.13295" lon="5.81618">
        <ele>275.4</ele>
        <time>2024-05-28T11:34:53Z</time>
      </trkpt>
      <trkpt lat="47.13294" lon="5.81615">
        <ele>275.6</ele>
        <time>2024-05-28T11:34:54Z</time>
      </trkpt>
      <trkpt lat="47.13293" lon="5.81613">
        <ele>275.8</ele>
        <time>2024-05-28T11:34:55Z</time>
      </trkpt>
      <trkpt lat="47.13293" lon="5.8161">
        <ele>275.8</ele>
        <time>2024-05-28T11:34:56Z</time>
      </trkpt>
      <trkpt lat="47.13292" lon="5.81607">
        <ele>276.2</ele>
        <time>2024-05-28T11:34:57Z</time>
      </trkpt>
      <trkpt lat="47.13291" lon="5.81605">
        <ele>276.2</ele>
        <time>2024-05-28T11:34:58Z</time>
      </trkpt>
      <trkpt lat="47.13289" lon="5.81604">
        <ele>276.4</ele>
        <time>2024-05-28T11:34:59Z</time>
      </trkpt>
      <trkpt lat="47.13288" lon="5.81602">
        <ele>276.4</ele>
        <time>2024-05-28T11:35:00Z</time>
      </trkpt>
      <trkpt lat="47.13286" lon="5.816">
        <ele>276.6</ele>
        <time>2024-05-28T11:35:01Z</time>
      </trkpt>
      <trkpt lat="47.13282" lon="5.81598">
        <ele>276.8</ele>
        <time>2024-05-28T11:35:02Z</time>
      </trkpt>
      <trkpt lat="47.13281" lon="5.81596">
        <ele>277</ele>
        <time>2024-05-28T11:35:03Z</time>
      </trkpt>
      <trkpt lat="47.1328" lon="5.81595">
        <ele>277.4</ele>
        <time>2024-05-28T11:35:04Z</time>
      </trkpt>
      <trkpt lat="47.13279" lon="5.81593">
        <ele>277.4</ele>
        <time>2024-05-28T11:35:05Z</time>
      </trkpt>
      <trkpt lat="47.13279" lon="5.81593">
        <ele>277.6</ele>
        <time>2024-05-28T11:35:06Z</time>
      </trkpt>
      <trkpt lat="47.13277" lon="5.81591">
        <ele>277.6</ele>
        <time>2024-05-28T11:35:07Z</time>
      </trkpt>
      <trkpt lat="47.13275" lon="5.81588">
        <ele>277.8</ele>
        <time>2024-05-28T11:35:08Z</time>
      </trkpt>
      <trkpt lat="47.13275" lon="5.81588">
        <ele>278.2</ele>
        <time>2024-05-28T11:35:09Z</time>
      </trkpt>
      <trkpt lat="47.13273" lon="5.81587">
        <ele>278.2</ele>
        <time>2024-05-28T11:35:10Z</time>
      </trkpt>
      <trkpt lat="47.13272" lon="5.81586">
        <ele>278.6</ele>
        <time>2024-05-28T11:35:11Z</time>
      </trkpt>
      <trkpt lat="47.13264" lon="5.8158">
        <ele>278.8</ele>
        <time>2024-05-28T11:35:13Z</time>
      </trkpt>
      <trkpt lat="47.13261" lon="5.81578">
        <ele>278.8</ele>
        <time>2024-05-28T11:35:14Z</time>
      </trkpt>
      <trkpt lat="47.13259" lon="5.81576">
        <ele>279.2</ele>
        <time>2024-05-28T11:35:15Z</time>
      </trkpt>
      <trkpt lat="47.13257" lon="5.81576">
        <ele>279.4</ele>
        <time>2024-05-28T11:35:16Z</time>
      </trkpt>
      <trkpt lat="47.13256" lon="5.81575">
        <ele>279.6</ele>
        <time>2024-05-28T11:35:17Z</time>
      </trkpt>
      <trkpt lat="47.13256" lon="5.81574">
        <ele>279.8</ele>
        <time>2024-05-28T11:35:18Z</time>
      </trkpt>
      <trkpt lat="47.13255" lon="5.81575">
        <ele>279.8</ele>
        <time>2024-05-28T11:35:19Z</time>
      </trkpt>
      <trkpt lat="47.13254" lon="5.81573">
        <ele>280</ele>
        <time>2024-05-28T11:35:20Z</time>
      </trkpt>
      <trkpt lat="47.13253" lon="5.81573">
        <ele>280</ele>
        <time>2024-05-28T11:35:21Z</time>
      </trkpt>
      <trkpt lat="47.13251" lon="5.81572">
        <ele>280.4</ele>
        <time>2024-05-28T11:35:22Z</time>
      </trkpt>
      <trkpt lat="47.13249" lon="5.8157">
        <ele>280.4</ele>
        <time>2024-05-28T11:35:23Z</time>
      </trkpt>
      <trkpt lat="47.13248" lon="5.81569">
        <ele>280.6</ele>
        <time>2024-05-28T11:35:24Z</time>
      </trkpt>
      <trkpt lat="47.13247" lon="5.81569">
        <ele>280.8</ele>
        <time>2024-05-28T11:35:25Z</time>
      </trkpt>
      <trkpt lat="47.13247" lon="5.81569">
        <ele>280.8</ele>
        <time>2024-05-28T11:35:26Z</time>
      </trkpt>
      <trkpt lat="47.13245" lon="5.81569">
        <ele>281</ele>
        <time>2024-05-28T11:35:27Z</time>
      </trkpt>
      <trkpt lat="47.13244" lon="5.81568">
        <ele>281</ele>
        <time>2024-05-28T11:35:28Z</time>
      </trkpt>
      <trkpt lat="47.13243" lon="5.81567">
        <ele>281.2</ele>
        <time>2024-05-28T11:35:29Z</time>
      </trkpt>
      <trkpt lat="47.13241" lon="5.81566">
        <ele>281.2</ele>
        <time>2024-05-28T11:35:30Z</time>
      </trkpt>
      <trkpt lat="47.13239" lon="5.81564">
        <ele>281.4</ele>
        <time>2024-05-28T11:35:31Z</time>
      </trkpt>
      <trkpt lat="47.13237" lon="5.81563">
        <ele>281.6</ele>
        <time>2024-05-28T11:35:32Z</time>
      </trkpt>
      <trkpt lat="47.13235" lon="5.81562">
        <ele>282</ele>
        <time>2024-05-28T11:35:33Z</time>
      </trkpt>
      <trkpt lat="47.13233" lon="5.81562">
        <ele>282.2</ele>
        <time>2024-05-28T11:35:34Z</time>
      </trkpt>
      <trkpt lat="47.13231" lon="5.8156">
        <ele>282.4</ele>
        <time>2024-05-28T11:35:35Z</time>
      </trkpt>
      <trkpt lat="47.1323" lon="5.81559">
        <ele>282.8</ele>
        <time>2024-05-28T11:35:36Z</time>
      </trkpt>
      <trkpt lat="47.13229" lon="5.81557">
        <ele>283</ele>
        <time>2024-05-28T11:35:37Z</time>
      </trkpt>
      <trkpt lat="47.13229" lon="5.81557">
        <ele>283.2</ele>
        <time>2024-05-28T11:35:38Z</time>
      </trkpt>
      <trkpt lat="47.13228" lon="5.81557">
        <ele>283.4</ele>
        <time>2024-05-28T11:35:39Z</time>
      </trkpt>
      <trkpt lat="47.13227" lon="5.81555">
        <ele>283.8</ele>
        <time>2024-05-28T11:35:40Z</time>
      </trkpt>
      <trkpt lat="47.13225" lon="5.81553">
        <ele>283.8</ele>
        <time>2024-05-28T11:35:41Z</time>
      </trkpt>
      <trkpt lat="47.13222" lon="5.81552">
        <ele>284.2</ele>
        <time>2024-05-28T11:35:42Z</time>
      </trkpt>
      <trkpt lat="47.1322" lon="5.81551">
        <ele>284.8</ele>
        <time>2024-05-28T11:35:43Z</time>
      </trkpt>
      <trkpt lat="47.13218" lon="5.81549">
        <ele>285</ele>
        <time>2024-05-28T11:35:44Z</time>
      </trkpt>
      <trkpt lat="47.13218" lon="5.81549">
        <ele>285.4</ele>
        <time>2024-05-28T11:35:45Z</time>
      </trkpt>
      <trkpt lat="47.13216" lon="5.81548">
        <ele>285.4</ele>
        <time>2024-05-28T11:35:46Z</time>
      </trkpt>
      <trkpt lat="47.13215" lon="5.81546">
        <ele>285.6</ele>
        <time>2024-05-28T11:35:47Z</time>
      </trkpt>
      <trkpt lat="47.13214" lon="5.81546">
        <ele>285.8</ele>
        <time>2024-05-28T11:35:48Z</time>
      </trkpt>
      <trkpt lat="47.13212" lon="5.81545">
        <ele>285.8</ele>
        <time>2024-05-28T11:35:49Z</time>
      </trkpt>
      <trkpt lat="47.13212" lon="5.81544">
        <ele>286</ele>
        <time>2024-05-28T11:35:50Z</time>
      </trkpt>
      <trkpt lat="47.1321" lon="5.81543">
        <ele>286</ele>
        <time>2024-05-28T11:35:51Z</time>
      </trkpt>
      <trkpt lat="47.13208" lon="5.81542">
        <ele>286.2</ele>
        <time>2024-05-28T11:35:52Z</time>
      </trkpt>
      <trkpt lat="47.13206" lon="5.8154">
        <ele>286.2</ele>
        <time>2024-05-28T11:35:53Z</time>
      </trkpt>
      <trkpt lat="47.13205" lon="5.81539">
        <ele>286.4</ele>
        <time>2024-05-28T11:35:54Z</time>
      </trkpt>
      <trkpt lat="47.13205" lon="5.81538">
        <ele>286.4</ele>
        <time>2024-05-28T11:35:55Z</time>
      </trkpt>
      <trkpt lat="47.13203" lon="5.81536">
        <ele>286.6</ele>
        <time>2024-05-28T11:35:56Z</time>
      </trkpt>
      <trkpt lat="47.132" lon="5.81535">
        <ele>286.6</ele>
        <time>2024-05-28T11:35:57Z</time>
      </trkpt>
      <trkpt lat="47.13198" lon="5.81533">
        <ele>286.8</ele>
        <time>2024-05-28T11:35:58Z</time>
      </trkpt>
      <trkpt lat="47.13197" lon="5.81533">
        <ele>286.8</ele>
        <time>2024-05-28T11:35:59Z</time>
      </trkpt>
      <trkpt lat="47.13197" lon="5.8153">
        <ele>287</ele>
        <time>2024-05-28T11:36:00Z</time>
      </trkpt>
      <trkpt lat="47.13197" lon="5.8153">
        <ele>287</ele>
        <time>2024-05-28T11:36:01Z</time>
      </trkpt>
      <trkpt lat="47.13195" lon="5.81527">
        <ele>287</ele>
        <time>2024-05-28T11:36:02Z</time>
      </trkpt>
      <trkpt lat="47.13193" lon="5.81524">
        <ele>287.2</ele>
        <time>2024-05-28T11:36:03Z</time>
      </trkpt>
      <trkpt lat="47.13192" lon="5.81523">
        <ele>287.2</ele>
        <time>2024-05-28T11:36:04Z</time>
      </trkpt>
      <trkpt lat="47.1319" lon="5.81521">
        <ele>287.4</ele>
        <time>2024-05-28T11:36:05Z</time>
      </trkpt>
      <trkpt lat="47.13188" lon="5.8152">
        <ele>287.6</ele>
        <time>2024-05-28T11:36:06Z</time>
      </trkpt>
      <trkpt lat="47.13187" lon="5.8152">
        <ele>287.6</ele>
        <time>2024-05-28T11:36:07Z</time>
      </trkpt>
      <trkpt lat="47.13187" lon="5.81518">
        <ele>287.8</ele>
        <time>2024-05-28T11:36:08Z</time>
      </trkpt>
      <trkpt lat="47.13185" lon="5.81516">
        <ele>287.8</ele>
        <time>2024-05-28T11:36:09Z</time>
      </trkpt>
      <trkpt lat="47.13184" lon="5.81516">
        <ele>288</ele>
        <time>2024-05-28T11:36:10Z</time>
      </trkpt>
      <trkpt lat="47.13184" lon="5.81516">
        <ele>288</ele>
        <time>2024-05-28T11:36:11Z</time>
      </trkpt>
      <trkpt lat="47.13181" lon="5.81514">
        <ele>288</ele>
        <time>2024-05-28T11:36:12Z</time>
      </trkpt>
      <trkpt lat="47.13178" lon="5.81512">
        <ele>288</ele>
        <time>2024-05-28T11:36:13Z</time>
      </trkpt>
      <trkpt lat="47.13176" lon="5.81511">
        <ele>288.2</ele>
        <time>2024-05-28T11:36:14Z</time>
      </trkpt>
      <trkpt lat="47.13175" lon="5.81509">
        <ele>288.4</ele>
        <time>2024-05-28T11:36:15Z</time>
      </trkpt>
      <trkpt lat="47.13174" lon="5.81509">
        <ele>288.4</ele>
        <time>2024-05-28T11:36:16Z</time>
      </trkpt>
      <trkpt lat="47.13172" lon="5.81507">
        <ele>288.4</ele>
        <time>2024-05-28T11:36:17Z</time>
      </trkpt>
      <trkpt lat="47.13172" lon="5.81507">
        <ele>288.4</ele>
        <time>2024-05-28T11:36:18Z</time>
      </trkpt>
      <trkpt lat="47.1317" lon="5.81505">
        <ele>288.4</ele>
        <time>2024-05-28T11:36:19Z</time>
      </trkpt>
      <trkpt lat="47.13168" lon="5.81504">
        <ele>288.6</ele>
        <time>2024-05-28T11:36:20Z</time>
      </trkpt>
      <trkpt lat="47.13166" lon="5.81501">
        <ele>288.6</ele>
        <time>2024-05-28T11:36:21Z</time>
      </trkpt>
      <trkpt lat="47.13162" lon="5.81498">
        <ele>288.8</ele>
        <time>2024-05-28T11:36:23Z</time>
      </trkpt>
      <trkpt lat="47.13159" lon="5.81495">
        <ele>288.8</ele>
        <time>2024-05-28T11:36:24Z</time>
      </trkpt>
      <trkpt lat="47.13155" lon="5.81488">
        <ele>289</ele>
        <time>2024-05-28T11:36:26Z</time>
      </trkpt>
      <trkpt lat="47.1315" lon="5.81485">
        <ele>289</ele>
        <time>2024-05-28T11:36:28Z</time>
      </trkpt>
      <trkpt lat="47.13148" lon="5.81483">
        <ele>289</ele>
        <time>2024-05-28T11:36:29Z</time>
      </trkpt>
      <trkpt lat="47.13147" lon="5.81481">
        <ele>289</ele>
        <time>2024-05-28T11:36:30Z</time>
      </trkpt>
      <trkpt lat="47.13146" lon="5.8148">
        <ele>289</ele>
        <time>2024-05-28T11:36:31Z</time>
      </trkpt>
      <trkpt lat="47.1314" lon="5.81476">
        <ele>289.2</ele>
        <time>2024-05-28T11:36:35Z</time>
      </trkpt>
      <trkpt lat="47.13137" lon="5.81475">
        <ele>289.2</ele>
        <time>2024-05-28T11:36:37Z</time>
      </trkpt>
      <trkpt lat="47.13136" lon="5.81474">
        <ele>289.2</ele>
        <time>2024-05-28T11:36:38Z</time>
      </trkpt>
      <trkpt lat="47.13134" lon="5.81472">
        <ele>289.2</ele>
        <time>2024-05-28T11:36:39Z</time>
      </trkpt>
      <trkpt lat="47.13131" lon="5.8147">
        <ele>289.2</ele>
        <time>2024-05-28T11:36:40Z</time>
      </trkpt>
      <trkpt lat="47.13129" lon="5.81469">
        <ele>289.2</ele>
        <time>2024-05-28T11:36:41Z</time>
      </trkpt>
      <trkpt lat="47.13129" lon="5.81467">
        <ele>289.2</ele>
        <time>2024-05-28T11:36:42Z</time>
      </trkpt>
      <trkpt lat="47.13126" lon="5.81463">
        <ele>289.2</ele>
        <time>2024-05-28T11:36:44Z</time>
      </trkpt>
      <trkpt lat="47.13115" lon="5.81455">
        <ele>289.2</ele>
        <time>2024-05-28T11:36:48Z</time>
      </trkpt>
      <trkpt lat="47.13112" lon="5.81453">
        <ele>289.2</ele>
        <time>2024-05-28T11:36:49Z</time>
      </trkpt>
      <trkpt lat="47.13106" lon="5.8145">
        <ele>289.2</ele>
        <time>2024-05-28T11:36:51Z</time>
      </trkpt>
      <trkpt lat="47.13104" lon="5.81449">
        <ele>289.2</ele>
        <time>2024-05-28T11:36:52Z</time>
      </trkpt>
      <trkpt lat="47.13099" lon="5.81447">
        <ele>289.2</ele>
        <time>2024-05-28T11:36:53Z</time>
      </trkpt>
      <trkpt lat="47.13097" lon="5.81447">
        <ele>289.2</ele>
        <time>2024-05-28T11:36:54Z</time>
      </trkpt>
      <trkpt lat="47.13083" lon="5.81436">
        <ele>289</ele>
        <time>2024-05-28T11:36:58Z</time>
      </trkpt>
      <trkpt lat="47.1308" lon="5.81433">
        <ele>289</ele>
        <time>2024-05-28T11:36:59Z</time>
      </trkpt>
      <trkpt lat="47.13076" lon="5.81428">
        <ele>288.8</ele>
        <time>2024-05-28T11:37:00Z</time>
      </trkpt>
      <trkpt lat="47.13074" lon="5.81425">
        <ele>288.8</ele>
        <time>2024-05-28T11:37:01Z</time>
      </trkpt>
      <trkpt lat="47.13073" lon="5.81423">
        <ele>288.8</ele>
        <time>2024-05-28T11:37:02Z</time>
      </trkpt>
      <trkpt lat="47.13073" lon="5.81421">
        <ele>288.8</ele>
        <time>2024-05-28T11:37:03Z</time>
      </trkpt>
      <trkpt lat="47.13071" lon="5.81418">
        <ele>288.8</ele>
        <time>2024-05-28T11:37:04Z</time>
      </trkpt>
      <trkpt lat="47.13069" lon="5.81415">
        <ele>288.8</ele>
        <time>2024-05-28T11:37:05Z</time>
      </trkpt>
      <trkpt lat="47.13066" lon="5.81413">
        <ele>288.8</ele>
        <time>2024-05-28T11:37:06Z</time>
      </trkpt>
      <trkpt lat="47.13064" lon="5.8141">
        <ele>289</ele>
        <time>2024-05-28T11:37:07Z</time>
      </trkpt>
      <trkpt lat="47.13063" lon="5.81408">
        <ele>289</ele>
        <time>2024-05-28T11:37:08Z</time>
      </trkpt>
      <trkpt lat="47.13058" lon="5.81406">
        <ele>289.2</ele>
        <time>2024-05-28T11:37:11Z</time>
      </trkpt>
      <trkpt lat="47.13056" lon="5.81406">
        <ele>289.2</ele>
        <time>2024-05-28T11:37:12Z</time>
      </trkpt>
      <trkpt lat="47.13054" lon="5.81405">
        <ele>289.4</ele>
        <time>2024-05-28T11:37:13Z</time>
      </trkpt>
      <trkpt lat="47.13053" lon="5.81404">
        <ele>289.4</ele>
        <time>2024-05-28T11:37:14Z</time>
      </trkpt>
      <trkpt lat="47.13053" lon="5.81404">
        <ele>289.4</ele>
        <time>2024-05-28T11:37:15Z</time>
      </trkpt>
      <trkpt lat="47.13053" lon="5.81404">
        <ele>289.6</ele>
        <time>2024-05-28T11:37:16Z</time>
      </trkpt>
      <trkpt lat="47.13053" lon="5.81404">
        <ele>289.6</ele>
        <time>2024-05-28T11:37:18Z</time>
      </trkpt>
      <trkpt lat="47.13053" lon="5.81404">
        <ele>289.8</ele>
        <time>2024-05-28T11:37:21Z</time>
      </trkpt>
      <trkpt lat="47.13052" lon="5.81403">
        <ele>290</ele>
        <time>2024-05-28T11:37:26Z</time>
      </trkpt>
      <trkpt lat="47.1305" lon="5.81402">
        <ele>290</ele>
        <time>2024-05-28T11:37:27Z</time>
      </trkpt>
      <trkpt lat="47.13047" lon="5.81397">
        <ele>290</ele>
        <time>2024-05-28T11:37:30Z</time>
      </trkpt>
      <trkpt lat="47.13044" lon="5.81395">
        <ele>290</ele>
        <time>2024-05-28T11:37:31Z</time>
      </trkpt>
      <trkpt lat="47.13043" lon="5.81394">
        <ele>290</ele>
        <time>2024-05-28T11:37:32Z</time>
      </trkpt>
      <trkpt lat="47.13038" lon="5.81391">
        <ele>290</ele>
        <time>2024-05-28T11:37:34Z</time>
      </trkpt>
      <trkpt lat="47.13031" lon="5.81387">
        <ele>290.2</ele>
        <time>2024-05-28T11:37:37Z</time>
      </trkpt>
      <trkpt lat="47.13028" lon="5.81385">
        <ele>290.4</ele>
        <time>2024-05-28T11:37:38Z</time>
      </trkpt>
      <trkpt lat="47.13024" lon="5.8138">
        <ele>290.6</ele>
        <time>2024-05-28T11:37:40Z</time>
      </trkpt>
      <trkpt lat="47.13011" lon="5.81371">
        <ele>291.2</ele>
        <time>2024-05-28T11:37:44Z</time>
      </trkpt>
      <trkpt lat="47.13004" lon="5.81364">
        <ele>291.8</ele>
        <time>2024-05-28T11:37:47Z</time>
      </trkpt>
      <trkpt lat="47.12999" lon="5.8136">
        <ele>292</ele>
        <time>2024-05-28T11:37:49Z</time>
      </trkpt>
      <trkpt lat="47.12997" lon="5.81358">
        <ele>292.2</ele>
        <time>2024-05-28T11:37:50Z</time>
      </trkpt>
      <trkpt lat="47.12996" lon="5.81358">
        <ele>292.2</ele>
        <time>2024-05-28T11:37:51Z</time>
      </trkpt>
      <trkpt lat="47.12993" lon="5.81354">
        <ele>292.4</ele>
        <time>2024-05-28T11:37:52Z</time>
      </trkpt>
      <trkpt lat="47.1298" lon="5.81341">
        <ele>293</ele>
        <time>2024-05-28T11:37:56Z</time>
      </trkpt>
      <trkpt lat="47.12977" lon="5.81338">
        <ele>293</ele>
        <time>2024-05-28T11:37:57Z</time>
      </trkpt>
      <trkpt lat="47.12975" lon="5.81336">
        <ele>293.2</ele>
        <time>2024-05-28T11:37:58Z</time>
      </trkpt>
      <trkpt lat="47.12972" lon="5.81333">
        <ele>293.6</ele>
        <time>2024-05-28T11:37:59Z</time>
      </trkpt>
      <trkpt lat="47.12969" lon="5.81332">
        <ele>293.6</ele>
        <time>2024-05-28T11:38:00Z</time>
      </trkpt>
      <trkpt lat="47.12967" lon="5.8133">
        <ele>293.8</ele>
        <time>2024-05-28T11:38:01Z</time>
      </trkpt>
      <trkpt lat="47.12966" lon="5.8133">
        <ele>293.8</ele>
        <time>2024-05-28T11:38:02Z</time>
      </trkpt>
      <trkpt lat="47.12965" lon="5.8133">
        <ele>294</ele>
        <time>2024-05-28T11:38:03Z</time>
      </trkpt>
      <trkpt lat="47.12962" lon="5.81327">
        <ele>294.4</ele>
        <time>2024-05-28T11:38:04Z</time>
      </trkpt>
      <trkpt lat="47.12959" lon="5.81325">
        <ele>294.6</ele>
        <time>2024-05-28T11:38:05Z</time>
      </trkpt>
      <trkpt lat="47.12956" lon="5.81324">
        <ele>295</ele>
        <time>2024-05-28T11:38:06Z</time>
      </trkpt>
      <trkpt lat="47.12953" lon="5.81323">
        <ele>295</ele>
        <time>2024-05-28T11:38:07Z</time>
      </trkpt>
      <trkpt lat="47.12951" lon="5.81323">
        <ele>295.2</ele>
        <time>2024-05-28T11:38:08Z</time>
      </trkpt>
      <trkpt lat="47.12949" lon="5.81321">
        <ele>295.2</ele>
        <time>2024-05-28T11:38:09Z</time>
      </trkpt>
      <trkpt lat="47.12946" lon="5.8132">
        <ele>295.4</ele>
        <time>2024-05-28T11:38:10Z</time>
      </trkpt>
      <trkpt lat="47.12944" lon="5.81319">
        <ele>295.4</ele>
        <time>2024-05-28T11:38:11Z</time>
      </trkpt>
      <trkpt lat="47.12942" lon="5.81318">
        <ele>295.6</ele>
        <time>2024-05-28T11:38:12Z</time>
      </trkpt>
      <trkpt lat="47.12937" lon="5.81315">
        <ele>295.6</ele>
        <time>2024-05-28T11:38:13Z</time>
      </trkpt>
      <trkpt lat="47.12934" lon="5.81313">
        <ele>295.6</ele>
        <time>2024-05-28T11:38:14Z</time>
      </trkpt>
      <trkpt lat="47.12931" lon="5.8131">
        <ele>295.6</ele>
        <time>2024-05-28T11:38:15Z</time>
      </trkpt>
      <trkpt lat="47.12927" lon="5.81308">
        <ele>295.6</ele>
        <time>2024-05-28T11:38:16Z</time>
      </trkpt>
      <trkpt lat="47.12923" lon="5.81307">
        <ele>295.8</ele>
        <time>2024-05-28T11:38:17Z</time>
      </trkpt>
      <trkpt lat="47.12922" lon="5.81305">
        <ele>295.8</ele>
        <time>2024-05-28T11:38:18Z</time>
      </trkpt>
      <trkpt lat="47.1292" lon="5.81301">
        <ele>295.8</ele>
        <time>2024-05-28T11:38:19Z</time>
      </trkpt>
      <trkpt lat="47.12918" lon="5.81298">
        <ele>296</ele>
        <time>2024-05-28T11:38:20Z</time>
      </trkpt>
      <trkpt lat="47.12917" lon="5.81296">
        <ele>296</ele>
        <time>2024-05-28T11:38:21Z</time>
      </trkpt>
      <trkpt lat="47.12915" lon="5.81292">
        <ele>296.2</ele>
        <time>2024-05-28T11:38:22Z</time>
      </trkpt>
      <trkpt lat="47.12915" lon="5.81288">
        <ele>296.4</ele>
        <time>2024-05-28T11:38:23Z</time>
      </trkpt>
      <trkpt lat="47.12913" lon="5.81285">
        <ele>296.6</ele>
        <time>2024-05-28T11:38:24Z</time>
      </trkpt>
      <trkpt lat="47.12912" lon="5.81284">
        <ele>296.8</ele>
        <time>2024-05-28T11:38:25Z</time>
      </trkpt>
      <trkpt lat="47.12911" lon="5.81283">
        <ele>297.2</ele>
        <time>2024-05-28T11:38:26Z</time>
      </trkpt>
      <trkpt lat="47.12908" lon="5.81282">
        <ele>297.2</ele>
        <time>2024-05-28T11:38:27Z</time>
      </trkpt>
      <trkpt lat="47.12908" lon="5.8128">
        <ele>297.6</ele>
        <time>2024-05-28T11:38:28Z</time>
      </trkpt>
      <trkpt lat="47.12905" lon="5.81278">
        <ele>297.8</ele>
        <time>2024-05-28T11:38:29Z</time>
      </trkpt>
      <trkpt lat="47.12901" lon="5.81276">
        <ele>298.2</ele>
        <time>2024-05-28T11:38:30Z</time>
      </trkpt>
      <trkpt lat="47.12898" lon="5.81274">
        <ele>298.4</ele>
        <time>2024-05-28T11:38:31Z</time>
      </trkpt>
      <trkpt lat="47.12897" lon="5.81273">
        <ele>298.6</ele>
        <time>2024-05-28T11:38:32Z</time>
      </trkpt>
      <trkpt lat="47.12896" lon="5.81271">
        <ele>298.6</ele>
        <time>2024-05-28T11:38:33Z</time>
      </trkpt>
      <trkpt lat="47.12895" lon="5.81269">
        <ele>298.8</ele>
        <time>2024-05-28T11:38:34Z</time>
      </trkpt>
      <trkpt lat="47.12893" lon="5.81267">
        <ele>299</ele>
        <time>2024-05-28T11:38:35Z</time>
      </trkpt>
      <trkpt lat="47.12892" lon="5.81266">
        <ele>299</ele>
        <time>2024-05-28T11:38:36Z</time>
      </trkpt>
      <trkpt lat="47.12889" lon="5.81264">
        <ele>299</ele>
        <time>2024-05-28T11:38:37Z</time>
      </trkpt>
      <trkpt lat="47.12887" lon="5.81263">
        <ele>299.2</ele>
        <time>2024-05-28T11:38:38Z</time>
      </trkpt>
      <trkpt lat="47.12885" lon="5.81261">
        <ele>299.2</ele>
        <time>2024-05-28T11:38:39Z</time>
      </trkpt>
      <trkpt lat="47.12884" lon="5.8126">
        <ele>299.2</ele>
        <time>2024-05-28T11:38:40Z</time>
      </trkpt>
      <trkpt lat="47.12882" lon="5.81258">
        <ele>299.2</ele>
        <time>2024-05-28T11:38:41Z</time>
      </trkpt>
      <trkpt lat="47.1288" lon="5.81257">
        <ele>299.2</ele>
        <time>2024-05-28T11:38:42Z</time>
      </trkpt>
      <trkpt lat="47.12878" lon="5.81256">
        <ele>299.2</ele>
        <time>2024-05-28T11:38:43Z</time>
      </trkpt>
      <trkpt lat="47.12876" lon="5.81255">
        <ele>299.4</ele>
        <time>2024-05-28T11:38:44Z</time>
      </trkpt>
      <trkpt lat="47.12873" lon="5.81256">
        <ele>299.4</ele>
        <time>2024-05-28T11:38:45Z</time>
      </trkpt>
      <trkpt lat="47.12871" lon="5.81255">
        <ele>299.6</ele>
        <time>2024-05-28T11:38:46Z</time>
      </trkpt>
      <trkpt lat="47.12869" lon="5.81255">
        <ele>299.6</ele>
        <time>2024-05-28T11:38:47Z</time>
      </trkpt>
      <trkpt lat="47.12866" lon="5.81254">
        <ele>299.8</ele>
        <time>2024-05-28T11:38:48Z</time>
      </trkpt>
      <trkpt lat="47.12863" lon="5.81252">
        <ele>299.8</ele>
        <time>2024-05-28T11:38:49Z</time>
      </trkpt>
      <trkpt lat="47.12861" lon="5.8125">
        <ele>299.8</ele>
        <time>2024-05-28T11:38:50Z</time>
      </trkpt>
      <trkpt lat="47.12859" lon="5.81248">
        <ele>299.8</ele>
        <time>2024-05-28T11:38:51Z</time>
      </trkpt>
      <trkpt lat="47.12857" lon="5.81246">
        <ele>299.8</ele>
        <time>2024-05-28T11:38:52Z</time>
      </trkpt>
      <trkpt lat="47.12855" lon="5.81245">
        <ele>299.8</ele>
        <time>2024-05-28T11:38:53Z</time>
      </trkpt>
      <trkpt lat="47.1285" lon="5.81241">
        <ele>299.8</ele>
        <time>2024-05-28T11:38:55Z</time>
      </trkpt>
      <trkpt lat="47.12833" lon="5.81232">
        <ele>299.8</ele>
        <time>2024-05-28T11:39:01Z</time>
      </trkpt>
      <trkpt lat="47.12831" lon="5.81231">
        <ele>300</ele>
        <time>2024-05-28T11:39:02Z</time>
      </trkpt>
      <trkpt lat="47.12809" lon="5.81231">
        <ele>300</ele>
        <time>2024-05-28T11:39:10Z</time>
      </trkpt>
      <trkpt lat="47.12789" lon="5.81226">
        <ele>299.6</ele>
        <time>2024-05-28T11:39:17Z</time>
      </trkpt>
      <trkpt lat="47.12764" lon="5.81211">
        <ele>299</ele>
        <time>2024-05-28T11:39:26Z</time>
      </trkpt>
      <trkpt lat="47.12755" lon="5.81205">
        <ele>298.8</ele>
        <time>2024-05-28T11:39:29Z</time>
      </trkpt>
      <trkpt lat="47.12742" lon="5.81194">
        <ele>298.6</ele>
        <time>2024-05-28T11:39:34Z</time>
      </trkpt>
      <trkpt lat="47.1274" lon="5.81192">
        <ele>298.6</ele>
        <time>2024-05-28T11:39:35Z</time>
      </trkpt>
      <trkpt lat="47.12737" lon="5.81189">
        <ele>298.6</ele>
        <time>2024-05-28T11:39:36Z</time>
      </trkpt>
      <trkpt lat="47.12735" lon="5.81186">
        <ele>298.8</ele>
        <time>2024-05-28T11:39:37Z</time>
      </trkpt>
      <trkpt lat="47.12732" lon="5.81184">
        <ele>298.8</ele>
        <time>2024-05-28T11:39:38Z</time>
      </trkpt>
      <trkpt lat="47.1273" lon="5.81181">
        <ele>298.6</ele>
        <time>2024-05-28T11:39:39Z</time>
      </trkpt>
      <trkpt lat="47.12728" lon="5.81178">
        <ele>298.8</ele>
        <time>2024-05-28T11:39:40Z</time>
      </trkpt>
      <trkpt lat="47.12726" lon="5.81176">
        <ele>298.8</ele>
        <time>2024-05-28T11:39:41Z</time>
      </trkpt>
      <trkpt lat="47.12724" lon="5.81174">
        <ele>298.8</ele>
        <time>2024-05-28T11:39:42Z</time>
      </trkpt>
      <trkpt lat="47.12721" lon="5.81171">
        <ele>298.8</ele>
        <time>2024-05-28T11:39:43Z</time>
      </trkpt>
      <trkpt lat="47.12715" lon="5.81163">
        <ele>298.8</ele>
        <time>2024-05-28T11:39:46Z</time>
      </trkpt>
      <trkpt lat="47.12713" lon="5.8116">
        <ele>298.8</ele>
        <time>2024-05-28T11:39:47Z</time>
      </trkpt>
      <trkpt lat="47.12708" lon="5.81154">
        <ele>299</ele>
        <time>2024-05-28T11:39:50Z</time>
      </trkpt>
      <trkpt lat="47.12706" lon="5.81152">
        <ele>299</ele>
        <time>2024-05-28T11:39:51Z</time>
      </trkpt>
      <trkpt lat="47.12704" lon="5.81151">
        <ele>299</ele>
        <time>2024-05-28T11:39:52Z</time>
      </trkpt>
      <trkpt lat="47.12703" lon="5.8115">
        <ele>299.2</ele>
        <time>2024-05-28T11:39:53Z</time>
      </trkpt>
      <trkpt lat="47.127" lon="5.81146">
        <ele>299.2</ele>
        <time>2024-05-28T11:39:55Z</time>
      </trkpt>
      <trkpt lat="47.12697" lon="5.81144">
        <ele>299.2</ele>
        <time>2024-05-28T11:39:57Z</time>
      </trkpt>
      <trkpt lat="47.12695" lon="5.81143">
        <ele>299.2</ele>
        <time>2024-05-28T11:39:58Z</time>
      </trkpt>
      <trkpt lat="47.12694" lon="5.81142">
        <ele>299.2</ele>
        <time>2024-05-28T11:39:59Z</time>
      </trkpt>
      <trkpt lat="47.12692" lon="5.81141">
        <ele>299.2</ele>
        <time>2024-05-28T11:40:00Z</time>
      </trkpt>
      <trkpt lat="47.12691" lon="5.8114">
        <ele>299</ele>
        <time>2024-05-28T11:40:01Z</time>
      </trkpt>
      <trkpt lat="47.12689" lon="5.8114">
        <ele>299</ele>
        <time>2024-05-28T11:40:02Z</time>
      </trkpt>
      <trkpt lat="47.12684" lon="5.81138">
        <ele>298.8</ele>
        <time>2024-05-28T11:40:04Z</time>
      </trkpt>
      <trkpt lat="47.12664" lon="5.81125">
        <ele>298.8</ele>
        <time>2024-05-28T11:40:13Z</time>
      </trkpt>
      <trkpt lat="47.12645" lon="5.81112">
        <ele>299</ele>
        <time>2024-05-28T11:40:21Z</time>
      </trkpt>
      <trkpt lat="47.12643" lon="5.81111">
        <ele>299</ele>
        <time>2024-05-28T11:40:22Z</time>
      </trkpt>
      <trkpt lat="47.12641" lon="5.81109">
        <ele>299</ele>
        <time>2024-05-28T11:40:23Z</time>
      </trkpt>
      <trkpt lat="47.12637" lon="5.81106">
        <ele>299</ele>
        <time>2024-05-28T11:40:25Z</time>
      </trkpt>
      <trkpt lat="47.12628" lon="5.811">
        <ele>299.4</ele>
        <time>2024-05-28T11:40:29Z</time>
      </trkpt>
      <trkpt lat="47.12626" lon="5.81099">
        <ele>299.6</ele>
        <time>2024-05-28T11:40:30Z</time>
      </trkpt>
      <trkpt lat="47.12625" lon="5.81097">
        <ele>299.6</ele>
        <time>2024-05-28T11:40:31Z</time>
      </trkpt>
      <trkpt lat="47.12623" lon="5.81096">
        <ele>299.6</ele>
        <time>2024-05-28T11:40:32Z</time>
      </trkpt>
      <trkpt lat="47.12622" lon="5.81094">
        <ele>299.8</ele>
        <time>2024-05-28T11:40:33Z</time>
      </trkpt>
      <trkpt lat="47.12621" lon="5.81093">
        <ele>299.8</ele>
        <time>2024-05-28T11:40:34Z</time>
      </trkpt>
      <trkpt lat="47.1262" lon="5.81093">
        <ele>299.8</ele>
        <time>2024-05-28T11:40:35Z</time>
      </trkpt>
      <trkpt lat="47.12619" lon="5.81092">
        <ele>300</ele>
        <time>2024-05-28T11:40:36Z</time>
      </trkpt>
      <trkpt lat="47.12618" lon="5.81092">
        <ele>300</ele>
        <time>2024-05-28T11:40:37Z</time>
      </trkpt>
      <trkpt lat="47.12618" lon="5.81092">
        <ele>300.2</ele>
        <time>2024-05-28T11:40:38Z</time>
      </trkpt>
      <trkpt lat="47.12618" lon="5.81091">
        <ele>300.2</ele>
        <time>2024-05-28T11:40:39Z</time>
      </trkpt>
      <trkpt lat="47.12618" lon="5.81091">
        <ele>300.4</ele>
        <time>2024-05-28T11:40:52Z</time>
      </trkpt>
      <trkpt lat="47.12617" lon="5.81091">
        <ele>300.8</ele>
        <time>2024-05-28T11:40:56Z</time>
      </trkpt>
      <trkpt lat="47.12615" lon="5.81088">
        <ele>300.8</ele>
        <time>2024-05-28T11:40:58Z</time>
      </trkpt>
      <trkpt lat="47.12614" lon="5.81086">
        <ele>300.8</ele>
        <time>2024-05-28T11:40:59Z</time>
      </trkpt>
      <trkpt lat="47.1261" lon="5.81079">
        <ele>301</ele>
        <time>2024-05-28T11:41:02Z</time>
      </trkpt>
      <trkpt lat="47.12608" lon="5.81077">
        <ele>301.2</ele>
        <time>2024-05-28T11:41:03Z</time>
      </trkpt>
      <trkpt lat="47.12606" lon="5.81075">
        <ele>301.4</ele>
        <time>2024-05-28T11:41:04Z</time>
      </trkpt>
      <trkpt lat="47.12605" lon="5.81073">
        <ele>301.4</ele>
        <time>2024-05-28T11:41:05Z</time>
      </trkpt>
      <trkpt lat="47.12593" lon="5.81066">
        <ele>302.6</ele>
        <time>2024-05-28T11:41:10Z</time>
      </trkpt>
      <trkpt lat="47.12587" lon="5.81061">
        <ele>303.2</ele>
        <time>2024-05-28T11:41:13Z</time>
      </trkpt>
      <trkpt lat="47.12585" lon="5.8106">
        <ele>303.6</ele>
        <time>2024-05-28T11:41:14Z</time>
      </trkpt>
      <trkpt lat="47.12584" lon="5.81058">
        <ele>303.6</ele>
        <time>2024-05-28T11:41:15Z</time>
      </trkpt>
      <trkpt lat="47.1258" lon="5.81055">
        <ele>304</ele>
        <time>2024-05-28T11:41:17Z</time>
      </trkpt>
      <trkpt lat="47.12577" lon="5.81054">
        <ele>304.2</ele>
        <time>2024-05-28T11:41:18Z</time>
      </trkpt>
      <trkpt lat="47.12576" lon="5.81052">
        <ele>304.2</ele>
        <time>2024-05-28T11:41:19Z</time>
      </trkpt>
      <trkpt lat="47.12574" lon="5.8105">
        <ele>304.4</ele>
        <time>2024-05-28T11:41:20Z</time>
      </trkpt>
      <trkpt lat="47.12573" lon="5.81049">
        <ele>304.6</ele>
        <time>2024-05-28T11:41:21Z</time>
      </trkpt>
      <trkpt lat="47.12571" lon="5.81047">
        <ele>304.6</ele>
        <time>2024-05-28T11:41:22Z</time>
      </trkpt>
      <trkpt lat="47.1257" lon="5.81046">
        <ele>304.8</ele>
        <time>2024-05-28T11:41:23Z</time>
      </trkpt>
      <trkpt lat="47.12568" lon="5.81044">
        <ele>304.8</ele>
        <time>2024-05-28T11:41:24Z</time>
      </trkpt>
      <trkpt lat="47.12566" lon="5.81044">
        <ele>305</ele>
        <time>2024-05-28T11:41:25Z</time>
      </trkpt>
      <trkpt lat="47.12565" lon="5.81043">
        <ele>305</ele>
        <time>2024-05-28T11:41:26Z</time>
      </trkpt>
      <trkpt lat="47.12563" lon="5.81043">
        <ele>305.2</ele>
        <time>2024-05-28T11:41:27Z</time>
      </trkpt>
      <trkpt lat="47.12561" lon="5.81043">
        <ele>305.2</ele>
        <time>2024-05-28T11:41:28Z</time>
      </trkpt>
      <trkpt lat="47.12559" lon="5.81043">
        <ele>305.4</ele>
        <time>2024-05-28T11:41:29Z</time>
      </trkpt>
      <trkpt lat="47.12557" lon="5.81042">
        <ele>305.6</ele>
        <time>2024-05-28T11:41:30Z</time>
      </trkpt>
      <trkpt lat="47.12556" lon="5.81041">
        <ele>305.6</ele>
        <time>2024-05-28T11:41:31Z</time>
      </trkpt>
      <trkpt lat="47.12554" lon="5.81039">
        <ele>305.8</ele>
        <time>2024-05-28T11:41:32Z</time>
      </trkpt>
      <trkpt lat="47.12553" lon="5.81037">
        <ele>305.8</ele>
        <time>2024-05-28T11:41:33Z</time>
      </trkpt>
      <trkpt lat="47.12551" lon="5.81036">
        <ele>306</ele>
        <time>2024-05-28T11:41:34Z</time>
      </trkpt>
      <trkpt lat="47.1255" lon="5.81035">
        <ele>306</ele>
        <time>2024-05-28T11:41:35Z</time>
      </trkpt>
      <trkpt lat="47.12549" lon="5.81034">
        <ele>306.2</ele>
        <time>2024-05-28T11:41:36Z</time>
      </trkpt>
      <trkpt lat="47.12548" lon="5.81033">
        <ele>306.2</ele>
        <time>2024-05-28T11:41:37Z</time>
      </trkpt>
      <trkpt lat="47.12546" lon="5.81032">
        <ele>306.2</ele>
        <time>2024-05-28T11:41:38Z</time>
      </trkpt>
      <trkpt lat="47.12545" lon="5.8103">
        <ele>306.4</ele>
        <time>2024-05-28T11:41:39Z</time>
      </trkpt>
      <trkpt lat="47.12544" lon="5.81029">
        <ele>306.6</ele>
        <time>2024-05-28T11:41:40Z</time>
      </trkpt>
      <trkpt lat="47.12542" lon="5.81028">
        <ele>306.6</ele>
        <time>2024-05-28T11:41:41Z</time>
      </trkpt>
      <trkpt lat="47.1254" lon="5.81027">
        <ele>306.8</ele>
        <time>2024-05-28T11:41:42Z</time>
      </trkpt>
      <trkpt lat="47.12538" lon="5.81026">
        <ele>306.8</ele>
        <time>2024-05-28T11:41:43Z</time>
      </trkpt>
      <trkpt lat="47.12536" lon="5.81024">
        <ele>307</ele>
        <time>2024-05-28T11:41:44Z</time>
      </trkpt>
      <trkpt lat="47.12535" lon="5.81023">
        <ele>307</ele>
        <time>2024-05-28T11:41:45Z</time>
      </trkpt>
      <trkpt lat="47.12533" lon="5.81021">
        <ele>307.2</ele>
        <time>2024-05-28T11:41:46Z</time>
      </trkpt>
      <trkpt lat="47.12531" lon="5.81019">
        <ele>307.2</ele>
        <time>2024-05-28T11:41:47Z</time>
      </trkpt>
      <trkpt lat="47.1253" lon="5.81018">
        <ele>307.2</ele>
        <time>2024-05-28T11:41:48Z</time>
      </trkpt>
      <trkpt lat="47.12529" lon="5.81016">
        <ele>307.4</ele>
        <time>2024-05-28T11:41:49Z</time>
      </trkpt>
      <trkpt lat="47.12528" lon="5.81014">
        <ele>307.6</ele>
        <time>2024-05-28T11:41:50Z</time>
      </trkpt>
      <trkpt lat="47.12527" lon="5.81011">
        <ele>307.6</ele>
        <time>2024-05-28T11:41:51Z</time>
      </trkpt>
      <trkpt lat="47.12525" lon="5.81008">
        <ele>307.6</ele>
        <time>2024-05-28T11:41:52Z</time>
      </trkpt>
      <trkpt lat="47.12524" lon="5.81006">
        <ele>307.6</ele>
        <time>2024-05-28T11:41:53Z</time>
      </trkpt>
      <trkpt lat="47.12521" lon="5.81003">
        <ele>307.6</ele>
        <time>2024-05-28T11:41:54Z</time>
      </trkpt>
      <trkpt lat="47.12519" lon="5.81">
        <ele>307.6</ele>
        <time>2024-05-28T11:41:55Z</time>
      </trkpt>
      <trkpt lat="47.12509" lon="5.8099">
        <ele>307.6</ele>
        <time>2024-05-28T11:41:59Z</time>
      </trkpt>
      <trkpt lat="47.12502" lon="5.80983">
        <ele>307.4</ele>
        <time>2024-05-28T11:42:02Z</time>
      </trkpt>
      <trkpt lat="47.125" lon="5.80981">
        <ele>307.4</ele>
        <time>2024-05-28T11:42:03Z</time>
      </trkpt>
      <trkpt lat="47.12485" lon="5.80966">
        <ele>306.8</ele>
        <time>2024-05-28T11:42:09Z</time>
      </trkpt>
      <trkpt lat="47.1248" lon="5.80965">
        <ele>306.6</ele>
        <time>2024-05-28T11:42:11Z</time>
      </trkpt>
      <trkpt lat="47.12478" lon="5.80964">
        <ele>306.6</ele>
        <time>2024-05-28T11:42:12Z</time>
      </trkpt>
      <trkpt lat="47.12476" lon="5.80963">
        <ele>306.4</ele>
        <time>2024-05-28T11:42:13Z</time>
      </trkpt>
      <trkpt lat="47.12474" lon="5.80961">
        <ele>306.4</ele>
        <time>2024-05-28T11:42:14Z</time>
      </trkpt>
      <trkpt lat="47.12472" lon="5.8096">
        <ele>306.2</ele>
        <time>2024-05-28T11:42:15Z</time>
      </trkpt>
      <trkpt lat="47.1247" lon="5.80958">
        <ele>306</ele>
        <time>2024-05-28T11:42:16Z</time>
      </trkpt>
      <trkpt lat="47.12467" lon="5.80957">
        <ele>306</ele>
        <time>2024-05-28T11:42:17Z</time>
      </trkpt>
      <trkpt lat="47.12465" lon="5.80955">
        <ele>306</ele>
        <time>2024-05-28T11:42:18Z</time>
      </trkpt>
      <trkpt lat="47.12464" lon="5.80952">
        <ele>305.8</ele>
        <time>2024-05-28T11:42:19Z</time>
      </trkpt>
      <trkpt lat="47.12463" lon="5.8095">
        <ele>305.8</ele>
        <time>2024-05-28T11:42:20Z</time>
      </trkpt>
      <trkpt lat="47.12461" lon="5.80946">
        <ele>305.6</ele>
        <time>2024-05-28T11:42:21Z</time>
      </trkpt>
      <trkpt lat="47.12459" lon="5.80942">
        <ele>305.6</ele>
        <time>2024-05-28T11:42:22Z</time>
      </trkpt>
      <trkpt lat="47.12454" lon="5.80938">
        <ele>305.4</ele>
        <time>2024-05-28T11:42:23Z</time>
      </trkpt>
      <trkpt lat="47.1245" lon="5.80935">
        <ele>305.2</ele>
        <time>2024-05-28T11:42:24Z</time>
      </trkpt>
      <trkpt lat="47.12445" lon="5.80934">
        <ele>305</ele>
        <time>2024-05-28T11:42:25Z</time>
      </trkpt>
      <trkpt lat="47.1244" lon="5.80933">
        <ele>304.4</ele>
        <time>2024-05-28T11:42:26Z</time>
      </trkpt>
      <trkpt lat="47.12437" lon="5.80932">
        <ele>304.2</ele>
        <time>2024-05-28T11:42:27Z</time>
      </trkpt>
      <trkpt lat="47.12434" lon="5.80931">
        <ele>303.8</ele>
        <time>2024-05-28T11:42:28Z</time>
      </trkpt>
      <trkpt lat="47.1243" lon="5.8093">
        <ele>303.8</ele>
        <time>2024-05-28T11:42:29Z</time>
      </trkpt>
      <trkpt lat="47.12427" lon="5.80929">
        <ele>303.6</ele>
        <time>2024-05-28T11:42:30Z</time>
      </trkpt>
      <trkpt lat="47.12424" lon="5.80929">
        <ele>303.4</ele>
        <time>2024-05-28T11:42:31Z</time>
      </trkpt>
      <trkpt lat="47.12421" lon="5.80929">
        <ele>303.4</ele>
        <time>2024-05-28T11:42:32Z</time>
      </trkpt>
      <trkpt lat="47.12419" lon="5.80928">
        <ele>303.4</ele>
        <time>2024-05-28T11:42:33Z</time>
      </trkpt>
      <trkpt lat="47.12417" lon="5.80929">
        <ele>303.4</ele>
        <time>2024-05-28T11:42:34Z</time>
      </trkpt>
      <trkpt lat="47.12414" lon="5.80929">
        <ele>303.4</ele>
        <time>2024-05-28T11:42:35Z</time>
      </trkpt>
      <trkpt lat="47.12412" lon="5.80927">
        <ele>303.4</ele>
        <time>2024-05-28T11:42:36Z</time>
      </trkpt>
      <trkpt lat="47.12409" lon="5.80926">
        <ele>303.4</ele>
        <time>2024-05-28T11:42:37Z</time>
      </trkpt>
      <trkpt lat="47.12405" lon="5.80924">
        <ele>303.4</ele>
        <time>2024-05-28T11:42:38Z</time>
      </trkpt>
      <trkpt lat="47.12398" lon="5.80921">
        <ele>303.6</ele>
        <time>2024-05-28T11:42:41Z</time>
      </trkpt>
      <trkpt lat="47.12395" lon="5.8092">
        <ele>303.6</ele>
        <time>2024-05-28T11:42:42Z</time>
      </trkpt>
      <trkpt lat="47.12389" lon="5.80917">
        <ele>303.8</ele>
        <time>2024-05-28T11:42:45Z</time>
      </trkpt>
      <trkpt lat="47.12378" lon="5.80914">
        <ele>303.8</ele>
        <time>2024-05-28T11:42:50Z</time>
      </trkpt>
      <trkpt lat="47.12375" lon="5.80913">
        <ele>303.8</ele>
        <time>2024-05-28T11:42:51Z</time>
      </trkpt>
      <trkpt lat="47.12372" lon="5.80912">
        <ele>303.8</ele>
        <time>2024-05-28T11:42:52Z</time>
      </trkpt>
      <trkpt lat="47.1237" lon="5.80911">
        <ele>303.8</ele>
        <time>2024-05-28T11:42:53Z</time>
      </trkpt>
      <trkpt lat="47.12368" lon="5.8091">
        <ele>304</ele>
        <time>2024-05-28T11:42:54Z</time>
      </trkpt>
      <trkpt lat="47.12364" lon="5.80908">
        <ele>304</ele>
        <time>2024-05-28T11:42:56Z</time>
      </trkpt>
      <trkpt lat="47.12361" lon="5.80907">
        <ele>304</ele>
        <time>2024-05-28T11:42:57Z</time>
      </trkpt>
      <trkpt lat="47.12347" lon="5.80901">
        <ele>303.8</ele>
        <time>2024-05-28T11:43:02Z</time>
      </trkpt>
      <trkpt lat="47.12345" lon="5.809">
        <ele>303.8</ele>
        <time>2024-05-28T11:43:03Z</time>
      </trkpt>
      <trkpt lat="47.12342" lon="5.80899">
        <ele>303.6</ele>
        <time>2024-05-28T11:43:04Z</time>
      </trkpt>
      <trkpt lat="47.12339" lon="5.80898">
        <ele>303.6</ele>
        <time>2024-05-28T11:43:05Z</time>
      </trkpt>
      <trkpt lat="47.12336" lon="5.80898">
        <ele>303.6</ele>
        <time>2024-05-28T11:43:06Z</time>
      </trkpt>
      <trkpt lat="47.1233" lon="5.80898">
        <ele>303.6</ele>
        <time>2024-05-28T11:43:08Z</time>
      </trkpt>
      <trkpt lat="47.12328" lon="5.80899">
        <ele>303.6</ele>
        <time>2024-05-28T11:43:09Z</time>
      </trkpt>
      <trkpt lat="47.12325" lon="5.80898">
        <ele>303.6</ele>
        <time>2024-05-28T11:43:10Z</time>
      </trkpt>
      <trkpt lat="47.12324" lon="5.80898">
        <ele>303.6</ele>
        <time>2024-05-28T11:43:11Z</time>
      </trkpt>
      <trkpt lat="47.12323" lon="5.80898">
        <ele>303.6</ele>
        <time>2024-05-28T11:43:12Z</time>
      </trkpt>
      <trkpt lat="47.12322" lon="5.80897">
        <ele>303.8</ele>
        <time>2024-05-28T11:43:13Z</time>
      </trkpt>
      <trkpt lat="47.1232" lon="5.80894">
        <ele>304</ele>
        <time>2024-05-28T11:43:14Z</time>
      </trkpt>
      <trkpt lat="47.12318" lon="5.80892">
        <ele>304</ele>
        <time>2024-05-28T11:43:15Z</time>
      </trkpt>
      <trkpt lat="47.12317" lon="5.8089">
        <ele>304.2</ele>
        <time>2024-05-28T11:43:16Z</time>
      </trkpt>
      <trkpt lat="47.12316" lon="5.80887">
        <ele>304.2</ele>
        <time>2024-05-28T11:43:17Z</time>
      </trkpt>
      <trkpt lat="47.12313" lon="5.80885">
        <ele>304.4</ele>
        <time>2024-05-28T11:43:18Z</time>
      </trkpt>
      <trkpt lat="47.12311" lon="5.80884">
        <ele>304.4</ele>
        <time>2024-05-28T11:43:19Z</time>
      </trkpt>
      <trkpt lat="47.12308" lon="5.80883">
        <ele>304.4</ele>
        <time>2024-05-28T11:43:20Z</time>
      </trkpt>
      <trkpt lat="47.12307" lon="5.80883">
        <ele>304.4</ele>
        <time>2024-05-28T11:43:21Z</time>
      </trkpt>
      <trkpt lat="47.12305" lon="5.80882">
        <ele>304.4</ele>
        <time>2024-05-28T11:43:22Z</time>
      </trkpt>
      <trkpt lat="47.12301" lon="5.80881">
        <ele>304.2</ele>
        <time>2024-05-28T11:43:24Z</time>
      </trkpt>
      <trkpt lat="47.12299" lon="5.80881">
        <ele>304.2</ele>
        <time>2024-05-28T11:43:25Z</time>
      </trkpt>
      <trkpt lat="47.12298" lon="5.8088">
        <ele>304.2</ele>
        <time>2024-05-28T11:43:26Z</time>
      </trkpt>
      <trkpt lat="47.12295" lon="5.80879">
        <ele>304.2</ele>
        <time>2024-05-28T11:43:28Z</time>
      </trkpt>
      <trkpt lat="47.12293" lon="5.80879">
        <ele>304.2</ele>
        <time>2024-05-28T11:43:29Z</time>
      </trkpt>
      <trkpt lat="47.12291" lon="5.80879">
        <ele>304.2</ele>
        <time>2024-05-28T11:43:30Z</time>
      </trkpt>
      <trkpt lat="47.12289" lon="5.80878">
        <ele>304.2</ele>
        <time>2024-05-28T11:43:31Z</time>
      </trkpt>
      <trkpt lat="47.12288" lon="5.80878">
        <ele>304.4</ele>
        <time>2024-05-28T11:43:32Z</time>
      </trkpt>
      <trkpt lat="47.12288" lon="5.80878">
        <ele>304.4</ele>
        <time>2024-05-28T11:43:33Z</time>
      </trkpt>
      <trkpt lat="47.12288" lon="5.80878">
        <ele>304.4</ele>
        <time>2024-05-28T11:43:34Z</time>
      </trkpt>
      <trkpt lat="47.12279" lon="5.80874">
        <ele>304.8</ele>
        <time>2024-05-28T11:43:40Z</time>
      </trkpt>
      <trkpt lat="47.12267" lon="5.80869">
        <ele>305</ele>
        <time>2024-05-28T11:43:46Z</time>
      </trkpt>
      <trkpt lat="47.12252" lon="5.80862">
        <ele>305.4</ele>
        <time>2024-05-28T11:43:54Z</time>
      </trkpt>
      <trkpt lat="47.12251" lon="5.80863">
        <ele>305.4</ele>
        <time>2024-05-28T11:43:55Z</time>
      </trkpt>
      <trkpt lat="47.12249" lon="5.80864">
        <ele>305.6</ele>
        <time>2024-05-28T11:43:56Z</time>
      </trkpt>
      <trkpt lat="47.12249" lon="5.80866">
        <ele>305.6</ele>
        <time>2024-05-28T11:43:57Z</time>
      </trkpt>
      <trkpt lat="47.12248" lon="5.80868">
        <ele>305.6</ele>
        <time>2024-05-28T11:43:58Z</time>
      </trkpt>
      <trkpt lat="47.12248" lon="5.80869">
        <ele>306</ele>
        <time>2024-05-28T11:43:59Z</time>
      </trkpt>
      <trkpt lat="47.12248" lon="5.80869">
        <ele>306</ele>
        <time>2024-05-28T11:44:02Z</time>
      </trkpt>
      <trkpt lat="47.12248" lon="5.8087">
        <ele>306</ele>
        <time>2024-05-28T11:44:33Z</time>
      </trkpt>
      <trkpt lat="47.12247" lon="5.80876">
        <ele>306</ele>
        <time>2024-05-28T11:44:35Z</time>
      </trkpt>
      <trkpt lat="47.12245" lon="5.80885">
        <ele>305.8</ele>
        <time>2024-05-28T11:44:38Z</time>
      </trkpt>
      <trkpt lat="47.12244" lon="5.80887">
        <ele>305.8</ele>
        <time>2024-05-28T11:44:39Z</time>
      </trkpt>
      <trkpt lat="47.12241" lon="5.80893">
        <ele>305.6</ele>
        <time>2024-05-28T11:44:41Z</time>
      </trkpt>
      <trkpt lat="47.12237" lon="5.80896">
        <ele>305</ele>
        <time>2024-05-28T11:44:43Z</time>
      </trkpt>
      <trkpt lat="47.12236" lon="5.80897">
        <ele>304.4</ele>
        <time>2024-05-28T11:44:44Z</time>
      </trkpt>
      <trkpt lat="47.12234" lon="5.80897">
        <ele>304.2</ele>
        <time>2024-05-28T11:44:45Z</time>
      </trkpt>
      <trkpt lat="47.12231" lon="5.80898">
        <ele>303.8</ele>
        <time>2024-05-28T11:44:46Z</time>
      </trkpt>
      <trkpt lat="47.12228" lon="5.80899">
        <ele>303.6</ele>
        <time>2024-05-28T11:44:47Z</time>
      </trkpt>
      <trkpt lat="47.12221" lon="5.809">
        <ele>303</ele>
        <time>2024-05-28T11:44:49Z</time>
      </trkpt>
      <trkpt lat="47.12218" lon="5.80901">
        <ele>302.6</ele>
        <time>2024-05-28T11:44:50Z</time>
      </trkpt>
      <trkpt lat="47.12216" lon="5.80902">
        <ele>302</ele>
        <time>2024-05-28T11:44:51Z</time>
      </trkpt>
      <trkpt lat="47.12213" lon="5.80903">
        <ele>301.8</ele>
        <time>2024-05-28T11:44:52Z</time>
      </trkpt>
      <trkpt lat="47.12209" lon="5.80905">
        <ele>301.4</ele>
        <time>2024-05-28T11:44:53Z</time>
      </trkpt>
      <trkpt lat="47.12202" lon="5.80908">
        <ele>300.6</ele>
        <time>2024-05-28T11:44:55Z</time>
      </trkpt>
      <trkpt lat="47.12195" lon="5.80911">
        <ele>300</ele>
        <time>2024-05-28T11:44:57Z</time>
      </trkpt>
      <trkpt lat="47.12191" lon="5.80912">
        <ele>299.4</ele>
        <time>2024-05-28T11:44:58Z</time>
      </trkpt>
      <trkpt lat="47.12188" lon="5.80914">
        <ele>299</ele>
        <time>2024-05-28T11:44:59Z</time>
      </trkpt>
      <trkpt lat="47.12185" lon="5.80915">
        <ele>298.2</ele>
        <time>2024-05-28T11:45:00Z</time>
      </trkpt>
      <trkpt lat="47.12182" lon="5.80917">
        <ele>297.8</ele>
        <time>2024-05-28T11:45:01Z</time>
      </trkpt>
      <trkpt lat="47.12179" lon="5.80919">
        <ele>296.8</ele>
        <time>2024-05-28T11:45:02Z</time>
      </trkpt>
      <trkpt lat="47.12175" lon="5.80929">
        <ele>296.2</ele>
        <time>2024-05-28T11:45:04Z</time>
      </trkpt>
      <trkpt lat="47.12175" lon="5.80936">
        <ele>296</ele>
        <time>2024-05-28T11:45:05Z</time>
      </trkpt>
      <trkpt lat="47.12174" lon="5.80941">
        <ele>295.6</ele>
        <time>2024-05-28T11:45:06Z</time>
      </trkpt>
      <trkpt lat="47.12175" lon="5.80951">
        <ele>295.2</ele>
        <time>2024-05-28T11:45:08Z</time>
      </trkpt>
      <trkpt lat="47.12175" lon="5.80955">
        <ele>294.6</ele>
        <time>2024-05-28T11:45:09Z</time>
      </trkpt>
      <trkpt lat="47.12175" lon="5.80959">
        <ele>294.6</ele>
        <time>2024-05-28T11:45:10Z</time>
      </trkpt>
      <trkpt lat="47.12175" lon="5.80966">
        <ele>294</ele>
        <time>2024-05-28T11:45:12Z</time>
      </trkpt>
      <trkpt lat="47.12175" lon="5.8097">
        <ele>293.8</ele>
        <time>2024-05-28T11:45:13Z</time>
      </trkpt>
      <trkpt lat="47.12175" lon="5.80973">
        <ele>293.6</ele>
        <time>2024-05-28T11:45:14Z</time>
      </trkpt>
      <trkpt lat="47.12175" lon="5.80976">
        <ele>293.6</ele>
        <time>2024-05-28T11:45:15Z</time>
      </trkpt>
      <trkpt lat="47.12175" lon="5.80979">
        <ele>293.6</ele>
        <time>2024-05-28T11:45:16Z</time>
      </trkpt>
      <trkpt lat="47.12176" lon="5.80984">
        <ele>293.6</ele>
        <time>2024-05-28T11:45:18Z</time>
      </trkpt>
      <trkpt lat="47.12177" lon="5.80988">
        <ele>293.6</ele>
        <time>2024-05-28T11:45:19Z</time>
      </trkpt>
      <trkpt lat="47.12178" lon="5.80991">
        <ele>293.6</ele>
        <time>2024-05-28T11:45:20Z</time>
      </trkpt>
      <trkpt lat="47.12177" lon="5.81012">
        <ele>293.8</ele>
        <time>2024-05-28T11:45:25Z</time>
      </trkpt>
      <trkpt lat="47.12176" lon="5.8102">
        <ele>294.2</ele>
        <time>2024-05-28T11:45:27Z</time>
      </trkpt>
      <trkpt lat="47.12176" lon="5.81048">
        <ele>295</ele>
        <time>2024-05-28T11:45:35Z</time>
      </trkpt>
      <trkpt lat="47.12176" lon="5.81059">
        <ele>295.6</ele>
        <time>2024-05-28T11:45:38Z</time>
      </trkpt>
      <trkpt lat="47.12173" lon="5.81083">
        <ele>296.6</ele>
        <time>2024-05-28T11:45:44Z</time>
      </trkpt>
      <trkpt lat="47.12171" lon="5.8109">
        <ele>296.8</ele>
        <time>2024-05-28T11:45:46Z</time>
      </trkpt>
      <trkpt lat="47.12168" lon="5.81103">
        <ele>297.2</ele>
        <time>2024-05-28T11:45:50Z</time>
      </trkpt>
      <trkpt lat="47.12167" lon="5.81106">
        <ele>297.4</ele>
        <time>2024-05-28T11:45:51Z</time>
      </trkpt>
      <trkpt lat="47.12166" lon="5.81108">
        <ele>297.4</ele>
        <time>2024-05-28T11:45:52Z</time>
      </trkpt>
      <trkpt lat="47.12166" lon="5.81111">
        <ele>297.4</ele>
        <time>2024-05-28T11:45:53Z</time>
      </trkpt>
      <trkpt lat="47.12165" lon="5.81113">
        <ele>297.4</ele>
        <time>2024-05-28T11:45:54Z</time>
      </trkpt>
      <trkpt lat="47.12164" lon="5.81116">
        <ele>297.4</ele>
        <time>2024-05-28T11:45:55Z</time>
      </trkpt>
      <trkpt lat="47.12163" lon="5.81119">
        <ele>297.4</ele>
        <time>2024-05-28T11:45:56Z</time>
      </trkpt>
      <trkpt lat="47.12163" lon="5.81123">
        <ele>297.4</ele>
        <time>2024-05-28T11:45:57Z</time>
      </trkpt>
      <trkpt lat="47.12162" lon="5.81127">
        <ele>297.4</ele>
        <time>2024-05-28T11:45:58Z</time>
      </trkpt>
      <trkpt lat="47.12161" lon="5.81131">
        <ele>297.4</ele>
        <time>2024-05-28T11:45:59Z</time>
      </trkpt>
      <trkpt lat="47.12158" lon="5.81151">
        <ele>297.2</ele>
        <time>2024-05-28T11:46:04Z</time>
      </trkpt>
      <trkpt lat="47.12144" lon="5.81187">
        <ele>296.8</ele>
        <time>2024-05-28T11:46:12Z</time>
      </trkpt>
      <trkpt lat="47.12122" lon="5.81226">
        <ele>296.2</ele>
        <time>2024-05-28T11:46:21Z</time>
      </trkpt>
      <trkpt lat="47.12119" lon="5.81231">
        <ele>296</ele>
        <time>2024-05-28T11:46:22Z</time>
      </trkpt>
      <trkpt lat="47.12107" lon="5.8125">
        <ele>295.6</ele>
        <time>2024-05-28T11:46:26Z</time>
      </trkpt>
      <trkpt lat="47.12101" lon="5.8126">
        <ele>295.4</ele>
        <time>2024-05-28T11:46:28Z</time>
      </trkpt>
      <trkpt lat="47.12079" lon="5.81283">
        <ele>294.6</ele>
        <time>2024-05-28T11:46:33Z</time>
      </trkpt>
      <trkpt lat="47.12074" lon="5.81288">
        <ele>294.4</ele>
        <time>2024-05-28T11:46:34Z</time>
      </trkpt>
      <trkpt lat="47.12049" lon="5.8132">
        <ele>293.4</ele>
        <time>2024-05-28T11:46:40Z</time>
      </trkpt>
      <trkpt lat="47.12028" lon="5.81365">
        <ele>292.2</ele>
        <time>2024-05-28T11:46:47Z</time>
      </trkpt>
      <trkpt lat="47.12026" lon="5.81371">
        <ele>292.2</ele>
        <time>2024-05-28T11:46:48Z</time>
      </trkpt>
      <trkpt lat="47.12023" lon="5.81378">
        <ele>292.2</ele>
        <time>2024-05-28T11:46:49Z</time>
      </trkpt>
      <trkpt lat="47.1202" lon="5.81384">
        <ele>292.2</ele>
        <time>2024-05-28T11:46:50Z</time>
      </trkpt>
      <trkpt lat="47.12015" lon="5.81397">
        <ele>292</ele>
        <time>2024-05-28T11:46:52Z</time>
      </trkpt>
      <trkpt lat="47.11991" lon="5.81451">
        <ele>291.2</ele>
        <time>2024-05-28T11:47:00Z</time>
      </trkpt>
      <trkpt lat="47.11988" lon="5.81458">
        <ele>291</ele>
        <time>2024-05-28T11:47:01Z</time>
      </trkpt>
      <trkpt lat="47.11978" lon="5.81478">
        <ele>290.2</ele>
        <time>2024-05-28T11:47:04Z</time>
      </trkpt>
      <trkpt lat="47.11974" lon="5.81485">
        <ele>290</ele>
        <time>2024-05-28T11:47:05Z</time>
      </trkpt>
      <trkpt lat="47.11955" lon="5.81522">
        <ele>289.2</ele>
        <time>2024-05-28T11:47:11Z</time>
      </trkpt>
      <trkpt lat="47.11952" lon="5.81528">
        <ele>289</ele>
        <time>2024-05-28T11:47:12Z</time>
      </trkpt>
      <trkpt lat="47.1195" lon="5.81534">
        <ele>289</ele>
        <time>2024-05-28T11:47:13Z</time>
      </trkpt>
      <trkpt lat="47.11947" lon="5.81539">
        <ele>288.8</ele>
        <time>2024-05-28T11:47:14Z</time>
      </trkpt>
      <trkpt lat="47.11945" lon="5.81544">
        <ele>288.8</ele>
        <time>2024-05-28T11:47:15Z</time>
      </trkpt>
      <trkpt lat="47.11942" lon="5.8155">
        <ele>288.6</ele>
        <time>2024-05-28T11:47:16Z</time>
      </trkpt>
      <trkpt lat="47.1194" lon="5.81555">
        <ele>288.6</ele>
        <time>2024-05-28T11:47:17Z</time>
      </trkpt>
      <trkpt lat="47.11937" lon="5.8156">
        <ele>288.6</ele>
        <time>2024-05-28T11:47:18Z</time>
      </trkpt>
      <trkpt lat="47.11935" lon="5.81565">
        <ele>288.6</ele>
        <time>2024-05-28T11:47:19Z</time>
      </trkpt>
      <trkpt lat="47.1192" lon="5.81601">
        <ele>288.4</ele>
        <time>2024-05-28T11:47:25Z</time>
      </trkpt>
      <trkpt lat="47.11906" lon="5.81634">
        <ele>287.8</ele>
        <time>2024-05-28T11:47:30Z</time>
      </trkpt>
      <trkpt lat="47.11901" lon="5.81647">
        <ele>287.8</ele>
        <time>2024-05-28T11:47:32Z</time>
      </trkpt>
      <trkpt lat="47.11874" lon="5.81688">
        <ele>287.8</ele>
        <time>2024-05-28T11:47:39Z</time>
      </trkpt>
      <trkpt lat="47.11838" lon="5.8173">
        <ele>286.8</ele>
        <time>2024-05-28T11:47:46Z</time>
      </trkpt>
      <trkpt lat="47.11814" lon="5.81754">
        <ele>286.2</ele>
        <time>2024-05-28T11:47:50Z</time>
      </trkpt>
      <trkpt lat="47.11808" lon="5.81762">
        <ele>286</ele>
        <time>2024-05-28T11:47:51Z</time>
      </trkpt>
      <trkpt lat="47.11803" lon="5.8177">
        <ele>285.8</ele>
        <time>2024-05-28T11:47:52Z</time>
      </trkpt>
      <trkpt lat="47.11793" lon="5.81789">
        <ele>285.2</ele>
        <time>2024-05-28T11:47:54Z</time>
      </trkpt>
      <trkpt lat="47.1179" lon="5.81799">
        <ele>284.6</ele>
        <time>2024-05-28T11:47:55Z</time>
      </trkpt>
      <trkpt lat="47.11786" lon="5.81809">
        <ele>284.2</ele>
        <time>2024-05-28T11:47:56Z</time>
      </trkpt>
      <trkpt lat="47.11783" lon="5.81819">
        <ele>283.8</ele>
        <time>2024-05-28T11:47:57Z</time>
      </trkpt>
      <trkpt lat="47.1178" lon="5.81829">
        <ele>283.6</ele>
        <time>2024-05-28T11:47:58Z</time>
      </trkpt>
      <trkpt lat="47.11773" lon="5.81845">
        <ele>283.2</ele>
        <time>2024-05-28T11:48:00Z</time>
      </trkpt>
      <trkpt lat="47.1177" lon="5.81852">
        <ele>283.2</ele>
        <time>2024-05-28T11:48:01Z</time>
      </trkpt>
      <trkpt lat="47.11766" lon="5.81857">
        <ele>283.2</ele>
        <time>2024-05-28T11:48:02Z</time>
      </trkpt>
      <trkpt lat="47.11762" lon="5.81862">
        <ele>283.2</ele>
        <time>2024-05-28T11:48:03Z</time>
      </trkpt>
      <trkpt lat="47.11757" lon="5.81865">
        <ele>283.2</ele>
        <time>2024-05-28T11:48:04Z</time>
      </trkpt>
      <trkpt lat="47.11753" lon="5.81868">
        <ele>283.2</ele>
        <time>2024-05-28T11:48:05Z</time>
      </trkpt>
      <trkpt lat="47.11749" lon="5.81871">
        <ele>283.4</ele>
        <time>2024-05-28T11:48:06Z</time>
      </trkpt>
      <trkpt lat="47.11746" lon="5.81873">
        <ele>283.4</ele>
        <time>2024-05-28T11:48:07Z</time>
      </trkpt>
      <trkpt lat="47.11743" lon="5.81876">
        <ele>283.8</ele>
        <time>2024-05-28T11:48:08Z</time>
      </trkpt>
      <trkpt lat="47.1174" lon="5.81879">
        <ele>284</ele>
        <time>2024-05-28T11:48:09Z</time>
      </trkpt>
      <trkpt lat="47.11736" lon="5.8188">
        <ele>284</ele>
        <time>2024-05-28T11:48:10Z</time>
      </trkpt>
      <trkpt lat="47.11732" lon="5.8188">
        <ele>284.2</ele>
        <time>2024-05-28T11:48:11Z</time>
      </trkpt>
      <trkpt lat="47.11729" lon="5.81878">
        <ele>284.4</ele>
        <time>2024-05-28T11:48:12Z</time>
      </trkpt>
      <trkpt lat="47.11725" lon="5.81875">
        <ele>284.6</ele>
        <time>2024-05-28T11:48:13Z</time>
      </trkpt>
      <trkpt lat="47.11718" lon="5.81868">
        <ele>284.8</ele>
        <time>2024-05-28T11:48:15Z</time>
      </trkpt>
      <trkpt lat="47.11714" lon="5.81864">
        <ele>285</ele>
        <time>2024-05-28T11:48:16Z</time>
      </trkpt>
      <trkpt lat="47.11702" lon="5.81852">
        <ele>285</ele>
        <time>2024-05-28T11:48:19Z</time>
      </trkpt>
      <trkpt lat="47.11698" lon="5.81848">
        <ele>285</ele>
        <time>2024-05-28T11:48:20Z</time>
      </trkpt>
      <trkpt lat="47.11657" lon="5.81812">
        <ele>284</ele>
        <time>2024-05-28T11:48:29Z</time>
      </trkpt>
      <trkpt lat="47.11632" lon="5.81791">
        <ele>283.6</ele>
        <time>2024-05-28T11:48:34Z</time>
      </trkpt>
      <trkpt lat="47.11612" lon="5.81775">
        <ele>283.6</ele>
        <time>2024-05-28T11:48:38Z</time>
      </trkpt>
      <trkpt lat="47.11601" lon="5.81768">
        <ele>283.6</ele>
        <time>2024-05-28T11:48:40Z</time>
      </trkpt>
      <trkpt lat="47.1159" lon="5.81766">
        <ele>284</ele>
        <time>2024-05-28T11:48:42Z</time>
      </trkpt>
      <trkpt lat="47.11585" lon="5.81767">
        <ele>284</ele>
        <time>2024-05-28T11:48:43Z</time>
      </trkpt>
      <trkpt lat="47.11579" lon="5.8177">
        <ele>284</ele>
        <time>2024-05-28T11:48:44Z</time>
      </trkpt>
      <trkpt lat="47.11575" lon="5.81774">
        <ele>284.2</ele>
        <time>2024-05-28T11:48:45Z</time>
      </trkpt>
      <trkpt lat="47.11571" lon="5.81778">
        <ele>284</ele>
        <time>2024-05-28T11:48:46Z</time>
      </trkpt>
      <trkpt lat="47.11567" lon="5.81783">
        <ele>284.2</ele>
        <time>2024-05-28T11:48:47Z</time>
      </trkpt>
      <trkpt lat="47.11563" lon="5.81787">
        <ele>284.2</ele>
        <time>2024-05-28T11:48:48Z</time>
      </trkpt>
      <trkpt lat="47.11556" lon="5.81796">
        <ele>284.4</ele>
        <time>2024-05-28T11:48:50Z</time>
      </trkpt>
      <trkpt lat="47.11553" lon="5.818">
        <ele>284.6</ele>
        <time>2024-05-28T11:48:51Z</time>
      </trkpt>
      <trkpt lat="47.1155" lon="5.81805">
        <ele>284.8</ele>
        <time>2024-05-28T11:48:52Z</time>
      </trkpt>
      <trkpt lat="47.11546" lon="5.81809">
        <ele>285</ele>
        <time>2024-05-28T11:48:53Z</time>
      </trkpt>
      <trkpt lat="47.11544" lon="5.81814">
        <ele>285.2</ele>
        <time>2024-05-28T11:48:54Z</time>
      </trkpt>
      <trkpt lat="47.11541" lon="5.81818">
        <ele>285.2</ele>
        <time>2024-05-28T11:48:55Z</time>
      </trkpt>
      <trkpt lat="47.11538" lon="5.81823">
        <ele>285.4</ele>
        <time>2024-05-28T11:48:56Z</time>
      </trkpt>
      <trkpt lat="47.11535" lon="5.81828">
        <ele>285.4</ele>
        <time>2024-05-28T11:48:57Z</time>
      </trkpt>
      <trkpt lat="47.11533" lon="5.81834">
        <ele>285.6</ele>
        <time>2024-05-28T11:48:58Z</time>
      </trkpt>
      <trkpt lat="47.1153" lon="5.81839">
        <ele>285.6</ele>
        <time>2024-05-28T11:48:59Z</time>
      </trkpt>
      <trkpt lat="47.11525" lon="5.81852">
        <ele>285.8</ele>
        <time>2024-05-28T11:49:01Z</time>
      </trkpt>
      <trkpt lat="47.11509" lon="5.81897">
        <ele>286</ele>
        <time>2024-05-28T11:49:07Z</time>
      </trkpt>
      <trkpt lat="47.11501" lon="5.81912">
        <ele>285.8</ele>
        <time>2024-05-28T11:49:09Z</time>
      </trkpt>
      <trkpt lat="47.11488" lon="5.81931">
        <ele>285.4</ele>
        <time>2024-05-28T11:49:12Z</time>
      </trkpt>
      <trkpt lat="47.11476" lon="5.81946">
        <ele>285.4</ele>
        <time>2024-05-28T11:49:15Z</time>
      </trkpt>
      <trkpt lat="47.11472" lon="5.8195">
        <ele>285.4</ele>
        <time>2024-05-28T11:49:16Z</time>
      </trkpt>
      <trkpt lat="47.11468" lon="5.81954">
        <ele>285.4</ele>
        <time>2024-05-28T11:49:17Z</time>
      </trkpt>
      <trkpt lat="47.11464" lon="5.81958">
        <ele>285.4</ele>
        <time>2024-05-28T11:49:18Z</time>
      </trkpt>
      <trkpt lat="47.11461" lon="5.81961">
        <ele>285.6</ele>
        <time>2024-05-28T11:49:19Z</time>
      </trkpt>
      <trkpt lat="47.11457" lon="5.81965">
        <ele>285.8</ele>
        <time>2024-05-28T11:49:20Z</time>
      </trkpt>
      <trkpt lat="47.11453" lon="5.81968">
        <ele>286</ele>
        <time>2024-05-28T11:49:21Z</time>
      </trkpt>
      <trkpt lat="47.11446" lon="5.81974">
        <ele>286.8</ele>
        <time>2024-05-28T11:49:23Z</time>
      </trkpt>
      <trkpt lat="47.11443" lon="5.81978">
        <ele>287</ele>
        <time>2024-05-28T11:49:24Z</time>
      </trkpt>
      <trkpt lat="47.11439" lon="5.81982">
        <ele>287.2</ele>
        <time>2024-05-28T11:49:25Z</time>
      </trkpt>
      <trkpt lat="47.11436" lon="5.81986">
        <ele>287.6</ele>
        <time>2024-05-28T11:49:26Z</time>
      </trkpt>
      <trkpt lat="47.11433" lon="5.81989">
        <ele>287.8</ele>
        <time>2024-05-28T11:49:27Z</time>
      </trkpt>
      <trkpt lat="47.1143" lon="5.81993">
        <ele>288</ele>
        <time>2024-05-28T11:49:28Z</time>
      </trkpt>
      <trkpt lat="47.11427" lon="5.81997">
        <ele>288.2</ele>
        <time>2024-05-28T11:49:29Z</time>
      </trkpt>
      <trkpt lat="47.11424" lon="5.82001">
        <ele>288.2</ele>
        <time>2024-05-28T11:49:30Z</time>
      </trkpt>
      <trkpt lat="47.11421" lon="5.82005">
        <ele>288.4</ele>
        <time>2024-05-28T11:49:31Z</time>
      </trkpt>
      <trkpt lat="47.11418" lon="5.82009">
        <ele>288.4</ele>
        <time>2024-05-28T11:49:32Z</time>
      </trkpt>
      <trkpt lat="47.11415" lon="5.82013">
        <ele>288.8</ele>
        <time>2024-05-28T11:49:33Z</time>
      </trkpt>
      <trkpt lat="47.11411" lon="5.82017">
        <ele>288.8</ele>
        <time>2024-05-28T11:49:34Z</time>
      </trkpt>
      <trkpt lat="47.11408" lon="5.8202">
        <ele>289</ele>
        <time>2024-05-28T11:49:35Z</time>
      </trkpt>
      <trkpt lat="47.11404" lon="5.82024">
        <ele>289</ele>
        <time>2024-05-28T11:49:36Z</time>
      </trkpt>
      <trkpt lat="47.11401" lon="5.82027">
        <ele>289</ele>
        <time>2024-05-28T11:49:37Z</time>
      </trkpt>
      <trkpt lat="47.11397" lon="5.8203">
        <ele>289.2</ele>
        <time>2024-05-28T11:49:38Z</time>
      </trkpt>
      <trkpt lat="47.11393" lon="5.82033">
        <ele>289.2</ele>
        <time>2024-05-28T11:49:39Z</time>
      </trkpt>
      <trkpt lat="47.11389" lon="5.82035">
        <ele>289.2</ele>
        <time>2024-05-28T11:49:40Z</time>
      </trkpt>
      <trkpt lat="47.11384" lon="5.82037">
        <ele>289.2</ele>
        <time>2024-05-28T11:49:41Z</time>
      </trkpt>
      <trkpt lat="47.1138" lon="5.82039">
        <ele>289.2</ele>
        <time>2024-05-28T11:49:42Z</time>
      </trkpt>
      <trkpt lat="47.11376" lon="5.82042">
        <ele>289.2</ele>
        <time>2024-05-28T11:49:43Z</time>
      </trkpt>
      <trkpt lat="47.11372" lon="5.82044">
        <ele>289.2</ele>
        <time>2024-05-28T11:49:44Z</time>
      </trkpt>
      <trkpt lat="47.11368" lon="5.82046">
        <ele>289.4</ele>
        <time>2024-05-28T11:49:45Z</time>
      </trkpt>
      <trkpt lat="47.11364" lon="5.82049">
        <ele>289.4</ele>
        <time>2024-05-28T11:49:46Z</time>
      </trkpt>
      <trkpt lat="47.1136" lon="5.82051">
        <ele>289.6</ele>
        <time>2024-05-28T11:49:47Z</time>
      </trkpt>
      <trkpt lat="47.11357" lon="5.82054">
        <ele>289.6</ele>
        <time>2024-05-28T11:49:48Z</time>
      </trkpt>
      <trkpt lat="47.11353" lon="5.82058">
        <ele>290</ele>
        <time>2024-05-28T11:49:49Z</time>
      </trkpt>
      <trkpt lat="47.1135" lon="5.82061">
        <ele>290.2</ele>
        <time>2024-05-28T11:49:50Z</time>
      </trkpt>
      <trkpt lat="47.11347" lon="5.82065">
        <ele>290.6</ele>
        <time>2024-05-28T11:49:51Z</time>
      </trkpt>
      <trkpt lat="47.11344" lon="5.82068">
        <ele>290.6</ele>
        <time>2024-05-28T11:49:52Z</time>
      </trkpt>
      <trkpt lat="47.11342" lon="5.82072">
        <ele>290.8</ele>
        <time>2024-05-28T11:49:53Z</time>
      </trkpt>
      <trkpt lat="47.11339" lon="5.82075">
        <ele>291</ele>
        <time>2024-05-28T11:49:54Z</time>
      </trkpt>
      <trkpt lat="47.11337" lon="5.82078">
        <ele>291</ele>
        <time>2024-05-28T11:49:55Z</time>
      </trkpt>
      <trkpt lat="47.11334" lon="5.82081">
        <ele>291.2</ele>
        <time>2024-05-28T11:49:56Z</time>
      </trkpt>
      <trkpt lat="47.11332" lon="5.82084">
        <ele>291.4</ele>
        <time>2024-05-28T11:49:57Z</time>
      </trkpt>
      <trkpt lat="47.1133" lon="5.82087">
        <ele>291.8</ele>
        <time>2024-05-28T11:49:58Z</time>
      </trkpt>
      <trkpt lat="47.11327" lon="5.8209">
        <ele>292</ele>
        <time>2024-05-28T11:49:59Z</time>
      </trkpt>
      <trkpt lat="47.11325" lon="5.82093">
        <ele>292.2</ele>
        <time>2024-05-28T11:50:00Z</time>
      </trkpt>
      <trkpt lat="47.11322" lon="5.82097">
        <ele>292.2</ele>
        <time>2024-05-28T11:50:01Z</time>
      </trkpt>
      <trkpt lat="47.11319" lon="5.821">
        <ele>292.2</ele>
        <time>2024-05-28T11:50:02Z</time>
      </trkpt>
      <trkpt lat="47.11316" lon="5.82104">
        <ele>292.2</ele>
        <time>2024-05-28T11:50:03Z</time>
      </trkpt>
      <trkpt lat="47.11313" lon="5.82108">
        <ele>292.2</ele>
        <time>2024-05-28T11:50:04Z</time>
      </trkpt>
      <trkpt lat="47.1131" lon="5.82112">
        <ele>292.2</ele>
        <time>2024-05-28T11:50:05Z</time>
      </trkpt>
      <trkpt lat="47.11306" lon="5.82116">
        <ele>292.2</ele>
        <time>2024-05-28T11:50:06Z</time>
      </trkpt>
      <trkpt lat="47.11303" lon="5.82121">
        <ele>292.2</ele>
        <time>2024-05-28T11:50:07Z</time>
      </trkpt>
      <trkpt lat="47.113" lon="5.82125">
        <ele>292.2</ele>
        <time>2024-05-28T11:50:08Z</time>
      </trkpt>
      <trkpt lat="47.11296" lon="5.8213">
        <ele>292</ele>
        <time>2024-05-28T11:50:09Z</time>
      </trkpt>
      <trkpt lat="47.11293" lon="5.82134">
        <ele>291.8</ele>
        <time>2024-05-28T11:50:10Z</time>
      </trkpt>
      <trkpt lat="47.11289" lon="5.82139">
        <ele>291.8</ele>
        <time>2024-05-28T11:50:11Z</time>
      </trkpt>
      <trkpt lat="47.11285" lon="5.82143">
        <ele>291.6</ele>
        <time>2024-05-28T11:50:12Z</time>
      </trkpt>
      <trkpt lat="47.1128" lon="5.82148">
        <ele>291.6</ele>
        <time>2024-05-28T11:50:13Z</time>
      </trkpt>
      <trkpt lat="47.11275" lon="5.82153">
        <ele>291.4</ele>
        <time>2024-05-28T11:50:14Z</time>
      </trkpt>
      <trkpt lat="47.11267" lon="5.82169">
        <ele>290.8</ele>
        <time>2024-05-28T11:50:16Z</time>
      </trkpt>
      <trkpt lat="47.1126" lon="5.82188">
        <ele>290.2</ele>
        <time>2024-05-28T11:50:18Z</time>
      </trkpt>
      <trkpt lat="47.11256" lon="5.82195">
        <ele>289.8</ele>
        <time>2024-05-28T11:50:19Z</time>
      </trkpt>
      <trkpt lat="47.11253" lon="5.82203">
        <ele>289.2</ele>
        <time>2024-05-28T11:50:20Z</time>
      </trkpt>
      <trkpt lat="47.11249" lon="5.8221">
        <ele>288.4</ele>
        <time>2024-05-28T11:50:21Z</time>
      </trkpt>
      <trkpt lat="47.11245" lon="5.82216">
        <ele>288</ele>
        <time>2024-05-28T11:50:22Z</time>
      </trkpt>
      <trkpt lat="47.11242" lon="5.82221">
        <ele>287</ele>
        <time>2024-05-28T11:50:23Z</time>
      </trkpt>
      <trkpt lat="47.11238" lon="5.82226">
        <ele>286</ele>
        <time>2024-05-28T11:50:24Z</time>
      </trkpt>
      <trkpt lat="47.11234" lon="5.8223">
        <ele>285.4</ele>
        <time>2024-05-28T11:50:25Z</time>
      </trkpt>
      <trkpt lat="47.1123" lon="5.82235">
        <ele>284.2</ele>
        <time>2024-05-28T11:50:26Z</time>
      </trkpt>
      <trkpt lat="47.11227" lon="5.82239">
        <ele>283.8</ele>
        <time>2024-05-28T11:50:27Z</time>
      </trkpt>
      <trkpt lat="47.11224" lon="5.82243">
        <ele>283.2</ele>
        <time>2024-05-28T11:50:28Z</time>
      </trkpt>
      <trkpt lat="47.11222" lon="5.82247">
        <ele>283</ele>
        <time>2024-05-28T11:50:29Z</time>
      </trkpt>
      <trkpt lat="47.11219" lon="5.82252">
        <ele>282.8</ele>
        <time>2024-05-28T11:50:30Z</time>
      </trkpt>
      <trkpt lat="47.11209" lon="5.82262">
        <ele>282.6</ele>
        <time>2024-05-28T11:50:33Z</time>
      </trkpt>
      <trkpt lat="47.11207" lon="5.82263">
        <ele>282.6</ele>
        <time>2024-05-28T11:50:34Z</time>
      </trkpt>
      <trkpt lat="47.11204" lon="5.82264">
        <ele>282.4</ele>
        <time>2024-05-28T11:50:35Z</time>
      </trkpt>
      <trkpt lat="47.11202" lon="5.82265">
        <ele>282.4</ele>
        <time>2024-05-28T11:50:36Z</time>
      </trkpt>
      <trkpt lat="47.11199" lon="5.82265">
        <ele>282.4</ele>
        <time>2024-05-28T11:50:37Z</time>
      </trkpt>
      <trkpt lat="47.11196" lon="5.82266">
        <ele>282.4</ele>
        <time>2024-05-28T11:50:38Z</time>
      </trkpt>
      <trkpt lat="47.11185" lon="5.8227">
        <ele>283.2</ele>
        <time>2024-05-28T11:50:42Z</time>
      </trkpt>
      <trkpt lat="47.11182" lon="5.82271">
        <ele>283.2</ele>
        <time>2024-05-28T11:50:43Z</time>
      </trkpt>
      <trkpt lat="47.1118" lon="5.82272">
        <ele>283.4</ele>
        <time>2024-05-28T11:50:44Z</time>
      </trkpt>
      <trkpt lat="47.11177" lon="5.82273">
        <ele>283.4</ele>
        <time>2024-05-28T11:50:45Z</time>
      </trkpt>
      <trkpt lat="47.1116" lon="5.82283">
        <ele>284.2</ele>
        <time>2024-05-28T11:50:53Z</time>
      </trkpt>
      <trkpt lat="47.11147" lon="5.82294">
        <ele>284.4</ele>
        <time>2024-05-28T11:50:58Z</time>
      </trkpt>
      <trkpt lat="47.11145" lon="5.82297">
        <ele>284.4</ele>
        <time>2024-05-28T11:50:59Z</time>
      </trkpt>
      <trkpt lat="47.1114" lon="5.82301">
        <ele>284.6</ele>
        <time>2024-05-28T11:51:02Z</time>
      </trkpt>
      <trkpt lat="47.11138" lon="5.82303">
        <ele>284.6</ele>
        <time>2024-05-28T11:51:03Z</time>
      </trkpt>
      <trkpt lat="47.11137" lon="5.82306">
        <ele>284.6</ele>
        <time>2024-05-28T11:51:04Z</time>
      </trkpt>
      <trkpt lat="47.1113" lon="5.82312">
        <ele>284.6</ele>
        <time>2024-05-28T11:51:07Z</time>
      </trkpt>
      <trkpt lat="47.11128" lon="5.82314">
        <ele>284.6</ele>
        <time>2024-05-28T11:51:08Z</time>
      </trkpt>
      <trkpt lat="47.11126" lon="5.82316">
        <ele>284.6</ele>
        <time>2024-05-28T11:51:09Z</time>
      </trkpt>
      <trkpt lat="47.1111" lon="5.82335">
        <ele>284.6</ele>
        <time>2024-05-28T11:51:16Z</time>
      </trkpt>
      <trkpt lat="47.11108" lon="5.82337">
        <ele>284.6</ele>
        <time>2024-05-28T11:51:17Z</time>
      </trkpt>
      <trkpt lat="47.11107" lon="5.8234">
        <ele>284.8</ele>
        <time>2024-05-28T11:51:18Z</time>
      </trkpt>
      <trkpt lat="47.11106" lon="5.82343">
        <ele>284.8</ele>
        <time>2024-05-28T11:51:19Z</time>
      </trkpt>
      <trkpt lat="47.11103" lon="5.82347">
        <ele>284.8</ele>
        <time>2024-05-28T11:51:21Z</time>
      </trkpt>
      <trkpt lat="47.11102" lon="5.82349">
        <ele>284.8</ele>
        <time>2024-05-28T11:51:22Z</time>
      </trkpt>
      <trkpt lat="47.111" lon="5.82351">
        <ele>285</ele>
        <time>2024-05-28T11:51:23Z</time>
      </trkpt>
      <trkpt lat="47.11099" lon="5.82353">
        <ele>285</ele>
        <time>2024-05-28T11:51:24Z</time>
      </trkpt>
      <trkpt lat="47.11099" lon="5.82353">
        <ele>284.8</ele>
        <time>2024-05-28T11:51:25Z</time>
      </trkpt>
      <trkpt lat="47.11099" lon="5.82353">
        <ele>284.8</ele>
        <time>2024-05-28T11:51:26Z</time>
      </trkpt>
      <trkpt lat="47.11099" lon="5.82353">
        <ele>284.8</ele>
        <time>2024-05-28T11:51:27Z</time>
      </trkpt>
      <trkpt lat="47.11099" lon="5.82357">
        <ele>284.8</ele>
        <time>2024-05-28T11:51:36Z</time>
      </trkpt>
      <trkpt lat="47.111" lon="5.82361">
        <ele>284.6</ele>
        <time>2024-05-28T11:51:38Z</time>
      </trkpt>
      <trkpt lat="47.111" lon="5.82363">
        <ele>284.6</ele>
        <time>2024-05-28T11:51:39Z</time>
      </trkpt>
      <trkpt lat="47.11102" lon="5.82372">
        <ele>284.4</ele>
        <time>2024-05-28T11:51:42Z</time>
      </trkpt>
      <trkpt lat="47.11102" lon="5.82375">
        <ele>284.4</ele>
        <time>2024-05-28T11:51:43Z</time>
      </trkpt>
      <trkpt lat="47.11102" lon="5.82378">
        <ele>284.2</ele>
        <time>2024-05-28T11:51:44Z</time>
      </trkpt>
      <trkpt lat="47.11103" lon="5.82381">
        <ele>284.2</ele>
        <time>2024-05-28T11:51:45Z</time>
      </trkpt>
      <trkpt lat="47.11105" lon="5.82384">
        <ele>284.2</ele>
        <time>2024-05-28T11:51:46Z</time>
      </trkpt>
      <trkpt lat="47.11108" lon="5.82387">
        <ele>284</ele>
        <time>2024-05-28T11:51:47Z</time>
      </trkpt>
      <trkpt lat="47.11109" lon="5.8239">
        <ele>284</ele>
        <time>2024-05-28T11:51:48Z</time>
      </trkpt>
      <trkpt lat="47.1111" lon="5.82392">
        <ele>284</ele>
        <time>2024-05-28T11:51:49Z</time>
      </trkpt>
      <trkpt lat="47.11112" lon="5.82394">
        <ele>284</ele>
        <time>2024-05-28T11:51:50Z</time>
      </trkpt>
      <trkpt lat="47.11114" lon="5.82399">
        <ele>284</ele>
        <time>2024-05-28T11:51:52Z</time>
      </trkpt>
      <trkpt lat="47.11127" lon="5.8242">
        <ele>284</ele>
        <time>2024-05-28T11:51:58Z</time>
      </trkpt>
      <trkpt lat="47.1113" lon="5.82423">
        <ele>284</ele>
        <time>2024-05-28T11:51:59Z</time>
      </trkpt>
      <trkpt lat="47.11133" lon="5.82427">
        <ele>284.2</ele>
        <time>2024-05-28T11:52:02Z</time>
      </trkpt>
      <trkpt lat="47.11135" lon="5.82428">
        <ele>284.2</ele>
        <time>2024-05-28T11:52:03Z</time>
      </trkpt>
      <trkpt lat="47.11139" lon="5.82431">
        <ele>284.2</ele>
        <time>2024-05-28T11:52:04Z</time>
      </trkpt>
      <trkpt lat="47.11141" lon="5.82433">
        <ele>284.4</ele>
        <time>2024-05-28T11:52:05Z</time>
      </trkpt>
      <trkpt lat="47.11144" lon="5.82435">
        <ele>284.6</ele>
        <time>2024-05-28T11:52:06Z</time>
      </trkpt>
      <trkpt lat="47.11149" lon="5.82439">
        <ele>284.8</ele>
        <time>2024-05-28T11:52:09Z</time>
      </trkpt>
      <trkpt lat="47.1115" lon="5.8244">
        <ele>284.8</ele>
        <time>2024-05-28T11:52:10Z</time>
      </trkpt>
      <trkpt lat="47.11152" lon="5.82443">
        <ele>285.2</ele>
        <time>2024-05-28T11:52:11Z</time>
      </trkpt>
      <trkpt lat="47.11157" lon="5.82446">
        <ele>285.2</ele>
        <time>2024-05-28T11:52:12Z</time>
      </trkpt>
      <trkpt lat="47.11157" lon="5.82447">
        <ele>285.4</ele>
        <time>2024-05-28T11:52:13Z</time>
      </trkpt>
      <trkpt lat="47.11158" lon="5.82448">
        <ele>285.4</ele>
        <time>2024-05-28T11:52:14Z</time>
      </trkpt>
      <trkpt lat="47.11158" lon="5.82448">
        <ele>285.4</ele>
        <time>2024-05-28T11:52:16Z</time>
      </trkpt>
      <trkpt lat="47.11161" lon="5.82449">
        <ele>285.4</ele>
        <time>2024-05-28T11:52:17Z</time>
      </trkpt>
      <trkpt lat="47.11165" lon="5.82452">
        <ele>285.6</ele>
        <time>2024-05-28T11:52:18Z</time>
      </trkpt>
      <trkpt lat="47.11168" lon="5.82455">
        <ele>285.6</ele>
        <time>2024-05-28T11:52:19Z</time>
      </trkpt>
      <trkpt lat="47.1117" lon="5.82457">
        <ele>285.6</ele>
        <time>2024-05-28T11:52:20Z</time>
      </trkpt>
      <trkpt lat="47.11172" lon="5.82459">
        <ele>285.6</ele>
        <time>2024-05-28T11:52:21Z</time>
      </trkpt>
      <trkpt lat="47.11173" lon="5.82459">
        <ele>285.6</ele>
        <time>2024-05-28T11:52:22Z</time>
      </trkpt>
      <trkpt lat="47.11173" lon="5.82459">
        <ele>285.6</ele>
        <time>2024-05-28T11:52:23Z</time>
      </trkpt>
      <trkpt lat="47.11174" lon="5.82459">
        <ele>285.6</ele>
        <time>2024-05-28T11:52:24Z</time>
      </trkpt>
      <trkpt lat="47.11175" lon="5.82461">
        <ele>285.4</ele>
        <time>2024-05-28T11:52:26Z</time>
      </trkpt>
      <trkpt lat="47.11175" lon="5.82461">
        <ele>285.4</ele>
        <time>2024-05-28T11:52:27Z</time>
      </trkpt>
      <trkpt lat="47.11175" lon="5.82461">
        <ele>285.4</ele>
        <time>2024-05-28T11:52:28Z</time>
      </trkpt>
      <trkpt lat="47.11175" lon="5.82461">
        <ele>285.4</ele>
        <time>2024-05-28T11:52:29Z</time>
      </trkpt>
      <trkpt lat="47.11175" lon="5.82461">
        <ele>285.4</ele>
        <time>2024-05-28T11:52:30Z</time>
      </trkpt>
      <trkpt lat="47.11175" lon="5.82461">
        <ele>285.4</ele>
        <time>2024-05-28T11:52:35Z</time>
      </trkpt>
      <trkpt lat="47.11178" lon="5.82464">
        <ele>285.6</ele>
        <time>2024-05-28T11:52:39Z</time>
      </trkpt>
      <trkpt lat="47.11179" lon="5.82465">
        <ele>285.6</ele>
        <time>2024-05-28T11:52:40Z</time>
      </trkpt>
      <trkpt lat="47.1118" lon="5.82467">
        <ele>285.6</ele>
        <time>2024-05-28T11:52:41Z</time>
      </trkpt>
      <trkpt lat="47.11181" lon="5.82468">
        <ele>285.6</ele>
        <time>2024-05-28T11:52:42Z</time>
      </trkpt>
      <trkpt lat="47.11183" lon="5.8247">
        <ele>285.4</ele>
        <time>2024-05-28T11:52:43Z</time>
      </trkpt>
      <trkpt lat="47.1119" lon="5.82477">
        <ele>285.4</ele>
        <time>2024-05-28T11:52:48Z</time>
      </trkpt>
      <trkpt lat="47.11194" lon="5.82481">
        <ele>285.4</ele>
        <time>2024-05-28T11:52:50Z</time>
      </trkpt>
      <trkpt lat="47.11199" lon="5.82484">
        <ele>285.4</ele>
        <time>2024-05-28T11:52:52Z</time>
      </trkpt>
      <trkpt lat="47.11201" lon="5.82485">
        <ele>285.4</ele>
        <time>2024-05-28T11:52:53Z</time>
      </trkpt>
      <trkpt lat="47.11204" lon="5.82487">
        <ele>285.4</ele>
        <time>2024-05-28T11:52:54Z</time>
      </trkpt>
      <trkpt lat="47.11214" lon="5.82494">
        <ele>285.8</ele>
        <time>2024-05-28T11:52:58Z</time>
      </trkpt>
      <trkpt lat="47.11222" lon="5.82498">
        <ele>285.8</ele>
        <time>2024-05-28T11:53:00Z</time>
      </trkpt>
      <trkpt lat="47.11243" lon="5.82509">
        <ele>286.2</ele>
        <time>2024-05-28T11:53:07Z</time>
      </trkpt>
      <trkpt lat="47.11252" lon="5.82513">
        <ele>286.4</ele>
        <time>2024-05-28T11:53:09Z</time>
      </trkpt>
      <trkpt lat="47.11256" lon="5.82516">
        <ele>286.6</ele>
        <time>2024-05-28T11:53:11Z</time>
      </trkpt>
      <trkpt lat="47.11257" lon="5.82516">
        <ele>286.6</ele>
        <time>2024-05-28T11:53:12Z</time>
      </trkpt>
      <trkpt lat="47.11258" lon="5.82517">
        <ele>286.8</ele>
        <time>2024-05-28T11:53:13Z</time>
      </trkpt>
      <trkpt lat="47.11271" lon="5.8252">
        <ele>287.2</ele>
        <time>2024-05-28T11:53:18Z</time>
      </trkpt>
      <trkpt lat="47.11274" lon="5.82521">
        <ele>287.2</ele>
        <time>2024-05-28T11:53:19Z</time>
      </trkpt>
      <trkpt lat="47.11281" lon="5.82523">
        <ele>287.6</ele>
        <time>2024-05-28T11:53:22Z</time>
      </trkpt>
      <trkpt lat="47.11283" lon="5.82523">
        <ele>287.6</ele>
        <time>2024-05-28T11:53:23Z</time>
      </trkpt>
      <trkpt lat="47.11284" lon="5.82524">
        <ele>287.6</ele>
        <time>2024-05-28T11:53:24Z</time>
      </trkpt>
      <trkpt lat="47.11285" lon="5.82524">
        <ele>287.6</ele>
        <time>2024-05-28T11:53:25Z</time>
      </trkpt>
      <trkpt lat="47.11287" lon="5.82525">
        <ele>287.8</ele>
        <time>2024-05-28T11:53:26Z</time>
      </trkpt>
      <trkpt lat="47.11293" lon="5.82525">
        <ele>288</ele>
        <time>2024-05-28T11:53:29Z</time>
      </trkpt>
      <trkpt lat="47.11295" lon="5.82525">
        <ele>288</ele>
        <time>2024-05-28T11:53:30Z</time>
      </trkpt>
      <trkpt lat="47.11297" lon="5.82526">
        <ele>288.2</ele>
        <time>2024-05-28T11:53:32Z</time>
      </trkpt>
      <trkpt lat="47.11297" lon="5.82526">
        <ele>288.2</ele>
        <time>2024-05-28T11:53:33Z</time>
      </trkpt>
      <trkpt lat="47.11299" lon="5.82527">
        <ele>288.4</ele>
        <time>2024-05-28T11:53:38Z</time>
      </trkpt>
      <trkpt lat="47.11302" lon="5.82526">
        <ele>288.4</ele>
        <time>2024-05-28T11:53:41Z</time>
      </trkpt>
      <trkpt lat="47.11309" lon="5.82526">
        <ele>288.4</ele>
        <time>2024-05-28T11:53:43Z</time>
      </trkpt>
      <trkpt lat="47.11315" lon="5.82528">
        <ele>288.4</ele>
        <time>2024-05-28T11:53:46Z</time>
      </trkpt>
      <trkpt lat="47.11319" lon="5.82529">
        <ele>288.4</ele>
        <time>2024-05-28T11:53:47Z</time>
      </trkpt>
      <trkpt lat="47.11321" lon="5.82529">
        <ele>288.4</ele>
        <time>2024-05-28T11:53:48Z</time>
      </trkpt>
      <trkpt lat="47.11323" lon="5.8253">
        <ele>288.4</ele>
        <time>2024-05-28T11:53:49Z</time>
      </trkpt>
      <trkpt lat="47.11325" lon="5.8253">
        <ele>288.4</ele>
        <time>2024-05-28T11:53:50Z</time>
      </trkpt>
      <trkpt lat="47.11329" lon="5.82531">
        <ele>288.6</ele>
        <time>2024-05-28T11:53:52Z</time>
      </trkpt>
      <trkpt lat="47.1133" lon="5.82532">
        <ele>288.6</ele>
        <time>2024-05-28T11:53:53Z</time>
      </trkpt>
      <trkpt lat="47.11332" lon="5.82532">
        <ele>288.8</ele>
        <time>2024-05-28T11:53:54Z</time>
      </trkpt>
      <trkpt lat="47.11334" lon="5.82533">
        <ele>289</ele>
        <time>2024-05-28T11:53:55Z</time>
      </trkpt>
      <trkpt lat="47.11336" lon="5.82534">
        <ele>289</ele>
        <time>2024-05-28T11:53:56Z</time>
      </trkpt>
      <trkpt lat="47.11337" lon="5.82534">
        <ele>289</ele>
        <time>2024-05-28T11:53:57Z</time>
      </trkpt>
      <trkpt lat="47.1134" lon="5.82534">
        <ele>289</ele>
        <time>2024-05-28T11:53:58Z</time>
      </trkpt>
      <trkpt lat="47.11342" lon="5.82534">
        <ele>289.2</ele>
        <time>2024-05-28T11:53:59Z</time>
      </trkpt>
      <trkpt lat="47.11348" lon="5.82536">
        <ele>289.4</ele>
        <time>2024-05-28T11:54:01Z</time>
      </trkpt>
      <trkpt lat="47.11353" lon="5.82536">
        <ele>289.4</ele>
        <time>2024-05-28T11:54:03Z</time>
      </trkpt>
      <trkpt lat="47.11362" lon="5.82538">
        <ele>289.6</ele>
        <time>2024-05-28T11:54:06Z</time>
      </trkpt>
      <trkpt lat="47.11366" lon="5.82539">
        <ele>289.8</ele>
        <time>2024-05-28T11:54:08Z</time>
      </trkpt>
      <trkpt lat="47.11379" lon="5.82539">
        <ele>290</ele>
        <time>2024-05-28T11:54:13Z</time>
      </trkpt>
      <trkpt lat="47.11401" lon="5.82543">
        <ele>290.6</ele>
        <time>2024-05-28T11:54:19Z</time>
      </trkpt>
      <trkpt lat="47.11424" lon="5.82547">
        <ele>291.4</ele>
        <time>2024-05-28T11:54:27Z</time>
      </trkpt>
      <trkpt lat="47.11432" lon="5.82553">
        <ele>291.6</ele>
        <time>2024-05-28T11:54:30Z</time>
      </trkpt>
      <trkpt lat="47.11433" lon="5.82555">
        <ele>292</ele>
        <time>2024-05-28T11:54:31Z</time>
      </trkpt>
      <trkpt lat="47.11435" lon="5.82557">
        <ele>291.8</ele>
        <time>2024-05-28T11:54:32Z</time>
      </trkpt>
      <trkpt lat="47.11435" lon="5.82559">
        <ele>292</ele>
        <time>2024-05-28T11:54:33Z</time>
      </trkpt>
      <trkpt lat="47.11435" lon="5.8256">
        <ele>292</ele>
        <time>2024-05-28T11:54:34Z</time>
      </trkpt>
      <trkpt lat="47.11435" lon="5.82562">
        <ele>292</ele>
        <time>2024-05-28T11:54:35Z</time>
      </trkpt>
      <trkpt lat="47.11437" lon="5.82563">
        <ele>292.2</ele>
        <time>2024-05-28T11:54:36Z</time>
      </trkpt>
      <trkpt lat="47.11438" lon="5.82564">
        <ele>292</ele>
        <time>2024-05-28T11:54:37Z</time>
      </trkpt>
      <trkpt lat="47.11439" lon="5.82565">
        <ele>292</ele>
        <time>2024-05-28T11:54:38Z</time>
      </trkpt>
      <trkpt lat="47.11439" lon="5.82568">
        <ele>292</ele>
        <time>2024-05-28T11:54:39Z</time>
      </trkpt>
      <trkpt lat="47.11441" lon="5.8257">
        <ele>292</ele>
        <time>2024-05-28T11:54:40Z</time>
      </trkpt>
      <trkpt lat="47.11441" lon="5.82573">
        <ele>292</ele>
        <time>2024-05-28T11:54:41Z</time>
      </trkpt>
      <trkpt lat="47.11443" lon="5.82577">
        <ele>292</ele>
        <time>2024-05-28T11:54:42Z</time>
      </trkpt>
      <trkpt lat="47.11447" lon="5.82582">
        <ele>292.2</ele>
        <time>2024-05-28T11:54:44Z</time>
      </trkpt>
      <trkpt lat="47.11449" lon="5.82584">
        <ele>292.2</ele>
        <time>2024-05-28T11:54:45Z</time>
      </trkpt>
      <trkpt lat="47.11458" lon="5.82599">
        <ele>291.8</ele>
        <time>2024-05-28T11:54:49Z</time>
      </trkpt>
      <trkpt lat="47.11459" lon="5.826">
        <ele>291.8</ele>
        <time>2024-05-28T11:54:50Z</time>
      </trkpt>
      <trkpt lat="47.1146" lon="5.82601">
        <ele>291.6</ele>
        <time>2024-05-28T11:54:51Z</time>
      </trkpt>
      <trkpt lat="47.1146" lon="5.82602">
        <ele>291.6</ele>
        <time>2024-05-28T11:54:52Z</time>
      </trkpt>
      <trkpt lat="47.1146" lon="5.82602">
        <ele>291.6</ele>
        <time>2024-05-28T11:54:53Z</time>
      </trkpt>
      <trkpt lat="47.11461" lon="5.82604">
        <ele>291.4</ele>
        <time>2024-05-28T11:54:54Z</time>
      </trkpt>
      <trkpt lat="47.11461" lon="5.82604">
        <ele>291.4</ele>
        <time>2024-05-28T11:54:55Z</time>
      </trkpt>
      <trkpt lat="47.11462" lon="5.82605">
        <ele>291.4</ele>
        <time>2024-05-28T11:54:56Z</time>
      </trkpt>
      <trkpt lat="47.11463" lon="5.82606">
        <ele>291.4</ele>
        <time>2024-05-28T11:54:57Z</time>
      </trkpt>
      <trkpt lat="47.11464" lon="5.82607">
        <ele>291.4</ele>
        <time>2024-05-28T11:54:58Z</time>
      </trkpt>
      <trkpt lat="47.11465" lon="5.82608">
        <ele>291.2</ele>
        <time>2024-05-28T11:54:59Z</time>
      </trkpt>
      <trkpt lat="47.11465" lon="5.82608">
        <ele>291.2</ele>
        <time>2024-05-28T11:55:00Z</time>
      </trkpt>
      <trkpt lat="47.11465" lon="5.82608">
        <ele>291.2</ele>
        <time>2024-05-28T11:55:01Z</time>
      </trkpt>
      <trkpt lat="47.11466" lon="5.82609">
        <ele>291</ele>
        <time>2024-05-28T11:55:02Z</time>
      </trkpt>
      <trkpt lat="47.11467" lon="5.82612">
        <ele>291</ele>
        <time>2024-05-28T11:55:03Z</time>
      </trkpt>
      <trkpt lat="47.11467" lon="5.82612">
        <ele>291</ele>
        <time>2024-05-28T11:55:04Z</time>
      </trkpt>
      <trkpt lat="47.11467" lon="5.82612">
        <ele>291</ele>
        <time>2024-05-28T11:55:05Z</time>
      </trkpt>
      <trkpt lat="47.11473" lon="5.82619">
        <ele>291</ele>
        <time>2024-05-28T11:55:10Z</time>
      </trkpt>
      <trkpt lat="47.11481" lon="5.82631">
        <ele>290.8</ele>
        <time>2024-05-28T11:55:15Z</time>
      </trkpt>
      <trkpt lat="47.11483" lon="5.82634">
        <ele>290.8</ele>
        <time>2024-05-28T11:55:16Z</time>
      </trkpt>
      <trkpt lat="47.11484" lon="5.82636">
        <ele>290.8</ele>
        <time>2024-05-28T11:55:17Z</time>
      </trkpt>
      <trkpt lat="47.11486" lon="5.82638">
        <ele>290.8</ele>
        <time>2024-05-28T11:55:18Z</time>
      </trkpt>
      <trkpt lat="47.11488" lon="5.8264">
        <ele>290.6</ele>
        <time>2024-05-28T11:55:19Z</time>
      </trkpt>
      <trkpt lat="47.1149" lon="5.82642">
        <ele>290.6</ele>
        <time>2024-05-28T11:55:20Z</time>
      </trkpt>
      <trkpt lat="47.11496" lon="5.82647">
        <ele>290.6</ele>
        <time>2024-05-28T11:55:22Z</time>
      </trkpt>
      <trkpt lat="47.11498" lon="5.82649">
        <ele>290.6</ele>
        <time>2024-05-28T11:55:23Z</time>
      </trkpt>
      <trkpt lat="47.11499" lon="5.82649">
        <ele>290.6</ele>
        <time>2024-05-28T11:55:24Z</time>
      </trkpt>
      <trkpt lat="47.11502" lon="5.82649">
        <ele>290.6</ele>
        <time>2024-05-28T11:55:25Z</time>
      </trkpt>
      <trkpt lat="47.11505" lon="5.82649">
        <ele>290.4</ele>
        <time>2024-05-28T11:55:26Z</time>
      </trkpt>
      <trkpt lat="47.11508" lon="5.82651">
        <ele>290.4</ele>
        <time>2024-05-28T11:55:27Z</time>
      </trkpt>
      <trkpt lat="47.11511" lon="5.82652">
        <ele>290.4</ele>
        <time>2024-05-28T11:55:28Z</time>
      </trkpt>
      <trkpt lat="47.11511" lon="5.82653">
        <ele>290.4</ele>
        <time>2024-05-28T11:55:29Z</time>
      </trkpt>
      <trkpt lat="47.11515" lon="5.82656">
        <ele>290.4</ele>
        <time>2024-05-28T11:55:30Z</time>
      </trkpt>
      <trkpt lat="47.11519" lon="5.82659">
        <ele>290.4</ele>
        <time>2024-05-28T11:55:31Z</time>
      </trkpt>
      <trkpt lat="47.1152" lon="5.82661">
        <ele>290.4</ele>
        <time>2024-05-28T11:55:32Z</time>
      </trkpt>
      <trkpt lat="47.11521" lon="5.82662">
        <ele>290.4</ele>
        <time>2024-05-28T11:55:33Z</time>
      </trkpt>
      <trkpt lat="47.11523" lon="5.82663">
        <ele>290.4</ele>
        <time>2024-05-28T11:55:34Z</time>
      </trkpt>
      <trkpt lat="47.11525" lon="5.82664">
        <ele>290.4</ele>
        <time>2024-05-28T11:55:35Z</time>
      </trkpt>
      <trkpt lat="47.11527" lon="5.82665">
        <ele>290.4</ele>
        <time>2024-05-28T11:55:36Z</time>
      </trkpt>
      <trkpt lat="47.11528" lon="5.82665">
        <ele>290.4</ele>
        <time>2024-05-28T11:55:37Z</time>
      </trkpt>
      <trkpt lat="47.11529" lon="5.82665">
        <ele>290.4</ele>
        <time>2024-05-28T11:55:38Z</time>
      </trkpt>
      <trkpt lat="47.11529" lon="5.82665">
        <ele>290.4</ele>
        <time>2024-05-28T11:55:39Z</time>
      </trkpt>
      <trkpt lat="47.11529" lon="5.82665">
        <ele>290.2</ele>
        <time>2024-05-28T11:55:40Z</time>
      </trkpt>
      <trkpt lat="47.11529" lon="5.82665">
        <ele>290.2</ele>
        <time>2024-05-28T11:55:41Z</time>
      </trkpt>
      <trkpt lat="47.11529" lon="5.82666">
        <ele>290</ele>
        <time>2024-05-28T11:55:44Z</time>
      </trkpt>
      <trkpt lat="47.11529" lon="5.82666">
        <ele>290</ele>
        <time>2024-05-28T11:55:51Z</time>
      </trkpt>
      <trkpt lat="47.11532" lon="5.82667">
        <ele>289.8</ele>
        <time>2024-05-28T11:56:05Z</time>
      </trkpt>
      <trkpt lat="47.11533" lon="5.82666">
        <ele>289.8</ele>
        <time>2024-05-28T11:56:06Z</time>
      </trkpt>
      <trkpt lat="47.11536" lon="5.82665">
        <ele>289.8</ele>
        <time>2024-05-28T11:56:08Z</time>
      </trkpt>
      <trkpt lat="47.11537" lon="5.82665">
        <ele>289.8</ele>
        <time>2024-05-28T11:56:09Z</time>
      </trkpt>
      <trkpt lat="47.11539" lon="5.82666">
        <ele>289.8</ele>
        <time>2024-05-28T11:56:11Z</time>
      </trkpt>
      <trkpt lat="47.11543" lon="5.82667">
        <ele>289.8</ele>
        <time>2024-05-28T11:56:12Z</time>
      </trkpt>
      <trkpt lat="47.11546" lon="5.82669">
        <ele>289.8</ele>
        <time>2024-05-28T11:56:13Z</time>
      </trkpt>
      <trkpt lat="47.11553" lon="5.82671">
        <ele>289.8</ele>
        <time>2024-05-28T11:56:15Z</time>
      </trkpt>
      <trkpt lat="47.1156" lon="5.82672">
        <ele>289.8</ele>
        <time>2024-05-28T11:56:17Z</time>
      </trkpt>
      <trkpt lat="47.11568" lon="5.82674">
        <ele>289.8</ele>
        <time>2024-05-28T11:56:20Z</time>
      </trkpt>
      <trkpt lat="47.1157" lon="5.82675">
        <ele>289.6</ele>
        <time>2024-05-28T11:56:21Z</time>
      </trkpt>
      <trkpt lat="47.1157" lon="5.82675">
        <ele>289.6</ele>
        <time>2024-05-28T11:56:22Z</time>
      </trkpt>
      <trkpt lat="47.11576" lon="5.82678">
        <ele>289.4</ele>
        <time>2024-05-28T11:56:29Z</time>
      </trkpt>
      <trkpt lat="47.11576" lon="5.82677">
        <ele>289.4</ele>
        <time>2024-05-28T11:56:30Z</time>
      </trkpt>
      <trkpt lat="47.11579" lon="5.82678">
        <ele>289.4</ele>
        <time>2024-05-28T11:56:31Z</time>
      </trkpt>
      <trkpt lat="47.11582" lon="5.82679">
        <ele>289.2</ele>
        <time>2024-05-28T11:56:32Z</time>
      </trkpt>
      <trkpt lat="47.11586" lon="5.82682">
        <ele>289.2</ele>
        <time>2024-05-28T11:56:33Z</time>
      </trkpt>
      <trkpt lat="47.11591" lon="5.82684">
        <ele>289</ele>
        <time>2024-05-28T11:56:34Z</time>
      </trkpt>
      <trkpt lat="47.11594" lon="5.82685">
        <ele>289</ele>
        <time>2024-05-28T11:56:35Z</time>
      </trkpt>
      <trkpt lat="47.11597" lon="5.82687">
        <ele>288.8</ele>
        <time>2024-05-28T11:56:36Z</time>
      </trkpt>
      <trkpt lat="47.11605" lon="5.82691">
        <ele>288.6</ele>
        <time>2024-05-28T11:56:38Z</time>
      </trkpt>
      <trkpt lat="47.11609" lon="5.82693">
        <ele>288.2</ele>
        <time>2024-05-28T11:56:39Z</time>
      </trkpt>
      <trkpt lat="47.11613" lon="5.82695">
        <ele>288.2</ele>
        <time>2024-05-28T11:56:40Z</time>
      </trkpt>
      <trkpt lat="47.11617" lon="5.82696">
        <ele>287.8</ele>
        <time>2024-05-28T11:56:41Z</time>
      </trkpt>
      <trkpt lat="47.11619" lon="5.82699">
        <ele>287.6</ele>
        <time>2024-05-28T11:56:42Z</time>
      </trkpt>
      <trkpt lat="47.11621" lon="5.82701">
        <ele>287.4</ele>
        <time>2024-05-28T11:56:43Z</time>
      </trkpt>
      <trkpt lat="47.11624" lon="5.82704">
        <ele>287.2</ele>
        <time>2024-05-28T11:56:44Z</time>
      </trkpt>
      <trkpt lat="47.11625" lon="5.82707">
        <ele>287.2</ele>
        <time>2024-05-28T11:56:45Z</time>
      </trkpt>
      <trkpt lat="47.11626" lon="5.82709">
        <ele>287</ele>
        <time>2024-05-28T11:56:46Z</time>
      </trkpt>
      <trkpt lat="47.11628" lon="5.82711">
        <ele>287</ele>
        <time>2024-05-28T11:56:47Z</time>
      </trkpt>
      <trkpt lat="47.11629" lon="5.82712">
        <ele>286.8</ele>
        <time>2024-05-28T11:56:48Z</time>
      </trkpt>
      <trkpt lat="47.11631" lon="5.82714">
        <ele>286.8</ele>
        <time>2024-05-28T11:56:49Z</time>
      </trkpt>
      <trkpt lat="47.11631" lon="5.82714">
        <ele>286.8</ele>
        <time>2024-05-28T11:56:50Z</time>
      </trkpt>
      <trkpt lat="47.11631" lon="5.82714">
        <ele>286.6</ele>
        <time>2024-05-28T11:56:51Z</time>
      </trkpt>
      <trkpt lat="47.11633" lon="5.82718">
        <ele>286.4</ele>
        <time>2024-05-28T11:56:56Z</time>
      </trkpt>
      <trkpt lat="47.11635" lon="5.82721">
        <ele>286.4</ele>
        <time>2024-05-28T11:56:57Z</time>
      </trkpt>
      <trkpt lat="47.11635" lon="5.82721">
        <ele>286.4</ele>
        <time>2024-05-28T11:56:58Z</time>
      </trkpt>
      <trkpt lat="47.11635" lon="5.82721">
        <ele>286.2</ele>
        <time>2024-05-28T11:56:59Z</time>
      </trkpt>
      <trkpt lat="47.11638" lon="5.82731">
        <ele>286</ele>
        <time>2024-05-28T11:57:04Z</time>
      </trkpt>
      <trkpt lat="47.11641" lon="5.82734">
        <ele>286</ele>
        <time>2024-05-28T11:57:06Z</time>
      </trkpt>
      <trkpt lat="47.11643" lon="5.82735">
        <ele>285.8</ele>
        <time>2024-05-28T11:57:07Z</time>
      </trkpt>
      <trkpt lat="47.11648" lon="5.82737">
        <ele>285.8</ele>
        <time>2024-05-28T11:57:08Z</time>
      </trkpt>
      <trkpt lat="47.11656" lon="5.82739">
        <ele>285.6</ele>
        <time>2024-05-28T11:57:10Z</time>
      </trkpt>
      <trkpt lat="47.1166" lon="5.82739">
        <ele>285.6</ele>
        <time>2024-05-28T11:57:11Z</time>
      </trkpt>
      <trkpt lat="47.11662" lon="5.8274">
        <ele>285.4</ele>
        <time>2024-05-28T11:57:12Z</time>
      </trkpt>
      <trkpt lat="47.11669" lon="5.82742">
        <ele>285.2</ele>
        <time>2024-05-28T11:57:14Z</time>
      </trkpt>
      <trkpt lat="47.11675" lon="5.82747">
        <ele>284.6</ele>
        <time>2024-05-28T11:57:16Z</time>
      </trkpt>
      <trkpt lat="47.11677" lon="5.8275">
        <ele>284.6</ele>
        <time>2024-05-28T11:57:17Z</time>
      </trkpt>
      <trkpt lat="47.11679" lon="5.82754">
        <ele>284.4</ele>
        <time>2024-05-28T11:57:18Z</time>
      </trkpt>
      <trkpt lat="47.11681" lon="5.82757">
        <ele>284.4</ele>
        <time>2024-05-28T11:57:19Z</time>
      </trkpt>
      <trkpt lat="47.11683" lon="5.82761">
        <ele>284.2</ele>
        <time>2024-05-28T11:57:20Z</time>
      </trkpt>
      <trkpt lat="47.11685" lon="5.82764">
        <ele>284</ele>
        <time>2024-05-28T11:57:21Z</time>
      </trkpt>
      <trkpt lat="47.11687" lon="5.82767">
        <ele>284</ele>
        <time>2024-05-28T11:57:22Z</time>
      </trkpt>
      <trkpt lat="47.11688" lon="5.82769">
        <ele>283.6</ele>
        <time>2024-05-28T11:57:23Z</time>
      </trkpt>
      <trkpt lat="47.11689" lon="5.82771">
        <ele>283.4</ele>
        <time>2024-05-28T11:57:24Z</time>
      </trkpt>
      <trkpt lat="47.11689" lon="5.82773">
        <ele>283</ele>
        <time>2024-05-28T11:57:25Z</time>
      </trkpt>
      <trkpt lat="47.1169" lon="5.82774">
        <ele>283</ele>
        <time>2024-05-28T11:57:26Z</time>
      </trkpt>
      <trkpt lat="47.1169" lon="5.82774">
        <ele>282.8</ele>
        <time>2024-05-28T11:57:27Z</time>
      </trkpt>
      <trkpt lat="47.1169" lon="5.82774">
        <ele>282.6</ele>
        <time>2024-05-28T11:57:30Z</time>
      </trkpt>
      <trkpt lat="47.1169" lon="5.82774">
        <ele>282.6</ele>
        <time>2024-05-28T11:57:31Z</time>
      </trkpt>
      <trkpt lat="47.11689" lon="5.82774">
        <ele>282.4</ele>
        <time>2024-05-28T11:57:39Z</time>
      </trkpt>
      <trkpt lat="47.11692" lon="5.82777">
        <ele>282.2</ele>
        <time>2024-05-28T11:57:45Z</time>
      </trkpt>
      <trkpt lat="47.11698" lon="5.82784">
        <ele>282</ele>
        <time>2024-05-28T11:57:47Z</time>
      </trkpt>
      <trkpt lat="47.11701" lon="5.82787">
        <ele>282</ele>
        <time>2024-05-28T11:57:48Z</time>
      </trkpt>
      <trkpt lat="47.11703" lon="5.8279">
        <ele>282</ele>
        <time>2024-05-28T11:57:49Z</time>
      </trkpt>
      <trkpt lat="47.11705" lon="5.82795">
        <ele>281.6</ele>
        <time>2024-05-28T11:57:50Z</time>
      </trkpt>
      <trkpt lat="47.11708" lon="5.82801">
        <ele>281.4</ele>
        <time>2024-05-28T11:57:51Z</time>
      </trkpt>
      <trkpt lat="47.11712" lon="5.82806">
        <ele>281</ele>
        <time>2024-05-28T11:57:52Z</time>
      </trkpt>
      <trkpt lat="47.11719" lon="5.82816">
        <ele>280.4</ele>
        <time>2024-05-28T11:57:54Z</time>
      </trkpt>
      <trkpt lat="47.11725" lon="5.82824">
        <ele>279.4</ele>
        <time>2024-05-28T11:57:56Z</time>
      </trkpt>
      <trkpt lat="47.11731" lon="5.82828">
        <ele>278.6</ele>
        <time>2024-05-28T11:57:57Z</time>
      </trkpt>
      <trkpt lat="47.11735" lon="5.82832">
        <ele>278.4</ele>
        <time>2024-05-28T11:57:58Z</time>
      </trkpt>
      <trkpt lat="47.1174" lon="5.82836">
        <ele>278.2</ele>
        <time>2024-05-28T11:57:59Z</time>
      </trkpt>
      <trkpt lat="47.1175" lon="5.82846">
        <ele>277.6</ele>
        <time>2024-05-28T11:58:01Z</time>
      </trkpt>
      <trkpt lat="47.11765" lon="5.82864">
        <ele>276.6</ele>
        <time>2024-05-28T11:58:04Z</time>
      </trkpt>
      <trkpt lat="47.11783" lon="5.82882">
        <ele>275.4</ele>
        <time>2024-05-28T11:58:07Z</time>
      </trkpt>
      <trkpt lat="47.11787" lon="5.82888">
        <ele>274.8</ele>
        <time>2024-05-28T11:58:08Z</time>
      </trkpt>
      <trkpt lat="47.11796" lon="5.82899">
        <ele>273.6</ele>
        <time>2024-05-28T11:58:10Z</time>
      </trkpt>
      <trkpt lat="47.118" lon="5.82906">
        <ele>272.8</ele>
        <time>2024-05-28T11:58:11Z</time>
      </trkpt>
      <trkpt lat="47.11804" lon="5.82914">
        <ele>272.4</ele>
        <time>2024-05-28T11:58:12Z</time>
      </trkpt>
      <trkpt lat="47.11808" lon="5.82922">
        <ele>271.6</ele>
        <time>2024-05-28T11:58:13Z</time>
      </trkpt>
      <trkpt lat="47.1181" lon="5.8293">
        <ele>271.4</ele>
        <time>2024-05-28T11:58:14Z</time>
      </trkpt>
      <trkpt lat="47.11814" lon="5.82937">
        <ele>271</ele>
        <time>2024-05-28T11:58:15Z</time>
      </trkpt>
      <trkpt lat="47.11818" lon="5.82943">
        <ele>270.6</ele>
        <time>2024-05-28T11:58:16Z</time>
      </trkpt>
      <trkpt lat="47.11821" lon="5.82949">
        <ele>270.2</ele>
        <time>2024-05-28T11:58:17Z</time>
      </trkpt>
      <trkpt lat="47.11824" lon="5.82954">
        <ele>270</ele>
        <time>2024-05-28T11:58:18Z</time>
      </trkpt>
      <trkpt lat="47.11831" lon="5.82957">
        <ele>269.6</ele>
        <time>2024-05-28T11:58:19Z</time>
      </trkpt>
      <trkpt lat="47.11834" lon="5.8296">
        <ele>269.4</ele>
        <time>2024-05-28T11:58:20Z</time>
      </trkpt>
      <trkpt lat="47.11839" lon="5.82962">
        <ele>269</ele>
        <time>2024-05-28T11:58:21Z</time>
      </trkpt>
      <trkpt lat="47.11843" lon="5.82963">
        <ele>268.6</ele>
        <time>2024-05-28T11:58:22Z</time>
      </trkpt>
      <trkpt lat="47.11847" lon="5.82964">
        <ele>268.6</ele>
        <time>2024-05-28T11:58:23Z</time>
      </trkpt>
      <trkpt lat="47.11853" lon="5.82967">
        <ele>268.2</ele>
        <time>2024-05-28T11:58:24Z</time>
      </trkpt>
      <trkpt lat="47.11858" lon="5.82968">
        <ele>268</ele>
        <time>2024-05-28T11:58:25Z</time>
      </trkpt>
      <trkpt lat="47.11861" lon="5.82967">
        <ele>268</ele>
        <time>2024-05-28T11:58:26Z</time>
      </trkpt>
      <trkpt lat="47.11864" lon="5.82967">
        <ele>267.8</ele>
        <time>2024-05-28T11:58:27Z</time>
      </trkpt>
      <trkpt lat="47.11867" lon="5.82969">
        <ele>267.8</ele>
        <time>2024-05-28T11:58:28Z</time>
      </trkpt>
      <trkpt lat="47.11871" lon="5.8297">
        <ele>267.8</ele>
        <time>2024-05-28T11:58:29Z</time>
      </trkpt>
      <trkpt lat="47.11872" lon="5.8297">
        <ele>267.8</ele>
        <time>2024-05-28T11:58:30Z</time>
      </trkpt>
      <trkpt lat="47.11872" lon="5.8297">
        <ele>267.8</ele>
        <time>2024-05-28T11:58:31Z</time>
      </trkpt>
      <trkpt lat="47.11872" lon="5.8297">
        <ele>267.8</ele>
        <time>2024-05-28T11:58:33Z</time>
      </trkpt>
      <trkpt lat="47.11874" lon="5.8297">
        <ele>268</ele>
        <time>2024-05-28T11:58:55Z</time>
      </trkpt>
      <trkpt lat="47.11883" lon="5.82972">
        <ele>267.8</ele>
        <time>2024-05-28T11:58:59Z</time>
      </trkpt>
      <trkpt lat="47.11885" lon="5.82973">
        <ele>267.8</ele>
        <time>2024-05-28T11:59:00Z</time>
      </trkpt>
      <trkpt lat="47.11904" lon="5.82983">
        <ele>267.4</ele>
        <time>2024-05-28T11:59:05Z</time>
      </trkpt>
      <trkpt lat="47.11913" lon="5.82993">
        <ele>267.2</ele>
        <time>2024-05-28T11:59:07Z</time>
      </trkpt>
      <trkpt lat="47.11918" lon="5.82998">
        <ele>266.8</ele>
        <time>2024-05-28T11:59:08Z</time>
      </trkpt>
      <trkpt lat="47.11923" lon="5.83003">
        <ele>266.8</ele>
        <time>2024-05-28T11:59:09Z</time>
      </trkpt>
      <trkpt lat="47.11928" lon="5.83006">
        <ele>266.4</ele>
        <time>2024-05-28T11:59:10Z</time>
      </trkpt>
      <trkpt lat="47.11932" lon="5.83009">
        <ele>266.2</ele>
        <time>2024-05-28T11:59:11Z</time>
      </trkpt>
      <trkpt lat="47.11936" lon="5.83012">
        <ele>265.8</ele>
        <time>2024-05-28T11:59:12Z</time>
      </trkpt>
      <trkpt lat="47.1194" lon="5.83014">
        <ele>265.8</ele>
        <time>2024-05-28T11:59:13Z</time>
      </trkpt>
      <trkpt lat="47.11943" lon="5.83016">
        <ele>265.6</ele>
        <time>2024-05-28T11:59:14Z</time>
      </trkpt>
      <trkpt lat="47.11946" lon="5.83017">
        <ele>265.6</ele>
        <time>2024-05-28T11:59:15Z</time>
      </trkpt>
      <trkpt lat="47.11952" lon="5.83019">
        <ele>265.6</ele>
        <time>2024-05-28T11:59:16Z</time>
      </trkpt>
      <trkpt lat="47.11957" lon="5.83021">
        <ele>265.8</ele>
        <time>2024-05-28T11:59:17Z</time>
      </trkpt>
      <trkpt lat="47.11972" lon="5.83028">
        <ele>266.2</ele>
        <time>2024-05-28T11:59:21Z</time>
      </trkpt>
      <trkpt lat="47.11977" lon="5.83032">
        <ele>266.4</ele>
        <time>2024-05-28T11:59:23Z</time>
      </trkpt>
      <trkpt lat="47.1198" lon="5.83034">
        <ele>266.6</ele>
        <time>2024-05-28T11:59:24Z</time>
      </trkpt>
      <trkpt lat="47.11983" lon="5.83037">
        <ele>266.6</ele>
        <time>2024-05-28T11:59:25Z</time>
      </trkpt>
      <trkpt lat="47.12" lon="5.83051">
        <ele>266.8</ele>
        <time>2024-05-28T11:59:29Z</time>
      </trkpt>
      <trkpt lat="47.12004" lon="5.83054">
        <ele>266.8</ele>
        <time>2024-05-28T11:59:30Z</time>
      </trkpt>
      <trkpt lat="47.12025" lon="5.8307">
        <ele>266.2</ele>
        <time>2024-05-28T11:59:34Z</time>
      </trkpt>
      <trkpt lat="47.12029" lon="5.83075">
        <ele>266.2</ele>
        <time>2024-05-28T11:59:35Z</time>
      </trkpt>
      <trkpt lat="47.12033" lon="5.8308">
        <ele>266</ele>
        <time>2024-05-28T11:59:36Z</time>
      </trkpt>
      <trkpt lat="47.12037" lon="5.83085">
        <ele>265.8</ele>
        <time>2024-05-28T11:59:37Z</time>
      </trkpt>
      <trkpt lat="47.12054" lon="5.83105">
        <ele>265.2</ele>
        <time>2024-05-28T11:59:41Z</time>
      </trkpt>
      <trkpt lat="47.12064" lon="5.83113">
        <ele>264.6</ele>
        <time>2024-05-28T11:59:43Z</time>
      </trkpt>
      <trkpt lat="47.12072" lon="5.83117">
        <ele>263.6</ele>
        <time>2024-05-28T11:59:45Z</time>
      </trkpt>
      <trkpt lat="47.12073" lon="5.83119">
        <ele>263.4</ele>
        <time>2024-05-28T11:59:46Z</time>
      </trkpt>
      <trkpt lat="47.12076" lon="5.83121">
        <ele>263.4</ele>
        <time>2024-05-28T11:59:47Z</time>
      </trkpt>
      <trkpt lat="47.12079" lon="5.83124">
        <ele>263.2</ele>
        <time>2024-05-28T11:59:48Z</time>
      </trkpt>
      <trkpt lat="47.12082" lon="5.83128">
        <ele>263</ele>
        <time>2024-05-28T11:59:49Z</time>
      </trkpt>
      <trkpt lat="47.12085" lon="5.83132">
        <ele>263</ele>
        <time>2024-05-28T11:59:50Z</time>
      </trkpt>
      <trkpt lat="47.12095" lon="5.83144">
        <ele>262.6</ele>
        <time>2024-05-28T11:59:54Z</time>
      </trkpt>
      <trkpt lat="47.121" lon="5.83147">
        <ele>262.4</ele>
        <time>2024-05-28T11:59:56Z</time>
      </trkpt>
      <trkpt lat="47.12103" lon="5.83151">
        <ele>262.2</ele>
        <time>2024-05-28T11:59:57Z</time>
      </trkpt>
      <trkpt lat="47.12106" lon="5.83154">
        <ele>262</ele>
        <time>2024-05-28T11:59:58Z</time>
      </trkpt>
      <trkpt lat="47.12109" lon="5.83158">
        <ele>261.8</ele>
        <time>2024-05-28T11:59:59Z</time>
      </trkpt>
      <trkpt lat="47.12112" lon="5.83163">
        <ele>261.6</ele>
        <time>2024-05-28T12:00:00Z</time>
      </trkpt>
      <trkpt lat="47.12114" lon="5.83168">
        <ele>261.6</ele>
        <time>2024-05-28T12:00:01Z</time>
      </trkpt>
      <trkpt lat="47.12115" lon="5.83175">
        <ele>261.4</ele>
        <time>2024-05-28T12:00:02Z</time>
      </trkpt>
      <trkpt lat="47.12113" lon="5.8318">
        <ele>261.2</ele>
        <time>2024-05-28T12:00:03Z</time>
      </trkpt>
      <trkpt lat="47.12106" lon="5.83193">
        <ele>260.4</ele>
        <time>2024-05-28T12:00:06Z</time>
      </trkpt>
      <trkpt lat="47.12105" lon="5.83197">
        <ele>260.4</ele>
        <time>2024-05-28T12:00:07Z</time>
      </trkpt>
      <trkpt lat="47.12103" lon="5.832">
        <ele>260.2</ele>
        <time>2024-05-28T12:00:08Z</time>
      </trkpt>
      <trkpt lat="47.12101" lon="5.83204">
        <ele>260.2</ele>
        <time>2024-05-28T12:00:09Z</time>
      </trkpt>
      <trkpt lat="47.121" lon="5.83207">
        <ele>260.2</ele>
        <time>2024-05-28T12:00:10Z</time>
      </trkpt>
      <trkpt lat="47.12098" lon="5.83211">
        <ele>260.2</ele>
        <time>2024-05-28T12:00:11Z</time>
      </trkpt>
      <trkpt lat="47.12097" lon="5.83214">
        <ele>260.2</ele>
        <time>2024-05-28T12:00:12Z</time>
      </trkpt>
      <trkpt lat="47.12096" lon="5.83218">
        <ele>260.4</ele>
        <time>2024-05-28T12:00:13Z</time>
      </trkpt>
      <trkpt lat="47.12095" lon="5.83221">
        <ele>260.2</ele>
        <time>2024-05-28T12:00:14Z</time>
      </trkpt>
      <trkpt lat="47.12094" lon="5.83224">
        <ele>260.4</ele>
        <time>2024-05-28T12:00:15Z</time>
      </trkpt>
      <trkpt lat="47.12093" lon="5.83227">
        <ele>260.4</ele>
        <time>2024-05-28T12:00:16Z</time>
      </trkpt>
      <trkpt lat="47.12093" lon="5.8323">
        <ele>260.4</ele>
        <time>2024-05-28T12:00:17Z</time>
      </trkpt>
      <trkpt lat="47.12092" lon="5.83233">
        <ele>260.6</ele>
        <time>2024-05-28T12:00:18Z</time>
      </trkpt>
      <trkpt lat="47.12092" lon="5.83236">
        <ele>260.6</ele>
        <time>2024-05-28T12:00:19Z</time>
      </trkpt>
      <trkpt lat="47.12091" lon="5.83239">
        <ele>260.6</ele>
        <time>2024-05-28T12:00:20Z</time>
      </trkpt>
      <trkpt lat="47.1209" lon="5.83243">
        <ele>260.6</ele>
        <time>2024-05-28T12:00:21Z</time>
      </trkpt>
      <trkpt lat="47.1209" lon="5.83246">
        <ele>260.8</ele>
        <time>2024-05-28T12:00:22Z</time>
      </trkpt>
      <trkpt lat="47.12089" lon="5.8325">
        <ele>260.8</ele>
        <time>2024-05-28T12:00:23Z</time>
      </trkpt>
      <trkpt lat="47.12088" lon="5.83253">
        <ele>260.8</ele>
        <time>2024-05-28T12:00:24Z</time>
      </trkpt>
      <trkpt lat="47.12085" lon="5.83269">
        <ele>260.8</ele>
        <time>2024-05-28T12:00:28Z</time>
      </trkpt>
      <trkpt lat="47.12081" lon="5.83291">
        <ele>261.4</ele>
        <time>2024-05-28T12:00:34Z</time>
      </trkpt>
      <trkpt lat="47.1208" lon="5.83299">
        <ele>261.6</ele>
        <time>2024-05-28T12:00:36Z</time>
      </trkpt>
      <trkpt lat="47.12073" lon="5.83331">
        <ele>262.6</ele>
        <time>2024-05-28T12:00:44Z</time>
      </trkpt>
      <trkpt lat="47.12062" lon="5.8336">
        <ele>263.8</ele>
        <time>2024-05-28T12:00:51Z</time>
      </trkpt>
      <trkpt lat="47.12055" lon="5.8337">
        <ele>264.2</ele>
        <time>2024-05-28T12:00:54Z</time>
      </trkpt>
      <trkpt lat="47.12053" lon="5.83373">
        <ele>264.4</ele>
        <time>2024-05-28T12:00:55Z</time>
      </trkpt>
      <trkpt lat="47.1205" lon="5.83376">
        <ele>264.4</ele>
        <time>2024-05-28T12:00:56Z</time>
      </trkpt>
      <trkpt lat="47.12048" lon="5.83379">
        <ele>264.6</ele>
        <time>2024-05-28T12:00:57Z</time>
      </trkpt>
      <trkpt lat="47.12045" lon="5.83382">
        <ele>264.6</ele>
        <time>2024-05-28T12:00:58Z</time>
      </trkpt>
      <trkpt lat="47.12042" lon="5.83384">
        <ele>264.8</ele>
        <time>2024-05-28T12:00:59Z</time>
      </trkpt>
      <trkpt lat="47.12039" lon="5.83387">
        <ele>264.8</ele>
        <time>2024-05-28T12:01:00Z</time>
      </trkpt>
      <trkpt lat="47.12036" lon="5.83389">
        <ele>265</ele>
        <time>2024-05-28T12:01:01Z</time>
      </trkpt>
      <trkpt lat="47.12033" lon="5.83391">
        <ele>265.2</ele>
        <time>2024-05-28T12:01:02Z</time>
      </trkpt>
      <trkpt lat="47.1203" lon="5.83393">
        <ele>265.2</ele>
        <time>2024-05-28T12:01:03Z</time>
      </trkpt>
      <trkpt lat="47.12027" lon="5.83395">
        <ele>265.4</ele>
        <time>2024-05-28T12:01:04Z</time>
      </trkpt>
      <trkpt lat="47.12024" lon="5.83397">
        <ele>265.6</ele>
        <time>2024-05-28T12:01:05Z</time>
      </trkpt>
      <trkpt lat="47.12021" lon="5.83398">
        <ele>265.6</ele>
        <time>2024-05-28T12:01:06Z</time>
      </trkpt>
      <trkpt lat="47.12018" lon="5.834">
        <ele>265.8</ele>
        <time>2024-05-28T12:01:07Z</time>
      </trkpt>
      <trkpt lat="47.12014" lon="5.83401">
        <ele>266</ele>
        <time>2024-05-28T12:01:08Z</time>
      </trkpt>
      <trkpt lat="47.12011" lon="5.83403">
        <ele>266.2</ele>
        <time>2024-05-28T12:01:09Z</time>
      </trkpt>
      <trkpt lat="47.12008" lon="5.83404">
        <ele>266.4</ele>
        <time>2024-05-28T12:01:10Z</time>
      </trkpt>
      <trkpt lat="47.12005" lon="5.83406">
        <ele>266.4</ele>
        <time>2024-05-28T12:01:11Z</time>
      </trkpt>
      <trkpt lat="47.12002" lon="5.83407">
        <ele>266.6</ele>
        <time>2024-05-28T12:01:12Z</time>
      </trkpt>
      <trkpt lat="47.11999" lon="5.83409">
        <ele>266.6</ele>
        <time>2024-05-28T12:01:13Z</time>
      </trkpt>
      <trkpt lat="47.11996" lon="5.8341">
        <ele>266.6</ele>
        <time>2024-05-28T12:01:14Z</time>
      </trkpt>
      <trkpt lat="47.11993" lon="5.83412">
        <ele>266.8</ele>
        <time>2024-05-28T12:01:15Z</time>
      </trkpt>
      <trkpt lat="47.1199" lon="5.83413">
        <ele>267</ele>
        <time>2024-05-28T12:01:16Z</time>
      </trkpt>
      <trkpt lat="47.11987" lon="5.83414">
        <ele>267.2</ele>
        <time>2024-05-28T12:01:17Z</time>
      </trkpt>
      <trkpt lat="47.11984" lon="5.83415">
        <ele>267.2</ele>
        <time>2024-05-28T12:01:18Z</time>
      </trkpt>
      <trkpt lat="47.11981" lon="5.83416">
        <ele>267.4</ele>
        <time>2024-05-28T12:01:19Z</time>
      </trkpt>
      <trkpt lat="47.11978" lon="5.83418">
        <ele>267.8</ele>
        <time>2024-05-28T12:01:20Z</time>
      </trkpt>
      <trkpt lat="47.11975" lon="5.83419">
        <ele>267.8</ele>
        <time>2024-05-28T12:01:21Z</time>
      </trkpt>
      <trkpt lat="47.11972" lon="5.8342">
        <ele>268</ele>
        <time>2024-05-28T12:01:22Z</time>
      </trkpt>
      <trkpt lat="47.11969" lon="5.83422">
        <ele>268.2</ele>
        <time>2024-05-28T12:01:23Z</time>
      </trkpt>
      <trkpt lat="47.11965" lon="5.83423">
        <ele>268.4</ele>
        <time>2024-05-28T12:01:24Z</time>
      </trkpt>
      <trkpt lat="47.11962" lon="5.83424">
        <ele>268.4</ele>
        <time>2024-05-28T12:01:25Z</time>
      </trkpt>
      <trkpt lat="47.11959" lon="5.83425">
        <ele>268.6</ele>
        <time>2024-05-28T12:01:26Z</time>
      </trkpt>
      <trkpt lat="47.11956" lon="5.83426">
        <ele>268.6</ele>
        <time>2024-05-28T12:01:27Z</time>
      </trkpt>
      <trkpt lat="47.11953" lon="5.83426">
        <ele>269</ele>
        <time>2024-05-28T12:01:28Z</time>
      </trkpt>
      <trkpt lat="47.1195" lon="5.83427">
        <ele>269.2</ele>
        <time>2024-05-28T12:01:29Z</time>
      </trkpt>
      <trkpt lat="47.11947" lon="5.83429">
        <ele>269.2</ele>
        <time>2024-05-28T12:01:30Z</time>
      </trkpt>
      <trkpt lat="47.11944" lon="5.8343">
        <ele>269.4</ele>
        <time>2024-05-28T12:01:31Z</time>
      </trkpt>
      <trkpt lat="47.11941" lon="5.83431">
        <ele>269.4</ele>
        <time>2024-05-28T12:01:32Z</time>
      </trkpt>
      <trkpt lat="47.11939" lon="5.83432">
        <ele>269.6</ele>
        <time>2024-05-28T12:01:33Z</time>
      </trkpt>
      <trkpt lat="47.11936" lon="5.83433">
        <ele>269.8</ele>
        <time>2024-05-28T12:01:34Z</time>
      </trkpt>
      <trkpt lat="47.11933" lon="5.83434">
        <ele>270.2</ele>
        <time>2024-05-28T12:01:35Z</time>
      </trkpt>
      <trkpt lat="47.1193" lon="5.83435">
        <ele>270.4</ele>
        <time>2024-05-28T12:01:36Z</time>
      </trkpt>
      <trkpt lat="47.11927" lon="5.83435">
        <ele>270.4</ele>
        <time>2024-05-28T12:01:37Z</time>
      </trkpt>
      <trkpt lat="47.11924" lon="5.83436">
        <ele>270.6</ele>
        <time>2024-05-28T12:01:38Z</time>
      </trkpt>
      <trkpt lat="47.11921" lon="5.83437">
        <ele>270.8</ele>
        <time>2024-05-28T12:01:39Z</time>
      </trkpt>
      <trkpt lat="47.11919" lon="5.83437">
        <ele>271</ele>
        <time>2024-05-28T12:01:40Z</time>
      </trkpt>
      <trkpt lat="47.11916" lon="5.83437">
        <ele>271</ele>
        <time>2024-05-28T12:01:41Z</time>
      </trkpt>
      <trkpt lat="47.11913" lon="5.83438">
        <ele>271.2</ele>
        <time>2024-05-28T12:01:42Z</time>
      </trkpt>
      <trkpt lat="47.1191" lon="5.83438">
        <ele>271.2</ele>
        <time>2024-05-28T12:01:43Z</time>
      </trkpt>
      <trkpt lat="47.11906" lon="5.83438">
        <ele>271.4</ele>
        <time>2024-05-28T12:01:44Z</time>
      </trkpt>
      <trkpt lat="47.11903" lon="5.83438">
        <ele>271.8</ele>
        <time>2024-05-28T12:01:45Z</time>
      </trkpt>
      <trkpt lat="47.119" lon="5.83437">
        <ele>272</ele>
        <time>2024-05-28T12:01:46Z</time>
      </trkpt>
      <trkpt lat="47.11897" lon="5.83437">
        <ele>272.2</ele>
        <time>2024-05-28T12:01:47Z</time>
      </trkpt>
      <trkpt lat="47.11895" lon="5.83437">
        <ele>272.2</ele>
        <time>2024-05-28T12:01:48Z</time>
      </trkpt>
      <trkpt lat="47.11892" lon="5.83437">
        <ele>272.4</ele>
        <time>2024-05-28T12:01:49Z</time>
      </trkpt>
      <trkpt lat="47.11889" lon="5.83437">
        <ele>272.4</ele>
        <time>2024-05-28T12:01:50Z</time>
      </trkpt>
      <trkpt lat="47.11886" lon="5.83437">
        <ele>272.6</ele>
        <time>2024-05-28T12:01:51Z</time>
      </trkpt>
      <trkpt lat="47.11884" lon="5.83437">
        <ele>272.8</ele>
        <time>2024-05-28T12:01:52Z</time>
      </trkpt>
      <trkpt lat="47.11882" lon="5.83437">
        <ele>272.8</ele>
        <time>2024-05-28T12:01:53Z</time>
      </trkpt>
      <trkpt lat="47.1188" lon="5.83437">
        <ele>273</ele>
        <time>2024-05-28T12:01:54Z</time>
      </trkpt>
      <trkpt lat="47.11877" lon="5.83436">
        <ele>273.2</ele>
        <time>2024-05-28T12:01:55Z</time>
      </trkpt>
      <trkpt lat="47.11875" lon="5.83435">
        <ele>273.4</ele>
        <time>2024-05-28T12:01:56Z</time>
      </trkpt>
      <trkpt lat="47.11873" lon="5.83434">
        <ele>273.4</ele>
        <time>2024-05-28T12:01:57Z</time>
      </trkpt>
      <trkpt lat="47.1187" lon="5.83433">
        <ele>273.6</ele>
        <time>2024-05-28T12:01:58Z</time>
      </trkpt>
      <trkpt lat="47.11867" lon="5.83433">
        <ele>273.8</ele>
        <time>2024-05-28T12:01:59Z</time>
      </trkpt>
      <trkpt lat="47.11865" lon="5.83432">
        <ele>274</ele>
        <time>2024-05-28T12:02:00Z</time>
      </trkpt>
      <trkpt lat="47.11862" lon="5.83431">
        <ele>274.4</ele>
        <time>2024-05-28T12:02:01Z</time>
      </trkpt>
      <trkpt lat="47.11859" lon="5.83431">
        <ele>274.4</ele>
        <time>2024-05-28T12:02:02Z</time>
      </trkpt>
      <trkpt lat="47.11856" lon="5.8343">
        <ele>274.6</ele>
        <time>2024-05-28T12:02:03Z</time>
      </trkpt>
      <trkpt lat="47.11853" lon="5.8343">
        <ele>274.6</ele>
        <time>2024-05-28T12:02:04Z</time>
      </trkpt>
      <trkpt lat="47.1185" lon="5.83428">
        <ele>274.8</ele>
        <time>2024-05-28T12:02:05Z</time>
      </trkpt>
      <trkpt lat="47.11847" lon="5.83428">
        <ele>275</ele>
        <time>2024-05-28T12:02:06Z</time>
      </trkpt>
      <trkpt lat="47.11844" lon="5.83426">
        <ele>275.2</ele>
        <time>2024-05-28T12:02:07Z</time>
      </trkpt>
      <trkpt lat="47.11841" lon="5.83426">
        <ele>275.6</ele>
        <time>2024-05-28T12:02:08Z</time>
      </trkpt>
      <trkpt lat="47.11838" lon="5.83425">
        <ele>275.6</ele>
        <time>2024-05-28T12:02:09Z</time>
      </trkpt>
      <trkpt lat="47.11835" lon="5.83424">
        <ele>275.8</ele>
        <time>2024-05-28T12:02:10Z</time>
      </trkpt>
      <trkpt lat="47.11833" lon="5.83423">
        <ele>275.8</ele>
        <time>2024-05-28T12:02:11Z</time>
      </trkpt>
      <trkpt lat="47.1183" lon="5.83422">
        <ele>276</ele>
        <time>2024-05-28T12:02:12Z</time>
      </trkpt>
      <trkpt lat="47.11827" lon="5.83421">
        <ele>276</ele>
        <time>2024-05-28T12:02:13Z</time>
      </trkpt>
      <trkpt lat="47.11825" lon="5.8342">
        <ele>276.2</ele>
        <time>2024-05-28T12:02:14Z</time>
      </trkpt>
      <trkpt lat="47.11822" lon="5.8342">
        <ele>276.2</ele>
        <time>2024-05-28T12:02:15Z</time>
      </trkpt>
      <trkpt lat="47.1182" lon="5.8342">
        <ele>276.4</ele>
        <time>2024-05-28T12:02:16Z</time>
      </trkpt>
      <trkpt lat="47.11817" lon="5.83419">
        <ele>276.6</ele>
        <time>2024-05-28T12:02:17Z</time>
      </trkpt>
      <trkpt lat="47.11814" lon="5.83419">
        <ele>276.6</ele>
        <time>2024-05-28T12:02:18Z</time>
      </trkpt>
      <trkpt lat="47.11812" lon="5.83418">
        <ele>276.8</ele>
        <time>2024-05-28T12:02:19Z</time>
      </trkpt>
      <trkpt lat="47.11809" lon="5.83417">
        <ele>276.8</ele>
        <time>2024-05-28T12:02:20Z</time>
      </trkpt>
      <trkpt lat="47.11808" lon="5.83417">
        <ele>277.2</ele>
        <time>2024-05-28T12:02:21Z</time>
      </trkpt>
      <trkpt lat="47.11805" lon="5.83416">
        <ele>277.2</ele>
        <time>2024-05-28T12:02:22Z</time>
      </trkpt>
      <trkpt lat="47.11803" lon="5.83416">
        <ele>277.6</ele>
        <time>2024-05-28T12:02:23Z</time>
      </trkpt>
      <trkpt lat="47.11801" lon="5.83416">
        <ele>277.8</ele>
        <time>2024-05-28T12:02:24Z</time>
      </trkpt>
      <trkpt lat="47.11798" lon="5.83416">
        <ele>278</ele>
        <time>2024-05-28T12:02:25Z</time>
      </trkpt>
      <trkpt lat="47.11796" lon="5.83415">
        <ele>278.2</ele>
        <time>2024-05-28T12:02:26Z</time>
      </trkpt>
      <trkpt lat="47.11793" lon="5.83415">
        <ele>278.2</ele>
        <time>2024-05-28T12:02:27Z</time>
      </trkpt>
      <trkpt lat="47.1179" lon="5.83415">
        <ele>278.4</ele>
        <time>2024-05-28T12:02:28Z</time>
      </trkpt>
      <trkpt lat="47.11788" lon="5.83414">
        <ele>278.4</ele>
        <time>2024-05-28T12:02:29Z</time>
      </trkpt>
      <trkpt lat="47.11786" lon="5.83414">
        <ele>278.8</ele>
        <time>2024-05-28T12:02:30Z</time>
      </trkpt>
      <trkpt lat="47.11783" lon="5.83414">
        <ele>279</ele>
        <time>2024-05-28T12:02:31Z</time>
      </trkpt>
      <trkpt lat="47.1178" lon="5.83413">
        <ele>279</ele>
        <time>2024-05-28T12:02:32Z</time>
      </trkpt>
      <trkpt lat="47.11778" lon="5.83413">
        <ele>279.2</ele>
        <time>2024-05-28T12:02:33Z</time>
      </trkpt>
      <trkpt lat="47.11776" lon="5.83412">
        <ele>279.2</ele>
        <time>2024-05-28T12:02:34Z</time>
      </trkpt>
      <trkpt lat="47.11774" lon="5.83412">
        <ele>279.4</ele>
        <time>2024-05-28T12:02:35Z</time>
      </trkpt>
      <trkpt lat="47.11772" lon="5.83411">
        <ele>279.4</ele>
        <time>2024-05-28T12:02:36Z</time>
      </trkpt>
      <trkpt lat="47.1177" lon="5.83411">
        <ele>279.6</ele>
        <time>2024-05-28T12:02:37Z</time>
      </trkpt>
      <trkpt lat="47.11768" lon="5.83411">
        <ele>279.8</ele>
        <time>2024-05-28T12:02:38Z</time>
      </trkpt>
      <trkpt lat="47.11766" lon="5.8341">
        <ele>280</ele>
        <time>2024-05-28T12:02:39Z</time>
      </trkpt>
      <trkpt lat="47.11764" lon="5.8341">
        <ele>280.2</ele>
        <time>2024-05-28T12:02:40Z</time>
      </trkpt>
      <trkpt lat="47.1176" lon="5.8341">
        <ele>280.2</ele>
        <time>2024-05-28T12:02:41Z</time>
      </trkpt>
      <trkpt lat="47.11758" lon="5.8341">
        <ele>280.4</ele>
        <time>2024-05-28T12:02:42Z</time>
      </trkpt>
      <trkpt lat="47.11755" lon="5.8341">
        <ele>280.6</ele>
        <time>2024-05-28T12:02:43Z</time>
      </trkpt>
      <trkpt lat="47.11752" lon="5.83409">
        <ele>280.6</ele>
        <time>2024-05-28T12:02:44Z</time>
      </trkpt>
      <trkpt lat="47.11751" lon="5.83409">
        <ele>280.8</ele>
        <time>2024-05-28T12:02:45Z</time>
      </trkpt>
      <trkpt lat="47.11749" lon="5.83409">
        <ele>280.8</ele>
        <time>2024-05-28T12:02:46Z</time>
      </trkpt>
      <trkpt lat="47.11746" lon="5.83408">
        <ele>280.8</ele>
        <time>2024-05-28T12:02:47Z</time>
      </trkpt>
      <trkpt lat="47.11743" lon="5.83408">
        <ele>281</ele>
        <time>2024-05-28T12:02:48Z</time>
      </trkpt>
      <trkpt lat="47.1174" lon="5.83407">
        <ele>281.2</ele>
        <time>2024-05-28T12:02:49Z</time>
      </trkpt>
      <trkpt lat="47.11737" lon="5.83407">
        <ele>281.4</ele>
        <time>2024-05-28T12:02:50Z</time>
      </trkpt>
      <trkpt lat="47.11734" lon="5.83407">
        <ele>281.6</ele>
        <time>2024-05-28T12:02:51Z</time>
      </trkpt>
      <trkpt lat="47.11732" lon="5.83406">
        <ele>281.6</ele>
        <time>2024-05-28T12:02:52Z</time>
      </trkpt>
      <trkpt lat="47.11729" lon="5.83406">
        <ele>282</ele>
        <time>2024-05-28T12:02:53Z</time>
      </trkpt>
      <trkpt lat="47.11727" lon="5.83406">
        <ele>282</ele>
        <time>2024-05-28T12:02:54Z</time>
      </trkpt>
      <trkpt lat="47.11724" lon="5.83406">
        <ele>282.2</ele>
        <time>2024-05-28T12:02:55Z</time>
      </trkpt>
      <trkpt lat="47.11721" lon="5.83406">
        <ele>282.4</ele>
        <time>2024-05-28T12:02:56Z</time>
      </trkpt>
      <trkpt lat="47.11719" lon="5.83406">
        <ele>282.4</ele>
        <time>2024-05-28T12:02:57Z</time>
      </trkpt>
      <trkpt lat="47.11717" lon="5.83405">
        <ele>282.4</ele>
        <time>2024-05-28T12:02:58Z</time>
      </trkpt>
      <trkpt lat="47.11715" lon="5.83405">
        <ele>282.6</ele>
        <time>2024-05-28T12:02:59Z</time>
      </trkpt>
      <trkpt lat="47.11713" lon="5.83404">
        <ele>282.6</ele>
        <time>2024-05-28T12:03:00Z</time>
      </trkpt>
      <trkpt lat="47.1171" lon="5.83403">
        <ele>282.8</ele>
        <time>2024-05-28T12:03:01Z</time>
      </trkpt>
      <trkpt lat="47.11707" lon="5.83403">
        <ele>282.8</ele>
        <time>2024-05-28T12:03:02Z</time>
      </trkpt>
      <trkpt lat="47.11705" lon="5.83402">
        <ele>283</ele>
        <time>2024-05-28T12:03:03Z</time>
      </trkpt>
      <trkpt lat="47.11702" lon="5.83402">
        <ele>283</ele>
        <time>2024-05-28T12:03:04Z</time>
      </trkpt>
      <trkpt lat="47.117" lon="5.83401">
        <ele>283.2</ele>
        <time>2024-05-28T12:03:05Z</time>
      </trkpt>
      <trkpt lat="47.11698" lon="5.83401">
        <ele>283.2</ele>
        <time>2024-05-28T12:03:06Z</time>
      </trkpt>
      <trkpt lat="47.11696" lon="5.834">
        <ele>283.4</ele>
        <time>2024-05-28T12:03:07Z</time>
      </trkpt>
      <trkpt lat="47.11694" lon="5.834">
        <ele>283.4</ele>
        <time>2024-05-28T12:03:08Z</time>
      </trkpt>
      <trkpt lat="47.11691" lon="5.834">
        <ele>283.4</ele>
        <time>2024-05-28T12:03:09Z</time>
      </trkpt>
      <trkpt lat="47.11689" lon="5.834">
        <ele>283.6</ele>
        <time>2024-05-28T12:03:10Z</time>
      </trkpt>
      <trkpt lat="47.11687" lon="5.834">
        <ele>283.8</ele>
        <time>2024-05-28T12:03:11Z</time>
      </trkpt>
      <trkpt lat="47.11685" lon="5.83399">
        <ele>283.8</ele>
        <time>2024-05-28T12:03:12Z</time>
      </trkpt>
      <trkpt lat="47.11683" lon="5.83399">
        <ele>284</ele>
        <time>2024-05-28T12:03:13Z</time>
      </trkpt>
      <trkpt lat="47.11681" lon="5.83399">
        <ele>284</ele>
        <time>2024-05-28T12:03:14Z</time>
      </trkpt>
      <trkpt lat="47.11679" lon="5.83398">
        <ele>284.2</ele>
        <time>2024-05-28T12:03:15Z</time>
      </trkpt>
      <trkpt lat="47.11677" lon="5.83399">
        <ele>284.2</ele>
        <time>2024-05-28T12:03:16Z</time>
      </trkpt>
      <trkpt lat="47.11675" lon="5.83398">
        <ele>284.4</ele>
        <time>2024-05-28T12:03:17Z</time>
      </trkpt>
      <trkpt lat="47.11674" lon="5.83398">
        <ele>284.6</ele>
        <time>2024-05-28T12:03:18Z</time>
      </trkpt>
      <trkpt lat="47.11672" lon="5.83398">
        <ele>284.6</ele>
        <time>2024-05-28T12:03:19Z</time>
      </trkpt>
      <trkpt lat="47.1167" lon="5.83398">
        <ele>284.8</ele>
        <time>2024-05-28T12:03:20Z</time>
      </trkpt>
      <trkpt lat="47.11668" lon="5.83399">
        <ele>284.8</ele>
        <time>2024-05-28T12:03:21Z</time>
      </trkpt>
      <trkpt lat="47.11666" lon="5.83399">
        <ele>285</ele>
        <time>2024-05-28T12:03:22Z</time>
      </trkpt>
      <trkpt lat="47.11664" lon="5.83399">
        <ele>285</ele>
        <time>2024-05-28T12:03:23Z</time>
      </trkpt>
      <trkpt lat="47.11662" lon="5.83399">
        <ele>285.2</ele>
        <time>2024-05-28T12:03:24Z</time>
      </trkpt>
      <trkpt lat="47.1166" lon="5.83399">
        <ele>285.2</ele>
        <time>2024-05-28T12:03:25Z</time>
      </trkpt>
      <trkpt lat="47.11658" lon="5.834">
        <ele>285.2</ele>
        <time>2024-05-28T12:03:26Z</time>
      </trkpt>
      <trkpt lat="47.11656" lon="5.83401">
        <ele>285.2</ele>
        <time>2024-05-28T12:03:27Z</time>
      </trkpt>
      <trkpt lat="47.11654" lon="5.83401">
        <ele>285.2</ele>
        <time>2024-05-28T12:03:28Z</time>
      </trkpt>
      <trkpt lat="47.11651" lon="5.83403">
        <ele>285.2</ele>
        <time>2024-05-28T12:03:29Z</time>
      </trkpt>
      <trkpt lat="47.1165" lon="5.83405">
        <ele>285.2</ele>
        <time>2024-05-28T12:03:30Z</time>
      </trkpt>
      <trkpt lat="47.11652" lon="5.83408">
        <ele>285.2</ele>
        <time>2024-05-28T12:03:31Z</time>
      </trkpt>
      <trkpt lat="47.11655" lon="5.83412">
        <ele>285.2</ele>
        <time>2024-05-28T12:03:33Z</time>
      </trkpt>
      <trkpt lat="47.11656" lon="5.83413">
        <ele>285.4</ele>
        <time>2024-05-28T12:03:34Z</time>
      </trkpt>
      <trkpt lat="47.11657" lon="5.83413">
        <ele>285.6</ele>
        <time>2024-05-28T12:03:35Z</time>
      </trkpt>
      <trkpt lat="47.11659" lon="5.83413">
        <ele>285.6</ele>
        <time>2024-05-28T12:03:36Z</time>
      </trkpt>
      <trkpt lat="47.1166" lon="5.83414">
        <ele>285.8</ele>
        <time>2024-05-28T12:03:37Z</time>
      </trkpt>
      <trkpt lat="47.11661" lon="5.83415">
        <ele>285.8</ele>
        <time>2024-05-28T12:03:38Z</time>
      </trkpt>
      <trkpt lat="47.11664" lon="5.83416">
        <ele>286.2</ele>
        <time>2024-05-28T12:03:40Z</time>
      </trkpt>
      <trkpt lat="47.11665" lon="5.83417">
        <ele>286.6</ele>
        <time>2024-05-28T12:03:41Z</time>
      </trkpt>
      <trkpt lat="47.11666" lon="5.83417">
        <ele>286.6</ele>
        <time>2024-05-28T12:03:42Z</time>
      </trkpt>
      <trkpt lat="47.11668" lon="5.83418">
        <ele>286.8</ele>
        <time>2024-05-28T12:03:43Z</time>
      </trkpt>
      <trkpt lat="47.1167" lon="5.83419">
        <ele>287</ele>
        <time>2024-05-28T12:03:44Z</time>
      </trkpt>
      <trkpt lat="47.11672" lon="5.8342">
        <ele>287.2</ele>
        <time>2024-05-28T12:03:45Z</time>
      </trkpt>
      <trkpt lat="47.11673" lon="5.83421">
        <ele>287.6</ele>
        <time>2024-05-28T12:03:46Z</time>
      </trkpt>
      <trkpt lat="47.11675" lon="5.83423">
        <ele>287.6</ele>
        <time>2024-05-28T12:03:47Z</time>
      </trkpt>
      <trkpt lat="47.11676" lon="5.83425">
        <ele>287.8</ele>
        <time>2024-05-28T12:03:48Z</time>
      </trkpt>
      <trkpt lat="47.11678" lon="5.83427">
        <ele>287.8</ele>
        <time>2024-05-28T12:03:49Z</time>
      </trkpt>
      <trkpt lat="47.1168" lon="5.83428">
        <ele>288</ele>
        <time>2024-05-28T12:03:50Z</time>
      </trkpt>
      <trkpt lat="47.11682" lon="5.8343">
        <ele>288.2</ele>
        <time>2024-05-28T12:03:51Z</time>
      </trkpt>
      <trkpt lat="47.11685" lon="5.83433">
        <ele>288.2</ele>
        <time>2024-05-28T12:03:52Z</time>
      </trkpt>
      <trkpt lat="47.11686" lon="5.83435">
        <ele>288.4</ele>
        <time>2024-05-28T12:03:53Z</time>
      </trkpt>
      <trkpt lat="47.11688" lon="5.83437">
        <ele>288.4</ele>
        <time>2024-05-28T12:03:54Z</time>
      </trkpt>
      <trkpt lat="47.1169" lon="5.83439">
        <ele>288.6</ele>
        <time>2024-05-28T12:03:55Z</time>
      </trkpt>
      <trkpt lat="47.11691" lon="5.8344">
        <ele>288.8</ele>
        <time>2024-05-28T12:03:56Z</time>
      </trkpt>
      <trkpt lat="47.11692" lon="5.83443">
        <ele>289</ele>
        <time>2024-05-28T12:03:57Z</time>
      </trkpt>
      <trkpt lat="47.11692" lon="5.83445">
        <ele>289</ele>
        <time>2024-05-28T12:03:58Z</time>
      </trkpt>
      <trkpt lat="47.11693" lon="5.83447">
        <ele>289.2</ele>
        <time>2024-05-28T12:03:59Z</time>
      </trkpt>
      <trkpt lat="47.11693" lon="5.83449">
        <ele>289.4</ele>
        <time>2024-05-28T12:04:00Z</time>
      </trkpt>
      <trkpt lat="47.11693" lon="5.83451">
        <ele>289.4</ele>
        <time>2024-05-28T12:04:01Z</time>
      </trkpt>
      <trkpt lat="47.11694" lon="5.83452">
        <ele>289.6</ele>
        <time>2024-05-28T12:04:02Z</time>
      </trkpt>
      <trkpt lat="47.11696" lon="5.83454">
        <ele>289.6</ele>
        <time>2024-05-28T12:04:03Z</time>
      </trkpt>
      <trkpt lat="47.11697" lon="5.83456">
        <ele>289.8</ele>
        <time>2024-05-28T12:04:04Z</time>
      </trkpt>
      <trkpt lat="47.11698" lon="5.83457">
        <ele>289.8</ele>
        <time>2024-05-28T12:04:05Z</time>
      </trkpt>
      <trkpt lat="47.11698" lon="5.83457">
        <ele>290</ele>
        <time>2024-05-28T12:04:06Z</time>
      </trkpt>
      <trkpt lat="47.11699" lon="5.83458">
        <ele>290</ele>
        <time>2024-05-28T12:04:07Z</time>
      </trkpt>
      <trkpt lat="47.117" lon="5.8346">
        <ele>290</ele>
        <time>2024-05-28T12:04:08Z</time>
      </trkpt>
      <trkpt lat="47.117" lon="5.8346">
        <ele>290</ele>
        <time>2024-05-28T12:04:09Z</time>
      </trkpt>
      <trkpt lat="47.117" lon="5.83461">
        <ele>290.2</ele>
        <time>2024-05-28T12:04:10Z</time>
      </trkpt>
      <trkpt lat="47.11701" lon="5.83462">
        <ele>290.2</ele>
        <time>2024-05-28T12:04:11Z</time>
      </trkpt>
      <trkpt lat="47.11702" lon="5.83463">
        <ele>290.2</ele>
        <time>2024-05-28T12:04:12Z</time>
      </trkpt>
      <trkpt lat="47.11703" lon="5.83464">
        <ele>290.4</ele>
        <time>2024-05-28T12:04:13Z</time>
      </trkpt>
      <trkpt lat="47.11705" lon="5.83466">
        <ele>290.4</ele>
        <time>2024-05-28T12:04:14Z</time>
      </trkpt>
      <trkpt lat="47.11706" lon="5.83465">
        <ele>290.4</ele>
        <time>2024-05-28T12:04:15Z</time>
      </trkpt>
      <trkpt lat="47.11707" lon="5.83466">
        <ele>290.4</ele>
        <time>2024-05-28T12:04:16Z</time>
      </trkpt>
      <trkpt lat="47.11707" lon="5.83466">
        <ele>290.4</ele>
        <time>2024-05-28T12:04:17Z</time>
      </trkpt>
      <trkpt lat="47.11707" lon="5.83466">
        <ele>290.6</ele>
        <time>2024-05-28T12:04:18Z</time>
      </trkpt>
      <trkpt lat="47.11707" lon="5.83466">
        <ele>290.6</ele>
        <time>2024-05-28T12:04:19Z</time>
      </trkpt>
      <trkpt lat="47.11707" lon="5.83466">
        <ele>290.6</ele>
        <time>2024-05-28T12:04:22Z</time>
      </trkpt>
      <trkpt lat="47.11707" lon="5.83466">
        <ele>290.6</ele>
        <time>2024-05-28T12:04:23Z</time>
      </trkpt>
      <trkpt lat="47.11707" lon="5.83466">
        <ele>290.8</ele>
        <time>2024-05-28T12:04:27Z</time>
      </trkpt>
      <trkpt lat="47.11707" lon="5.83466">
        <ele>291</ele>
        <time>2024-05-28T12:04:31Z</time>
      </trkpt>
      <trkpt lat="47.11708" lon="5.8347">
        <ele>291</ele>
        <time>2024-05-28T12:06:32Z</time>
      </trkpt>
      <trkpt lat="47.11709" lon="5.83472">
        <ele>291</ele>
        <time>2024-05-28T12:06:33Z</time>
      </trkpt>
      <trkpt lat="47.1171" lon="5.83474">
        <ele>291</ele>
        <time>2024-05-28T12:06:34Z</time>
      </trkpt>
      <trkpt lat="47.1171" lon="5.83476">
        <ele>291</ele>
        <time>2024-05-28T12:06:35Z</time>
      </trkpt>
      <trkpt lat="47.11712" lon="5.83478">
        <ele>291</ele>
        <time>2024-05-28T12:06:36Z</time>
      </trkpt>
      <trkpt lat="47.11714" lon="5.8348">
        <ele>291</ele>
        <time>2024-05-28T12:06:37Z</time>
      </trkpt>
      <trkpt lat="47.11714" lon="5.8348">
        <ele>291</ele>
        <time>2024-05-28T12:06:38Z</time>
      </trkpt>
      <trkpt lat="47.11715" lon="5.83481">
        <ele>291</ele>
        <time>2024-05-28T12:06:39Z</time>
      </trkpt>
      <trkpt lat="47.11716" lon="5.83481">
        <ele>291</ele>
        <time>2024-05-28T12:06:40Z</time>
      </trkpt>
      <trkpt lat="47.11716" lon="5.83481">
        <ele>291</ele>
        <time>2024-05-28T12:06:41Z</time>
      </trkpt>
      <trkpt lat="47.11717" lon="5.83483">
        <ele>291</ele>
        <time>2024-05-28T12:06:42Z</time>
      </trkpt>
      <trkpt lat="47.11718" lon="5.83483">
        <ele>291</ele>
        <time>2024-05-28T12:06:43Z</time>
      </trkpt>
      <trkpt lat="47.11718" lon="5.83485">
        <ele>291</ele>
        <time>2024-05-28T12:06:44Z</time>
      </trkpt>
      <trkpt lat="47.11719" lon="5.83486">
        <ele>291</ele>
        <time>2024-05-28T12:06:45Z</time>
      </trkpt>
      <trkpt lat="47.11721" lon="5.83488">
        <ele>291</ele>
        <time>2024-05-28T12:06:46Z</time>
      </trkpt>
      <trkpt lat="47.11721" lon="5.83488">
        <ele>291.2</ele>
        <time>2024-05-28T12:06:47Z</time>
      </trkpt>
      <trkpt lat="47.11723" lon="5.8349">
        <ele>291.2</ele>
        <time>2024-05-28T12:06:48Z</time>
      </trkpt>
      <trkpt lat="47.11726" lon="5.83492">
        <ele>291.2</ele>
        <time>2024-05-28T12:06:49Z</time>
      </trkpt>
      <trkpt lat="47.11729" lon="5.83495">
        <ele>291.4</ele>
        <time>2024-05-28T12:06:50Z</time>
      </trkpt>
      <trkpt lat="47.11734" lon="5.83499">
        <ele>291.4</ele>
        <time>2024-05-28T12:06:53Z</time>
      </trkpt>
      <trkpt lat="47.11737" lon="5.83501">
        <ele>291.6</ele>
        <time>2024-05-28T12:06:54Z</time>
      </trkpt>
      <trkpt lat="47.11753" lon="5.83512">
        <ele>291.8</ele>
        <time>2024-05-28T12:06:58Z</time>
      </trkpt>
      <trkpt lat="47.11769" lon="5.83518">
        <ele>292</ele>
        <time>2024-05-28T12:07:00Z</time>
      </trkpt>
      <trkpt lat="47.11775" lon="5.83523">
        <ele>292.2</ele>
        <time>2024-05-28T12:07:03Z</time>
      </trkpt>
      <trkpt lat="47.11777" lon="5.83525">
        <ele>292.2</ele>
        <time>2024-05-28T12:07:04Z</time>
      </trkpt>
      <trkpt lat="47.11786" lon="5.83528">
        <ele>292.6</ele>
        <time>2024-05-28T12:07:07Z</time>
      </trkpt>
      <trkpt lat="47.1179" lon="5.8353">
        <ele>292.6</ele>
        <time>2024-05-28T12:07:08Z</time>
      </trkpt>
      <trkpt lat="47.11792" lon="5.83533">
        <ele>292.8</ele>
        <time>2024-05-28T12:07:09Z</time>
      </trkpt>
      <trkpt lat="47.11796" lon="5.83537">
        <ele>293</ele>
        <time>2024-05-28T12:07:11Z</time>
      </trkpt>
      <trkpt lat="47.11798" lon="5.83539">
        <ele>293</ele>
        <time>2024-05-28T12:07:12Z</time>
      </trkpt>
      <trkpt lat="47.11802" lon="5.8354">
        <ele>293</ele>
        <time>2024-05-28T12:07:13Z</time>
      </trkpt>
      <trkpt lat="47.11805" lon="5.83542">
        <ele>293.2</ele>
        <time>2024-05-28T12:07:14Z</time>
      </trkpt>
      <trkpt lat="47.11809" lon="5.83543">
        <ele>293.2</ele>
        <time>2024-05-28T12:07:15Z</time>
      </trkpt>
      <trkpt lat="47.11821" lon="5.83546">
        <ele>293.4</ele>
        <time>2024-05-28T12:07:19Z</time>
      </trkpt>
      <trkpt lat="47.11823" lon="5.83547">
        <ele>293.4</ele>
        <time>2024-05-28T12:07:20Z</time>
      </trkpt>
      <trkpt lat="47.11824" lon="5.83545">
        <ele>293.4</ele>
        <time>2024-05-28T12:07:21Z</time>
      </trkpt>
      <trkpt lat="47.11827" lon="5.83545">
        <ele>293.6</ele>
        <time>2024-05-28T12:07:22Z</time>
      </trkpt>
      <trkpt lat="47.11829" lon="5.83546">
        <ele>293.6</ele>
        <time>2024-05-28T12:07:23Z</time>
      </trkpt>
      <trkpt lat="47.11832" lon="5.83546">
        <ele>293.6</ele>
        <time>2024-05-28T12:07:24Z</time>
      </trkpt>
      <trkpt lat="47.11836" lon="5.83547">
        <ele>293.8</ele>
        <time>2024-05-28T12:07:25Z</time>
      </trkpt>
      <trkpt lat="47.11838" lon="5.83548">
        <ele>293.8</ele>
        <time>2024-05-28T12:07:26Z</time>
      </trkpt>
      <trkpt lat="47.11839" lon="5.83548">
        <ele>293.8</ele>
        <time>2024-05-28T12:07:27Z</time>
      </trkpt>
      <trkpt lat="47.11839" lon="5.83548">
        <ele>294</ele>
        <time>2024-05-28T12:07:28Z</time>
      </trkpt>
      <trkpt lat="47.11839" lon="5.83549">
        <ele>294</ele>
        <time>2024-05-28T12:07:29Z</time>
      </trkpt>
      <trkpt lat="47.11851" lon="5.83555">
        <ele>294.4</ele>
        <time>2024-05-28T12:07:33Z</time>
      </trkpt>
      <trkpt lat="47.11854" lon="5.83557">
        <ele>294.4</ele>
        <time>2024-05-28T12:07:34Z</time>
      </trkpt>
      <trkpt lat="47.11858" lon="5.83558">
        <ele>294.6</ele>
        <time>2024-05-28T12:07:36Z</time>
      </trkpt>
      <trkpt lat="47.11861" lon="5.83559">
        <ele>294.6</ele>
        <time>2024-05-28T12:07:37Z</time>
      </trkpt>
      <trkpt lat="47.11865" lon="5.83561">
        <ele>294.6</ele>
        <time>2024-05-28T12:07:38Z</time>
      </trkpt>
      <trkpt lat="47.11877" lon="5.83566">
        <ele>294.6</ele>
        <time>2024-05-28T12:07:41Z</time>
      </trkpt>
      <trkpt lat="47.11879" lon="5.83568">
        <ele>294.6</ele>
        <time>2024-05-28T12:07:42Z</time>
      </trkpt>
      <trkpt lat="47.11883" lon="5.8357">
        <ele>294.6</ele>
        <time>2024-05-28T12:07:43Z</time>
      </trkpt>
      <trkpt lat="47.11886" lon="5.83573">
        <ele>294.6</ele>
        <time>2024-05-28T12:07:44Z</time>
      </trkpt>
      <trkpt lat="47.11896" lon="5.83578">
        <ele>294.4</ele>
        <time>2024-05-28T12:07:46Z</time>
      </trkpt>
      <trkpt lat="47.11897" lon="5.8358">
        <ele>294.4</ele>
        <time>2024-05-28T12:07:47Z</time>
      </trkpt>
      <trkpt lat="47.11899" lon="5.83583">
        <ele>294.4</ele>
        <time>2024-05-28T12:07:48Z</time>
      </trkpt>
      <trkpt lat="47.119" lon="5.83586">
        <ele>294.4</ele>
        <time>2024-05-28T12:07:49Z</time>
      </trkpt>
      <trkpt lat="47.11902" lon="5.83587">
        <ele>294.4</ele>
        <time>2024-05-28T12:07:50Z</time>
      </trkpt>
      <trkpt lat="47.11903" lon="5.83588">
        <ele>294.4</ele>
        <time>2024-05-28T12:07:51Z</time>
      </trkpt>
      <trkpt lat="47.11905" lon="5.8359">
        <ele>294.4</ele>
        <time>2024-05-28T12:07:52Z</time>
      </trkpt>
      <trkpt lat="47.1191" lon="5.83592">
        <ele>294.4</ele>
        <time>2024-05-28T12:07:53Z</time>
      </trkpt>
      <trkpt lat="47.11912" lon="5.83597">
        <ele>294.4</ele>
        <time>2024-05-28T12:07:54Z</time>
      </trkpt>
      <trkpt lat="47.11916" lon="5.83601">
        <ele>294.4</ele>
        <time>2024-05-28T12:07:55Z</time>
      </trkpt>
      <trkpt lat="47.11917" lon="5.83603">
        <ele>294.4</ele>
        <time>2024-05-28T12:07:56Z</time>
      </trkpt>
      <trkpt lat="47.11919" lon="5.83604">
        <ele>294.4</ele>
        <time>2024-05-28T12:07:57Z</time>
      </trkpt>
      <trkpt lat="47.11921" lon="5.83606">
        <ele>294.4</ele>
        <time>2024-05-28T12:07:58Z</time>
      </trkpt>
      <trkpt lat="47.11923" lon="5.83609">
        <ele>294.4</ele>
        <time>2024-05-28T12:07:59Z</time>
      </trkpt>
      <trkpt lat="47.11929" lon="5.83613">
        <ele>294.4</ele>
        <time>2024-05-28T12:08:02Z</time>
      </trkpt>
      <trkpt lat="47.11929" lon="5.83616">
        <ele>294.4</ele>
        <time>2024-05-28T12:08:03Z</time>
      </trkpt>
      <trkpt lat="47.11931" lon="5.8362">
        <ele>294.6</ele>
        <time>2024-05-28T12:08:04Z</time>
      </trkpt>
      <trkpt lat="47.11935" lon="5.83621">
        <ele>294.6</ele>
        <time>2024-05-28T12:08:05Z</time>
      </trkpt>
      <trkpt lat="47.11937" lon="5.83622">
        <ele>294.6</ele>
        <time>2024-05-28T12:08:06Z</time>
      </trkpt>
      <trkpt lat="47.1194" lon="5.83624">
        <ele>294.8</ele>
        <time>2024-05-28T12:08:07Z</time>
      </trkpt>
      <trkpt lat="47.11946" lon="5.83626">
        <ele>294.8</ele>
        <time>2024-05-28T12:08:08Z</time>
      </trkpt>
      <trkpt lat="47.11948" lon="5.8363">
        <ele>294.8</ele>
        <time>2024-05-28T12:08:09Z</time>
      </trkpt>
      <trkpt lat="47.11949" lon="5.83634">
        <ele>294.8</ele>
        <time>2024-05-28T12:08:10Z</time>
      </trkpt>
      <trkpt lat="47.1195" lon="5.83639">
        <ele>294.8</ele>
        <time>2024-05-28T12:08:11Z</time>
      </trkpt>
      <trkpt lat="47.11951" lon="5.83642">
        <ele>294.8</ele>
        <time>2024-05-28T12:08:12Z</time>
      </trkpt>
      <trkpt lat="47.11953" lon="5.83645">
        <ele>294.8</ele>
        <time>2024-05-28T12:08:13Z</time>
      </trkpt>
      <trkpt lat="47.11955" lon="5.83647">
        <ele>294.8</ele>
        <time>2024-05-28T12:08:14Z</time>
      </trkpt>
      <trkpt lat="47.11956" lon="5.83648">
        <ele>294.8</ele>
        <time>2024-05-28T12:08:15Z</time>
      </trkpt>
      <trkpt lat="47.11958" lon="5.83649">
        <ele>294.6</ele>
        <time>2024-05-28T12:08:16Z</time>
      </trkpt>
      <trkpt lat="47.11959" lon="5.8365">
        <ele>294.6</ele>
        <time>2024-05-28T12:08:17Z</time>
      </trkpt>
      <trkpt lat="47.11961" lon="5.83651">
        <ele>294.6</ele>
        <time>2024-05-28T12:08:18Z</time>
      </trkpt>
      <trkpt lat="47.11961" lon="5.83653">
        <ele>294.4</ele>
        <time>2024-05-28T12:08:19Z</time>
      </trkpt>
      <trkpt lat="47.11961" lon="5.83655">
        <ele>294.4</ele>
        <time>2024-05-28T12:08:20Z</time>
      </trkpt>
      <trkpt lat="47.11962" lon="5.83657">
        <ele>294.4</ele>
        <time>2024-05-28T12:08:21Z</time>
      </trkpt>
      <trkpt lat="47.11962" lon="5.83658">
        <ele>294.2</ele>
        <time>2024-05-28T12:08:22Z</time>
      </trkpt>
      <trkpt lat="47.11962" lon="5.83658">
        <ele>294</ele>
        <time>2024-05-28T12:08:23Z</time>
      </trkpt>
      <trkpt lat="47.11962" lon="5.83658">
        <ele>294</ele>
        <time>2024-05-28T12:08:24Z</time>
      </trkpt>
      <trkpt lat="47.11962" lon="5.83658">
        <ele>294</ele>
        <time>2024-05-28T12:08:25Z</time>
      </trkpt>
      <trkpt lat="47.11962" lon="5.83658">
        <ele>294</ele>
        <time>2024-05-28T12:08:34Z</time>
      </trkpt>
      <trkpt lat="47.11962" lon="5.83658">
        <ele>294</ele>
        <time>2024-05-28T12:08:37Z</time>
      </trkpt>
      <trkpt lat="47.11962" lon="5.83659">
        <ele>294</ele>
        <time>2024-05-28T12:09:07Z</time>
      </trkpt>
      <trkpt lat="47.1196" lon="5.8367">
        <ele>294</ele>
        <time>2024-05-28T12:09:10Z</time>
      </trkpt>
      <trkpt lat="47.11957" lon="5.83675">
        <ele>294</ele>
        <time>2024-05-28T12:09:11Z</time>
      </trkpt>
      <trkpt lat="47.11954" lon="5.83682">
        <ele>294</ele>
        <time>2024-05-28T12:09:12Z</time>
      </trkpt>
      <trkpt lat="47.11951" lon="5.83689">
        <ele>293.8</ele>
        <time>2024-05-28T12:09:13Z</time>
      </trkpt>
      <trkpt lat="47.11948" lon="5.83695">
        <ele>293.4</ele>
        <time>2024-05-28T12:09:14Z</time>
      </trkpt>
      <trkpt lat="47.11945" lon="5.83701">
        <ele>292.2</ele>
        <time>2024-05-28T12:09:15Z</time>
      </trkpt>
      <trkpt lat="47.11943" lon="5.83707">
        <ele>291.8</ele>
        <time>2024-05-28T12:09:16Z</time>
      </trkpt>
      <trkpt lat="47.11939" lon="5.83713">
        <ele>291</ele>
        <time>2024-05-28T12:09:17Z</time>
      </trkpt>
      <trkpt lat="47.11933" lon="5.8372">
        <ele>290</ele>
        <time>2024-05-28T12:09:18Z</time>
      </trkpt>
      <trkpt lat="47.11927" lon="5.83727">
        <ele>289.4</ele>
        <time>2024-05-28T12:09:19Z</time>
      </trkpt>
      <trkpt lat="47.11919" lon="5.83735">
        <ele>288.6</ele>
        <time>2024-05-28T12:09:20Z</time>
      </trkpt>
      <trkpt lat="47.11913" lon="5.83743">
        <ele>288.2</ele>
        <time>2024-05-28T12:09:21Z</time>
      </trkpt>
      <trkpt lat="47.11908" lon="5.83749">
        <ele>287.4</ele>
        <time>2024-05-28T12:09:22Z</time>
      </trkpt>
      <trkpt lat="47.11896" lon="5.83761">
        <ele>285.4</ele>
        <time>2024-05-28T12:09:24Z</time>
      </trkpt>
      <trkpt lat="47.1189" lon="5.83768">
        <ele>285</ele>
        <time>2024-05-28T12:09:25Z</time>
      </trkpt>
      <trkpt lat="47.11883" lon="5.83774">
        <ele>283.8</ele>
        <time>2024-05-28T12:09:26Z</time>
      </trkpt>
      <trkpt lat="47.1187" lon="5.83785">
        <ele>282.4</ele>
        <time>2024-05-28T12:09:28Z</time>
      </trkpt>
      <trkpt lat="47.11856" lon="5.83794">
        <ele>281.2</ele>
        <time>2024-05-28T12:09:30Z</time>
      </trkpt>
      <trkpt lat="47.11849" lon="5.83799">
        <ele>281</ele>
        <time>2024-05-28T12:09:31Z</time>
      </trkpt>
      <trkpt lat="47.11843" lon="5.83804">
        <ele>280.8</ele>
        <time>2024-05-28T12:09:32Z</time>
      </trkpt>
      <trkpt lat="47.11835" lon="5.83809">
        <ele>280.2</ele>
        <time>2024-05-28T12:09:33Z</time>
      </trkpt>
      <trkpt lat="47.11819" lon="5.83818">
        <ele>278.6</ele>
        <time>2024-05-28T12:09:35Z</time>
      </trkpt>
      <trkpt lat="47.11812" lon="5.83822">
        <ele>277.6</ele>
        <time>2024-05-28T12:09:36Z</time>
      </trkpt>
      <trkpt lat="47.11806" lon="5.83826">
        <ele>276.8</ele>
        <time>2024-05-28T12:09:37Z</time>
      </trkpt>
      <trkpt lat="47.11799" lon="5.83832">
        <ele>275.6</ele>
        <time>2024-05-28T12:09:38Z</time>
      </trkpt>
      <trkpt lat="47.11793" lon="5.83839">
        <ele>275.4</ele>
        <time>2024-05-28T12:09:39Z</time>
      </trkpt>
      <trkpt lat="47.11788" lon="5.83845">
        <ele>274.8</ele>
        <time>2024-05-28T12:09:40Z</time>
      </trkpt>
      <trkpt lat="47.11783" lon="5.83853">
        <ele>274.6</ele>
        <time>2024-05-28T12:09:41Z</time>
      </trkpt>
      <trkpt lat="47.11779" lon="5.83859">
        <ele>273.6</ele>
        <time>2024-05-28T12:09:42Z</time>
      </trkpt>
      <trkpt lat="47.11774" lon="5.83866">
        <ele>272.8</ele>
        <time>2024-05-28T12:09:43Z</time>
      </trkpt>
      <trkpt lat="47.11769" lon="5.83871">
        <ele>272.4</ele>
        <time>2024-05-28T12:09:44Z</time>
      </trkpt>
      <trkpt lat="47.11765" lon="5.83876">
        <ele>271</ele>
        <time>2024-05-28T12:09:45Z</time>
      </trkpt>
      <trkpt lat="47.11761" lon="5.83881">
        <ele>270.4</ele>
        <time>2024-05-28T12:09:46Z</time>
      </trkpt>
      <trkpt lat="47.11758" lon="5.83885">
        <ele>269.2</ele>
        <time>2024-05-28T12:09:47Z</time>
      </trkpt>
      <trkpt lat="47.11756" lon="5.83889">
        <ele>268.8</ele>
        <time>2024-05-28T12:09:48Z</time>
      </trkpt>
      <trkpt lat="47.11754" lon="5.83892">
        <ele>268.4</ele>
        <time>2024-05-28T12:09:49Z</time>
      </trkpt>
      <trkpt lat="47.11753" lon="5.83895">
        <ele>267.4</ele>
        <time>2024-05-28T12:09:50Z</time>
      </trkpt>
      <trkpt lat="47.11752" lon="5.83898">
        <ele>267.2</ele>
        <time>2024-05-28T12:09:51Z</time>
      </trkpt>
      <trkpt lat="47.1175" lon="5.83899">
        <ele>266.6</ele>
        <time>2024-05-28T12:09:52Z</time>
      </trkpt>
      <trkpt lat="47.11748" lon="5.83901">
        <ele>266.6</ele>
        <time>2024-05-28T12:09:53Z</time>
      </trkpt>
      <trkpt lat="47.11747" lon="5.83902">
        <ele>266.2</ele>
        <time>2024-05-28T12:09:54Z</time>
      </trkpt>
      <trkpt lat="47.11745" lon="5.83904">
        <ele>266</ele>
        <time>2024-05-28T12:09:55Z</time>
      </trkpt>
      <trkpt lat="47.11744" lon="5.83906">
        <ele>266</ele>
        <time>2024-05-28T12:09:57Z</time>
      </trkpt>
      <trkpt lat="47.11744" lon="5.83906">
        <ele>266</ele>
        <time>2024-05-28T12:09:58Z</time>
      </trkpt>
      <trkpt lat="47.11744" lon="5.83906">
        <ele>265.6</ele>
        <time>2024-05-28T12:09:59Z</time>
      </trkpt>
      <trkpt lat="47.1174" lon="5.83911">
        <ele>265.2</ele>
        <time>2024-05-28T12:10:04Z</time>
      </trkpt>
      <trkpt lat="47.11739" lon="5.83914">
        <ele>265.2</ele>
        <time>2024-05-28T12:10:05Z</time>
      </trkpt>
      <trkpt lat="47.11737" lon="5.83917">
        <ele>264.8</ele>
        <time>2024-05-28T12:10:06Z</time>
      </trkpt>
      <trkpt lat="47.11735" lon="5.83921">
        <ele>264.8</ele>
        <time>2024-05-28T12:10:07Z</time>
      </trkpt>
      <trkpt lat="47.11732" lon="5.83933">
        <ele>264.6</ele>
        <time>2024-05-28T12:10:10Z</time>
      </trkpt>
      <trkpt lat="47.11731" lon="5.83938">
        <ele>264.6</ele>
        <time>2024-05-28T12:10:11Z</time>
      </trkpt>
      <trkpt lat="47.11731" lon="5.83951">
        <ele>264</ele>
        <time>2024-05-28T12:10:14Z</time>
      </trkpt>
      <trkpt lat="47.11728" lon="5.83965">
        <ele>263.6</ele>
        <time>2024-05-28T12:10:17Z</time>
      </trkpt>
      <trkpt lat="47.11727" lon="5.8397">
        <ele>263.4</ele>
        <time>2024-05-28T12:10:18Z</time>
      </trkpt>
      <trkpt lat="47.11727" lon="5.83974">
        <ele>263.4</ele>
        <time>2024-05-28T12:10:19Z</time>
      </trkpt>
      <trkpt lat="47.11726" lon="5.83979">
        <ele>263.4</ele>
        <time>2024-05-28T12:10:20Z</time>
      </trkpt>
      <trkpt lat="47.11726" lon="5.83988">
        <ele>263.4</ele>
        <time>2024-05-28T12:10:22Z</time>
      </trkpt>
      <trkpt lat="47.11726" lon="5.83992">
        <ele>263.4</ele>
        <time>2024-05-28T12:10:23Z</time>
      </trkpt>
      <trkpt lat="47.11726" lon="5.84">
        <ele>263.8</ele>
        <time>2024-05-28T12:10:25Z</time>
      </trkpt>
      <trkpt lat="47.11727" lon="5.84003">
        <ele>264</ele>
        <time>2024-05-28T12:10:26Z</time>
      </trkpt>
      <trkpt lat="47.11727" lon="5.84006">
        <ele>264</ele>
        <time>2024-05-28T12:10:27Z</time>
      </trkpt>
      <trkpt lat="47.11726" lon="5.84008">
        <ele>264.2</ele>
        <time>2024-05-28T12:10:28Z</time>
      </trkpt>
      <trkpt lat="47.11725" lon="5.84011">
        <ele>264.2</ele>
        <time>2024-05-28T12:10:29Z</time>
      </trkpt>
      <trkpt lat="47.11725" lon="5.84013">
        <ele>264.4</ele>
        <time>2024-05-28T12:10:30Z</time>
      </trkpt>
      <trkpt lat="47.11724" lon="5.84015">
        <ele>264.8</ele>
        <time>2024-05-28T12:10:31Z</time>
      </trkpt>
      <trkpt lat="47.11724" lon="5.84017">
        <ele>264.8</ele>
        <time>2024-05-28T12:10:32Z</time>
      </trkpt>
      <trkpt lat="47.11724" lon="5.84021">
        <ele>265.2</ele>
        <time>2024-05-28T12:10:33Z</time>
      </trkpt>
      <trkpt lat="47.11723" lon="5.84024">
        <ele>265.2</ele>
        <time>2024-05-28T12:10:34Z</time>
      </trkpt>
      <trkpt lat="47.11722" lon="5.84027">
        <ele>265.4</ele>
        <time>2024-05-28T12:10:35Z</time>
      </trkpt>
      <trkpt lat="47.11722" lon="5.84031">
        <ele>265.6</ele>
        <time>2024-05-28T12:10:36Z</time>
      </trkpt>
      <trkpt lat="47.11722" lon="5.84034">
        <ele>266</ele>
        <time>2024-05-28T12:10:37Z</time>
      </trkpt>
      <trkpt lat="47.11721" lon="5.84037">
        <ele>266.2</ele>
        <time>2024-05-28T12:10:38Z</time>
      </trkpt>
      <trkpt lat="47.1172" lon="5.84046">
        <ele>266.8</ele>
        <time>2024-05-28T12:10:41Z</time>
      </trkpt>
      <trkpt lat="47.11719" lon="5.84048">
        <ele>266.8</ele>
        <time>2024-05-28T12:10:42Z</time>
      </trkpt>
      <trkpt lat="47.11719" lon="5.84051">
        <ele>267</ele>
        <time>2024-05-28T12:10:43Z</time>
      </trkpt>
      <trkpt lat="47.11717" lon="5.84054">
        <ele>267.2</ele>
        <time>2024-05-28T12:10:44Z</time>
      </trkpt>
      <trkpt lat="47.11716" lon="5.84057">
        <ele>267.4</ele>
        <time>2024-05-28T12:10:45Z</time>
      </trkpt>
      <trkpt lat="47.11715" lon="5.84061">
        <ele>267.4</ele>
        <time>2024-05-28T12:10:46Z</time>
      </trkpt>
      <trkpt lat="47.11714" lon="5.84065">
        <ele>267.8</ele>
        <time>2024-05-28T12:10:47Z</time>
      </trkpt>
      <trkpt lat="47.11713" lon="5.8407">
        <ele>267.8</ele>
        <time>2024-05-28T12:10:48Z</time>
      </trkpt>
      <trkpt lat="47.11712" lon="5.84074">
        <ele>268</ele>
        <time>2024-05-28T12:10:49Z</time>
      </trkpt>
      <trkpt lat="47.11712" lon="5.84075">
        <ele>268</ele>
        <time>2024-05-28T12:10:50Z</time>
      </trkpt>
      <trkpt lat="47.11713" lon="5.84078">
        <ele>268.4</ele>
        <time>2024-05-28T12:10:51Z</time>
      </trkpt>
      <trkpt lat="47.11712" lon="5.84082">
        <ele>268.6</ele>
        <time>2024-05-28T12:10:52Z</time>
      </trkpt>
      <trkpt lat="47.11712" lon="5.84083">
        <ele>269</ele>
        <time>2024-05-28T12:10:53Z</time>
      </trkpt>
      <trkpt lat="47.11711" lon="5.84085">
        <ele>269.2</ele>
        <time>2024-05-28T12:10:54Z</time>
      </trkpt>
      <trkpt lat="47.1171" lon="5.84087">
        <ele>269.2</ele>
        <time>2024-05-28T12:10:55Z</time>
      </trkpt>
      <trkpt lat="47.1171" lon="5.84088">
        <ele>269.2</ele>
        <time>2024-05-28T12:10:56Z</time>
      </trkpt>
      <trkpt lat="47.11709" lon="5.8409">
        <ele>269.4</ele>
        <time>2024-05-28T12:10:57Z</time>
      </trkpt>
      <trkpt lat="47.11708" lon="5.84094">
        <ele>269.4</ele>
        <time>2024-05-28T12:10:58Z</time>
      </trkpt>
      <trkpt lat="47.11706" lon="5.84098">
        <ele>269.4</ele>
        <time>2024-05-28T12:10:59Z</time>
      </trkpt>
      <trkpt lat="47.11705" lon="5.841">
        <ele>269.6</ele>
        <time>2024-05-28T12:11:00Z</time>
      </trkpt>
      <trkpt lat="47.11704" lon="5.84102">
        <ele>269.6</ele>
        <time>2024-05-28T12:11:01Z</time>
      </trkpt>
      <trkpt lat="47.11703" lon="5.84105">
        <ele>269.8</ele>
        <time>2024-05-28T12:11:02Z</time>
      </trkpt>
      <trkpt lat="47.11702" lon="5.84107">
        <ele>270</ele>
        <time>2024-05-28T12:11:03Z</time>
      </trkpt>
      <trkpt lat="47.11702" lon="5.8411">
        <ele>270</ele>
        <time>2024-05-28T12:11:04Z</time>
      </trkpt>
      <trkpt lat="47.11702" lon="5.84112">
        <ele>270.2</ele>
        <time>2024-05-28T12:11:05Z</time>
      </trkpt>
      <trkpt lat="47.11702" lon="5.84114">
        <ele>270.2</ele>
        <time>2024-05-28T12:11:06Z</time>
      </trkpt>
      <trkpt lat="47.11701" lon="5.84117">
        <ele>270.4</ele>
        <time>2024-05-28T12:11:07Z</time>
      </trkpt>
      <trkpt lat="47.117" lon="5.84121">
        <ele>270.4</ele>
        <time>2024-05-28T12:11:08Z</time>
      </trkpt>
      <trkpt lat="47.117" lon="5.84125">
        <ele>270.4</ele>
        <time>2024-05-28T12:11:09Z</time>
      </trkpt>
      <trkpt lat="47.11699" lon="5.84125">
        <ele>270.6</ele>
        <time>2024-05-28T12:11:10Z</time>
      </trkpt>
      <trkpt lat="47.11698" lon="5.84127">
        <ele>270.8</ele>
        <time>2024-05-28T12:11:11Z</time>
      </trkpt>
      <trkpt lat="47.11697" lon="5.84132">
        <ele>270.8</ele>
        <time>2024-05-28T12:11:12Z</time>
      </trkpt>
      <trkpt lat="47.11695" lon="5.84136">
        <ele>271</ele>
        <time>2024-05-28T12:11:13Z</time>
      </trkpt>
      <trkpt lat="47.11695" lon="5.84138">
        <ele>271</ele>
        <time>2024-05-28T12:11:14Z</time>
      </trkpt>
      <trkpt lat="47.11695" lon="5.84139">
        <ele>271.2</ele>
        <time>2024-05-28T12:11:15Z</time>
      </trkpt>
      <trkpt lat="47.11694" lon="5.84142">
        <ele>271.4</ele>
        <time>2024-05-28T12:11:16Z</time>
      </trkpt>
      <trkpt lat="47.11694" lon="5.84144">
        <ele>271.6</ele>
        <time>2024-05-28T12:11:17Z</time>
      </trkpt>
      <trkpt lat="47.11694" lon="5.84145">
        <ele>271.6</ele>
        <time>2024-05-28T12:11:18Z</time>
      </trkpt>
      <trkpt lat="47.11694" lon="5.84148">
        <ele>271.8</ele>
        <time>2024-05-28T12:11:19Z</time>
      </trkpt>
      <trkpt lat="47.11694" lon="5.84151">
        <ele>272</ele>
        <time>2024-05-28T12:11:20Z</time>
      </trkpt>
      <trkpt lat="47.11694" lon="5.84152">
        <ele>272.2</ele>
        <time>2024-05-28T12:11:21Z</time>
      </trkpt>
      <trkpt lat="47.11694" lon="5.84154">
        <ele>272.2</ele>
        <time>2024-05-28T12:11:22Z</time>
      </trkpt>
      <trkpt lat="47.11694" lon="5.84155">
        <ele>272.4</ele>
        <time>2024-05-28T12:11:23Z</time>
      </trkpt>
      <trkpt lat="47.11694" lon="5.84157">
        <ele>272.4</ele>
        <time>2024-05-28T12:11:24Z</time>
      </trkpt>
      <trkpt lat="47.11693" lon="5.84159">
        <ele>272.6</ele>
        <time>2024-05-28T12:11:25Z</time>
      </trkpt>
      <trkpt lat="47.11692" lon="5.84161">
        <ele>272.6</ele>
        <time>2024-05-28T12:11:26Z</time>
      </trkpt>
      <trkpt lat="47.11692" lon="5.84163">
        <ele>272.8</ele>
        <time>2024-05-28T12:11:27Z</time>
      </trkpt>
      <trkpt lat="47.11691" lon="5.84165">
        <ele>272.8</ele>
        <time>2024-05-28T12:11:28Z</time>
      </trkpt>
      <trkpt lat="47.1169" lon="5.84167">
        <ele>273</ele>
        <time>2024-05-28T12:11:29Z</time>
      </trkpt>
      <trkpt lat="47.1169" lon="5.84169">
        <ele>273.2</ele>
        <time>2024-05-28T12:11:30Z</time>
      </trkpt>
      <trkpt lat="47.11689" lon="5.84171">
        <ele>273.2</ele>
        <time>2024-05-28T12:11:31Z</time>
      </trkpt>
      <trkpt lat="47.11687" lon="5.84174">
        <ele>273.4</ele>
        <time>2024-05-28T12:11:32Z</time>
      </trkpt>
      <trkpt lat="47.11686" lon="5.84176">
        <ele>273.4</ele>
        <time>2024-05-28T12:11:33Z</time>
      </trkpt>
      <trkpt lat="47.11685" lon="5.84179">
        <ele>273.6</ele>
        <time>2024-05-28T12:11:34Z</time>
      </trkpt>
      <trkpt lat="47.11684" lon="5.84181">
        <ele>273.6</ele>
        <time>2024-05-28T12:11:35Z</time>
      </trkpt>
      <trkpt lat="47.11682" lon="5.84185">
        <ele>273.8</ele>
        <time>2024-05-28T12:11:36Z</time>
      </trkpt>
      <trkpt lat="47.11681" lon="5.84188">
        <ele>273.8</ele>
        <time>2024-05-28T12:11:37Z</time>
      </trkpt>
      <trkpt lat="47.11681" lon="5.84191">
        <ele>273.8</ele>
        <time>2024-05-28T12:11:38Z</time>
      </trkpt>
      <trkpt lat="47.11679" lon="5.84193">
        <ele>274</ele>
        <time>2024-05-28T12:11:39Z</time>
      </trkpt>
      <trkpt lat="47.11677" lon="5.84196">
        <ele>274</ele>
        <time>2024-05-28T12:11:40Z</time>
      </trkpt>
      <trkpt lat="47.11675" lon="5.842">
        <ele>274</ele>
        <time>2024-05-28T12:11:41Z</time>
      </trkpt>
      <trkpt lat="47.11674" lon="5.84203">
        <ele>274.2</ele>
        <time>2024-05-28T12:11:42Z</time>
      </trkpt>
      <trkpt lat="47.11673" lon="5.84207">
        <ele>274.2</ele>
        <time>2024-05-28T12:11:43Z</time>
      </trkpt>
      <trkpt lat="47.11671" lon="5.8421">
        <ele>274.2</ele>
        <time>2024-05-28T12:11:44Z</time>
      </trkpt>
      <trkpt lat="47.1167" lon="5.84215">
        <ele>274.2</ele>
        <time>2024-05-28T12:11:45Z</time>
      </trkpt>
      <trkpt lat="47.11669" lon="5.84219">
        <ele>274.2</ele>
        <time>2024-05-28T12:11:46Z</time>
      </trkpt>
      <trkpt lat="47.11669" lon="5.84223">
        <ele>274.2</ele>
        <time>2024-05-28T12:11:47Z</time>
      </trkpt>
      <trkpt lat="47.11669" lon="5.84227">
        <ele>274.2</ele>
        <time>2024-05-28T12:11:48Z</time>
      </trkpt>
      <trkpt lat="47.11669" lon="5.8423">
        <ele>274.2</ele>
        <time>2024-05-28T12:11:49Z</time>
      </trkpt>
      <trkpt lat="47.11669" lon="5.84234">
        <ele>274.2</ele>
        <time>2024-05-28T12:11:50Z</time>
      </trkpt>
      <trkpt lat="47.11669" lon="5.84238">
        <ele>274.2</ele>
        <time>2024-05-28T12:11:51Z</time>
      </trkpt>
      <trkpt lat="47.11669" lon="5.84247">
        <ele>274.2</ele>
        <time>2024-05-28T12:11:53Z</time>
      </trkpt>
      <trkpt lat="47.1167" lon="5.84264">
        <ele>274.4</ele>
        <time>2024-05-28T12:11:58Z</time>
      </trkpt>
      <trkpt lat="47.1167" lon="5.84267">
        <ele>274.4</ele>
        <time>2024-05-28T12:11:59Z</time>
      </trkpt>
      <trkpt lat="47.1167" lon="5.84271">
        <ele>274.4</ele>
        <time>2024-05-28T12:12:00Z</time>
      </trkpt>
      <trkpt lat="47.1167" lon="5.84277">
        <ele>274.6</ele>
        <time>2024-05-28T12:12:02Z</time>
      </trkpt>
      <trkpt lat="47.1167" lon="5.84312">
        <ele>275.6</ele>
        <time>2024-05-28T12:12:11Z</time>
      </trkpt>
      <trkpt lat="47.1167" lon="5.84316">
        <ele>275.8</ele>
        <time>2024-05-28T12:12:12Z</time>
      </trkpt>
      <trkpt lat="47.1167" lon="5.84348">
        <ele>276.8</ele>
        <time>2024-05-28T12:12:20Z</time>
      </trkpt>
      <trkpt lat="47.1167" lon="5.84366">
        <ele>277.4</ele>
        <time>2024-05-28T12:12:25Z</time>
      </trkpt>
      <trkpt lat="47.11671" lon="5.8437">
        <ele>277.6</ele>
        <time>2024-05-28T12:12:26Z</time>
      </trkpt>
      <trkpt lat="47.11671" lon="5.84374">
        <ele>277.6</ele>
        <time>2024-05-28T12:12:27Z</time>
      </trkpt>
      <trkpt lat="47.11671" lon="5.84383">
        <ele>277.8</ele>
        <time>2024-05-28T12:12:29Z</time>
      </trkpt>
      <trkpt lat="47.11672" lon="5.84387">
        <ele>277.8</ele>
        <time>2024-05-28T12:12:30Z</time>
      </trkpt>
      <trkpt lat="47.11672" lon="5.84392">
        <ele>277.8</ele>
        <time>2024-05-28T12:12:31Z</time>
      </trkpt>
      <trkpt lat="47.11673" lon="5.84396">
        <ele>277.8</ele>
        <time>2024-05-28T12:12:32Z</time>
      </trkpt>
      <trkpt lat="47.11673" lon="5.84401">
        <ele>277.8</ele>
        <time>2024-05-28T12:12:33Z</time>
      </trkpt>
      <trkpt lat="47.11673" lon="5.84405">
        <ele>278</ele>
        <time>2024-05-28T12:12:34Z</time>
      </trkpt>
      <trkpt lat="47.11674" lon="5.84408">
        <ele>278</ele>
        <time>2024-05-28T12:12:35Z</time>
      </trkpt>
      <trkpt lat="47.11675" lon="5.84412">
        <ele>278</ele>
        <time>2024-05-28T12:12:36Z</time>
      </trkpt>
      <trkpt lat="47.11675" lon="5.84415">
        <ele>278</ele>
        <time>2024-05-28T12:12:37Z</time>
      </trkpt>
      <trkpt lat="47.11675" lon="5.84417">
        <ele>278</ele>
        <time>2024-05-28T12:12:38Z</time>
      </trkpt>
      <trkpt lat="47.11675" lon="5.84419">
        <ele>278.2</ele>
        <time>2024-05-28T12:12:39Z</time>
      </trkpt>
      <trkpt lat="47.11675" lon="5.84421">
        <ele>278.2</ele>
        <time>2024-05-28T12:12:40Z</time>
      </trkpt>
      <trkpt lat="47.11676" lon="5.84422">
        <ele>278.2</ele>
        <time>2024-05-28T12:12:41Z</time>
      </trkpt>
      <trkpt lat="47.11677" lon="5.84424">
        <ele>278.2</ele>
        <time>2024-05-28T12:12:42Z</time>
      </trkpt>
      <trkpt lat="47.11678" lon="5.84427">
        <ele>278.2</ele>
        <time>2024-05-28T12:12:43Z</time>
      </trkpt>
      <trkpt lat="47.11679" lon="5.84439">
        <ele>278.4</ele>
        <time>2024-05-28T12:12:46Z</time>
      </trkpt>
      <trkpt lat="47.11679" lon="5.84443">
        <ele>278.4</ele>
        <time>2024-05-28T12:12:47Z</time>
      </trkpt>
      <trkpt lat="47.11679" lon="5.84461">
        <ele>278.4</ele>
        <time>2024-05-28T12:12:51Z</time>
      </trkpt>
      <trkpt lat="47.1168" lon="5.84465">
        <ele>278.6</ele>
        <time>2024-05-28T12:12:52Z</time>
      </trkpt>
      <trkpt lat="47.11684" lon="5.84491">
        <ele>279</ele>
        <time>2024-05-28T12:12:58Z</time>
      </trkpt>
      <trkpt lat="47.11685" lon="5.84496">
        <ele>279</ele>
        <time>2024-05-28T12:12:59Z</time>
      </trkpt>
      <trkpt lat="47.11686" lon="5.84501">
        <ele>279.4</ele>
        <time>2024-05-28T12:13:00Z</time>
      </trkpt>
      <trkpt lat="47.11696" lon="5.8453">
        <ele>279.8</ele>
        <time>2024-05-28T12:13:06Z</time>
      </trkpt>
      <trkpt lat="47.11703" lon="5.84562">
        <ele>279.8</ele>
        <time>2024-05-28T12:13:12Z</time>
      </trkpt>
      <trkpt lat="47.11703" lon="5.84576">
        <ele>279.8</ele>
        <time>2024-05-28T12:13:14Z</time>
      </trkpt>
      <trkpt lat="47.11704" lon="5.84601">
        <ele>279.8</ele>
        <time>2024-05-28T12:13:17Z</time>
      </trkpt>
      <trkpt lat="47.11704" lon="5.84617">
        <ele>279.6</ele>
        <time>2024-05-28T12:13:19Z</time>
      </trkpt>
      <trkpt lat="47.11704" lon="5.84624">
        <ele>279.4</ele>
        <time>2024-05-28T12:13:20Z</time>
      </trkpt>
      <trkpt lat="47.11702" lon="5.8463">
        <ele>279.2</ele>
        <time>2024-05-28T12:13:21Z</time>
      </trkpt>
      <trkpt lat="47.117" lon="5.84635">
        <ele>279.2</ele>
        <time>2024-05-28T12:13:22Z</time>
      </trkpt>
      <trkpt lat="47.11699" lon="5.8464">
        <ele>279</ele>
        <time>2024-05-28T12:13:23Z</time>
      </trkpt>
      <trkpt lat="47.11697" lon="5.84645">
        <ele>279</ele>
        <time>2024-05-28T12:13:24Z</time>
      </trkpt>
      <trkpt lat="47.11696" lon="5.8465">
        <ele>279</ele>
        <time>2024-05-28T12:13:25Z</time>
      </trkpt>
      <trkpt lat="47.11695" lon="5.84655">
        <ele>279</ele>
        <time>2024-05-28T12:13:26Z</time>
      </trkpt>
      <trkpt lat="47.11694" lon="5.84659">
        <ele>279</ele>
        <time>2024-05-28T12:13:27Z</time>
      </trkpt>
      <trkpt lat="47.11693" lon="5.84663">
        <ele>279</ele>
        <time>2024-05-28T12:13:28Z</time>
      </trkpt>
      <trkpt lat="47.1169" lon="5.84678">
        <ele>279</ele>
        <time>2024-05-28T12:13:31Z</time>
      </trkpt>
      <trkpt lat="47.11689" lon="5.84683">
        <ele>279</ele>
        <time>2024-05-28T12:13:32Z</time>
      </trkpt>
      <trkpt lat="47.11687" lon="5.84689">
        <ele>279</ele>
        <time>2024-05-28T12:13:33Z</time>
      </trkpt>
      <trkpt lat="47.11686" lon="5.84694">
        <ele>279.2</ele>
        <time>2024-05-28T12:13:34Z</time>
      </trkpt>
      <trkpt lat="47.11684" lon="5.84699">
        <ele>279.2</ele>
        <time>2024-05-28T12:13:35Z</time>
      </trkpt>
      <trkpt lat="47.11683" lon="5.84704">
        <ele>279.2</ele>
        <time>2024-05-28T12:13:36Z</time>
      </trkpt>
      <trkpt lat="47.11679" lon="5.84724">
        <ele>279.2</ele>
        <time>2024-05-28T12:13:40Z</time>
      </trkpt>
      <trkpt lat="47.11678" lon="5.84731">
        <ele>279.4</ele>
        <time>2024-05-28T12:13:42Z</time>
      </trkpt>
      <trkpt lat="47.11677" lon="5.84734">
        <ele>279.4</ele>
        <time>2024-05-28T12:13:43Z</time>
      </trkpt>
      <trkpt lat="47.11677" lon="5.84738">
        <ele>279.6</ele>
        <time>2024-05-28T12:13:44Z</time>
      </trkpt>
      <trkpt lat="47.11676" lon="5.84742">
        <ele>279.6</ele>
        <time>2024-05-28T12:13:45Z</time>
      </trkpt>
      <trkpt lat="47.11676" lon="5.84746">
        <ele>279.8</ele>
        <time>2024-05-28T12:13:46Z</time>
      </trkpt>
      <trkpt lat="47.11674" lon="5.84755">
        <ele>280.2</ele>
        <time>2024-05-28T12:13:48Z</time>
      </trkpt>
      <trkpt lat="47.11669" lon="5.84768">
        <ele>280.6</ele>
        <time>2024-05-28T12:13:51Z</time>
      </trkpt>
      <trkpt lat="47.11668" lon="5.84771">
        <ele>280.8</ele>
        <time>2024-05-28T12:13:52Z</time>
      </trkpt>
      <trkpt lat="47.11668" lon="5.84774">
        <ele>280.8</ele>
        <time>2024-05-28T12:13:53Z</time>
      </trkpt>
      <trkpt lat="47.11668" lon="5.84776">
        <ele>280.8</ele>
        <time>2024-05-28T12:13:54Z</time>
      </trkpt>
      <trkpt lat="47.11667" lon="5.8478">
        <ele>281</ele>
        <time>2024-05-28T12:13:55Z</time>
      </trkpt>
      <trkpt lat="47.11666" lon="5.84784">
        <ele>281</ele>
        <time>2024-05-28T12:13:56Z</time>
      </trkpt>
      <trkpt lat="47.1166" lon="5.84804">
        <ele>281</ele>
        <time>2024-05-28T12:14:00Z</time>
      </trkpt>
      <trkpt lat="47.11659" lon="5.84808">
        <ele>281</ele>
        <time>2024-05-28T12:14:01Z</time>
      </trkpt>
      <trkpt lat="47.11659" lon="5.84813">
        <ele>281</ele>
        <time>2024-05-28T12:14:02Z</time>
      </trkpt>
      <trkpt lat="47.11658" lon="5.84818">
        <ele>281.2</ele>
        <time>2024-05-28T12:14:03Z</time>
      </trkpt>
      <trkpt lat="47.11657" lon="5.84824">
        <ele>281.2</ele>
        <time>2024-05-28T12:14:04Z</time>
      </trkpt>
      <trkpt lat="47.11656" lon="5.84829">
        <ele>281.2</ele>
        <time>2024-05-28T12:14:05Z</time>
      </trkpt>
      <trkpt lat="47.11643" lon="5.8488">
        <ele>281.4</ele>
        <time>2024-05-28T12:14:15Z</time>
      </trkpt>
      <trkpt lat="47.11642" lon="5.84884">
        <ele>281.4</ele>
        <time>2024-05-28T12:14:16Z</time>
      </trkpt>
      <trkpt lat="47.11641" lon="5.84887">
        <ele>281.4</ele>
        <time>2024-05-28T12:14:17Z</time>
      </trkpt>
      <trkpt lat="47.1164" lon="5.84891">
        <ele>281.4</ele>
        <time>2024-05-28T12:14:18Z</time>
      </trkpt>
      <trkpt lat="47.11639" lon="5.84895">
        <ele>281.4</ele>
        <time>2024-05-28T12:14:19Z</time>
      </trkpt>
      <trkpt lat="47.11638" lon="5.84899">
        <ele>281.2</ele>
        <time>2024-05-28T12:14:20Z</time>
      </trkpt>
      <trkpt lat="47.11632" lon="5.84936">
        <ele>281</ele>
        <time>2024-05-28T12:14:29Z</time>
      </trkpt>
      <trkpt lat="47.11631" lon="5.84948">
        <ele>281.4</ele>
        <time>2024-05-28T12:14:32Z</time>
      </trkpt>
      <trkpt lat="47.11631" lon="5.84952">
        <ele>281.6</ele>
        <time>2024-05-28T12:14:33Z</time>
      </trkpt>
      <trkpt lat="47.11631" lon="5.84957">
        <ele>281.8</ele>
        <time>2024-05-28T12:14:34Z</time>
      </trkpt>
      <trkpt lat="47.1163" lon="5.84961">
        <ele>282</ele>
        <time>2024-05-28T12:14:35Z</time>
      </trkpt>
      <trkpt lat="47.11629" lon="5.84965">
        <ele>282.2</ele>
        <time>2024-05-28T12:14:36Z</time>
      </trkpt>
      <trkpt lat="47.11627" lon="5.84969">
        <ele>282.4</ele>
        <time>2024-05-28T12:14:37Z</time>
      </trkpt>
      <trkpt lat="47.11626" lon="5.84973">
        <ele>282.6</ele>
        <time>2024-05-28T12:14:38Z</time>
      </trkpt>
      <trkpt lat="47.11625" lon="5.84976">
        <ele>282.8</ele>
        <time>2024-05-28T12:14:39Z</time>
      </trkpt>
      <trkpt lat="47.11614" lon="5.85002">
        <ele>283.4</ele>
        <time>2024-05-28T12:14:45Z</time>
      </trkpt>
      <trkpt lat="47.11608" lon="5.85012">
        <ele>283.6</ele>
        <time>2024-05-28T12:14:48Z</time>
      </trkpt>
      <trkpt lat="47.11601" lon="5.85026">
        <ele>284</ele>
        <time>2024-05-28T12:14:52Z</time>
      </trkpt>
      <trkpt lat="47.11597" lon="5.85034">
        <ele>284.2</ele>
        <time>2024-05-28T12:14:54Z</time>
      </trkpt>
      <trkpt lat="47.11595" lon="5.85037">
        <ele>284.4</ele>
        <time>2024-05-28T12:14:55Z</time>
      </trkpt>
      <trkpt lat="47.11593" lon="5.85041">
        <ele>284.4</ele>
        <time>2024-05-28T12:14:56Z</time>
      </trkpt>
      <trkpt lat="47.11591" lon="5.85044">
        <ele>284.6</ele>
        <time>2024-05-28T12:14:57Z</time>
      </trkpt>
      <trkpt lat="47.11589" lon="5.85048">
        <ele>284.8</ele>
        <time>2024-05-28T12:14:58Z</time>
      </trkpt>
      <trkpt lat="47.11587" lon="5.85051">
        <ele>284.8</ele>
        <time>2024-05-28T12:14:59Z</time>
      </trkpt>
      <trkpt lat="47.11585" lon="5.85054">
        <ele>285</ele>
        <time>2024-05-28T12:15:00Z</time>
      </trkpt>
      <trkpt lat="47.11583" lon="5.85057">
        <ele>285</ele>
        <time>2024-05-28T12:15:01Z</time>
      </trkpt>
      <trkpt lat="47.11581" lon="5.85061">
        <ele>285</ele>
        <time>2024-05-28T12:15:02Z</time>
      </trkpt>
      <trkpt lat="47.11579" lon="5.85065">
        <ele>285.2</ele>
        <time>2024-05-28T12:15:03Z</time>
      </trkpt>
      <trkpt lat="47.11578" lon="5.85068">
        <ele>285.2</ele>
        <time>2024-05-28T12:15:04Z</time>
      </trkpt>
      <trkpt lat="47.11576" lon="5.85072">
        <ele>285.2</ele>
        <time>2024-05-28T12:15:05Z</time>
      </trkpt>
      <trkpt lat="47.11575" lon="5.85076">
        <ele>285.4</ele>
        <time>2024-05-28T12:15:06Z</time>
      </trkpt>
      <trkpt lat="47.11573" lon="5.8508">
        <ele>285.4</ele>
        <time>2024-05-28T12:15:07Z</time>
      </trkpt>
      <trkpt lat="47.11571" lon="5.85084">
        <ele>285.4</ele>
        <time>2024-05-28T12:15:08Z</time>
      </trkpt>
      <trkpt lat="47.1157" lon="5.85087">
        <ele>285.6</ele>
        <time>2024-05-28T12:15:09Z</time>
      </trkpt>
      <trkpt lat="47.11569" lon="5.85091">
        <ele>285.6</ele>
        <time>2024-05-28T12:15:10Z</time>
      </trkpt>
      <trkpt lat="47.11567" lon="5.85095">
        <ele>285.8</ele>
        <time>2024-05-28T12:15:11Z</time>
      </trkpt>
      <trkpt lat="47.11566" lon="5.85099">
        <ele>286</ele>
        <time>2024-05-28T12:15:12Z</time>
      </trkpt>
      <trkpt lat="47.11564" lon="5.85104">
        <ele>286.2</ele>
        <time>2024-05-28T12:15:13Z</time>
      </trkpt>
      <trkpt lat="47.11558" lon="5.85119">
        <ele>286.4</ele>
        <time>2024-05-28T12:15:17Z</time>
      </trkpt>
      <trkpt lat="47.11557" lon="5.85123">
        <ele>286.6</ele>
        <time>2024-05-28T12:15:18Z</time>
      </trkpt>
      <trkpt lat="47.11555" lon="5.85126">
        <ele>286.6</ele>
        <time>2024-05-28T12:15:19Z</time>
      </trkpt>
      <trkpt lat="47.11554" lon="5.85129">
        <ele>286.8</ele>
        <time>2024-05-28T12:15:20Z</time>
      </trkpt>
      <trkpt lat="47.11551" lon="5.85133">
        <ele>287.2</ele>
        <time>2024-05-28T12:15:22Z</time>
      </trkpt>
      <trkpt lat="47.1155" lon="5.85135">
        <ele>287.2</ele>
        <time>2024-05-28T12:15:23Z</time>
      </trkpt>
      <trkpt lat="47.11548" lon="5.85137">
        <ele>287.4</ele>
        <time>2024-05-28T12:15:24Z</time>
      </trkpt>
      <trkpt lat="47.11546" lon="5.85138">
        <ele>287.6</ele>
        <time>2024-05-28T12:15:25Z</time>
      </trkpt>
      <trkpt lat="47.11544" lon="5.85138">
        <ele>287.8</ele>
        <time>2024-05-28T12:15:26Z</time>
      </trkpt>
      <trkpt lat="47.11542" lon="5.85138">
        <ele>287.8</ele>
        <time>2024-05-28T12:15:27Z</time>
      </trkpt>
      <trkpt lat="47.11541" lon="5.85137">
        <ele>287.8</ele>
        <time>2024-05-28T12:15:28Z</time>
      </trkpt>
      <trkpt lat="47.11539" lon="5.85136">
        <ele>288</ele>
        <time>2024-05-28T12:15:29Z</time>
      </trkpt>
      <trkpt lat="47.11537" lon="5.85136">
        <ele>288</ele>
        <time>2024-05-28T12:15:30Z</time>
      </trkpt>
      <trkpt lat="47.11535" lon="5.85135">
        <ele>288</ele>
        <time>2024-05-28T12:15:31Z</time>
      </trkpt>
      <trkpt lat="47.11533" lon="5.85134">
        <ele>288</ele>
        <time>2024-05-28T12:15:32Z</time>
      </trkpt>
      <trkpt lat="47.11531" lon="5.85134">
        <ele>288.2</ele>
        <time>2024-05-28T12:15:33Z</time>
      </trkpt>
      <trkpt lat="47.11529" lon="5.85133">
        <ele>288.2</ele>
        <time>2024-05-28T12:15:34Z</time>
      </trkpt>
      <trkpt lat="47.11527" lon="5.85132">
        <ele>288.2</ele>
        <time>2024-05-28T12:15:35Z</time>
      </trkpt>
      <trkpt lat="47.11525" lon="5.85131">
        <ele>288.2</ele>
        <time>2024-05-28T12:15:36Z</time>
      </trkpt>
      <trkpt lat="47.11524" lon="5.85131">
        <ele>288.2</ele>
        <time>2024-05-28T12:15:37Z</time>
      </trkpt>
      <trkpt lat="47.11522" lon="5.8513">
        <ele>288.4</ele>
        <time>2024-05-28T12:15:38Z</time>
      </trkpt>
      <trkpt lat="47.1152" lon="5.85129">
        <ele>288.4</ele>
        <time>2024-05-28T12:15:39Z</time>
      </trkpt>
      <trkpt lat="47.11518" lon="5.85129">
        <ele>288.4</ele>
        <time>2024-05-28T12:15:40Z</time>
      </trkpt>
      <trkpt lat="47.11516" lon="5.85128">
        <ele>288.4</ele>
        <time>2024-05-28T12:15:41Z</time>
      </trkpt>
      <trkpt lat="47.11513" lon="5.85127">
        <ele>288.6</ele>
        <time>2024-05-28T12:15:43Z</time>
      </trkpt>
      <trkpt lat="47.11511" lon="5.85126">
        <ele>288.6</ele>
        <time>2024-05-28T12:15:44Z</time>
      </trkpt>
      <trkpt lat="47.11511" lon="5.85125">
        <ele>288.8</ele>
        <time>2024-05-28T12:15:45Z</time>
      </trkpt>
      <trkpt lat="47.11511" lon="5.85125">
        <ele>288.8</ele>
        <time>2024-05-28T12:15:46Z</time>
      </trkpt>
      <trkpt lat="47.1151" lon="5.85125">
        <ele>289</ele>
        <time>2024-05-28T12:15:49Z</time>
      </trkpt>
      <trkpt lat="47.11507" lon="5.85124">
        <ele>289.2</ele>
        <time>2024-05-28T12:15:51Z</time>
      </trkpt>
      <trkpt lat="47.11503" lon="5.8512">
        <ele>289.2</ele>
        <time>2024-05-28T12:15:54Z</time>
      </trkpt>
      <trkpt lat="47.11486" lon="5.85115">
        <ele>290.6</ele>
        <time>2024-05-28T12:16:02Z</time>
      </trkpt>
      <trkpt lat="47.11482" lon="5.85115">
        <ele>290.8</ele>
        <time>2024-05-28T12:16:04Z</time>
      </trkpt>
      <trkpt lat="47.11481" lon="5.85116">
        <ele>291</ele>
        <time>2024-05-28T12:16:05Z</time>
      </trkpt>
      <trkpt lat="47.11479" lon="5.85118">
        <ele>291</ele>
        <time>2024-05-28T12:16:06Z</time>
      </trkpt>
      <trkpt lat="47.11478" lon="5.8512">
        <ele>291.2</ele>
        <time>2024-05-28T12:16:07Z</time>
      </trkpt>
      <trkpt lat="47.11476" lon="5.85121">
        <ele>291.4</ele>
        <time>2024-05-28T12:16:08Z</time>
      </trkpt>
      <trkpt lat="47.11474" lon="5.85123">
        <ele>291.4</ele>
        <time>2024-05-28T12:16:09Z</time>
      </trkpt>
      <trkpt lat="47.11473" lon="5.85126">
        <ele>291.6</ele>
        <time>2024-05-28T12:16:10Z</time>
      </trkpt>
      <trkpt lat="47.11471" lon="5.85133">
        <ele>292</ele>
        <time>2024-05-28T12:16:12Z</time>
      </trkpt>
      <trkpt lat="47.1147" lon="5.85138">
        <ele>292.2</ele>
        <time>2024-05-28T12:16:13Z</time>
      </trkpt>
      <trkpt lat="47.1147" lon="5.85141">
        <ele>292.2</ele>
        <time>2024-05-28T12:16:14Z</time>
      </trkpt>
      <trkpt lat="47.1147" lon="5.85145">
        <ele>292.4</ele>
        <time>2024-05-28T12:16:15Z</time>
      </trkpt>
      <trkpt lat="47.1147" lon="5.85149">
        <ele>292.4</ele>
        <time>2024-05-28T12:16:16Z</time>
      </trkpt>
      <trkpt lat="47.1147" lon="5.85153">
        <ele>292.4</ele>
        <time>2024-05-28T12:16:17Z</time>
      </trkpt>
      <trkpt lat="47.1147" lon="5.85156">
        <ele>292.6</ele>
        <time>2024-05-28T12:16:18Z</time>
      </trkpt>
      <trkpt lat="47.1147" lon="5.85159">
        <ele>292.6</ele>
        <time>2024-05-28T12:16:19Z</time>
      </trkpt>
      <trkpt lat="47.1147" lon="5.85161">
        <ele>292.6</ele>
        <time>2024-05-28T12:16:20Z</time>
      </trkpt>
      <trkpt lat="47.11471" lon="5.85163">
        <ele>292.8</ele>
        <time>2024-05-28T12:16:21Z</time>
      </trkpt>
      <trkpt lat="47.11471" lon="5.85165">
        <ele>292.8</ele>
        <time>2024-05-28T12:16:22Z</time>
      </trkpt>
      <trkpt lat="47.11472" lon="5.85167">
        <ele>292.8</ele>
        <time>2024-05-28T12:16:23Z</time>
      </trkpt>
      <trkpt lat="47.11474" lon="5.85169">
        <ele>292.8</ele>
        <time>2024-05-28T12:16:24Z</time>
      </trkpt>
      <trkpt lat="47.11476" lon="5.85172">
        <ele>292.8</ele>
        <time>2024-05-28T12:16:25Z</time>
      </trkpt>
      <trkpt lat="47.11478" lon="5.85174">
        <ele>292.8</ele>
        <time>2024-05-28T12:16:26Z</time>
      </trkpt>
      <trkpt lat="47.11479" lon="5.85176">
        <ele>292.8</ele>
        <time>2024-05-28T12:16:27Z</time>
      </trkpt>
      <trkpt lat="47.11481" lon="5.85178">
        <ele>292.8</ele>
        <time>2024-05-28T12:16:28Z</time>
      </trkpt>
      <trkpt lat="47.11483" lon="5.8518">
        <ele>293</ele>
        <time>2024-05-28T12:16:29Z</time>
      </trkpt>
      <trkpt lat="47.11486" lon="5.85181">
        <ele>293.2</ele>
        <time>2024-05-28T12:16:31Z</time>
      </trkpt>
      <trkpt lat="47.11488" lon="5.85182">
        <ele>293.2</ele>
        <time>2024-05-28T12:16:32Z</time>
      </trkpt>
      <trkpt lat="47.11489" lon="5.85183">
        <ele>293.2</ele>
        <time>2024-05-28T12:16:33Z</time>
      </trkpt>
      <trkpt lat="47.11499" lon="5.85189">
        <ele>293.8</ele>
        <time>2024-05-28T12:16:37Z</time>
      </trkpt>
      <trkpt lat="47.11512" lon="5.85202">
        <ele>294.4</ele>
        <time>2024-05-28T12:16:42Z</time>
      </trkpt>
      <trkpt lat="47.1152" lon="5.85209">
        <ele>294.4</ele>
        <time>2024-05-28T12:16:45Z</time>
      </trkpt>
      <trkpt lat="47.11522" lon="5.85211">
        <ele>294.4</ele>
        <time>2024-05-28T12:16:46Z</time>
      </trkpt>
      <trkpt lat="47.11524" lon="5.85214">
        <ele>294.4</ele>
        <time>2024-05-28T12:16:47Z</time>
      </trkpt>
      <trkpt lat="47.11533" lon="5.85228">
        <ele>294.2</ele>
        <time>2024-05-28T12:16:52Z</time>
      </trkpt>
      <trkpt lat="47.11534" lon="5.8523">
        <ele>294.2</ele>
        <time>2024-05-28T12:16:53Z</time>
      </trkpt>
      <trkpt lat="47.11535" lon="5.85233">
        <ele>294.2</ele>
        <time>2024-05-28T12:16:54Z</time>
      </trkpt>
      <trkpt lat="47.11535" lon="5.85236">
        <ele>294.2</ele>
        <time>2024-05-28T12:16:55Z</time>
      </trkpt>
      <trkpt lat="47.11537" lon="5.85247">
        <ele>294.2</ele>
        <time>2024-05-28T12:16:59Z</time>
      </trkpt>
      <trkpt lat="47.11537" lon="5.85249">
        <ele>294.2</ele>
        <time>2024-05-28T12:17:00Z</time>
      </trkpt>
      <trkpt lat="47.11538" lon="5.85253">
        <ele>294.2</ele>
        <time>2024-05-28T12:17:01Z</time>
      </trkpt>
      <trkpt lat="47.11539" lon="5.85259">
        <ele>294.2</ele>
        <time>2024-05-28T12:17:03Z</time>
      </trkpt>
      <trkpt lat="47.11541" lon="5.85269">
        <ele>294.2</ele>
        <time>2024-05-28T12:17:06Z</time>
      </trkpt>
      <trkpt lat="47.11543" lon="5.85291">
        <ele>295</ele>
        <time>2024-05-28T12:17:13Z</time>
      </trkpt>
      <trkpt lat="47.11543" lon="5.85294">
        <ele>295</ele>
        <time>2024-05-28T12:17:14Z</time>
      </trkpt>
      <trkpt lat="47.11544" lon="5.85298">
        <ele>295.2</ele>
        <time>2024-05-28T12:17:15Z</time>
      </trkpt>
      <trkpt lat="47.11544" lon="5.85301">
        <ele>295.4</ele>
        <time>2024-05-28T12:17:16Z</time>
      </trkpt>
      <trkpt lat="47.11545" lon="5.85304">
        <ele>295.6</ele>
        <time>2024-05-28T12:17:17Z</time>
      </trkpt>
      <trkpt lat="47.11547" lon="5.85307">
        <ele>295.8</ele>
        <time>2024-05-28T12:17:18Z</time>
      </trkpt>
      <trkpt lat="47.11551" lon="5.85329">
        <ele>296</ele>
        <time>2024-05-28T12:17:24Z</time>
      </trkpt>
      <trkpt lat="47.11552" lon="5.85332">
        <ele>296</ele>
        <time>2024-05-28T12:17:25Z</time>
      </trkpt>
      <trkpt lat="47.11554" lon="5.85334">
        <ele>296</ele>
        <time>2024-05-28T12:17:26Z</time>
      </trkpt>
      <trkpt lat="47.11556" lon="5.85335">
        <ele>296</ele>
        <time>2024-05-28T12:17:27Z</time>
      </trkpt>
      <trkpt lat="47.11558" lon="5.85337">
        <ele>296.2</ele>
        <time>2024-05-28T12:17:28Z</time>
      </trkpt>
      <trkpt lat="47.11565" lon="5.8534">
        <ele>296.2</ele>
        <time>2024-05-28T12:17:31Z</time>
      </trkpt>
      <trkpt lat="47.11569" lon="5.85339">
        <ele>296.2</ele>
        <time>2024-05-28T12:17:32Z</time>
      </trkpt>
      <trkpt lat="47.11573" lon="5.85338">
        <ele>296.2</ele>
        <time>2024-05-28T12:17:33Z</time>
      </trkpt>
      <trkpt lat="47.11577" lon="5.85337">
        <ele>296.2</ele>
        <time>2024-05-28T12:17:34Z</time>
      </trkpt>
      <trkpt lat="47.11581" lon="5.85334">
        <ele>296.2</ele>
        <time>2024-05-28T12:17:35Z</time>
      </trkpt>
      <trkpt lat="47.11586" lon="5.85332">
        <ele>296.2</ele>
        <time>2024-05-28T12:17:36Z</time>
      </trkpt>
      <trkpt lat="47.11597" lon="5.85331">
        <ele>295.8</ele>
        <time>2024-05-28T12:17:38Z</time>
      </trkpt>
      <trkpt lat="47.11602" lon="5.85332">
        <ele>295.6</ele>
        <time>2024-05-28T12:17:39Z</time>
      </trkpt>
      <trkpt lat="47.11607" lon="5.85336">
        <ele>295.4</ele>
        <time>2024-05-28T12:17:40Z</time>
      </trkpt>
      <trkpt lat="47.11612" lon="5.8534">
        <ele>295.2</ele>
        <time>2024-05-28T12:17:41Z</time>
      </trkpt>
      <trkpt lat="47.11617" lon="5.85345">
        <ele>295</ele>
        <time>2024-05-28T12:17:42Z</time>
      </trkpt>
      <trkpt lat="47.11621" lon="5.85349">
        <ele>294.6</ele>
        <time>2024-05-28T12:17:43Z</time>
      </trkpt>
      <trkpt lat="47.11633" lon="5.85363">
        <ele>294.2</ele>
        <time>2024-05-28T12:17:46Z</time>
      </trkpt>
      <trkpt lat="47.11636" lon="5.85367">
        <ele>294</ele>
        <time>2024-05-28T12:17:47Z</time>
      </trkpt>
      <trkpt lat="47.11639" lon="5.85372">
        <ele>293.8</ele>
        <time>2024-05-28T12:17:48Z</time>
      </trkpt>
      <trkpt lat="47.11642" lon="5.85376">
        <ele>293.8</ele>
        <time>2024-05-28T12:17:49Z</time>
      </trkpt>
      <trkpt lat="47.11644" lon="5.8538">
        <ele>293.8</ele>
        <time>2024-05-28T12:17:50Z</time>
      </trkpt>
      <trkpt lat="47.11647" lon="5.85384">
        <ele>293.6</ele>
        <time>2024-05-28T12:17:51Z</time>
      </trkpt>
      <trkpt lat="47.11649" lon="5.85388">
        <ele>293.6</ele>
        <time>2024-05-28T12:17:52Z</time>
      </trkpt>
      <trkpt lat="47.11657" lon="5.85399">
        <ele>293.6</ele>
        <time>2024-05-28T12:17:55Z</time>
      </trkpt>
      <trkpt lat="47.11659" lon="5.85404">
        <ele>293.6</ele>
        <time>2024-05-28T12:17:56Z</time>
      </trkpt>
      <trkpt lat="47.11661" lon="5.85408">
        <ele>293.6</ele>
        <time>2024-05-28T12:17:57Z</time>
      </trkpt>
      <trkpt lat="47.11663" lon="5.85412">
        <ele>293.6</ele>
        <time>2024-05-28T12:17:58Z</time>
      </trkpt>
      <trkpt lat="47.11665" lon="5.85416">
        <ele>293.4</ele>
        <time>2024-05-28T12:17:59Z</time>
      </trkpt>
      <trkpt lat="47.11667" lon="5.85419">
        <ele>293.4</ele>
        <time>2024-05-28T12:18:00Z</time>
      </trkpt>
      <trkpt lat="47.11668" lon="5.85422">
        <ele>293.4</ele>
        <time>2024-05-28T12:18:01Z</time>
      </trkpt>
      <trkpt lat="47.1167" lon="5.85426">
        <ele>293.2</ele>
        <time>2024-05-28T12:18:02Z</time>
      </trkpt>
      <trkpt lat="47.11686" lon="5.85451">
        <ele>293.2</ele>
        <time>2024-05-28T12:18:08Z</time>
      </trkpt>
      <trkpt lat="47.11694" lon="5.85462">
        <ele>293.2</ele>
        <time>2024-05-28T12:18:11Z</time>
      </trkpt>
      <trkpt lat="47.11695" lon="5.85466">
        <ele>293.4</ele>
        <time>2024-05-28T12:18:12Z</time>
      </trkpt>
      <trkpt lat="47.11696" lon="5.85469">
        <ele>293.4</ele>
        <time>2024-05-28T12:18:13Z</time>
      </trkpt>
      <trkpt lat="47.11697" lon="5.85472">
        <ele>293.4</ele>
        <time>2024-05-28T12:18:14Z</time>
      </trkpt>
      <trkpt lat="47.11699" lon="5.85474">
        <ele>293.6</ele>
        <time>2024-05-28T12:18:15Z</time>
      </trkpt>
      <trkpt lat="47.11702" lon="5.85477">
        <ele>293.8</ele>
        <time>2024-05-28T12:18:16Z</time>
      </trkpt>
      <trkpt lat="47.11704" lon="5.85481">
        <ele>293.8</ele>
        <time>2024-05-28T12:18:17Z</time>
      </trkpt>
      <trkpt lat="47.11705" lon="5.85484">
        <ele>294</ele>
        <time>2024-05-28T12:18:18Z</time>
      </trkpt>
      <trkpt lat="47.11719" lon="5.85509">
        <ele>294.4</ele>
        <time>2024-05-28T12:18:25Z</time>
      </trkpt>
      <trkpt lat="47.11734" lon="5.85525">
        <ele>294.4</ele>
        <time>2024-05-28T12:18:31Z</time>
      </trkpt>
      <trkpt lat="47.11736" lon="5.85527">
        <ele>294.4</ele>
        <time>2024-05-28T12:18:32Z</time>
      </trkpt>
      <trkpt lat="47.11749" lon="5.85545">
        <ele>294.2</ele>
        <time>2024-05-28T12:18:37Z</time>
      </trkpt>
      <trkpt lat="47.11756" lon="5.8556">
        <ele>294.2</ele>
        <time>2024-05-28T12:18:40Z</time>
      </trkpt>
      <trkpt lat="47.11763" lon="5.85574">
        <ele>294.2</ele>
        <time>2024-05-28T12:18:43Z</time>
      </trkpt>
      <trkpt lat="47.11765" lon="5.85579">
        <ele>294</ele>
        <time>2024-05-28T12:18:44Z</time>
      </trkpt>
      <trkpt lat="47.11767" lon="5.85583">
        <ele>294</ele>
        <time>2024-05-28T12:18:45Z</time>
      </trkpt>
      <trkpt lat="47.11775" lon="5.85599">
        <ele>294</ele>
        <time>2024-05-28T12:18:48Z</time>
      </trkpt>
      <trkpt lat="47.11781" lon="5.85611">
        <ele>293.8</ele>
        <time>2024-05-28T12:18:50Z</time>
      </trkpt>
      <trkpt lat="47.11783" lon="5.85617">
        <ele>293.8</ele>
        <time>2024-05-28T12:18:51Z</time>
      </trkpt>
      <trkpt lat="47.11786" lon="5.85622">
        <ele>293.8</ele>
        <time>2024-05-28T12:18:52Z</time>
      </trkpt>
      <trkpt lat="47.11789" lon="5.85628">
        <ele>293.8</ele>
        <time>2024-05-28T12:18:53Z</time>
      </trkpt>
      <trkpt lat="47.11791" lon="5.85633">
        <ele>293.8</ele>
        <time>2024-05-28T12:18:54Z</time>
      </trkpt>
      <trkpt lat="47.11793" lon="5.85638">
        <ele>293.8</ele>
        <time>2024-05-28T12:18:55Z</time>
      </trkpt>
      <trkpt lat="47.11795" lon="5.85643">
        <ele>293.6</ele>
        <time>2024-05-28T12:18:56Z</time>
      </trkpt>
      <trkpt lat="47.11797" lon="5.85647">
        <ele>293.8</ele>
        <time>2024-05-28T12:18:57Z</time>
      </trkpt>
      <trkpt lat="47.11798" lon="5.85651">
        <ele>293.6</ele>
        <time>2024-05-28T12:18:58Z</time>
      </trkpt>
      <trkpt lat="47.11799" lon="5.85655">
        <ele>293.6</ele>
        <time>2024-05-28T12:18:59Z</time>
      </trkpt>
      <trkpt lat="47.118" lon="5.85658">
        <ele>293.8</ele>
        <time>2024-05-28T12:19:00Z</time>
      </trkpt>
      <trkpt lat="47.11801" lon="5.85661">
        <ele>293.8</ele>
        <time>2024-05-28T12:19:01Z</time>
      </trkpt>
      <trkpt lat="47.11802" lon="5.85663">
        <ele>293.8</ele>
        <time>2024-05-28T12:19:02Z</time>
      </trkpt>
      <trkpt lat="47.11803" lon="5.85665">
        <ele>293.8</ele>
        <time>2024-05-28T12:19:03Z</time>
      </trkpt>
      <trkpt lat="47.11804" lon="5.85666">
        <ele>293.8</ele>
        <time>2024-05-28T12:19:04Z</time>
      </trkpt>
      <trkpt lat="47.11805" lon="5.85668">
        <ele>293.8</ele>
        <time>2024-05-28T12:19:05Z</time>
      </trkpt>
      <trkpt lat="47.11814" lon="5.85677">
        <ele>293.6</ele>
        <time>2024-05-28T12:19:09Z</time>
      </trkpt>
      <trkpt lat="47.11823" lon="5.85691">
        <ele>293.2</ele>
        <time>2024-05-28T12:19:12Z</time>
      </trkpt>
      <trkpt lat="47.11827" lon="5.85696">
        <ele>293</ele>
        <time>2024-05-28T12:19:13Z</time>
      </trkpt>
      <trkpt lat="47.11839" lon="5.85711">
        <ele>291.8</ele>
        <time>2024-05-28T12:19:16Z</time>
      </trkpt>
      <trkpt lat="47.11843" lon="5.85716">
        <ele>291.6</ele>
        <time>2024-05-28T12:19:17Z</time>
      </trkpt>
      <trkpt lat="47.11847" lon="5.8572">
        <ele>291.2</ele>
        <time>2024-05-28T12:19:18Z</time>
      </trkpt>
      <trkpt lat="47.11849" lon="5.85724">
        <ele>290.8</ele>
        <time>2024-05-28T12:19:19Z</time>
      </trkpt>
      <trkpt lat="47.11852" lon="5.85728">
        <ele>290.4</ele>
        <time>2024-05-28T12:19:20Z</time>
      </trkpt>
      <trkpt lat="47.11854" lon="5.85732">
        <ele>289.8</ele>
        <time>2024-05-28T12:19:21Z</time>
      </trkpt>
      <trkpt lat="47.11858" lon="5.85736">
        <ele>289.6</ele>
        <time>2024-05-28T12:19:22Z</time>
      </trkpt>
      <trkpt lat="47.11862" lon="5.85739">
        <ele>289.2</ele>
        <time>2024-05-28T12:19:23Z</time>
      </trkpt>
      <trkpt lat="47.11869" lon="5.85743">
        <ele>288.8</ele>
        <time>2024-05-28T12:19:25Z</time>
      </trkpt>
      <trkpt lat="47.11872" lon="5.85745">
        <ele>288.6</ele>
        <time>2024-05-28T12:19:26Z</time>
      </trkpt>
      <trkpt lat="47.11875" lon="5.85748">
        <ele>288</ele>
        <time>2024-05-28T12:19:27Z</time>
      </trkpt>
      <trkpt lat="47.11887" lon="5.85762">
        <ele>286.8</ele>
        <time>2024-05-28T12:19:30Z</time>
      </trkpt>
      <trkpt lat="47.11893" lon="5.85771">
        <ele>286.2</ele>
        <time>2024-05-28T12:19:32Z</time>
      </trkpt>
      <trkpt lat="47.11897" lon="5.85774">
        <ele>285.8</ele>
        <time>2024-05-28T12:19:33Z</time>
      </trkpt>
      <trkpt lat="47.11899" lon="5.85776">
        <ele>285.2</ele>
        <time>2024-05-28T12:19:34Z</time>
      </trkpt>
      <trkpt lat="47.119" lon="5.85778">
        <ele>284.8</ele>
        <time>2024-05-28T12:19:35Z</time>
      </trkpt>
      <trkpt lat="47.11902" lon="5.85781">
        <ele>284.6</ele>
        <time>2024-05-28T12:19:36Z</time>
      </trkpt>
      <trkpt lat="47.11902" lon="5.85784">
        <ele>284.6</ele>
        <time>2024-05-28T12:19:37Z</time>
      </trkpt>
      <trkpt lat="47.11903" lon="5.85788">
        <ele>284.4</ele>
        <time>2024-05-28T12:19:38Z</time>
      </trkpt>
      <trkpt lat="47.11903" lon="5.85791">
        <ele>284.2</ele>
        <time>2024-05-28T12:19:39Z</time>
      </trkpt>
      <trkpt lat="47.11903" lon="5.85793">
        <ele>284</ele>
        <time>2024-05-28T12:19:40Z</time>
      </trkpt>
      <trkpt lat="47.11903" lon="5.85794">
        <ele>283.4</ele>
        <time>2024-05-28T12:19:41Z</time>
      </trkpt>
      <trkpt lat="47.11903" lon="5.85794">
        <ele>282.6</ele>
        <time>2024-05-28T12:19:44Z</time>
      </trkpt>
      <trkpt lat="47.11904" lon="5.85797">
        <ele>282.4</ele>
        <time>2024-05-28T12:19:46Z</time>
      </trkpt>
      <trkpt lat="47.11905" lon="5.858">
        <ele>282.4</ele>
        <time>2024-05-28T12:19:47Z</time>
      </trkpt>
      <trkpt lat="47.11907" lon="5.85803">
        <ele>282.2</ele>
        <time>2024-05-28T12:19:48Z</time>
      </trkpt>
      <trkpt lat="47.11909" lon="5.85807">
        <ele>282</ele>
        <time>2024-05-28T12:19:49Z</time>
      </trkpt>
      <trkpt lat="47.11908" lon="5.8581">
        <ele>282</ele>
        <time>2024-05-28T12:19:50Z</time>
      </trkpt>
      <trkpt lat="47.11908" lon="5.85811">
        <ele>281.8</ele>
        <time>2024-05-28T12:19:52Z</time>
      </trkpt>
      <trkpt lat="47.11909" lon="5.85815">
        <ele>281.4</ele>
        <time>2024-05-28T12:19:54Z</time>
      </trkpt>
      <trkpt lat="47.11909" lon="5.85817">
        <ele>281.4</ele>
        <time>2024-05-28T12:19:55Z</time>
      </trkpt>
      <trkpt lat="47.1191" lon="5.85821">
        <ele>281.4</ele>
        <time>2024-05-28T12:19:56Z</time>
      </trkpt>
      <trkpt lat="47.1191" lon="5.85825">
        <ele>281.2</ele>
        <time>2024-05-28T12:19:57Z</time>
      </trkpt>
      <trkpt lat="47.1191" lon="5.8584">
        <ele>280.8</ele>
        <time>2024-05-28T12:20:00Z</time>
      </trkpt>
      <trkpt lat="47.1191" lon="5.85846">
        <ele>280.6</ele>
        <time>2024-05-28T12:20:01Z</time>
      </trkpt>
      <trkpt lat="47.11909" lon="5.85852">
        <ele>280.4</ele>
        <time>2024-05-28T12:20:02Z</time>
      </trkpt>
      <trkpt lat="47.11909" lon="5.85859">
        <ele>280.4</ele>
        <time>2024-05-28T12:20:03Z</time>
      </trkpt>
      <trkpt lat="47.11911" lon="5.85872">
        <ele>280</ele>
        <time>2024-05-28T12:20:05Z</time>
      </trkpt>
      <trkpt lat="47.11914" lon="5.85886">
        <ele>279.6</ele>
        <time>2024-05-28T12:20:07Z</time>
      </trkpt>
      <trkpt lat="47.11916" lon="5.85892">
        <ele>279.4</ele>
        <time>2024-05-28T12:20:08Z</time>
      </trkpt>
      <trkpt lat="47.11918" lon="5.85898">
        <ele>279.2</ele>
        <time>2024-05-28T12:20:09Z</time>
      </trkpt>
      <trkpt lat="47.1192" lon="5.85903">
        <ele>279.2</ele>
        <time>2024-05-28T12:20:10Z</time>
      </trkpt>
      <trkpt lat="47.11923" lon="5.85908">
        <ele>278.8</ele>
        <time>2024-05-28T12:20:11Z</time>
      </trkpt>
      <trkpt lat="47.11926" lon="5.85913">
        <ele>278.8</ele>
        <time>2024-05-28T12:20:12Z</time>
      </trkpt>
      <trkpt lat="47.11928" lon="5.85917">
        <ele>278.6</ele>
        <time>2024-05-28T12:20:13Z</time>
      </trkpt>
      <trkpt lat="47.1193" lon="5.85921">
        <ele>278.6</ele>
        <time>2024-05-28T12:20:14Z</time>
      </trkpt>
      <trkpt lat="47.11933" lon="5.85925">
        <ele>278.6</ele>
        <time>2024-05-28T12:20:15Z</time>
      </trkpt>
      <trkpt lat="47.11938" lon="5.85932">
        <ele>278.6</ele>
        <time>2024-05-28T12:20:17Z</time>
      </trkpt>
      <trkpt lat="47.11941" lon="5.85935">
        <ele>278.6</ele>
        <time>2024-05-28T12:20:18Z</time>
      </trkpt>
      <trkpt lat="47.11944" lon="5.85937">
        <ele>278.6</ele>
        <time>2024-05-28T12:20:19Z</time>
      </trkpt>
      <trkpt lat="47.11947" lon="5.8594">
        <ele>278.6</ele>
        <time>2024-05-28T12:20:20Z</time>
      </trkpt>
      <trkpt lat="47.1195" lon="5.85943">
        <ele>278.8</ele>
        <time>2024-05-28T12:20:21Z</time>
      </trkpt>
      <trkpt lat="47.11954" lon="5.85945">
        <ele>278.8</ele>
        <time>2024-05-28T12:20:22Z</time>
      </trkpt>
      <trkpt lat="47.11984" lon="5.85961">
        <ele>279.8</ele>
        <time>2024-05-28T12:20:31Z</time>
      </trkpt>
      <trkpt lat="47.11988" lon="5.85963">
        <ele>280</ele>
        <time>2024-05-28T12:20:32Z</time>
      </trkpt>
      <trkpt lat="47.11991" lon="5.85964">
        <ele>280.2</ele>
        <time>2024-05-28T12:20:33Z</time>
      </trkpt>
      <trkpt lat="47.11994" lon="5.85966">
        <ele>280.2</ele>
        <time>2024-05-28T12:20:34Z</time>
      </trkpt>
      <trkpt lat="47.11998" lon="5.85967">
        <ele>280.6</ele>
        <time>2024-05-28T12:20:35Z</time>
      </trkpt>
      <trkpt lat="47.12001" lon="5.85969">
        <ele>280.8</ele>
        <time>2024-05-28T12:20:36Z</time>
      </trkpt>
      <trkpt lat="47.12004" lon="5.85971">
        <ele>281</ele>
        <time>2024-05-28T12:20:37Z</time>
      </trkpt>
      <trkpt lat="47.12007" lon="5.85972">
        <ele>281.2</ele>
        <time>2024-05-28T12:20:38Z</time>
      </trkpt>
      <trkpt lat="47.1201" lon="5.85974">
        <ele>281.4</ele>
        <time>2024-05-28T12:20:39Z</time>
      </trkpt>
      <trkpt lat="47.12013" lon="5.85975">
        <ele>281.8</ele>
        <time>2024-05-28T12:20:40Z</time>
      </trkpt>
      <trkpt lat="47.12016" lon="5.85976">
        <ele>282</ele>
        <time>2024-05-28T12:20:41Z</time>
      </trkpt>
      <trkpt lat="47.12019" lon="5.85978">
        <ele>282.2</ele>
        <time>2024-05-28T12:20:42Z</time>
      </trkpt>
      <trkpt lat="47.12025" lon="5.85981">
        <ele>282.8</ele>
        <time>2024-05-28T12:20:44Z</time>
      </trkpt>
      <trkpt lat="47.12028" lon="5.85983">
        <ele>282.8</ele>
        <time>2024-05-28T12:20:45Z</time>
      </trkpt>
      <trkpt lat="47.12031" lon="5.85984">
        <ele>283</ele>
        <time>2024-05-28T12:20:46Z</time>
      </trkpt>
      <trkpt lat="47.12034" lon="5.85985">
        <ele>283.2</ele>
        <time>2024-05-28T12:20:47Z</time>
      </trkpt>
      <trkpt lat="47.12037" lon="5.85986">
        <ele>283.4</ele>
        <time>2024-05-28T12:20:48Z</time>
      </trkpt>
      <trkpt lat="47.12041" lon="5.85988">
        <ele>283.6</ele>
        <time>2024-05-28T12:20:49Z</time>
      </trkpt>
      <trkpt lat="47.12044" lon="5.85989">
        <ele>283.8</ele>
        <time>2024-05-28T12:20:50Z</time>
      </trkpt>
      <trkpt lat="47.12047" lon="5.85991">
        <ele>284</ele>
        <time>2024-05-28T12:20:51Z</time>
      </trkpt>
      <trkpt lat="47.1205" lon="5.85992">
        <ele>284</ele>
        <time>2024-05-28T12:20:52Z</time>
      </trkpt>
      <trkpt lat="47.12053" lon="5.85994">
        <ele>284</ele>
        <time>2024-05-28T12:20:53Z</time>
      </trkpt>
      <trkpt lat="47.12056" lon="5.85996">
        <ele>284.4</ele>
        <time>2024-05-28T12:20:54Z</time>
      </trkpt>
      <trkpt lat="47.12059" lon="5.85998">
        <ele>284.8</ele>
        <time>2024-05-28T12:20:55Z</time>
      </trkpt>
      <trkpt lat="47.12062" lon="5.86">
        <ele>285</ele>
        <time>2024-05-28T12:20:56Z</time>
      </trkpt>
      <trkpt lat="47.12065" lon="5.86002">
        <ele>285.2</ele>
        <time>2024-05-28T12:20:57Z</time>
      </trkpt>
      <trkpt lat="47.12068" lon="5.86003">
        <ele>285.4</ele>
        <time>2024-05-28T12:20:58Z</time>
      </trkpt>
      <trkpt lat="47.1207" lon="5.86005">
        <ele>285.6</ele>
        <time>2024-05-28T12:20:59Z</time>
      </trkpt>
      <trkpt lat="47.12073" lon="5.86005">
        <ele>285.6</ele>
        <time>2024-05-28T12:21:00Z</time>
      </trkpt>
      <trkpt lat="47.12076" lon="5.86006">
        <ele>285.8</ele>
        <time>2024-05-28T12:21:01Z</time>
      </trkpt>
      <trkpt lat="47.12078" lon="5.86006">
        <ele>286</ele>
        <time>2024-05-28T12:21:02Z</time>
      </trkpt>
      <trkpt lat="47.12081" lon="5.86005">
        <ele>286.2</ele>
        <time>2024-05-28T12:21:03Z</time>
      </trkpt>
      <trkpt lat="47.12084" lon="5.86003">
        <ele>286.2</ele>
        <time>2024-05-28T12:21:04Z</time>
      </trkpt>
      <trkpt lat="47.12086" lon="5.86002">
        <ele>286.4</ele>
        <time>2024-05-28T12:21:05Z</time>
      </trkpt>
      <trkpt lat="47.12089" lon="5.86002">
        <ele>286.4</ele>
        <time>2024-05-28T12:21:06Z</time>
      </trkpt>
      <trkpt lat="47.12092" lon="5.86001">
        <ele>286.4</ele>
        <time>2024-05-28T12:21:07Z</time>
      </trkpt>
      <trkpt lat="47.12095" lon="5.86">
        <ele>286.4</ele>
        <time>2024-05-28T12:21:08Z</time>
      </trkpt>
      <trkpt lat="47.12097" lon="5.85999">
        <ele>286.6</ele>
        <time>2024-05-28T12:21:09Z</time>
      </trkpt>
      <trkpt lat="47.12099" lon="5.85997">
        <ele>286.6</ele>
        <time>2024-05-28T12:21:10Z</time>
      </trkpt>
      <trkpt lat="47.12101" lon="5.85996">
        <ele>286.4</ele>
        <time>2024-05-28T12:21:11Z</time>
      </trkpt>
      <trkpt lat="47.12104" lon="5.85995">
        <ele>286.4</ele>
        <time>2024-05-28T12:21:12Z</time>
      </trkpt>
      <trkpt lat="47.12106" lon="5.85994">
        <ele>286.4</ele>
        <time>2024-05-28T12:21:13Z</time>
      </trkpt>
      <trkpt lat="47.12108" lon="5.85992">
        <ele>286.4</ele>
        <time>2024-05-28T12:21:14Z</time>
      </trkpt>
      <trkpt lat="47.12111" lon="5.8599">
        <ele>286.4</ele>
        <time>2024-05-28T12:21:15Z</time>
      </trkpt>
      <trkpt lat="47.12113" lon="5.85988">
        <ele>286.4</ele>
        <time>2024-05-28T12:21:16Z</time>
      </trkpt>
      <trkpt lat="47.12115" lon="5.85986">
        <ele>286.2</ele>
        <time>2024-05-28T12:21:17Z</time>
      </trkpt>
      <trkpt lat="47.12118" lon="5.85984">
        <ele>286.2</ele>
        <time>2024-05-28T12:21:18Z</time>
      </trkpt>
      <trkpt lat="47.1212" lon="5.85982">
        <ele>286</ele>
        <time>2024-05-28T12:21:19Z</time>
      </trkpt>
      <trkpt lat="47.12122" lon="5.85979">
        <ele>286</ele>
        <time>2024-05-28T12:21:20Z</time>
      </trkpt>
      <trkpt lat="47.1213" lon="5.8597">
        <ele>285.4</ele>
        <time>2024-05-28T12:21:23Z</time>
      </trkpt>
      <trkpt lat="47.12143" lon="5.85954">
        <ele>284.8</ele>
        <time>2024-05-28T12:21:27Z</time>
      </trkpt>
      <trkpt lat="47.12147" lon="5.8595">
        <ele>284.6</ele>
        <time>2024-05-28T12:21:28Z</time>
      </trkpt>
      <trkpt lat="47.12156" lon="5.85943">
        <ele>284.2</ele>
        <time>2024-05-28T12:21:30Z</time>
      </trkpt>
      <trkpt lat="47.12172" lon="5.85933">
        <ele>283.6</ele>
        <time>2024-05-28T12:21:34Z</time>
      </trkpt>
      <trkpt lat="47.12175" lon="5.85931">
        <ele>283.4</ele>
        <time>2024-05-28T12:21:35Z</time>
      </trkpt>
      <trkpt lat="47.12179" lon="5.85929">
        <ele>283.4</ele>
        <time>2024-05-28T12:21:36Z</time>
      </trkpt>
      <trkpt lat="47.12182" lon="5.85926">
        <ele>283.2</ele>
        <time>2024-05-28T12:21:37Z</time>
      </trkpt>
      <trkpt lat="47.12189" lon="5.85921">
        <ele>283.2</ele>
        <time>2024-05-28T12:21:39Z</time>
      </trkpt>
      <trkpt lat="47.1221" lon="5.85912">
        <ele>283.2</ele>
        <time>2024-05-28T12:21:44Z</time>
      </trkpt>
      <trkpt lat="47.12219" lon="5.85911">
        <ele>283</ele>
        <time>2024-05-28T12:21:46Z</time>
      </trkpt>
      <trkpt lat="47.12242" lon="5.8591">
        <ele>282.6</ele>
        <time>2024-05-28T12:21:51Z</time>
      </trkpt>
      <trkpt lat="47.12254" lon="5.85906">
        <ele>281.8</ele>
        <time>2024-05-28T12:21:54Z</time>
      </trkpt>
      <trkpt lat="47.12275" lon="5.85897">
        <ele>281.6</ele>
        <time>2024-05-28T12:21:59Z</time>
      </trkpt>
      <trkpt lat="47.12295" lon="5.85887">
        <ele>280.6</ele>
        <time>2024-05-28T12:22:04Z</time>
      </trkpt>
      <trkpt lat="47.12298" lon="5.85885">
        <ele>280.6</ele>
        <time>2024-05-28T12:22:05Z</time>
      </trkpt>
      <trkpt lat="47.12302" lon="5.85883">
        <ele>280.4</ele>
        <time>2024-05-28T12:22:06Z</time>
      </trkpt>
      <trkpt lat="47.12306" lon="5.8588">
        <ele>280.4</ele>
        <time>2024-05-28T12:22:07Z</time>
      </trkpt>
      <trkpt lat="47.1231" lon="5.85877">
        <ele>280.2</ele>
        <time>2024-05-28T12:22:08Z</time>
      </trkpt>
      <trkpt lat="47.12313" lon="5.85875">
        <ele>280.2</ele>
        <time>2024-05-28T12:22:09Z</time>
      </trkpt>
      <trkpt lat="47.12325" lon="5.85864">
        <ele>279.8</ele>
        <time>2024-05-28T12:22:12Z</time>
      </trkpt>
      <trkpt lat="47.12334" lon="5.85855">
        <ele>279.4</ele>
        <time>2024-05-28T12:22:14Z</time>
      </trkpt>
      <trkpt lat="47.12341" lon="5.85844">
        <ele>278.8</ele>
        <time>2024-05-28T12:22:16Z</time>
      </trkpt>
      <trkpt lat="47.12345" lon="5.85837">
        <ele>278.2</ele>
        <time>2024-05-28T12:22:17Z</time>
      </trkpt>
      <trkpt lat="47.12351" lon="5.85823">
        <ele>277.8</ele>
        <time>2024-05-28T12:22:19Z</time>
      </trkpt>
      <trkpt lat="47.12359" lon="5.8581">
        <ele>277.2</ele>
        <time>2024-05-28T12:22:21Z</time>
      </trkpt>
      <trkpt lat="47.12362" lon="5.85805">
        <ele>277.2</ele>
        <time>2024-05-28T12:22:22Z</time>
      </trkpt>
      <trkpt lat="47.12366" lon="5.858">
        <ele>276.6</ele>
        <time>2024-05-28T12:22:23Z</time>
      </trkpt>
      <trkpt lat="47.1237" lon="5.85796">
        <ele>275.6</ele>
        <time>2024-05-28T12:22:24Z</time>
      </trkpt>
      <trkpt lat="47.12374" lon="5.85792">
        <ele>275.2</ele>
        <time>2024-05-28T12:22:25Z</time>
      </trkpt>
      <trkpt lat="47.12384" lon="5.85783">
        <ele>274.6</ele>
        <time>2024-05-28T12:22:27Z</time>
      </trkpt>
      <trkpt lat="47.12388" lon="5.85778">
        <ele>274.4</ele>
        <time>2024-05-28T12:22:28Z</time>
      </trkpt>
      <trkpt lat="47.12397" lon="5.85769">
        <ele>273.2</ele>
        <time>2024-05-28T12:22:30Z</time>
      </trkpt>
      <trkpt lat="47.12402" lon="5.85766">
        <ele>272.6</ele>
        <time>2024-05-28T12:22:31Z</time>
      </trkpt>
      <trkpt lat="47.12406" lon="5.85763">
        <ele>272</ele>
        <time>2024-05-28T12:22:32Z</time>
      </trkpt>
      <trkpt lat="47.12411" lon="5.85761">
        <ele>271.4</ele>
        <time>2024-05-28T12:22:33Z</time>
      </trkpt>
      <trkpt lat="47.12416" lon="5.8576">
        <ele>271.2</ele>
        <time>2024-05-28T12:22:34Z</time>
      </trkpt>
      <trkpt lat="47.1242" lon="5.85759">
        <ele>270.4</ele>
        <time>2024-05-28T12:22:35Z</time>
      </trkpt>
      <trkpt lat="47.12424" lon="5.85759">
        <ele>270.2</ele>
        <time>2024-05-28T12:22:36Z</time>
      </trkpt>
      <trkpt lat="47.12428" lon="5.85759">
        <ele>269.8</ele>
        <time>2024-05-28T12:22:37Z</time>
      </trkpt>
      <trkpt lat="47.12433" lon="5.85759">
        <ele>269.4</ele>
        <time>2024-05-28T12:22:38Z</time>
      </trkpt>
      <trkpt lat="47.12436" lon="5.85758">
        <ele>269.4</ele>
        <time>2024-05-28T12:22:39Z</time>
      </trkpt>
      <trkpt lat="47.1244" lon="5.85758">
        <ele>269.2</ele>
        <time>2024-05-28T12:22:40Z</time>
      </trkpt>
      <trkpt lat="47.12443" lon="5.85758">
        <ele>269.2</ele>
        <time>2024-05-28T12:22:41Z</time>
      </trkpt>
      <trkpt lat="47.12446" lon="5.85758">
        <ele>269</ele>
        <time>2024-05-28T12:22:42Z</time>
      </trkpt>
      <trkpt lat="47.12448" lon="5.85758">
        <ele>269</ele>
        <time>2024-05-28T12:22:43Z</time>
      </trkpt>
      <trkpt lat="47.1245" lon="5.85757">
        <ele>269</ele>
        <time>2024-05-28T12:22:44Z</time>
      </trkpt>
      <trkpt lat="47.12453" lon="5.85757">
        <ele>269</ele>
        <time>2024-05-28T12:22:45Z</time>
      </trkpt>
      <trkpt lat="47.12455" lon="5.85757">
        <ele>269</ele>
        <time>2024-05-28T12:22:46Z</time>
      </trkpt>
      <trkpt lat="47.12457" lon="5.85756">
        <ele>269</ele>
        <time>2024-05-28T12:22:47Z</time>
      </trkpt>
      <trkpt lat="47.12458" lon="5.85754">
        <ele>269</ele>
        <time>2024-05-28T12:22:48Z</time>
      </trkpt>
      <trkpt lat="47.1246" lon="5.85752">
        <ele>269</ele>
        <time>2024-05-28T12:22:49Z</time>
      </trkpt>
      <trkpt lat="47.12463" lon="5.85749">
        <ele>269.2</ele>
        <time>2024-05-28T12:22:50Z</time>
      </trkpt>
      <trkpt lat="47.12466" lon="5.85746">
        <ele>269.2</ele>
        <time>2024-05-28T12:22:51Z</time>
      </trkpt>
      <trkpt lat="47.12482" lon="5.8573">
        <ele>268.8</ele>
        <time>2024-05-28T12:22:56Z</time>
      </trkpt>
      <trkpt lat="47.12495" lon="5.85718">
        <ele>268.4</ele>
        <time>2024-05-28T12:22:59Z</time>
      </trkpt>
      <trkpt lat="47.12499" lon="5.85713">
        <ele>268.2</ele>
        <time>2024-05-28T12:23:00Z</time>
      </trkpt>
      <trkpt lat="47.12504" lon="5.85709">
        <ele>268.2</ele>
        <time>2024-05-28T12:23:01Z</time>
      </trkpt>
      <trkpt lat="47.12507" lon="5.85703">
        <ele>268.2</ele>
        <time>2024-05-28T12:23:02Z</time>
      </trkpt>
      <trkpt lat="47.12514" lon="5.85693">
        <ele>268.2</ele>
        <time>2024-05-28T12:23:04Z</time>
      </trkpt>
      <trkpt lat="47.12518" lon="5.8569">
        <ele>268.2</ele>
        <time>2024-05-28T12:23:05Z</time>
      </trkpt>
      <trkpt lat="47.12521" lon="5.85686">
        <ele>268</ele>
        <time>2024-05-28T12:23:06Z</time>
      </trkpt>
      <trkpt lat="47.12524" lon="5.85683">
        <ele>268</ele>
        <time>2024-05-28T12:23:07Z</time>
      </trkpt>
      <trkpt lat="47.12528" lon="5.85681">
        <ele>268</ele>
        <time>2024-05-28T12:23:08Z</time>
      </trkpt>
      <trkpt lat="47.12531" lon="5.85679">
        <ele>268</ele>
        <time>2024-05-28T12:23:09Z</time>
      </trkpt>
      <trkpt lat="47.12536" lon="5.85677">
        <ele>268.2</ele>
        <time>2024-05-28T12:23:10Z</time>
      </trkpt>
      <trkpt lat="47.1254" lon="5.85674">
        <ele>268.2</ele>
        <time>2024-05-28T12:23:11Z</time>
      </trkpt>
      <trkpt lat="47.12543" lon="5.85672">
        <ele>268.2</ele>
        <time>2024-05-28T12:23:12Z</time>
      </trkpt>
      <trkpt lat="47.12546" lon="5.85667">
        <ele>268.2</ele>
        <time>2024-05-28T12:23:13Z</time>
      </trkpt>
      <trkpt lat="47.12549" lon="5.85663">
        <ele>268.2</ele>
        <time>2024-05-28T12:23:14Z</time>
      </trkpt>
      <trkpt lat="47.12555" lon="5.85656">
        <ele>268.2</ele>
        <time>2024-05-28T12:23:16Z</time>
      </trkpt>
      <trkpt lat="47.12559" lon="5.85645">
        <ele>268</ele>
        <time>2024-05-28T12:23:18Z</time>
      </trkpt>
      <trkpt lat="47.12561" lon="5.85636">
        <ele>268</ele>
        <time>2024-05-28T12:23:19Z</time>
      </trkpt>
      <trkpt lat="47.12564" lon="5.85628">
        <ele>268</ele>
        <time>2024-05-28T12:23:20Z</time>
      </trkpt>
      <trkpt lat="47.12569" lon="5.85612">
        <ele>267.6</ele>
        <time>2024-05-28T12:23:22Z</time>
      </trkpt>
      <trkpt lat="47.12571" lon="5.85604">
        <ele>267.4</ele>
        <time>2024-05-28T12:23:23Z</time>
      </trkpt>
      <trkpt lat="47.12573" lon="5.85595">
        <ele>266.8</ele>
        <time>2024-05-28T12:23:24Z</time>
      </trkpt>
      <trkpt lat="47.12574" lon="5.85577">
        <ele>266</ele>
        <time>2024-05-28T12:23:26Z</time>
      </trkpt>
      <trkpt lat="47.12575" lon="5.8557">
        <ele>265.6</ele>
        <time>2024-05-28T12:23:27Z</time>
      </trkpt>
      <trkpt lat="47.12576" lon="5.85562">
        <ele>265</ele>
        <time>2024-05-28T12:23:28Z</time>
      </trkpt>
      <trkpt lat="47.12577" lon="5.85552">
        <ele>264.4</ele>
        <time>2024-05-28T12:23:29Z</time>
      </trkpt>
      <trkpt lat="47.12578" lon="5.85534">
        <ele>263.2</ele>
        <time>2024-05-28T12:23:31Z</time>
      </trkpt>
      <trkpt lat="47.12584" lon="5.85516">
        <ele>262.4</ele>
        <time>2024-05-28T12:23:33Z</time>
      </trkpt>
      <trkpt lat="47.12586" lon="5.85508">
        <ele>262.2</ele>
        <time>2024-05-28T12:23:34Z</time>
      </trkpt>
      <trkpt lat="47.1259" lon="5.85498">
        <ele>261.6</ele>
        <time>2024-05-28T12:23:35Z</time>
      </trkpt>
      <trkpt lat="47.12593" lon="5.85489">
        <ele>261</ele>
        <time>2024-05-28T12:23:36Z</time>
      </trkpt>
      <trkpt lat="47.12597" lon="5.8548">
        <ele>260.6</ele>
        <time>2024-05-28T12:23:37Z</time>
      </trkpt>
      <trkpt lat="47.126" lon="5.85472">
        <ele>260</ele>
        <time>2024-05-28T12:23:38Z</time>
      </trkpt>
      <trkpt lat="47.12603" lon="5.85465">
        <ele>259.8</ele>
        <time>2024-05-28T12:23:39Z</time>
      </trkpt>
      <trkpt lat="47.12611" lon="5.85451">
        <ele>259</ele>
        <time>2024-05-28T12:23:41Z</time>
      </trkpt>
      <trkpt lat="47.12614" lon="5.85444">
        <ele>258.4</ele>
        <time>2024-05-28T12:23:42Z</time>
      </trkpt>
      <trkpt lat="47.12617" lon="5.85438">
        <ele>258</ele>
        <time>2024-05-28T12:23:43Z</time>
      </trkpt>
      <trkpt lat="47.12618" lon="5.85432">
        <ele>258</ele>
        <time>2024-05-28T12:23:44Z</time>
      </trkpt>
      <trkpt lat="47.1262" lon="5.85426">
        <ele>257.8</ele>
        <time>2024-05-28T12:23:45Z</time>
      </trkpt>
      <trkpt lat="47.12623" lon="5.85419">
        <ele>257.6</ele>
        <time>2024-05-28T12:23:46Z</time>
      </trkpt>
      <trkpt lat="47.12625" lon="5.85413">
        <ele>257.4</ele>
        <time>2024-05-28T12:23:47Z</time>
      </trkpt>
      <trkpt lat="47.12627" lon="5.85407">
        <ele>257.2</ele>
        <time>2024-05-28T12:23:48Z</time>
      </trkpt>
      <trkpt lat="47.12629" lon="5.85401">
        <ele>257</ele>
        <time>2024-05-28T12:23:49Z</time>
      </trkpt>
      <trkpt lat="47.12631" lon="5.85395">
        <ele>257</ele>
        <time>2024-05-28T12:23:50Z</time>
      </trkpt>
      <trkpt lat="47.12634" lon="5.8539">
        <ele>256.8</ele>
        <time>2024-05-28T12:23:51Z</time>
      </trkpt>
      <trkpt lat="47.12636" lon="5.85384">
        <ele>256.6</ele>
        <time>2024-05-28T12:23:52Z</time>
      </trkpt>
      <trkpt lat="47.12638" lon="5.85379">
        <ele>256.4</ele>
        <time>2024-05-28T12:23:53Z</time>
      </trkpt>
      <trkpt lat="47.1264" lon="5.85374">
        <ele>256</ele>
        <time>2024-05-28T12:23:54Z</time>
      </trkpt>
      <trkpt lat="47.12643" lon="5.85368">
        <ele>256</ele>
        <time>2024-05-28T12:23:55Z</time>
      </trkpt>
      <trkpt lat="47.12649" lon="5.85353">
        <ele>255.6</ele>
        <time>2024-05-28T12:23:57Z</time>
      </trkpt>
      <trkpt lat="47.12657" lon="5.85339">
        <ele>255.6</ele>
        <time>2024-05-28T12:23:59Z</time>
      </trkpt>
      <trkpt lat="47.12664" lon="5.85328">
        <ele>255.2</ele>
        <time>2024-05-28T12:24:01Z</time>
      </trkpt>
      <trkpt lat="47.12668" lon="5.85322">
        <ele>255.2</ele>
        <time>2024-05-28T12:24:02Z</time>
      </trkpt>
      <trkpt lat="47.12673" lon="5.85314">
        <ele>255</ele>
        <time>2024-05-28T12:24:03Z</time>
      </trkpt>
      <trkpt lat="47.12677" lon="5.85309">
        <ele>255</ele>
        <time>2024-05-28T12:24:04Z</time>
      </trkpt>
      <trkpt lat="47.12681" lon="5.85304">
        <ele>255</ele>
        <time>2024-05-28T12:24:05Z</time>
      </trkpt>
      <trkpt lat="47.12685" lon="5.85299">
        <ele>254.8</ele>
        <time>2024-05-28T12:24:06Z</time>
      </trkpt>
      <trkpt lat="47.12689" lon="5.85295">
        <ele>254.8</ele>
        <time>2024-05-28T12:24:07Z</time>
      </trkpt>
      <trkpt lat="47.12694" lon="5.8529">
        <ele>254.6</ele>
        <time>2024-05-28T12:24:08Z</time>
      </trkpt>
      <trkpt lat="47.12705" lon="5.8528">
        <ele>254.2</ele>
        <time>2024-05-28T12:24:10Z</time>
      </trkpt>
      <trkpt lat="47.12714" lon="5.85269">
        <ele>254</ele>
        <time>2024-05-28T12:24:12Z</time>
      </trkpt>
      <trkpt lat="47.1272" lon="5.85264">
        <ele>253.8</ele>
        <time>2024-05-28T12:24:13Z</time>
      </trkpt>
      <trkpt lat="47.12724" lon="5.85261">
        <ele>253.6</ele>
        <time>2024-05-28T12:24:14Z</time>
      </trkpt>
      <trkpt lat="47.12733" lon="5.85256">
        <ele>253</ele>
        <time>2024-05-28T12:24:16Z</time>
      </trkpt>
      <trkpt lat="47.12736" lon="5.85254">
        <ele>252.2</ele>
        <time>2024-05-28T12:24:17Z</time>
      </trkpt>
      <trkpt lat="47.12738" lon="5.85251">
        <ele>251.8</ele>
        <time>2024-05-28T12:24:18Z</time>
      </trkpt>
      <trkpt lat="47.1274" lon="5.85247">
        <ele>251.2</ele>
        <time>2024-05-28T12:24:19Z</time>
      </trkpt>
      <trkpt lat="47.12742" lon="5.8524">
        <ele>250.8</ele>
        <time>2024-05-28T12:24:20Z</time>
      </trkpt>
      <trkpt lat="47.12742" lon="5.85233">
        <ele>250.6</ele>
        <time>2024-05-28T12:24:21Z</time>
      </trkpt>
      <trkpt lat="47.12737" lon="5.85223">
        <ele>249.8</ele>
        <time>2024-05-28T12:24:23Z</time>
      </trkpt>
      <trkpt lat="47.12732" lon="5.85219">
        <ele>249</ele>
        <time>2024-05-28T12:24:24Z</time>
      </trkpt>
      <trkpt lat="47.12729" lon="5.85213">
        <ele>249</ele>
        <time>2024-05-28T12:24:25Z</time>
      </trkpt>
      <trkpt lat="47.12726" lon="5.85208">
        <ele>248.4</ele>
        <time>2024-05-28T12:24:26Z</time>
      </trkpt>
      <trkpt lat="47.12717" lon="5.85193">
        <ele>247.6</ele>
        <time>2024-05-28T12:24:29Z</time>
      </trkpt>
      <trkpt lat="47.12715" lon="5.85188">
        <ele>247.6</ele>
        <time>2024-05-28T12:24:30Z</time>
      </trkpt>
      <trkpt lat="47.12708" lon="5.85177">
        <ele>247.4</ele>
        <time>2024-05-28T12:24:32Z</time>
      </trkpt>
      <trkpt lat="47.12699" lon="5.85167">
        <ele>246.4</ele>
        <time>2024-05-28T12:24:35Z</time>
      </trkpt>
      <trkpt lat="47.12695" lon="5.85165">
        <ele>246</ele>
        <time>2024-05-28T12:24:36Z</time>
      </trkpt>
      <trkpt lat="47.12692" lon="5.85162">
        <ele>246.2</ele>
        <time>2024-05-28T12:24:37Z</time>
      </trkpt>
      <trkpt lat="47.1269" lon="5.8516">
        <ele>246</ele>
        <time>2024-05-28T12:24:38Z</time>
      </trkpt>
      <trkpt lat="47.12688" lon="5.85157">
        <ele>246</ele>
        <time>2024-05-28T12:24:39Z</time>
      </trkpt>
      <trkpt lat="47.12682" lon="5.85154">
        <ele>245.8</ele>
        <time>2024-05-28T12:24:41Z</time>
      </trkpt>
      <trkpt lat="47.12675" lon="5.85155">
        <ele>245.8</ele>
        <time>2024-05-28T12:24:43Z</time>
      </trkpt>
      <trkpt lat="47.12672" lon="5.85153">
        <ele>245.8</ele>
        <time>2024-05-28T12:24:44Z</time>
      </trkpt>
      <trkpt lat="47.1267" lon="5.8515">
        <ele>245.8</ele>
        <time>2024-05-28T12:24:45Z</time>
      </trkpt>
      <trkpt lat="47.12668" lon="5.85145">
        <ele>245.8</ele>
        <time>2024-05-28T12:24:46Z</time>
      </trkpt>
      <trkpt lat="47.12665" lon="5.85137">
        <ele>245.6</ele>
        <time>2024-05-28T12:24:48Z</time>
      </trkpt>
      <trkpt lat="47.12663" lon="5.85133">
        <ele>245.6</ele>
        <time>2024-05-28T12:24:49Z</time>
      </trkpt>
      <trkpt lat="47.12648" lon="5.85112">
        <ele>245.4</ele>
        <time>2024-05-28T12:24:55Z</time>
      </trkpt>
      <trkpt lat="47.1264" lon="5.85089">
        <ele>245.6</ele>
        <time>2024-05-28T12:25:00Z</time>
      </trkpt>
      <trkpt lat="47.1264" lon="5.85085">
        <ele>245.6</ele>
        <time>2024-05-28T12:25:01Z</time>
      </trkpt>
      <trkpt lat="47.12639" lon="5.85081">
        <ele>245.6</ele>
        <time>2024-05-28T12:25:02Z</time>
      </trkpt>
      <trkpt lat="47.12639" lon="5.85078">
        <ele>245.6</ele>
        <time>2024-05-28T12:25:03Z</time>
      </trkpt>
      <trkpt lat="47.12636" lon="5.85071">
        <ele>245.6</ele>
        <time>2024-05-28T12:25:04Z</time>
      </trkpt>
      <trkpt lat="47.12635" lon="5.85068">
        <ele>245.6</ele>
        <time>2024-05-28T12:25:05Z</time>
      </trkpt>
      <trkpt lat="47.12635" lon="5.85068">
        <ele>245.6</ele>
        <time>2024-05-28T12:25:06Z</time>
      </trkpt>
      <trkpt lat="47.12624" lon="5.85047">
        <ele>245.4</ele>
        <time>2024-05-28T12:25:11Z</time>
      </trkpt>
      <trkpt lat="47.12614" lon="5.8503">
        <ele>245.4</ele>
        <time>2024-05-28T12:25:17Z</time>
      </trkpt>
      <trkpt lat="47.12606" lon="5.8502">
        <ele>245.8</ele>
        <time>2024-05-28T12:25:20Z</time>
      </trkpt>
      <trkpt lat="47.12604" lon="5.85018">
        <ele>246</ele>
        <time>2024-05-28T12:25:21Z</time>
      </trkpt>
      <trkpt lat="47.12603" lon="5.85016">
        <ele>246.4</ele>
        <time>2024-05-28T12:25:22Z</time>
      </trkpt>
      <trkpt lat="47.12603" lon="5.85016">
        <ele>246.4</ele>
        <time>2024-05-28T12:25:23Z</time>
      </trkpt>
      <trkpt lat="47.12601" lon="5.85013">
        <ele>246.8</ele>
        <time>2024-05-28T12:25:24Z</time>
      </trkpt>
      <trkpt lat="47.126" lon="5.85011">
        <ele>247</ele>
        <time>2024-05-28T12:25:25Z</time>
      </trkpt>
      <trkpt lat="47.126" lon="5.85011">
        <ele>247.4</ele>
        <time>2024-05-28T12:25:26Z</time>
      </trkpt>
      <trkpt lat="47.12599" lon="5.85009">
        <ele>247.4</ele>
        <time>2024-05-28T12:25:27Z</time>
      </trkpt>
      <trkpt lat="47.12598" lon="5.85008">
        <ele>247.8</ele>
        <time>2024-05-28T12:25:28Z</time>
      </trkpt>
      <trkpt lat="47.12597" lon="5.85007">
        <ele>248.2</ele>
        <time>2024-05-28T12:25:29Z</time>
      </trkpt>
      <trkpt lat="47.12596" lon="5.85007">
        <ele>248.4</ele>
        <time>2024-05-28T12:25:30Z</time>
      </trkpt>
      <trkpt lat="47.12594" lon="5.85006">
        <ele>248.6</ele>
        <time>2024-05-28T12:25:31Z</time>
      </trkpt>
      <trkpt lat="47.12589" lon="5.85004">
        <ele>248.8</ele>
        <time>2024-05-28T12:25:34Z</time>
      </trkpt>
      <trkpt lat="47.12587" lon="5.85003">
        <ele>248.8</ele>
        <time>2024-05-28T12:25:35Z</time>
      </trkpt>
      <trkpt lat="47.12585" lon="5.85002">
        <ele>248.8</ele>
        <time>2024-05-28T12:25:36Z</time>
      </trkpt>
      <trkpt lat="47.12583" lon="5.85001">
        <ele>249</ele>
        <time>2024-05-28T12:25:37Z</time>
      </trkpt>
      <trkpt lat="47.12581" lon="5.84999">
        <ele>249</ele>
        <time>2024-05-28T12:25:38Z</time>
      </trkpt>
      <trkpt lat="47.12579" lon="5.84998">
        <ele>249</ele>
        <time>2024-05-28T12:25:39Z</time>
      </trkpt>
      <trkpt lat="47.12576" lon="5.84996">
        <ele>249.2</ele>
        <time>2024-05-28T12:25:40Z</time>
      </trkpt>
      <trkpt lat="47.12575" lon="5.84996">
        <ele>249.2</ele>
        <time>2024-05-28T12:25:41Z</time>
      </trkpt>
      <trkpt lat="47.12573" lon="5.84995">
        <ele>249.4</ele>
        <time>2024-05-28T12:25:42Z</time>
      </trkpt>
      <trkpt lat="47.12572" lon="5.84994">
        <ele>249.4</ele>
        <time>2024-05-28T12:25:43Z</time>
      </trkpt>
      <trkpt lat="47.12571" lon="5.84994">
        <ele>249.6</ele>
        <time>2024-05-28T12:25:44Z</time>
      </trkpt>
      <trkpt lat="47.12571" lon="5.84993">
        <ele>249.8</ele>
        <time>2024-05-28T12:25:45Z</time>
      </trkpt>
      <trkpt lat="47.12572" lon="5.84991">
        <ele>249.8</ele>
        <time>2024-05-28T12:25:46Z</time>
      </trkpt>
      <trkpt lat="47.12572" lon="5.84989">
        <ele>250</ele>
        <time>2024-05-28T12:25:47Z</time>
      </trkpt>
      <trkpt lat="47.12573" lon="5.84988">
        <ele>250</ele>
        <time>2024-05-28T12:25:48Z</time>
      </trkpt>
      <trkpt lat="47.12575" lon="5.84987">
        <ele>250.2</ele>
        <time>2024-05-28T12:25:49Z</time>
      </trkpt>
      <trkpt lat="47.12577" lon="5.84986">
        <ele>250.2</ele>
        <time>2024-05-28T12:25:50Z</time>
      </trkpt>
      <trkpt lat="47.12579" lon="5.84986">
        <ele>250.4</ele>
        <time>2024-05-28T12:25:51Z</time>
      </trkpt>
      <trkpt lat="47.12581" lon="5.84985">
        <ele>250.4</ele>
        <time>2024-05-28T12:25:52Z</time>
      </trkpt>
      <trkpt lat="47.12584" lon="5.84984">
        <ele>250.4</ele>
        <time>2024-05-28T12:25:53Z</time>
      </trkpt>
      <trkpt lat="47.12587" lon="5.84984">
        <ele>250.4</ele>
        <time>2024-05-28T12:25:54Z</time>
      </trkpt>
      <trkpt lat="47.1259" lon="5.84984">
        <ele>250.4</ele>
        <time>2024-05-28T12:25:55Z</time>
      </trkpt>
      <trkpt lat="47.12593" lon="5.84983">
        <ele>250.4</ele>
        <time>2024-05-28T12:25:56Z</time>
      </trkpt>
      <trkpt lat="47.12597" lon="5.84983">
        <ele>250.2</ele>
        <time>2024-05-28T12:25:57Z</time>
      </trkpt>
      <trkpt lat="47.12601" lon="5.84982">
        <ele>250</ele>
        <time>2024-05-28T12:25:58Z</time>
      </trkpt>
      <trkpt lat="47.12606" lon="5.84981">
        <ele>250</ele>
        <time>2024-05-28T12:25:59Z</time>
      </trkpt>
      <trkpt lat="47.1262" lon="5.84976">
        <ele>249.4</ele>
        <time>2024-05-28T12:26:02Z</time>
      </trkpt>
      <trkpt lat="47.12647" lon="5.84958">
        <ele>248.2</ele>
        <time>2024-05-28T12:26:07Z</time>
      </trkpt>
      <trkpt lat="47.12652" lon="5.84953">
        <ele>247.6</ele>
        <time>2024-05-28T12:26:08Z</time>
      </trkpt>
      <trkpt lat="47.12657" lon="5.84948">
        <ele>247</ele>
        <time>2024-05-28T12:26:10Z</time>
      </trkpt>
      <trkpt lat="47.1268" lon="5.84923">
        <ele>245.8</ele>
        <time>2024-05-28T12:26:14Z</time>
      </trkpt>
      <trkpt lat="47.12684" lon="5.84918">
        <ele>245.8</ele>
        <time>2024-05-28T12:26:15Z</time>
      </trkpt>
      <trkpt lat="47.12702" lon="5.84898">
        <ele>245.2</ele>
        <time>2024-05-28T12:26:19Z</time>
      </trkpt>
      <trkpt lat="47.12707" lon="5.84894">
        <ele>245.2</ele>
        <time>2024-05-28T12:26:20Z</time>
      </trkpt>
      <trkpt lat="47.12712" lon="5.8489">
        <ele>245.2</ele>
        <time>2024-05-28T12:26:21Z</time>
      </trkpt>
      <trkpt lat="47.12717" lon="5.84887">
        <ele>245.2</ele>
        <time>2024-05-28T12:26:22Z</time>
      </trkpt>
      <trkpt lat="47.12722" lon="5.84884">
        <ele>245</ele>
        <time>2024-05-28T12:26:23Z</time>
      </trkpt>
      <trkpt lat="47.12727" lon="5.84881">
        <ele>245</ele>
        <time>2024-05-28T12:26:24Z</time>
      </trkpt>
      <trkpt lat="47.12749" lon="5.84874">
        <ele>244.6</ele>
        <time>2024-05-28T12:26:29Z</time>
      </trkpt>
      <trkpt lat="47.1276" lon="5.84872">
        <ele>244.4</ele>
        <time>2024-05-28T12:26:30Z</time>
      </trkpt>
      <trkpt lat="47.12776" lon="5.8487">
        <ele>244</ele>
        <time>2024-05-28T12:26:33Z</time>
      </trkpt>
      <trkpt lat="47.12787" lon="5.8487">
        <ele>243.6</ele>
        <time>2024-05-28T12:26:35Z</time>
      </trkpt>
      <trkpt lat="47.12797" lon="5.8487">
        <ele>243.2</ele>
        <time>2024-05-28T12:26:37Z</time>
      </trkpt>
      <trkpt lat="47.12808" lon="5.8487">
        <ele>243</ele>
        <time>2024-05-28T12:26:39Z</time>
      </trkpt>
      <trkpt lat="47.12814" lon="5.8487">
        <ele>242.8</ele>
        <time>2024-05-28T12:26:40Z</time>
      </trkpt>
      <trkpt lat="47.12819" lon="5.84869">
        <ele>242.8</ele>
        <time>2024-05-28T12:26:41Z</time>
      </trkpt>
      <trkpt lat="47.12823" lon="5.84869">
        <ele>242.8</ele>
        <time>2024-05-28T12:26:42Z</time>
      </trkpt>
      <trkpt lat="47.12828" lon="5.84868">
        <ele>242.6</ele>
        <time>2024-05-28T12:26:43Z</time>
      </trkpt>
      <trkpt lat="47.12833" lon="5.84869">
        <ele>242.6</ele>
        <time>2024-05-28T12:26:44Z</time>
      </trkpt>
      <trkpt lat="47.12842" lon="5.84871">
        <ele>242.4</ele>
        <time>2024-05-28T12:26:46Z</time>
      </trkpt>
      <trkpt lat="47.12846" lon="5.84871">
        <ele>242.4</ele>
        <time>2024-05-28T12:26:47Z</time>
      </trkpt>
      <trkpt lat="47.1285" lon="5.84872">
        <ele>242.4</ele>
        <time>2024-05-28T12:26:48Z</time>
      </trkpt>
      <trkpt lat="47.12854" lon="5.84872">
        <ele>242.2</ele>
        <time>2024-05-28T12:26:49Z</time>
      </trkpt>
      <trkpt lat="47.12859" lon="5.84872">
        <ele>242</ele>
        <time>2024-05-28T12:26:50Z</time>
      </trkpt>
      <trkpt lat="47.12867" lon="5.84871">
        <ele>241.6</ele>
        <time>2024-05-28T12:26:52Z</time>
      </trkpt>
      <trkpt lat="47.12872" lon="5.84871">
        <ele>241.4</ele>
        <time>2024-05-28T12:26:53Z</time>
      </trkpt>
      <trkpt lat="47.12876" lon="5.8487">
        <ele>241.4</ele>
        <time>2024-05-28T12:26:54Z</time>
      </trkpt>
      <trkpt lat="47.1289" lon="5.84868">
        <ele>241.2</ele>
        <time>2024-05-28T12:26:57Z</time>
      </trkpt>
      <trkpt lat="47.12895" lon="5.84867">
        <ele>241.2</ele>
        <time>2024-05-28T12:26:58Z</time>
      </trkpt>
      <trkpt lat="47.129" lon="5.84867">
        <ele>241</ele>
        <time>2024-05-28T12:26:59Z</time>
      </trkpt>
      <trkpt lat="47.12905" lon="5.84867">
        <ele>241</ele>
        <time>2024-05-28T12:27:00Z</time>
      </trkpt>
      <trkpt lat="47.12917" lon="5.84866">
        <ele>240.8</ele>
        <time>2024-05-28T12:27:02Z</time>
      </trkpt>
      <trkpt lat="47.12922" lon="5.84865">
        <ele>240.6</ele>
        <time>2024-05-28T12:27:03Z</time>
      </trkpt>
      <trkpt lat="47.12938" lon="5.84862">
        <ele>240.2</ele>
        <time>2024-05-28T12:27:06Z</time>
      </trkpt>
      <trkpt lat="47.12949" lon="5.84861">
        <ele>239.6</ele>
        <time>2024-05-28T12:27:08Z</time>
      </trkpt>
      <trkpt lat="47.12954" lon="5.84861">
        <ele>239.4</ele>
        <time>2024-05-28T12:27:09Z</time>
      </trkpt>
      <trkpt lat="47.12964" lon="5.84859">
        <ele>239.2</ele>
        <time>2024-05-28T12:27:11Z</time>
      </trkpt>
      <trkpt lat="47.12969" lon="5.84859">
        <ele>239.2</ele>
        <time>2024-05-28T12:27:12Z</time>
      </trkpt>
      <trkpt lat="47.12974" lon="5.84859">
        <ele>239</ele>
        <time>2024-05-28T12:27:13Z</time>
      </trkpt>
      <trkpt lat="47.12979" lon="5.84859">
        <ele>239</ele>
        <time>2024-05-28T12:27:14Z</time>
      </trkpt>
      <trkpt lat="47.12987" lon="5.84858">
        <ele>238.6</ele>
        <time>2024-05-28T12:27:16Z</time>
      </trkpt>
      <trkpt lat="47.12991" lon="5.84857">
        <ele>238.6</ele>
        <time>2024-05-28T12:27:17Z</time>
      </trkpt>
      <trkpt lat="47.12995" lon="5.84856">
        <ele>238.6</ele>
        <time>2024-05-28T12:27:18Z</time>
      </trkpt>
      <trkpt lat="47.13" lon="5.84856">
        <ele>238.4</ele>
        <time>2024-05-28T12:27:19Z</time>
      </trkpt>
      <trkpt lat="47.13004" lon="5.84856">
        <ele>238.4</ele>
        <time>2024-05-28T12:27:20Z</time>
      </trkpt>
      <trkpt lat="47.13008" lon="5.84855">
        <ele>238.4</ele>
        <time>2024-05-28T12:27:21Z</time>
      </trkpt>
      <trkpt lat="47.13013" lon="5.84855">
        <ele>238.2</ele>
        <time>2024-05-28T12:27:22Z</time>
      </trkpt>
      <trkpt lat="47.13022" lon="5.84854">
        <ele>238</ele>
        <time>2024-05-28T12:27:24Z</time>
      </trkpt>
      <trkpt lat="47.1303" lon="5.84854">
        <ele>237.8</ele>
        <time>2024-05-28T12:27:26Z</time>
      </trkpt>
      <trkpt lat="47.13057" lon="5.84851">
        <ele>237.2</ele>
        <time>2024-05-28T12:27:32Z</time>
      </trkpt>
      <trkpt lat="47.1308" lon="5.84849">
        <ele>236.6</ele>
        <time>2024-05-28T12:27:37Z</time>
      </trkpt>
      <trkpt lat="47.13098" lon="5.84846">
        <ele>236.2</ele>
        <time>2024-05-28T12:27:41Z</time>
      </trkpt>
      <trkpt lat="47.13117" lon="5.84845">
        <ele>235.6</ele>
        <time>2024-05-28T12:27:45Z</time>
      </trkpt>
      <trkpt lat="47.13135" lon="5.84844">
        <ele>235</ele>
        <time>2024-05-28T12:27:49Z</time>
      </trkpt>
      <trkpt lat="47.13139" lon="5.84843">
        <ele>235</ele>
        <time>2024-05-28T12:27:50Z</time>
      </trkpt>
      <trkpt lat="47.13146" lon="5.84843">
        <ele>234.8</ele>
        <time>2024-05-28T12:27:52Z</time>
      </trkpt>
      <trkpt lat="47.13149" lon="5.84843">
        <ele>234.8</ele>
        <time>2024-05-28T12:27:53Z</time>
      </trkpt>
      <trkpt lat="47.13152" lon="5.84843">
        <ele>234.8</ele>
        <time>2024-05-28T12:27:54Z</time>
      </trkpt>
      <trkpt lat="47.13155" lon="5.84843">
        <ele>234.8</ele>
        <time>2024-05-28T12:27:55Z</time>
      </trkpt>
      <trkpt lat="47.13158" lon="5.84843">
        <ele>234.8</ele>
        <time>2024-05-28T12:27:56Z</time>
      </trkpt>
      <trkpt lat="47.13161" lon="5.84843">
        <ele>234.8</ele>
        <time>2024-05-28T12:27:57Z</time>
      </trkpt>
      <trkpt lat="47.13167" lon="5.84841">
        <ele>234.8</ele>
        <time>2024-05-28T12:27:59Z</time>
      </trkpt>
      <trkpt lat="47.13195" lon="5.84838">
        <ele>235.4</ele>
        <time>2024-05-28T12:28:06Z</time>
      </trkpt>
      <trkpt lat="47.13236" lon="5.84835">
        <ele>235</ele>
        <time>2024-05-28T12:28:14Z</time>
      </trkpt>
      <trkpt lat="47.13242" lon="5.84836">
        <ele>235</ele>
        <time>2024-05-28T12:28:15Z</time>
      </trkpt>
      <trkpt lat="47.13261" lon="5.84841">
        <ele>234.2</ele>
        <time>2024-05-28T12:28:18Z</time>
      </trkpt>
      <trkpt lat="47.13268" lon="5.84844">
        <ele>234</ele>
        <time>2024-05-28T12:28:19Z</time>
      </trkpt>
      <trkpt lat="47.13274" lon="5.84848">
        <ele>233.8</ele>
        <time>2024-05-28T12:28:20Z</time>
      </trkpt>
      <trkpt lat="47.13299" lon="5.84869">
        <ele>233.4</ele>
        <time>2024-05-28T12:28:24Z</time>
      </trkpt>
      <trkpt lat="47.13305" lon="5.84873">
        <ele>233</ele>
        <time>2024-05-28T12:28:25Z</time>
      </trkpt>
      <trkpt lat="47.1331" lon="5.84878">
        <ele>232.8</ele>
        <time>2024-05-28T12:28:26Z</time>
      </trkpt>
      <trkpt lat="47.1332" lon="5.84887">
        <ele>232.6</ele>
        <time>2024-05-28T12:28:28Z</time>
      </trkpt>
      <trkpt lat="47.13325" lon="5.84892">
        <ele>232.6</ele>
        <time>2024-05-28T12:28:29Z</time>
      </trkpt>
      <trkpt lat="47.13328" lon="5.84895">
        <ele>232.4</ele>
        <time>2024-05-28T12:28:30Z</time>
      </trkpt>
      <trkpt lat="47.13331" lon="5.84898">
        <ele>232.4</ele>
        <time>2024-05-28T12:28:31Z</time>
      </trkpt>
      <trkpt lat="47.13344" lon="5.84909">
        <ele>232.2</ele>
        <time>2024-05-28T12:28:33Z</time>
      </trkpt>
      <trkpt lat="47.13349" lon="5.84914">
        <ele>232.2</ele>
        <time>2024-05-28T12:28:34Z</time>
      </trkpt>
      <trkpt lat="47.13354" lon="5.84918">
        <ele>232.2</ele>
        <time>2024-05-28T12:28:35Z</time>
      </trkpt>
      <trkpt lat="47.13359" lon="5.84922">
        <ele>232.2</ele>
        <time>2024-05-28T12:28:36Z</time>
      </trkpt>
      <trkpt lat="47.13363" lon="5.84926">
        <ele>232.2</ele>
        <time>2024-05-28T12:28:37Z</time>
      </trkpt>
      <trkpt lat="47.13368" lon="5.84931">
        <ele>232.4</ele>
        <time>2024-05-28T12:28:38Z</time>
      </trkpt>
      <trkpt lat="47.13373" lon="5.84935">
        <ele>232.4</ele>
        <time>2024-05-28T12:28:39Z</time>
      </trkpt>
      <trkpt lat="47.13387" lon="5.84947">
        <ele>232.4</ele>
        <time>2024-05-28T12:28:42Z</time>
      </trkpt>
      <trkpt lat="47.13401" lon="5.84958">
        <ele>232.4</ele>
        <time>2024-05-28T12:28:45Z</time>
      </trkpt>
      <trkpt lat="47.13405" lon="5.84962">
        <ele>232.4</ele>
        <time>2024-05-28T12:28:46Z</time>
      </trkpt>
      <trkpt lat="47.13414" lon="5.84969">
        <ele>232.4</ele>
        <time>2024-05-28T12:28:48Z</time>
      </trkpt>
      <trkpt lat="47.13423" lon="5.84977">
        <ele>232.4</ele>
        <time>2024-05-28T12:28:50Z</time>
      </trkpt>
      <trkpt lat="47.13428" lon="5.8498">
        <ele>232.4</ele>
        <time>2024-05-28T12:28:51Z</time>
      </trkpt>
      <trkpt lat="47.13437" lon="5.84987">
        <ele>232.4</ele>
        <time>2024-05-28T12:28:53Z</time>
      </trkpt>
      <trkpt lat="47.13441" lon="5.8499">
        <ele>232.6</ele>
        <time>2024-05-28T12:28:54Z</time>
      </trkpt>
      <trkpt lat="47.13445" lon="5.84993">
        <ele>232.6</ele>
        <time>2024-05-28T12:28:55Z</time>
      </trkpt>
      <trkpt lat="47.13449" lon="5.84995">
        <ele>232.6</ele>
        <time>2024-05-28T12:28:56Z</time>
      </trkpt>
      <trkpt lat="47.13453" lon="5.84997">
        <ele>232.6</ele>
        <time>2024-05-28T12:28:57Z</time>
      </trkpt>
      <trkpt lat="47.13458" lon="5.84998">
        <ele>232.6</ele>
        <time>2024-05-28T12:28:58Z</time>
      </trkpt>
      <trkpt lat="47.13462" lon="5.84998">
        <ele>232.6</ele>
        <time>2024-05-28T12:28:59Z</time>
      </trkpt>
      <trkpt lat="47.13466" lon="5.84994">
        <ele>232.6</ele>
        <time>2024-05-28T12:29:00Z</time>
      </trkpt>
      <trkpt lat="47.13469" lon="5.84989">
        <ele>232.6</ele>
        <time>2024-05-28T12:29:01Z</time>
      </trkpt>
      <trkpt lat="47.13472" lon="5.84983">
        <ele>232.6</ele>
        <time>2024-05-28T12:29:02Z</time>
      </trkpt>
      <trkpt lat="47.13477" lon="5.84971">
        <ele>232.4</ele>
        <time>2024-05-28T12:29:04Z</time>
      </trkpt>
      <trkpt lat="47.1348" lon="5.84965">
        <ele>232.4</ele>
        <time>2024-05-28T12:29:05Z</time>
      </trkpt>
      <trkpt lat="47.13483" lon="5.84959">
        <ele>232.4</ele>
        <time>2024-05-28T12:29:06Z</time>
      </trkpt>
      <trkpt lat="47.13491" lon="5.84941">
        <ele>231.8</ele>
        <time>2024-05-28T12:29:09Z</time>
      </trkpt>
      <trkpt lat="47.13502" lon="5.84917">
        <ele>231.4</ele>
        <time>2024-05-28T12:29:13Z</time>
      </trkpt>
      <trkpt lat="47.13504" lon="5.84911">
        <ele>231.4</ele>
        <time>2024-05-28T12:29:14Z</time>
      </trkpt>
      <trkpt lat="47.13513" lon="5.84887">
        <ele>231.2</ele>
        <time>2024-05-28T12:29:18Z</time>
      </trkpt>
      <trkpt lat="47.13521" lon="5.84872">
        <ele>231.2</ele>
        <time>2024-05-28T12:29:21Z</time>
      </trkpt>
      <trkpt lat="47.13527" lon="5.84862">
        <ele>231.2</ele>
        <time>2024-05-28T12:29:23Z</time>
      </trkpt>
      <trkpt lat="47.1353" lon="5.84857">
        <ele>231.2</ele>
        <time>2024-05-28T12:29:24Z</time>
      </trkpt>
      <trkpt lat="47.13532" lon="5.84851">
        <ele>231.2</ele>
        <time>2024-05-28T12:29:25Z</time>
      </trkpt>
      <trkpt lat="47.13534" lon="5.84846">
        <ele>231.2</ele>
        <time>2024-05-28T12:29:26Z</time>
      </trkpt>
      <trkpt lat="47.13537" lon="5.8484">
        <ele>231.2</ele>
        <time>2024-05-28T12:29:27Z</time>
      </trkpt>
      <trkpt lat="47.13542" lon="5.84829">
        <ele>231.2</ele>
        <time>2024-05-28T12:29:29Z</time>
      </trkpt>
      <trkpt lat="47.13549" lon="5.84819">
        <ele>231.2</ele>
        <time>2024-05-28T12:29:31Z</time>
      </trkpt>
      <trkpt lat="47.13552" lon="5.84807">
        <ele>231.2</ele>
        <time>2024-05-28T12:29:33Z</time>
      </trkpt>
      <trkpt lat="47.13554" lon="5.84801">
        <ele>231</ele>
        <time>2024-05-28T12:29:34Z</time>
      </trkpt>
      <trkpt lat="47.13558" lon="5.84789">
        <ele>231</ele>
        <time>2024-05-28T12:29:36Z</time>
      </trkpt>
      <trkpt lat="47.13565" lon="5.84773">
        <ele>231.2</ele>
        <time>2024-05-28T12:29:39Z</time>
      </trkpt>
      <trkpt lat="47.13588" lon="5.84719">
        <ele>231.2</ele>
        <time>2024-05-28T12:29:48Z</time>
      </trkpt>
      <trkpt lat="47.13591" lon="5.84714">
        <ele>231</ele>
        <time>2024-05-28T12:29:49Z</time>
      </trkpt>
      <trkpt lat="47.13594" lon="5.84708">
        <ele>231</ele>
        <time>2024-05-28T12:29:50Z</time>
      </trkpt>
      <trkpt lat="47.13601" lon="5.8469">
        <ele>231</ele>
        <time>2024-05-28T12:29:53Z</time>
      </trkpt>
      <trkpt lat="47.13605" lon="5.8468">
        <ele>230.8</ele>
        <time>2024-05-28T12:29:55Z</time>
      </trkpt>
      <trkpt lat="47.13607" lon="5.84674">
        <ele>230.8</ele>
        <time>2024-05-28T12:29:56Z</time>
      </trkpt>
      <trkpt lat="47.13609" lon="5.84669">
        <ele>230.8</ele>
        <time>2024-05-28T12:29:57Z</time>
      </trkpt>
      <trkpt lat="47.13612" lon="5.84663">
        <ele>230.6</ele>
        <time>2024-05-28T12:29:58Z</time>
      </trkpt>
      <trkpt lat="47.13614" lon="5.84659">
        <ele>230.8</ele>
        <time>2024-05-28T12:29:59Z</time>
      </trkpt>
      <trkpt lat="47.13617" lon="5.84654">
        <ele>230.8</ele>
        <time>2024-05-28T12:30:00Z</time>
      </trkpt>
      <trkpt lat="47.13619" lon="5.84649">
        <ele>230.8</ele>
        <time>2024-05-28T12:30:01Z</time>
      </trkpt>
      <trkpt lat="47.13622" lon="5.84644">
        <ele>230.8</ele>
        <time>2024-05-28T12:30:02Z</time>
      </trkpt>
      <trkpt lat="47.13624" lon="5.84639">
        <ele>230.8</ele>
        <time>2024-05-28T12:30:03Z</time>
      </trkpt>
      <trkpt lat="47.1363" lon="5.84622">
        <ele>230.6</ele>
        <time>2024-05-28T12:30:06Z</time>
      </trkpt>
      <trkpt lat="47.13632" lon="5.84616">
        <ele>230.6</ele>
        <time>2024-05-28T12:30:07Z</time>
      </trkpt>
      <trkpt lat="47.13643" lon="5.84589">
        <ele>230.6</ele>
        <time>2024-05-28T12:30:12Z</time>
      </trkpt>
      <trkpt lat="47.13655" lon="5.84562">
        <ele>230.6</ele>
        <time>2024-05-28T12:30:17Z</time>
      </trkpt>
      <trkpt lat="47.13661" lon="5.84553">
        <ele>230.6</ele>
        <time>2024-05-28T12:30:19Z</time>
      </trkpt>
      <trkpt lat="47.13669" lon="5.84541">
        <ele>230.6</ele>
        <time>2024-05-28T12:30:22Z</time>
      </trkpt>
      <trkpt lat="47.13673" lon="5.84532">
        <ele>230.6</ele>
        <time>2024-05-28T12:30:24Z</time>
      </trkpt>
      <trkpt lat="47.13674" lon="5.84528">
        <ele>230.8</ele>
        <time>2024-05-28T12:30:25Z</time>
      </trkpt>
      <trkpt lat="47.13676" lon="5.84525">
        <ele>230.8</ele>
        <time>2024-05-28T12:30:26Z</time>
      </trkpt>
      <trkpt lat="47.13678" lon="5.84521">
        <ele>230.8</ele>
        <time>2024-05-28T12:30:27Z</time>
      </trkpt>
      <trkpt lat="47.1368" lon="5.84518">
        <ele>230.8</ele>
        <time>2024-05-28T12:30:28Z</time>
      </trkpt>
      <trkpt lat="47.13681" lon="5.84514">
        <ele>230.8</ele>
        <time>2024-05-28T12:30:29Z</time>
      </trkpt>
      <trkpt lat="47.13683" lon="5.84507">
        <ele>230.8</ele>
        <time>2024-05-28T12:30:31Z</time>
      </trkpt>
      <trkpt lat="47.13685" lon="5.84504">
        <ele>230.8</ele>
        <time>2024-05-28T12:30:32Z</time>
      </trkpt>
      <trkpt lat="47.13687" lon="5.84502">
        <ele>231</ele>
        <time>2024-05-28T12:30:33Z</time>
      </trkpt>
      <trkpt lat="47.13689" lon="5.84502">
        <ele>231</ele>
        <time>2024-05-28T12:30:34Z</time>
      </trkpt>
      <trkpt lat="47.13692" lon="5.84501">
        <ele>231</ele>
        <time>2024-05-28T12:30:35Z</time>
      </trkpt>
      <trkpt lat="47.13694" lon="5.84503">
        <ele>231</ele>
        <time>2024-05-28T12:30:36Z</time>
      </trkpt>
      <trkpt lat="47.13695" lon="5.84505">
        <ele>231.2</ele>
        <time>2024-05-28T12:30:37Z</time>
      </trkpt>
      <trkpt lat="47.13697" lon="5.84507">
        <ele>231.2</ele>
        <time>2024-05-28T12:30:38Z</time>
      </trkpt>
      <trkpt lat="47.13699" lon="5.84509">
        <ele>231.2</ele>
        <time>2024-05-28T12:30:39Z</time>
      </trkpt>
      <trkpt lat="47.13701" lon="5.84511">
        <ele>231.2</ele>
        <time>2024-05-28T12:30:40Z</time>
      </trkpt>
      <trkpt lat="47.13703" lon="5.84512">
        <ele>231.2</ele>
        <time>2024-05-28T12:30:41Z</time>
      </trkpt>
      <trkpt lat="47.13705" lon="5.84514">
        <ele>231.4</ele>
        <time>2024-05-28T12:30:42Z</time>
      </trkpt>
      <trkpt lat="47.13707" lon="5.84516">
        <ele>231.4</ele>
        <time>2024-05-28T12:30:43Z</time>
      </trkpt>
      <trkpt lat="47.13709" lon="5.84518">
        <ele>231.6</ele>
        <time>2024-05-28T12:30:44Z</time>
      </trkpt>
      <trkpt lat="47.13712" lon="5.8452">
        <ele>231.6</ele>
        <time>2024-05-28T12:30:45Z</time>
      </trkpt>
      <trkpt lat="47.13722" lon="5.84531">
        <ele>231.6</ele>
        <time>2024-05-28T12:30:49Z</time>
      </trkpt>
      <trkpt lat="47.13743" lon="5.84549">
        <ele>231.8</ele>
        <time>2024-05-28T12:30:55Z</time>
      </trkpt>
      <trkpt lat="47.13761" lon="5.84566">
        <ele>231.6</ele>
        <time>2024-05-28T12:31:01Z</time>
      </trkpt>
      <trkpt lat="47.13763" lon="5.84568">
        <ele>231.8</ele>
        <time>2024-05-28T12:31:02Z</time>
      </trkpt>
      <trkpt lat="47.13765" lon="5.8457">
        <ele>231.8</ele>
        <time>2024-05-28T12:31:03Z</time>
      </trkpt>
      <trkpt lat="47.13768" lon="5.84572">
        <ele>231.8</ele>
        <time>2024-05-28T12:31:04Z</time>
      </trkpt>
      <trkpt lat="47.13778" lon="5.84581">
        <ele>231.8</ele>
        <time>2024-05-28T12:31:08Z</time>
      </trkpt>
      <trkpt lat="47.1378" lon="5.84583">
        <ele>232</ele>
        <time>2024-05-28T12:31:09Z</time>
      </trkpt>
      <trkpt lat="47.13781" lon="5.84585">
        <ele>232</ele>
        <time>2024-05-28T12:31:10Z</time>
      </trkpt>
      <trkpt lat="47.13783" lon="5.84587">
        <ele>232</ele>
        <time>2024-05-28T12:31:11Z</time>
      </trkpt>
      <trkpt lat="47.13788" lon="5.84592">
        <ele>232</ele>
        <time>2024-05-28T12:31:13Z</time>
      </trkpt>
      <trkpt lat="47.13792" lon="5.84596">
        <ele>232</ele>
        <time>2024-05-28T12:31:15Z</time>
      </trkpt>
      <trkpt lat="47.13795" lon="5.84599">
        <ele>232</ele>
        <time>2024-05-28T12:31:16Z</time>
      </trkpt>
      <trkpt lat="47.13798" lon="5.84603">
        <ele>232</ele>
        <time>2024-05-28T12:31:17Z</time>
      </trkpt>
      <trkpt lat="47.13802" lon="5.84607">
        <ele>232</ele>
        <time>2024-05-28T12:31:18Z</time>
      </trkpt>
      <trkpt lat="47.13813" lon="5.84618">
        <ele>231.8</ele>
        <time>2024-05-28T12:31:22Z</time>
      </trkpt>
      <trkpt lat="47.13817" lon="5.84622">
        <ele>231.8</ele>
        <time>2024-05-28T12:31:23Z</time>
      </trkpt>
      <trkpt lat="47.13821" lon="5.84625">
        <ele>231.8</ele>
        <time>2024-05-28T12:31:24Z</time>
      </trkpt>
      <trkpt lat="47.1383" lon="5.84632">
        <ele>231.8</ele>
        <time>2024-05-28T12:31:27Z</time>
      </trkpt>
      <trkpt lat="47.13851" lon="5.84649">
        <ele>232</ele>
        <time>2024-05-28T12:31:33Z</time>
      </trkpt>
      <trkpt lat="47.13878" lon="5.84669">
        <ele>232</ele>
        <time>2024-05-28T12:31:40Z</time>
      </trkpt>
      <trkpt lat="47.13886" lon="5.84677">
        <ele>232</ele>
        <time>2024-05-28T12:31:42Z</time>
      </trkpt>
      <trkpt lat="47.13893" lon="5.84686">
        <ele>232</ele>
        <time>2024-05-28T12:31:44Z</time>
      </trkpt>
      <trkpt lat="47.13905" lon="5.84699">
        <ele>231.8</ele>
        <time>2024-05-28T12:31:47Z</time>
      </trkpt>
      <trkpt lat="47.13909" lon="5.84704">
        <ele>231.8</ele>
        <time>2024-05-28T12:31:48Z</time>
      </trkpt>
      <trkpt lat="47.13912" lon="5.84709">
        <ele>231.8</ele>
        <time>2024-05-28T12:31:49Z</time>
      </trkpt>
      <trkpt lat="47.13918" lon="5.84719">
        <ele>231.6</ele>
        <time>2024-05-28T12:31:51Z</time>
      </trkpt>
      <trkpt lat="47.13926" lon="5.84732">
        <ele>231.6</ele>
        <time>2024-05-28T12:31:54Z</time>
      </trkpt>
      <trkpt lat="47.13931" lon="5.84742">
        <ele>231.6</ele>
        <time>2024-05-28T12:31:56Z</time>
      </trkpt>
      <trkpt lat="47.13933" lon="5.84747">
        <ele>231.6</ele>
        <time>2024-05-28T12:31:57Z</time>
      </trkpt>
      <trkpt lat="47.13936" lon="5.84751">
        <ele>231.4</ele>
        <time>2024-05-28T12:31:58Z</time>
      </trkpt>
      <trkpt lat="47.13938" lon="5.84756">
        <ele>231.4</ele>
        <time>2024-05-28T12:31:59Z</time>
      </trkpt>
      <trkpt lat="47.13941" lon="5.84761">
        <ele>231.4</ele>
        <time>2024-05-28T12:32:00Z</time>
      </trkpt>
      <trkpt lat="47.13947" lon="5.84771">
        <ele>231.4</ele>
        <time>2024-05-28T12:32:02Z</time>
      </trkpt>
      <trkpt lat="47.13953" lon="5.84781">
        <ele>231.4</ele>
        <time>2024-05-28T12:32:04Z</time>
      </trkpt>
      <trkpt lat="47.13966" lon="5.84803">
        <ele>231</ele>
        <time>2024-05-28T12:32:09Z</time>
      </trkpt>
      <trkpt lat="47.1397" lon="5.84813">
        <ele>231</ele>
        <time>2024-05-28T12:32:11Z</time>
      </trkpt>
      <trkpt lat="47.13973" lon="5.84819">
        <ele>231</ele>
        <time>2024-05-28T12:32:12Z</time>
      </trkpt>
      <trkpt lat="47.13975" lon="5.84824">
        <ele>230.8</ele>
        <time>2024-05-28T12:32:13Z</time>
      </trkpt>
      <trkpt lat="47.13977" lon="5.84829">
        <ele>230.8</ele>
        <time>2024-05-28T12:32:14Z</time>
      </trkpt>
      <trkpt lat="47.13989" lon="5.84862">
        <ele>230.8</ele>
        <time>2024-05-28T12:32:20Z</time>
      </trkpt>
      <trkpt lat="47.14004" lon="5.84901">
        <ele>230.6</ele>
        <time>2024-05-28T12:32:27Z</time>
      </trkpt>
      <trkpt lat="47.14005" lon="5.84906">
        <ele>230.4</ele>
        <time>2024-05-28T12:32:28Z</time>
      </trkpt>
      <trkpt lat="47.14007" lon="5.84912">
        <ele>230.2</ele>
        <time>2024-05-28T12:32:29Z</time>
      </trkpt>
      <trkpt lat="47.14009" lon="5.84918">
        <ele>230.2</ele>
        <time>2024-05-28T12:32:30Z</time>
      </trkpt>
      <trkpt lat="47.14011" lon="5.84927">
        <ele>230</ele>
        <time>2024-05-28T12:32:32Z</time>
      </trkpt>
      <trkpt lat="47.14011" lon="5.84932">
        <ele>230</ele>
        <time>2024-05-28T12:32:33Z</time>
      </trkpt>
      <trkpt lat="47.14012" lon="5.84936">
        <ele>230</ele>
        <time>2024-05-28T12:32:34Z</time>
      </trkpt>
      <trkpt lat="47.14012" lon="5.8494">
        <ele>230</ele>
        <time>2024-05-28T12:32:35Z</time>
      </trkpt>
      <trkpt lat="47.14013" lon="5.84944">
        <ele>229.8</ele>
        <time>2024-05-28T12:32:36Z</time>
      </trkpt>
      <trkpt lat="47.14014" lon="5.84948">
        <ele>229.8</ele>
        <time>2024-05-28T12:32:37Z</time>
      </trkpt>
      <trkpt lat="47.14015" lon="5.84957">
        <ele>229.8</ele>
        <time>2024-05-28T12:32:39Z</time>
      </trkpt>
      <trkpt lat="47.1402" lon="5.8498">
        <ele>230</ele>
        <time>2024-05-28T12:32:44Z</time>
      </trkpt>
      <trkpt lat="47.14025" lon="5.85005">
        <ele>230.2</ele>
        <time>2024-05-28T12:32:50Z</time>
      </trkpt>
      <trkpt lat="47.14026" lon="5.85009">
        <ele>230.2</ele>
        <time>2024-05-28T12:32:51Z</time>
      </trkpt>
      <trkpt lat="47.14027" lon="5.85013">
        <ele>230.2</ele>
        <time>2024-05-28T12:32:52Z</time>
      </trkpt>
      <trkpt lat="47.14033" lon="5.85045">
        <ele>230.8</ele>
        <time>2024-05-28T12:32:59Z</time>
      </trkpt>
      <trkpt lat="47.14036" lon="5.85058">
        <ele>230.8</ele>
        <time>2024-05-28T12:33:03Z</time>
      </trkpt>
      <trkpt lat="47.14036" lon="5.8506">
        <ele>230.8</ele>
        <time>2024-05-28T12:33:04Z</time>
      </trkpt>
      <trkpt lat="47.14036" lon="5.85062">
        <ele>231</ele>
        <time>2024-05-28T12:33:05Z</time>
      </trkpt>
      <trkpt lat="47.14036" lon="5.85065">
        <ele>231</ele>
        <time>2024-05-28T12:33:06Z</time>
      </trkpt>
      <trkpt lat="47.14037" lon="5.85068">
        <ele>231</ele>
        <time>2024-05-28T12:33:07Z</time>
      </trkpt>
      <trkpt lat="47.14039" lon="5.85073">
        <ele>231.2</ele>
        <time>2024-05-28T12:33:09Z</time>
      </trkpt>
      <trkpt lat="47.1404" lon="5.85075">
        <ele>231.2</ele>
        <time>2024-05-28T12:33:10Z</time>
      </trkpt>
      <trkpt lat="47.14041" lon="5.85076">
        <ele>231.2</ele>
        <time>2024-05-28T12:33:11Z</time>
      </trkpt>
      <trkpt lat="47.14042" lon="5.85077">
        <ele>231.4</ele>
        <time>2024-05-28T12:33:12Z</time>
      </trkpt>
      <trkpt lat="47.14044" lon="5.85078">
        <ele>231.4</ele>
        <time>2024-05-28T12:33:13Z</time>
      </trkpt>
      <trkpt lat="47.14046" lon="5.85079">
        <ele>231.6</ele>
        <time>2024-05-28T12:33:14Z</time>
      </trkpt>
      <trkpt lat="47.14048" lon="5.85079">
        <ele>231.6</ele>
        <time>2024-05-28T12:33:15Z</time>
      </trkpt>
      <trkpt lat="47.1405" lon="5.85077">
        <ele>231.8</ele>
        <time>2024-05-28T12:33:16Z</time>
      </trkpt>
      <trkpt lat="47.14052" lon="5.85076">
        <ele>232</ele>
        <time>2024-05-28T12:33:17Z</time>
      </trkpt>
      <trkpt lat="47.14055" lon="5.85074">
        <ele>232.2</ele>
        <time>2024-05-28T12:33:18Z</time>
      </trkpt>
      <trkpt lat="47.14057" lon="5.85072">
        <ele>232.4</ele>
        <time>2024-05-28T12:33:19Z</time>
      </trkpt>
      <trkpt lat="47.14059" lon="5.85071">
        <ele>232.4</ele>
        <time>2024-05-28T12:33:20Z</time>
      </trkpt>
      <trkpt lat="47.14065" lon="5.85068">
        <ele>232.6</ele>
        <time>2024-05-28T12:33:22Z</time>
      </trkpt>
      <trkpt lat="47.14079" lon="5.8506">
        <ele>233</ele>
        <time>2024-05-28T12:33:27Z</time>
      </trkpt>
      <trkpt lat="47.14081" lon="5.85058">
        <ele>233.2</ele>
        <time>2024-05-28T12:33:28Z</time>
      </trkpt>
      <trkpt lat="47.14101" lon="5.85051">
        <ele>233.4</ele>
        <time>2024-05-28T12:33:35Z</time>
      </trkpt>
      <trkpt lat="47.14125" lon="5.85045">
        <ele>233.4</ele>
        <time>2024-05-28T12:33:40Z</time>
      </trkpt>
      <trkpt lat="47.14134" lon="5.85044">
        <ele>233.2</ele>
        <time>2024-05-28T12:33:42Z</time>
      </trkpt>
      <trkpt lat="47.14173" lon="5.85046">
        <ele>233.6</ele>
        <time>2024-05-28T12:33:50Z</time>
      </trkpt>
      <trkpt lat="47.14216" lon="5.85062">
        <ele>233.4</ele>
        <time>2024-05-28T12:33:58Z</time>
      </trkpt>
      <trkpt lat="47.1427" lon="5.85088">
        <ele>233.2</ele>
        <time>2024-05-28T12:34:08Z</time>
      </trkpt>
      <trkpt lat="47.14324" lon="5.85114">
        <ele>233.2</ele>
        <time>2024-05-28T12:34:18Z</time>
      </trkpt>
      <trkpt lat="47.1433" lon="5.85117">
        <ele>233.2</ele>
        <time>2024-05-28T12:34:19Z</time>
      </trkpt>
      <trkpt lat="47.14372" lon="5.85136">
        <ele>233.4</ele>
        <time>2024-05-28T12:34:26Z</time>
      </trkpt>
      <trkpt lat="47.1441" lon="5.85155">
        <ele>233.2</ele>
        <time>2024-05-28T12:34:32Z</time>
      </trkpt>
      <trkpt lat="47.14459" lon="5.85178">
        <ele>233</ele>
        <time>2024-05-28T12:34:40Z</time>
      </trkpt>
      <trkpt lat="47.14465" lon="5.85181">
        <ele>233</ele>
        <time>2024-05-28T12:34:41Z</time>
      </trkpt>
      <trkpt lat="47.14472" lon="5.85183">
        <ele>233</ele>
        <time>2024-05-28T12:34:42Z</time>
      </trkpt>
      <trkpt lat="47.14484" lon="5.85189">
        <ele>233</ele>
        <time>2024-05-28T12:34:44Z</time>
      </trkpt>
      <trkpt lat="47.1449" lon="5.85192">
        <ele>233</ele>
        <time>2024-05-28T12:34:45Z</time>
      </trkpt>
      <trkpt lat="47.14495" lon="5.85194">
        <ele>233</ele>
        <time>2024-05-28T12:34:46Z</time>
      </trkpt>
      <trkpt lat="47.14501" lon="5.85197">
        <ele>233</ele>
        <time>2024-05-28T12:34:47Z</time>
      </trkpt>
      <trkpt lat="47.14513" lon="5.85201">
        <ele>233</ele>
        <time>2024-05-28T12:34:49Z</time>
      </trkpt>
      <trkpt lat="47.14519" lon="5.85204">
        <ele>233</ele>
        <time>2024-05-28T12:34:50Z</time>
      </trkpt>
      <trkpt lat="47.14524" lon="5.85206">
        <ele>233</ele>
        <time>2024-05-28T12:34:51Z</time>
      </trkpt>
      <trkpt lat="47.1453" lon="5.85209">
        <ele>233</ele>
        <time>2024-05-28T12:34:52Z</time>
      </trkpt>
      <trkpt lat="47.14536" lon="5.85212">
        <ele>233</ele>
        <time>2024-05-28T12:34:53Z</time>
      </trkpt>
      <trkpt lat="47.1456" lon="5.85226">
        <ele>233</ele>
        <time>2024-05-28T12:34:57Z</time>
      </trkpt>
      <trkpt lat="47.14609" lon="5.8525">
        <ele>232.8</ele>
        <time>2024-05-28T12:35:05Z</time>
      </trkpt>
      <trkpt lat="47.14652" lon="5.85271">
        <ele>232.6</ele>
        <time>2024-05-28T12:35:12Z</time>
      </trkpt>
      <trkpt lat="47.1467" lon="5.85278">
        <ele>232.8</ele>
        <time>2024-05-28T12:35:15Z</time>
      </trkpt>
      <trkpt lat="47.14676" lon="5.85281">
        <ele>232.8</ele>
        <time>2024-05-28T12:35:16Z</time>
      </trkpt>
      <trkpt lat="47.14682" lon="5.85283">
        <ele>232.8</ele>
        <time>2024-05-28T12:35:17Z</time>
      </trkpt>
      <trkpt lat="47.14687" lon="5.85286">
        <ele>232.8</ele>
        <time>2024-05-28T12:35:18Z</time>
      </trkpt>
      <trkpt lat="47.14693" lon="5.85289">
        <ele>232.8</ele>
        <time>2024-05-28T12:35:19Z</time>
      </trkpt>
      <trkpt lat="47.14698" lon="5.85292">
        <ele>232.8</ele>
        <time>2024-05-28T12:35:20Z</time>
      </trkpt>
      <trkpt lat="47.14704" lon="5.85295">
        <ele>232.8</ele>
        <time>2024-05-28T12:35:21Z</time>
      </trkpt>
      <trkpt lat="47.14709" lon="5.85298">
        <ele>232.8</ele>
        <time>2024-05-28T12:35:22Z</time>
      </trkpt>
      <trkpt lat="47.14715" lon="5.85301">
        <ele>232.8</ele>
        <time>2024-05-28T12:35:23Z</time>
      </trkpt>
      <trkpt lat="47.14721" lon="5.85303">
        <ele>232.8</ele>
        <time>2024-05-28T12:35:24Z</time>
      </trkpt>
      <trkpt lat="47.14751" lon="5.85317">
        <ele>232.8</ele>
        <time>2024-05-28T12:35:29Z</time>
      </trkpt>
      <trkpt lat="47.14792" lon="5.85338">
        <ele>232.8</ele>
        <time>2024-05-28T12:35:36Z</time>
      </trkpt>
      <trkpt lat="47.14803" lon="5.85342">
        <ele>232.6</ele>
        <time>2024-05-28T12:35:38Z</time>
      </trkpt>
      <trkpt lat="47.14814" lon="5.85347">
        <ele>232.4</ele>
        <time>2024-05-28T12:35:40Z</time>
      </trkpt>
      <trkpt lat="47.14819" lon="5.8535">
        <ele>232.2</ele>
        <time>2024-05-28T12:35:41Z</time>
      </trkpt>
      <trkpt lat="47.14825" lon="5.85352">
        <ele>232</ele>
        <time>2024-05-28T12:35:42Z</time>
      </trkpt>
      <trkpt lat="47.1483" lon="5.85355">
        <ele>232</ele>
        <time>2024-05-28T12:35:43Z</time>
      </trkpt>
      <trkpt lat="47.14836" lon="5.85358">
        <ele>232</ele>
        <time>2024-05-28T12:35:44Z</time>
      </trkpt>
      <trkpt lat="47.14841" lon="5.8536">
        <ele>232</ele>
        <time>2024-05-28T12:35:45Z</time>
      </trkpt>
      <trkpt lat="47.14891" lon="5.85384">
        <ele>231.8</ele>
        <time>2024-05-28T12:35:54Z</time>
      </trkpt>
      <trkpt lat="47.14943" lon="5.85409">
        <ele>231.8</ele>
        <time>2024-05-28T12:36:03Z</time>
      </trkpt>
      <trkpt lat="47.14993" lon="5.85434">
        <ele>231.8</ele>
        <time>2024-05-28T12:36:11Z</time>
      </trkpt>
      <trkpt lat="47.1503" lon="5.8545">
        <ele>231.8</ele>
        <time>2024-05-28T12:36:17Z</time>
      </trkpt>
      <trkpt lat="47.15036" lon="5.85454">
        <ele>231.8</ele>
        <time>2024-05-28T12:36:18Z</time>
      </trkpt>
      <trkpt lat="47.15053" lon="5.85462">
        <ele>232</ele>
        <time>2024-05-28T12:36:21Z</time>
      </trkpt>
      <trkpt lat="47.15058" lon="5.85465">
        <ele>232</ele>
        <time>2024-05-28T12:36:22Z</time>
      </trkpt>
      <trkpt lat="47.15064" lon="5.85468">
        <ele>232</ele>
        <time>2024-05-28T12:36:23Z</time>
      </trkpt>
      <trkpt lat="47.1507" lon="5.85471">
        <ele>232</ele>
        <time>2024-05-28T12:36:24Z</time>
      </trkpt>
      <trkpt lat="47.15076" lon="5.85473">
        <ele>232</ele>
        <time>2024-05-28T12:36:25Z</time>
      </trkpt>
      <trkpt lat="47.1513" lon="5.85498">
        <ele>232</ele>
        <time>2024-05-28T12:36:34Z</time>
      </trkpt>
      <trkpt lat="47.15136" lon="5.85501">
        <ele>232</ele>
        <time>2024-05-28T12:36:35Z</time>
      </trkpt>
      <trkpt lat="47.15148" lon="5.85507">
        <ele>232</ele>
        <time>2024-05-28T12:36:37Z</time>
      </trkpt>
      <trkpt lat="47.15172" lon="5.85517">
        <ele>232</ele>
        <time>2024-05-28T12:36:41Z</time>
      </trkpt>
      <trkpt lat="47.15214" lon="5.85538">
        <ele>231.8</ele>
        <time>2024-05-28T12:36:48Z</time>
      </trkpt>
      <trkpt lat="47.15225" lon="5.85543">
        <ele>231.8</ele>
        <time>2024-05-28T12:36:50Z</time>
      </trkpt>
      <trkpt lat="47.1523" lon="5.85545">
        <ele>231.8</ele>
        <time>2024-05-28T12:36:51Z</time>
      </trkpt>
      <trkpt lat="47.15235" lon="5.85548">
        <ele>231.8</ele>
        <time>2024-05-28T12:36:52Z</time>
      </trkpt>
      <trkpt lat="47.15239" lon="5.85551">
        <ele>231.8</ele>
        <time>2024-05-28T12:36:53Z</time>
      </trkpt>
      <trkpt lat="47.15244" lon="5.85554">
        <ele>231.8</ele>
        <time>2024-05-28T12:36:54Z</time>
      </trkpt>
      <trkpt lat="47.15288" lon="5.85576">
        <ele>232</ele>
        <time>2024-05-28T12:37:02Z</time>
      </trkpt>
      <trkpt lat="47.15324" lon="5.85592">
        <ele>232</ele>
        <time>2024-05-28T12:37:08Z</time>
      </trkpt>
      <trkpt lat="47.15331" lon="5.85594">
        <ele>232</ele>
        <time>2024-05-28T12:37:09Z</time>
      </trkpt>
      <trkpt lat="47.15383" lon="5.85605">
        <ele>231.8</ele>
        <time>2024-05-28T12:37:17Z</time>
      </trkpt>
      <trkpt lat="47.15429" lon="5.8561">
        <ele>231.6</ele>
        <time>2024-05-28T12:37:24Z</time>
      </trkpt>
      <trkpt lat="47.15453" lon="5.85614">
        <ele>231.4</ele>
        <time>2024-05-28T12:37:28Z</time>
      </trkpt>
      <trkpt lat="47.15459" lon="5.85614">
        <ele>231.2</ele>
        <time>2024-05-28T12:37:29Z</time>
      </trkpt>
      <trkpt lat="47.15464" lon="5.85615">
        <ele>231.2</ele>
        <time>2024-05-28T12:37:30Z</time>
      </trkpt>
      <trkpt lat="47.1547" lon="5.85615">
        <ele>231</ele>
        <time>2024-05-28T12:37:31Z</time>
      </trkpt>
      <trkpt lat="47.15477" lon="5.85615">
        <ele>231</ele>
        <time>2024-05-28T12:37:32Z</time>
      </trkpt>
      <trkpt lat="47.15489" lon="5.85617">
        <ele>231.2</ele>
        <time>2024-05-28T12:37:34Z</time>
      </trkpt>
      <trkpt lat="47.15495" lon="5.85617">
        <ele>230.8</ele>
        <time>2024-05-28T12:37:35Z</time>
      </trkpt>
      <trkpt lat="47.15501" lon="5.85618">
        <ele>230.6</ele>
        <time>2024-05-28T12:37:36Z</time>
      </trkpt>
      <trkpt lat="47.15507" lon="5.85618">
        <ele>230.4</ele>
        <time>2024-05-28T12:37:37Z</time>
      </trkpt>
      <trkpt lat="47.15513" lon="5.85618">
        <ele>230.4</ele>
        <time>2024-05-28T12:37:38Z</time>
      </trkpt>
      <trkpt lat="47.15518" lon="5.85616">
        <ele>230.2</ele>
        <time>2024-05-28T12:37:39Z</time>
      </trkpt>
      <trkpt lat="47.15523" lon="5.85615">
        <ele>230</ele>
        <time>2024-05-28T12:37:40Z</time>
      </trkpt>
      <trkpt lat="47.15539" lon="5.85612">
        <ele>230.2</ele>
        <time>2024-05-28T12:37:43Z</time>
      </trkpt>
      <trkpt lat="47.15545" lon="5.85611">
        <ele>230.4</ele>
        <time>2024-05-28T12:37:44Z</time>
      </trkpt>
      <trkpt lat="47.1555" lon="5.85611">
        <ele>230.4</ele>
        <time>2024-05-28T12:37:45Z</time>
      </trkpt>
      <trkpt lat="47.15555" lon="5.8561">
        <ele>230.4</ele>
        <time>2024-05-28T12:37:46Z</time>
      </trkpt>
      <trkpt lat="47.1556" lon="5.85611">
        <ele>230.6</ele>
        <time>2024-05-28T12:37:47Z</time>
      </trkpt>
      <trkpt lat="47.15564" lon="5.85612">
        <ele>230.6</ele>
        <time>2024-05-28T12:37:48Z</time>
      </trkpt>
      <trkpt lat="47.15568" lon="5.85614">
        <ele>230.8</ele>
        <time>2024-05-28T12:37:49Z</time>
      </trkpt>
      <trkpt lat="47.15572" lon="5.85617">
        <ele>231</ele>
        <time>2024-05-28T12:37:50Z</time>
      </trkpt>
      <trkpt lat="47.15574" lon="5.85622">
        <ele>231</ele>
        <time>2024-05-28T12:37:51Z</time>
      </trkpt>
      <trkpt lat="47.15576" lon="5.85627">
        <ele>231.2</ele>
        <time>2024-05-28T12:37:52Z</time>
      </trkpt>
      <trkpt lat="47.15577" lon="5.85631">
        <ele>231.4</ele>
        <time>2024-05-28T12:37:53Z</time>
      </trkpt>
      <trkpt lat="47.15579" lon="5.85635">
        <ele>231.8</ele>
        <time>2024-05-28T12:37:54Z</time>
      </trkpt>
      <trkpt lat="47.15579" lon="5.85639">
        <ele>232.2</ele>
        <time>2024-05-28T12:37:55Z</time>
      </trkpt>
      <trkpt lat="47.15579" lon="5.85643">
        <ele>232.6</ele>
        <time>2024-05-28T12:37:56Z</time>
      </trkpt>
      <trkpt lat="47.15579" lon="5.85647">
        <ele>233.2</ele>
        <time>2024-05-28T12:37:57Z</time>
      </trkpt>
      <trkpt lat="47.15578" lon="5.85652">
        <ele>233.4</ele>
        <time>2024-05-28T12:37:58Z</time>
      </trkpt>
      <trkpt lat="47.15578" lon="5.85657">
        <ele>233.6</ele>
        <time>2024-05-28T12:37:59Z</time>
      </trkpt>
      <trkpt lat="47.15583" lon="5.85668">
        <ele>234</ele>
        <time>2024-05-28T12:38:01Z</time>
      </trkpt>
      <trkpt lat="47.15588" lon="5.85672">
        <ele>234</ele>
        <time>2024-05-28T12:38:02Z</time>
      </trkpt>
      <trkpt lat="47.15594" lon="5.85675">
        <ele>234</ele>
        <time>2024-05-28T12:38:03Z</time>
      </trkpt>
      <trkpt lat="47.156" lon="5.85676">
        <ele>234</ele>
        <time>2024-05-28T12:38:04Z</time>
      </trkpt>
      <trkpt lat="47.15606" lon="5.85675">
        <ele>234</ele>
        <time>2024-05-28T12:38:05Z</time>
      </trkpt>
      <trkpt lat="47.15612" lon="5.8567">
        <ele>233.8</ele>
        <time>2024-05-28T12:38:06Z</time>
      </trkpt>
      <trkpt lat="47.15617" lon="5.85665">
        <ele>233.8</ele>
        <time>2024-05-28T12:38:07Z</time>
      </trkpt>
      <trkpt lat="47.15623" lon="5.8566">
        <ele>233.4</ele>
        <time>2024-05-28T12:38:08Z</time>
      </trkpt>
      <trkpt lat="47.15629" lon="5.85657">
        <ele>233.4</ele>
        <time>2024-05-28T12:38:09Z</time>
      </trkpt>
      <trkpt lat="47.15635" lon="5.85656">
        <ele>232.8</ele>
        <time>2024-05-28T12:38:10Z</time>
      </trkpt>
      <trkpt lat="47.15642" lon="5.85654">
        <ele>232.6</ele>
        <time>2024-05-28T12:38:11Z</time>
      </trkpt>
      <trkpt lat="47.15648" lon="5.85653">
        <ele>232.4</ele>
        <time>2024-05-28T12:38:12Z</time>
      </trkpt>
      <trkpt lat="47.15655" lon="5.85653">
        <ele>232.2</ele>
        <time>2024-05-28T12:38:13Z</time>
      </trkpt>
      <trkpt lat="47.15661" lon="5.85652">
        <ele>232</ele>
        <time>2024-05-28T12:38:14Z</time>
      </trkpt>
      <trkpt lat="47.15706" lon="5.8564">
        <ele>231.6</ele>
        <time>2024-05-28T12:38:21Z</time>
      </trkpt>
      <trkpt lat="47.15743" lon="5.85626">
        <ele>231.6</ele>
        <time>2024-05-28T12:38:27Z</time>
      </trkpt>
      <trkpt lat="47.15769" lon="5.85615">
        <ele>231.4</ele>
        <time>2024-05-28T12:38:31Z</time>
      </trkpt>
      <trkpt lat="47.15818" lon="5.85587">
        <ele>231.4</ele>
        <time>2024-05-28T12:38:39Z</time>
      </trkpt>
      <trkpt lat="47.15869" lon="5.85548">
        <ele>231.2</ele>
        <time>2024-05-28T12:38:48Z</time>
      </trkpt>
      <trkpt lat="47.15875" lon="5.85544">
        <ele>231.2</ele>
        <time>2024-05-28T12:38:49Z</time>
      </trkpt>
      <trkpt lat="47.15881" lon="5.85539">
        <ele>231.4</ele>
        <time>2024-05-28T12:38:50Z</time>
      </trkpt>
      <trkpt lat="47.15886" lon="5.85535">
        <ele>231.4</ele>
        <time>2024-05-28T12:38:51Z</time>
      </trkpt>
      <trkpt lat="47.15891" lon="5.85531">
        <ele>231.4</ele>
        <time>2024-05-28T12:38:52Z</time>
      </trkpt>
      <trkpt lat="47.15897" lon="5.85526">
        <ele>231.4</ele>
        <time>2024-05-28T12:38:53Z</time>
      </trkpt>
      <trkpt lat="47.15902" lon="5.85521">
        <ele>231.4</ele>
        <time>2024-05-28T12:38:54Z</time>
      </trkpt>
      <trkpt lat="47.15913" lon="5.85512">
        <ele>231.4</ele>
        <time>2024-05-28T12:38:56Z</time>
      </trkpt>
      <trkpt lat="47.15918" lon="5.85508">
        <ele>231.4</ele>
        <time>2024-05-28T12:38:57Z</time>
      </trkpt>
      <trkpt lat="47.15929" lon="5.85498">
        <ele>231.4</ele>
        <time>2024-05-28T12:38:59Z</time>
      </trkpt>
      <trkpt lat="47.1594" lon="5.85489">
        <ele>231.2</ele>
        <time>2024-05-28T12:39:01Z</time>
      </trkpt>
      <trkpt lat="47.15945" lon="5.85485">
        <ele>231.2</ele>
        <time>2024-05-28T12:39:02Z</time>
      </trkpt>
      <trkpt lat="47.15961" lon="5.85473">
        <ele>231.2</ele>
        <time>2024-05-28T12:39:05Z</time>
      </trkpt>
      <trkpt lat="47.16011" lon="5.85433">
        <ele>231.2</ele>
        <time>2024-05-28T12:39:14Z</time>
      </trkpt>
      <trkpt lat="47.16017" lon="5.85429">
        <ele>231.2</ele>
        <time>2024-05-28T12:39:15Z</time>
      </trkpt>
      <trkpt lat="47.16055" lon="5.85398">
        <ele>231.2</ele>
        <time>2024-05-28T12:39:22Z</time>
      </trkpt>
      <trkpt lat="47.16105" lon="5.85358">
        <ele>231</ele>
        <time>2024-05-28T12:39:31Z</time>
      </trkpt>
      <trkpt lat="47.16157" lon="5.85317">
        <ele>230.8</ele>
        <time>2024-05-28T12:39:40Z</time>
      </trkpt>
      <trkpt lat="47.16163" lon="5.85313">
        <ele>230.8</ele>
        <time>2024-05-28T12:39:41Z</time>
      </trkpt>
      <trkpt lat="47.16208" lon="5.85276">
        <ele>230.8</ele>
        <time>2024-05-28T12:39:49Z</time>
      </trkpt>
      <trkpt lat="47.16259" lon="5.85234">
        <ele>230.6</ele>
        <time>2024-05-28T12:39:58Z</time>
      </trkpt>
      <trkpt lat="47.16265" lon="5.85229">
        <ele>230.6</ele>
        <time>2024-05-28T12:39:59Z</time>
      </trkpt>
      <trkpt lat="47.16276" lon="5.8522">
        <ele>230.6</ele>
        <time>2024-05-28T12:40:02Z</time>
      </trkpt>
      <trkpt lat="47.16287" lon="5.85209">
        <ele>230.6</ele>
        <time>2024-05-28T12:40:03Z</time>
      </trkpt>
      <trkpt lat="47.16293" lon="5.85203">
        <ele>230.6</ele>
        <time>2024-05-28T12:40:04Z</time>
      </trkpt>
      <trkpt lat="47.16304" lon="5.85193">
        <ele>230.6</ele>
        <time>2024-05-28T12:40:06Z</time>
      </trkpt>
      <trkpt lat="47.16315" lon="5.85182">
        <ele>230.6</ele>
        <time>2024-05-28T12:40:08Z</time>
      </trkpt>
      <trkpt lat="47.1632" lon="5.85176">
        <ele>230.6</ele>
        <time>2024-05-28T12:40:09Z</time>
      </trkpt>
      <trkpt lat="47.16352" lon="5.8514">
        <ele>230.6</ele>
        <time>2024-05-28T12:40:15Z</time>
      </trkpt>
      <trkpt lat="47.16397" lon="5.85082">
        <ele>230.6</ele>
        <time>2024-05-28T12:40:24Z</time>
      </trkpt>
      <trkpt lat="47.16412" lon="5.85063">
        <ele>230.6</ele>
        <time>2024-05-28T12:40:27Z</time>
      </trkpt>
      <trkpt lat="47.16421" lon="5.85049">
        <ele>230.6</ele>
        <time>2024-05-28T12:40:29Z</time>
      </trkpt>
      <trkpt lat="47.16425" lon="5.85042">
        <ele>230.6</ele>
        <time>2024-05-28T12:40:30Z</time>
      </trkpt>
      <trkpt lat="47.16434" lon="5.85027">
        <ele>230.6</ele>
        <time>2024-05-28T12:40:32Z</time>
      </trkpt>
      <trkpt lat="47.16438" lon="5.8502">
        <ele>230.4</ele>
        <time>2024-05-28T12:40:33Z</time>
      </trkpt>
      <trkpt lat="47.16443" lon="5.85013">
        <ele>230.4</ele>
        <time>2024-05-28T12:40:34Z</time>
      </trkpt>
      <trkpt lat="47.16447" lon="5.85006">
        <ele>230.4</ele>
        <time>2024-05-28T12:40:35Z</time>
      </trkpt>
      <trkpt lat="47.16451" lon="5.84998">
        <ele>230.4</ele>
        <time>2024-05-28T12:40:36Z</time>
      </trkpt>
      <trkpt lat="47.16459" lon="5.84984">
        <ele>230.2</ele>
        <time>2024-05-28T12:40:38Z</time>
      </trkpt>
      <trkpt lat="47.16476" lon="5.84955">
        <ele>230</ele>
        <time>2024-05-28T12:40:42Z</time>
      </trkpt>
      <trkpt lat="47.16489" lon="5.84923">
        <ele>229.8</ele>
        <time>2024-05-28T12:40:46Z</time>
      </trkpt>
      <trkpt lat="47.16493" lon="5.84916">
        <ele>229.8</ele>
        <time>2024-05-28T12:40:47Z</time>
      </trkpt>
      <trkpt lat="47.16496" lon="5.84908">
        <ele>229.8</ele>
        <time>2024-05-28T12:40:48Z</time>
      </trkpt>
      <trkpt lat="47.16499" lon="5.84901">
        <ele>229.8</ele>
        <time>2024-05-28T12:40:49Z</time>
      </trkpt>
      <trkpt lat="47.16502" lon="5.84893">
        <ele>229.6</ele>
        <time>2024-05-28T12:40:50Z</time>
      </trkpt>
      <trkpt lat="47.16506" lon="5.84885">
        <ele>229.6</ele>
        <time>2024-05-28T12:40:51Z</time>
      </trkpt>
      <trkpt lat="47.16519" lon="5.84854">
        <ele>229.6</ele>
        <time>2024-05-28T12:40:55Z</time>
      </trkpt>
      <trkpt lat="47.16539" lon="5.84798">
        <ele>229.4</ele>
        <time>2024-05-28T12:41:02Z</time>
      </trkpt>
      <trkpt lat="47.16553" lon="5.84758">
        <ele>229.4</ele>
        <time>2024-05-28T12:41:07Z</time>
      </trkpt>
      <trkpt lat="47.16556" lon="5.8475">
        <ele>229.6</ele>
        <time>2024-05-28T12:41:08Z</time>
      </trkpt>
      <trkpt lat="47.16558" lon="5.84742">
        <ele>229.4</ele>
        <time>2024-05-28T12:41:09Z</time>
      </trkpt>
      <trkpt lat="47.1656" lon="5.84734">
        <ele>229.4</ele>
        <time>2024-05-28T12:41:10Z</time>
      </trkpt>
      <trkpt lat="47.16565" lon="5.84717">
        <ele>229.6</ele>
        <time>2024-05-28T12:41:12Z</time>
      </trkpt>
      <trkpt lat="47.16572" lon="5.84692">
        <ele>229.6</ele>
        <time>2024-05-28T12:41:15Z</time>
      </trkpt>
      <trkpt lat="47.16574" lon="5.84683">
        <ele>229.4</ele>
        <time>2024-05-28T12:41:16Z</time>
      </trkpt>
      <trkpt lat="47.16584" lon="5.8464">
        <ele>229.4</ele>
        <time>2024-05-28T12:41:21Z</time>
      </trkpt>
      <trkpt lat="47.16586" lon="5.84631">
        <ele>229.4</ele>
        <time>2024-05-28T12:41:22Z</time>
      </trkpt>
      <trkpt lat="47.16596" lon="5.84578">
        <ele>229.4</ele>
        <time>2024-05-28T12:41:28Z</time>
      </trkpt>
      <trkpt lat="47.16598" lon="5.84571">
        <ele>229.4</ele>
        <time>2024-05-28T12:41:29Z</time>
      </trkpt>
      <trkpt lat="47.16599" lon="5.84563">
        <ele>229.4</ele>
        <time>2024-05-28T12:41:30Z</time>
      </trkpt>
      <trkpt lat="47.16601" lon="5.84556">
        <ele>229.4</ele>
        <time>2024-05-28T12:41:31Z</time>
      </trkpt>
      <trkpt lat="47.16602" lon="5.84548">
        <ele>229.4</ele>
        <time>2024-05-28T12:41:32Z</time>
      </trkpt>
      <trkpt lat="47.16604" lon="5.84539">
        <ele>229.4</ele>
        <time>2024-05-28T12:41:33Z</time>
      </trkpt>
      <trkpt lat="47.16607" lon="5.84522">
        <ele>229.4</ele>
        <time>2024-05-28T12:41:35Z</time>
      </trkpt>
      <trkpt lat="47.16611" lon="5.84507">
        <ele>229.4</ele>
        <time>2024-05-28T12:41:37Z</time>
      </trkpt>
      <trkpt lat="47.16612" lon="5.84499">
        <ele>229.4</ele>
        <time>2024-05-28T12:41:38Z</time>
      </trkpt>
      <trkpt lat="47.16613" lon="5.84492">
        <ele>229.4</ele>
        <time>2024-05-28T12:41:39Z</time>
      </trkpt>
      <trkpt lat="47.16614" lon="5.84485">
        <ele>229.4</ele>
        <time>2024-05-28T12:41:40Z</time>
      </trkpt>
      <trkpt lat="47.16616" lon="5.8448">
        <ele>229.4</ele>
        <time>2024-05-28T12:41:41Z</time>
      </trkpt>
      <trkpt lat="47.16618" lon="5.84476">
        <ele>229.4</ele>
        <time>2024-05-28T12:41:42Z</time>
      </trkpt>
      <trkpt lat="47.16619" lon="5.84475">
        <ele>229.4</ele>
        <time>2024-05-28T12:41:43Z</time>
      </trkpt>
      <trkpt lat="47.1662" lon="5.84475">
        <ele>229.4</ele>
        <time>2024-05-28T12:41:44Z</time>
      </trkpt>
      <trkpt lat="47.1662" lon="5.84475">
        <ele>229.2</ele>
        <time>2024-05-28T12:41:45Z</time>
      </trkpt>
    </trkseg>
  </trk>
</gpx>